<?xml version="1.0" encoding="UTF-8" standalone="no" ?>
<gpx xmlns="http://www.topografix.com/GPX/1/1" xmlns:xsi="http://www.w3.org/2001/XMLSchema-instance" xsi:schemaLocation="http://www.topografix.com/GPX/1/1 http://www.topografix.com/GPX/1/1/gpx.xsd" version="1.1" creator="VisuGPX - https://www.visugpx.com">
  <metadata>
    <name>Pornichet 27/09/2020</name>
    <desc><![CDATA[Sortie VTT du dimanche 27 septembre 2020]]></desc>
  </metadata>
  <trk>
    <name><![CDATA[Pornichet Cyclisme]]></name>
    <trkseg>
      <trkpt lat="47.26416" lon="-2.31554">
        <ele>10</ele>
        <time>2020-09-27T06:57:33.000Z</time>
      </trkpt>
      <trkpt lat="47.26415" lon="-2.31554">
        <ele>10</ele>
        <time>2020-09-27T06:57:35.000Z</time>
      </trkpt>
      <trkpt lat="47.26412" lon="-2.31554">
        <ele>2.7999999523163</ele>
        <time>2020-09-27T06:57:55.000Z</time>
      </trkpt>
      <trkpt lat="47.2641" lon="-2.31557">
        <ele>2.7999999523163</ele>
        <time>2020-09-27T06:57:56.000Z</time>
      </trkpt>
      <trkpt lat="47.26407" lon="-2.31577">
        <ele>2.7999999523163</ele>
        <time>2020-09-27T06:58:00.000Z</time>
      </trkpt>
      <trkpt lat="47.26406" lon="-2.31619">
        <ele>2.7999999523163</ele>
        <time>2020-09-27T06:58:07.000Z</time>
      </trkpt>
      <trkpt lat="47.26408" lon="-2.31645">
        <ele>2.7999999523163</ele>
        <time>2020-09-27T06:58:11.000Z</time>
      </trkpt>
      <trkpt lat="47.26408" lon="-2.31657">
        <ele>2.7999999523163</ele>
        <time>2020-09-27T06:58:13.000Z</time>
      </trkpt>
      <trkpt lat="47.26408" lon="-2.31663">
        <ele>2.7999999523163</ele>
        <time>2020-09-27T06:58:14.000Z</time>
      </trkpt>
      <trkpt lat="47.26399" lon="-2.3167">
        <ele>2.7999999523163</ele>
        <time>2020-09-27T06:58:17.000Z</time>
      </trkpt>
      <trkpt lat="47.26387" lon="-2.31674">
        <ele>1.7999999523163</ele>
        <time>2020-09-27T06:58:20.000Z</time>
      </trkpt>
      <trkpt lat="47.26382" lon="-2.31677">
        <ele>1</ele>
        <time>2020-09-27T06:58:21.000Z</time>
      </trkpt>
      <trkpt lat="47.26378" lon="-2.31679">
        <ele>7.6</ele>
        <time>2020-09-27T06:58:22.000Z</time>
      </trkpt>
      <trkpt lat="47.26373" lon="-2.31682">
        <ele>-1</ele>
        <time>2020-09-27T06:58:23.000Z</time>
      </trkpt>
      <trkpt lat="47.26369" lon="-2.31684">
        <ele>-2</ele>
        <time>2020-09-27T06:58:24.000Z</time>
      </trkpt>
      <trkpt lat="47.26345" lon="-2.31699">
        <ele>-2</ele>
        <time>2020-09-27T06:58:29.000Z</time>
      </trkpt>
      <trkpt lat="47.26316" lon="-2.31713">
        <ele>-2</ele>
        <time>2020-09-27T06:58:34.000Z</time>
      </trkpt>
      <trkpt lat="47.26306" lon="-2.31718">
        <ele>-2.4000000953674</ele>
        <time>2020-09-27T06:58:36.000Z</time>
      </trkpt>
      <trkpt lat="47.26302" lon="-2.31722">
        <ele>-2.7999999523163</ele>
        <time>2020-09-27T06:58:37.000Z</time>
      </trkpt>
      <trkpt lat="47.263" lon="-2.31727">
        <ele>-3.4000000953674</ele>
        <time>2020-09-27T06:58:38.000Z</time>
      </trkpt>
      <trkpt lat="47.26299" lon="-2.31733">
        <ele>-3.7999999523163</ele>
        <time>2020-09-27T06:58:39.000Z</time>
      </trkpt>
      <trkpt lat="47.26299" lon="-2.31738">
        <ele>-4.1999998092651</ele>
        <time>2020-09-27T06:58:40.000Z</time>
      </trkpt>
      <trkpt lat="47.263" lon="-2.31743">
        <ele>-4.1999998092651</ele>
        <time>2020-09-27T06:58:41.000Z</time>
      </trkpt>
      <trkpt lat="47.263" lon="-2.31748">
        <ele>-4.1999998092651</ele>
        <time>2020-09-27T06:58:42.000Z</time>
      </trkpt>
      <trkpt lat="47.26305" lon="-2.31786">
        <ele>-4.1999998092651</ele>
        <time>2020-09-27T06:58:48.000Z</time>
      </trkpt>
      <trkpt lat="47.26305" lon="-2.31806">
        <ele>-4.1999998092651</ele>
        <time>2020-09-27T06:58:51.000Z</time>
      </trkpt>
      <trkpt lat="47.26303" lon="-2.31827">
        <ele>-4.1999998092651</ele>
        <time>2020-09-27T06:58:54.000Z</time>
      </trkpt>
      <trkpt lat="47.26298" lon="-2.31868">
        <ele>-4.1999998092651</ele>
        <time>2020-09-27T06:59:00.000Z</time>
      </trkpt>
      <trkpt lat="47.26294" lon="-2.31885">
        <ele>-4.1999998092651</ele>
        <time>2020-09-27T06:59:03.000Z</time>
      </trkpt>
      <trkpt lat="47.26291" lon="-2.31888">
        <ele>-4.1999998092651</ele>
        <time>2020-09-27T06:59:04.000Z</time>
      </trkpt>
      <trkpt lat="47.26288" lon="-2.31891">
        <ele>-4.5999999046326</ele>
        <time>2020-09-27T06:59:05.000Z</time>
      </trkpt>
      <trkpt lat="47.26284" lon="-2.31895">
        <ele>-5</ele>
        <time>2020-09-27T06:59:06.000Z</time>
      </trkpt>
      <trkpt lat="47.26281" lon="-2.31898">
        <ele>-5.4000000953674</ele>
        <time>2020-09-27T06:59:07.000Z</time>
      </trkpt>
      <trkpt lat="47.26278" lon="-2.31903">
        <ele>-5.8000001907349</ele>
        <time>2020-09-27T06:59:08.000Z</time>
      </trkpt>
      <trkpt lat="47.26274" lon="-2.31908">
        <ele>-6.1999998092651</ele>
        <time>2020-09-27T06:59:09.000Z</time>
      </trkpt>
      <trkpt lat="47.26271" lon="-2.31913">
        <ele>-6.1999998092651</ele>
        <time>2020-09-27T06:59:10.000Z</time>
      </trkpt>
      <trkpt lat="47.26258" lon="-2.31938">
        <ele>-6.1999998092651</ele>
        <time>2020-09-27T06:59:15.000Z</time>
      </trkpt>
      <trkpt lat="47.26249" lon="-2.31966">
        <ele>-6.1999998092651</ele>
        <time>2020-09-27T06:59:20.000Z</time>
      </trkpt>
      <trkpt lat="47.26243" lon="-2.31972">
        <ele>-6.1999998092651</ele>
        <time>2020-09-27T06:59:22.000Z</time>
      </trkpt>
      <trkpt lat="47.2624" lon="-2.31972">
        <ele>-6.1999998092651</ele>
        <time>2020-09-27T06:59:23.000Z</time>
      </trkpt>
      <trkpt lat="47.26231" lon="-2.31979">
        <ele>-6.1999998092651</ele>
        <time>2020-09-27T06:59:27.000Z</time>
      </trkpt>
      <trkpt lat="47.2622" lon="-2.31989">
        <ele>-6.1999998092651</ele>
        <time>2020-09-27T06:59:31.000Z</time>
      </trkpt>
      <trkpt lat="47.26207" lon="-2.32">
        <ele>-6.1999998092651</ele>
        <time>2020-09-27T06:59:36.000Z</time>
      </trkpt>
      <trkpt lat="47.26205" lon="-2.32007">
        <ele>-6.1999998092651</ele>
        <time>2020-09-27T06:59:38.000Z</time>
      </trkpt>
      <trkpt lat="47.26201" lon="-2.32013">
        <ele>-6.1999998092651</ele>
        <time>2020-09-27T06:59:41.000Z</time>
      </trkpt>
      <trkpt lat="47.26189" lon="-2.32014">
        <ele>-6.1999998092651</ele>
        <time>2020-09-27T06:59:47.000Z</time>
      </trkpt>
      <trkpt lat="47.26174" lon="-2.32024">
        <ele>-6.1999998092651</ele>
        <time>2020-09-27T06:59:51.000Z</time>
      </trkpt>
      <trkpt lat="47.2617" lon="-2.32029">
        <ele>-6.1999998092651</ele>
        <time>2020-09-27T06:59:52.000Z</time>
      </trkpt>
      <trkpt lat="47.26163" lon="-2.32041">
        <ele>-6.1999998092651</ele>
        <time>2020-09-27T06:59:54.000Z</time>
      </trkpt>
      <trkpt lat="47.26158" lon="-2.32055">
        <ele>-6.1999998092651</ele>
        <time>2020-09-27T06:59:56.000Z</time>
      </trkpt>
      <trkpt lat="47.26147" lon="-2.3208">
        <ele>-6.1999998092651</ele>
        <time>2020-09-27T07:00:00.000Z</time>
      </trkpt>
      <trkpt lat="47.26145" lon="-2.32086">
        <ele>-6.1999998092651</ele>
        <time>2020-09-27T07:00:01.000Z</time>
      </trkpt>
      <trkpt lat="47.2614" lon="-2.32099">
        <ele>-6.1999998092651</ele>
        <time>2020-09-27T07:00:03.000Z</time>
      </trkpt>
      <trkpt lat="47.26131" lon="-2.32131">
        <ele>-6.1999998092651</ele>
        <time>2020-09-27T07:00:08.000Z</time>
      </trkpt>
      <trkpt lat="47.26118" lon="-2.32166">
        <ele>-6.1999998092651</ele>
        <time>2020-09-27T07:00:14.000Z</time>
      </trkpt>
      <trkpt lat="47.261" lon="-2.32206">
        <ele>-6.1999998092651</ele>
        <time>2020-09-27T07:00:21.000Z</time>
      </trkpt>
      <trkpt lat="47.26079" lon="-2.32237">
        <ele>-6.1999998092651</ele>
        <time>2020-09-27T07:00:27.000Z</time>
      </trkpt>
      <trkpt lat="47.26069" lon="-2.32248">
        <ele>-6.1999998092651</ele>
        <time>2020-09-27T07:00:30.000Z</time>
      </trkpt>
      <trkpt lat="47.26061" lon="-2.32256">
        <ele>-6.1999998092651</ele>
        <time>2020-09-27T07:00:32.000Z</time>
      </trkpt>
      <trkpt lat="47.2603" lon="-2.32294">
        <ele>-6.1999998092651</ele>
        <time>2020-09-27T07:00:40.000Z</time>
      </trkpt>
      <trkpt lat="47.26007" lon="-2.32319">
        <ele>-6.1999998092651</ele>
        <time>2020-09-27T07:00:46.000Z</time>
      </trkpt>
      <trkpt lat="47.26003" lon="-2.32324">
        <ele>-6.1999998092651</ele>
        <time>2020-09-27T07:00:47.000Z</time>
      </trkpt>
      <trkpt lat="47.25973" lon="-2.32362">
        <ele>-6.1999998092651</ele>
        <time>2020-09-27T07:00:55.000Z</time>
      </trkpt>
      <trkpt lat="47.25962" lon="-2.32377">
        <ele>-6.1999998092651</ele>
        <time>2020-09-27T07:00:58.000Z</time>
      </trkpt>
      <trkpt lat="47.25952" lon="-2.32391">
        <ele>-6.1999998092651</ele>
        <time>2020-09-27T07:01:01.000Z</time>
      </trkpt>
      <trkpt lat="47.25927" lon="-2.32424">
        <ele>-6.1999998092651</ele>
        <time>2020-09-27T07:01:08.000Z</time>
      </trkpt>
      <trkpt lat="47.25906" lon="-2.32449">
        <ele>-6.1999998092651</ele>
        <time>2020-09-27T07:01:14.000Z</time>
      </trkpt>
      <trkpt lat="47.25903" lon="-2.32453">
        <ele>-6.1999998092651</ele>
        <time>2020-09-27T07:01:15.000Z</time>
      </trkpt>
      <trkpt lat="47.2589" lon="-2.32468">
        <ele>-6.1999998092651</ele>
        <time>2020-09-27T07:01:19.000Z</time>
      </trkpt>
      <trkpt lat="47.25886" lon="-2.3247">
        <ele>-6.1999998092651</ele>
        <time>2020-09-27T07:01:20.000Z</time>
      </trkpt>
      <trkpt lat="47.25873" lon="-2.32474">
        <ele>-6.1999998092651</ele>
        <time>2020-09-27T07:01:23.000Z</time>
      </trkpt>
      <trkpt lat="47.25869" lon="-2.32474">
        <ele>-6.1999998092651</ele>
        <time>2020-09-27T07:01:24.000Z</time>
      </trkpt>
      <trkpt lat="47.25864" lon="-2.32475">
        <ele>-6.1999998092651</ele>
        <time>2020-09-27T07:01:25.000Z</time>
      </trkpt>
      <trkpt lat="47.25835" lon="-2.32468">
        <ele>-6.1999998092651</ele>
        <time>2020-09-27T07:01:31.000Z</time>
      </trkpt>
      <trkpt lat="47.25803" lon="-2.32455">
        <ele>-6.1999998092651</ele>
        <time>2020-09-27T07:01:38.000Z</time>
      </trkpt>
      <trkpt lat="47.25798" lon="-2.32455">
        <ele>-6.1999998092651</ele>
        <time>2020-09-27T07:01:39.000Z</time>
      </trkpt>
      <trkpt lat="47.25782" lon="-2.32453">
        <ele>-6.1999998092651</ele>
        <time>2020-09-27T07:01:43.000Z</time>
      </trkpt>
      <trkpt lat="47.25779" lon="-2.32449">
        <ele>-6.1999998092651</ele>
        <time>2020-09-27T07:01:44.000Z</time>
      </trkpt>
      <trkpt lat="47.25771" lon="-2.32434">
        <ele>-6.1999998092651</ele>
        <time>2020-09-27T07:01:47.000Z</time>
      </trkpt>
      <trkpt lat="47.25768" lon="-2.3243">
        <ele>-6.1999998092651</ele>
        <time>2020-09-27T07:01:48.000Z</time>
      </trkpt>
      <trkpt lat="47.25754" lon="-2.32426">
        <ele>-6.1999998092651</ele>
        <time>2020-09-27T07:01:51.000Z</time>
      </trkpt>
      <trkpt lat="47.25749" lon="-2.32426">
        <ele>-6.1999998092651</ele>
        <time>2020-09-27T07:01:52.000Z</time>
      </trkpt>
      <trkpt lat="47.25716" lon="-2.32425">
        <ele>-6.1999998092651</ele>
        <time>2020-09-27T07:01:58.000Z</time>
      </trkpt>
      <trkpt lat="47.25675" lon="-2.32422">
        <ele>-6.1999998092651</ele>
        <time>2020-09-27T07:02:06.000Z</time>
      </trkpt>
      <trkpt lat="47.2567" lon="-2.32423">
        <ele>-6.1999998092651</ele>
        <time>2020-09-27T07:02:07.000Z</time>
      </trkpt>
      <trkpt lat="47.25661" lon="-2.32436">
        <ele>-6.1999998092651</ele>
        <time>2020-09-27T07:02:10.000Z</time>
      </trkpt>
      <trkpt lat="47.25662" lon="-2.32442">
        <ele>-5.8000001907349</ele>
        <time>2020-09-27T07:02:11.000Z</time>
      </trkpt>
      <trkpt lat="47.25663" lon="-2.32449">
        <ele>-5.4000000953674</ele>
        <time>2020-09-27T07:02:12.000Z</time>
      </trkpt>
      <trkpt lat="47.25665" lon="-2.32455">
        <ele>-5</ele>
        <time>2020-09-27T07:02:13.000Z</time>
      </trkpt>
      <trkpt lat="47.25667" lon="-2.32461">
        <ele>-4.5999999046326</ele>
        <time>2020-09-27T07:02:14.000Z</time>
      </trkpt>
      <trkpt lat="47.25668" lon="-2.32467">
        <ele>-4.1999998092651</ele>
        <time>2020-09-27T07:02:15.000Z</time>
      </trkpt>
      <trkpt lat="47.25677" lon="-2.32495">
        <ele>-4.1999998092651</ele>
        <time>2020-09-27T07:02:20.000Z</time>
      </trkpt>
      <trkpt lat="47.25686" lon="-2.32523">
        <ele>-3.7999999523163</ele>
        <time>2020-09-27T07:02:25.000Z</time>
      </trkpt>
      <trkpt lat="47.25688" lon="-2.32528">
        <ele>-3.4000000953674</ele>
        <time>2020-09-27T07:02:26.000Z</time>
      </trkpt>
      <trkpt lat="47.2569" lon="-2.32534">
        <ele>-3</ele>
        <time>2020-09-27T07:02:27.000Z</time>
      </trkpt>
      <trkpt lat="47.25691" lon="-2.32539">
        <ele>-2.5999999046326</ele>
        <time>2020-09-27T07:02:28.000Z</time>
      </trkpt>
      <trkpt lat="47.25693" lon="-2.32544">
        <ele>-2.2000000476837</ele>
        <time>2020-09-27T07:02:29.000Z</time>
      </trkpt>
      <trkpt lat="47.25699" lon="-2.32564">
        <ele>-1.6000000238419</ele>
        <time>2020-09-27T07:02:33.000Z</time>
      </trkpt>
      <trkpt lat="47.25701" lon="-2.32569">
        <ele>-1.2000000476837</ele>
        <time>2020-09-27T07:02:34.000Z</time>
      </trkpt>
      <trkpt lat="47.25702" lon="-2.32574">
        <ele>-0.80000001192093</ele>
        <time>2020-09-27T07:02:35.000Z</time>
      </trkpt>
      <trkpt lat="47.25704" lon="-2.32579">
        <ele>-0.40000000596046</ele>
        <time>2020-09-27T07:02:36.000Z</time>
      </trkpt>
      <trkpt lat="47.25705" lon="-2.32584">
        <ele>9.6</ele>
        <time>2020-09-27T07:02:37.000Z</time>
      </trkpt>
      <trkpt lat="47.2571" lon="-2.32618">
        <ele>9.4</ele>
        <time>2020-09-27T07:02:43.000Z</time>
      </trkpt>
      <trkpt lat="47.25708" lon="-2.32623">
        <ele>9.5</ele>
        <time>2020-09-27T07:02:44.000Z</time>
      </trkpt>
      <trkpt lat="47.25701" lon="-2.32628">
        <ele>9.8</ele>
        <time>2020-09-27T07:02:46.000Z</time>
      </trkpt>
      <trkpt lat="47.25689" lon="-2.32632">
        <ele>10.2</ele>
        <time>2020-09-27T07:02:49.000Z</time>
      </trkpt>
      <trkpt lat="47.25677" lon="-2.32637">
        <ele>10.6</ele>
        <time>2020-09-27T07:02:52.000Z</time>
      </trkpt>
      <trkpt lat="47.25651" lon="-2.32648">
        <ele>11.8</ele>
        <time>2020-09-27T07:02:59.000Z</time>
      </trkpt>
      <trkpt lat="47.25632" lon="-2.32657">
        <ele>0.40000000596046</ele>
        <time>2020-09-27T07:03:04.000Z</time>
      </trkpt>
      <trkpt lat="47.25628" lon="-2.32658">
        <ele>0.80000001192093</ele>
        <time>2020-09-27T07:03:05.000Z</time>
      </trkpt>
      <trkpt lat="47.25625" lon="-2.3266">
        <ele>1.2000000476837</ele>
        <time>2020-09-27T07:03:06.000Z</time>
      </trkpt>
      <trkpt lat="47.25621" lon="-2.32661">
        <ele>1.6000000238419</ele>
        <time>2020-09-27T07:03:07.000Z</time>
      </trkpt>
      <trkpt lat="47.25617" lon="-2.32662">
        <ele>2</ele>
        <time>2020-09-27T07:03:08.000Z</time>
      </trkpt>
      <trkpt lat="47.25594" lon="-2.32671">
        <ele>2</ele>
        <time>2020-09-27T07:03:14.000Z</time>
      </trkpt>
      <trkpt lat="47.25562" lon="-2.32684">
        <ele>2</ele>
        <time>2020-09-27T07:03:22.000Z</time>
      </trkpt>
      <trkpt lat="47.2553" lon="-2.32698">
        <ele>2</ele>
        <time>2020-09-27T07:03:29.000Z</time>
      </trkpt>
      <trkpt lat="47.25525" lon="-2.32699">
        <ele>2</ele>
        <time>2020-09-27T07:03:30.000Z</time>
      </trkpt>
      <trkpt lat="47.25506" lon="-2.32701">
        <ele>2</ele>
        <time>2020-09-27T07:03:34.000Z</time>
      </trkpt>
      <trkpt lat="47.25483" lon="-2.32707">
        <ele>2</ele>
        <time>2020-09-27T07:03:39.000Z</time>
      </trkpt>
      <trkpt lat="47.25478" lon="-2.3271">
        <ele>2</ele>
        <time>2020-09-27T07:03:40.000Z</time>
      </trkpt>
      <trkpt lat="47.25459" lon="-2.32734">
        <ele>2</ele>
        <time>2020-09-27T07:03:45.000Z</time>
      </trkpt>
      <trkpt lat="47.25438" lon="-2.32767">
        <ele>2</ele>
        <time>2020-09-27T07:03:51.000Z</time>
      </trkpt>
      <trkpt lat="47.25435" lon="-2.32773">
        <ele>2</ele>
        <time>2020-09-27T07:03:52.000Z</time>
      </trkpt>
      <trkpt lat="47.25429" lon="-2.32791">
        <ele>2</ele>
        <time>2020-09-27T07:03:55.000Z</time>
      </trkpt>
      <trkpt lat="47.25411" lon="-2.32817">
        <ele>2</ele>
        <time>2020-09-27T07:04:00.000Z</time>
      </trkpt>
      <trkpt lat="47.25377" lon="-2.32859">
        <ele>2</ele>
        <time>2020-09-27T07:04:08.000Z</time>
      </trkpt>
      <trkpt lat="47.25342" lon="-2.32893">
        <ele>2</ele>
        <time>2020-09-27T07:04:16.000Z</time>
      </trkpt>
      <trkpt lat="47.25316" lon="-2.32918">
        <ele>2</ele>
        <time>2020-09-27T07:04:22.000Z</time>
      </trkpt>
      <trkpt lat="47.25309" lon="-2.32926">
        <ele>2</ele>
        <time>2020-09-27T07:04:24.000Z</time>
      </trkpt>
      <trkpt lat="47.25307" lon="-2.32947">
        <ele>2</ele>
        <time>2020-09-27T07:04:27.000Z</time>
      </trkpt>
      <trkpt lat="47.25316" lon="-2.32971">
        <ele>2</ele>
        <time>2020-09-27T07:04:31.000Z</time>
      </trkpt>
      <trkpt lat="47.25322" lon="-2.32984">
        <ele>2</ele>
        <time>2020-09-27T07:04:33.000Z</time>
      </trkpt>
      <trkpt lat="47.2533" lon="-2.33009">
        <ele>2</ele>
        <time>2020-09-27T07:04:37.000Z</time>
      </trkpt>
      <trkpt lat="47.25335" lon="-2.33021">
        <ele>2</ele>
        <time>2020-09-27T07:04:39.000Z</time>
      </trkpt>
      <trkpt lat="47.25345" lon="-2.33045">
        <ele>2</ele>
        <time>2020-09-27T07:04:43.000Z</time>
      </trkpt>
      <trkpt lat="47.25357" lon="-2.33079">
        <ele>1.6000000238419</ele>
        <time>2020-09-27T07:04:49.000Z</time>
      </trkpt>
      <trkpt lat="47.2536" lon="-2.33085">
        <ele>1.2000000476837</ele>
        <time>2020-09-27T07:04:50.000Z</time>
      </trkpt>
      <trkpt lat="47.25362" lon="-2.3309">
        <ele>0.80000001192093</ele>
        <time>2020-09-27T07:04:51.000Z</time>
      </trkpt>
      <trkpt lat="47.25364" lon="-2.33095">
        <ele>0.40000000596046</ele>
        <time>2020-09-27T07:04:52.000Z</time>
      </trkpt>
      <trkpt lat="47.25365" lon="-2.331">
        <ele>8</ele>
        <time>2020-09-27T07:04:53.000Z</time>
      </trkpt>
      <trkpt lat="47.25366" lon="-2.33103">
        <ele>8</ele>
        <time>2020-09-27T07:04:55.000Z</time>
      </trkpt>
      <trkpt lat="47.25366" lon="-2.33103">
        <ele>8</ele>
        <time>2020-09-27T07:04:57.000Z</time>
      </trkpt>
      <trkpt lat="47.25366" lon="-2.33102">
        <ele>8</ele>
        <time>2020-09-27T07:09:39.000Z</time>
      </trkpt>
      <trkpt lat="47.25366" lon="-2.33099">
        <ele>8</ele>
        <time>2020-09-27T07:09:40.000Z</time>
      </trkpt>
      <trkpt lat="47.25364" lon="-2.33091">
        <ele>8</ele>
        <time>2020-09-27T07:09:43.000Z</time>
      </trkpt>
      <trkpt lat="47.2536" lon="-2.33084">
        <ele>8</ele>
        <time>2020-09-27T07:09:46.000Z</time>
      </trkpt>
      <trkpt lat="47.25352" lon="-2.3306">
        <ele>7.7</ele>
        <time>2020-09-27T07:09:51.000Z</time>
      </trkpt>
      <trkpt lat="47.25342" lon="-2.33028">
        <ele>8.7</ele>
        <time>2020-09-27T07:09:58.000Z</time>
      </trkpt>
      <trkpt lat="47.25331" lon="-2.32999">
        <ele>8.9</ele>
        <time>2020-09-27T07:10:05.000Z</time>
      </trkpt>
      <trkpt lat="47.25319" lon="-2.32969">
        <ele>9</ele>
        <time>2020-09-27T07:10:13.000Z</time>
      </trkpt>
      <trkpt lat="47.25308" lon="-2.32944">
        <ele>9</ele>
        <time>2020-09-27T07:10:20.000Z</time>
      </trkpt>
      <trkpt lat="47.25308" lon="-2.32925">
        <ele>9</ele>
        <time>2020-09-27T07:10:25.000Z</time>
      </trkpt>
      <trkpt lat="47.25317" lon="-2.32913">
        <ele>8.9</ele>
        <time>2020-09-27T07:10:29.000Z</time>
      </trkpt>
      <trkpt lat="47.2534" lon="-2.32892">
        <ele>9</ele>
        <time>2020-09-27T07:10:37.000Z</time>
      </trkpt>
      <trkpt lat="47.25357" lon="-2.32875">
        <ele>9.4</ele>
        <time>2020-09-27T07:10:43.000Z</time>
      </trkpt>
      <trkpt lat="47.25373" lon="-2.32857">
        <ele>9.6</ele>
        <time>2020-09-27T07:10:49.000Z</time>
      </trkpt>
      <trkpt lat="47.25391" lon="-2.32837">
        <ele>9.9</ele>
        <time>2020-09-27T07:10:55.000Z</time>
      </trkpt>
      <trkpt lat="47.25415" lon="-2.32806">
        <ele>10</ele>
        <time>2020-09-27T07:11:04.000Z</time>
      </trkpt>
      <trkpt lat="47.25427" lon="-2.32784">
        <ele>11.3</ele>
        <time>2020-09-27T07:11:10.000Z</time>
      </trkpt>
      <trkpt lat="47.25431" lon="-2.32773">
        <ele>0.40000000596046</ele>
        <time>2020-09-27T07:11:13.000Z</time>
      </trkpt>
      <trkpt lat="47.25434" lon="-2.3277">
        <ele>0.80000001192093</ele>
        <time>2020-09-27T07:11:14.000Z</time>
      </trkpt>
      <trkpt lat="47.25436" lon="-2.32767">
        <ele>1.2000000476837</ele>
        <time>2020-09-27T07:11:15.000Z</time>
      </trkpt>
      <trkpt lat="47.25439" lon="-2.32764">
        <ele>1.6000000238419</ele>
        <time>2020-09-27T07:11:16.000Z</time>
      </trkpt>
      <trkpt lat="47.25442" lon="-2.32761">
        <ele>2</ele>
        <time>2020-09-27T07:11:17.000Z</time>
      </trkpt>
      <trkpt lat="47.25456" lon="-2.32739">
        <ele>2</ele>
        <time>2020-09-27T07:11:23.000Z</time>
      </trkpt>
      <trkpt lat="47.25477" lon="-2.32711">
        <ele>2</ele>
        <time>2020-09-27T07:11:31.000Z</time>
      </trkpt>
      <trkpt lat="47.2549" lon="-2.32686">
        <ele>2</ele>
        <time>2020-09-27T07:11:37.000Z</time>
      </trkpt>
      <trkpt lat="47.25489" lon="-2.32658">
        <ele>2</ele>
        <time>2020-09-27T07:11:42.000Z</time>
      </trkpt>
      <trkpt lat="47.2548" lon="-2.32609">
        <ele>2</ele>
        <time>2020-09-27T07:11:51.000Z</time>
      </trkpt>
      <trkpt lat="47.25476" lon="-2.32588">
        <ele>2.4000000953674</ele>
        <time>2020-09-27T07:11:55.000Z</time>
      </trkpt>
      <trkpt lat="47.25475" lon="-2.32583">
        <ele>2.7999999523163</ele>
        <time>2020-09-27T07:11:56.000Z</time>
      </trkpt>
      <trkpt lat="47.25474" lon="-2.32579">
        <ele>3.2000000476837</ele>
        <time>2020-09-27T07:11:57.000Z</time>
      </trkpt>
      <trkpt lat="47.25474" lon="-2.32575">
        <ele>3.7999999523163</ele>
        <time>2020-09-27T07:11:58.000Z</time>
      </trkpt>
      <trkpt lat="47.25475" lon="-2.32571">
        <ele>4.1999998092651</ele>
        <time>2020-09-27T07:11:59.000Z</time>
      </trkpt>
      <trkpt lat="47.25476" lon="-2.32568">
        <ele>4.1999998092651</ele>
        <time>2020-09-27T07:12:00.000Z</time>
      </trkpt>
      <trkpt lat="47.25484" lon="-2.32559">
        <ele>4.1999998092651</ele>
        <time>2020-09-27T07:12:03.000Z</time>
      </trkpt>
      <trkpt lat="47.2549" lon="-2.32553">
        <ele>4.1999998092651</ele>
        <time>2020-09-27T07:12:05.000Z</time>
      </trkpt>
      <trkpt lat="47.255" lon="-2.32542">
        <ele>4.1999998092651</ele>
        <time>2020-09-27T07:12:08.000Z</time>
      </trkpt>
      <trkpt lat="47.25504" lon="-2.32539">
        <ele>4.1999998092651</ele>
        <time>2020-09-27T07:12:09.000Z</time>
      </trkpt>
      <trkpt lat="47.25532" lon="-2.32514">
        <ele>4.1999998092651</ele>
        <time>2020-09-27T07:12:16.000Z</time>
      </trkpt>
      <trkpt lat="47.25546" lon="-2.32501">
        <ele>3.7999999523163</ele>
        <time>2020-09-27T07:12:19.000Z</time>
      </trkpt>
      <trkpt lat="47.2555" lon="-2.32497">
        <ele>3.2000000476837</ele>
        <time>2020-09-27T07:12:20.000Z</time>
      </trkpt>
      <trkpt lat="47.25556" lon="-2.32492">
        <ele>2.7999999523163</ele>
        <time>2020-09-27T07:12:21.000Z</time>
      </trkpt>
      <trkpt lat="47.25561" lon="-2.32487">
        <ele>2.4000000953674</ele>
        <time>2020-09-27T07:12:22.000Z</time>
      </trkpt>
      <trkpt lat="47.25566" lon="-2.32481">
        <ele>2</ele>
        <time>2020-09-27T07:12:23.000Z</time>
      </trkpt>
      <trkpt lat="47.25594" lon="-2.32453">
        <ele>1.6000000238419</ele>
        <time>2020-09-27T07:12:28.000Z</time>
      </trkpt>
      <trkpt lat="47.25599" lon="-2.32447">
        <ele>1.2000000476837</ele>
        <time>2020-09-27T07:12:29.000Z</time>
      </trkpt>
      <trkpt lat="47.25604" lon="-2.32441">
        <ele>0.80000001192093</ele>
        <time>2020-09-27T07:12:30.000Z</time>
      </trkpt>
      <trkpt lat="47.2561" lon="-2.32434">
        <ele>0.40000000596046</ele>
        <time>2020-09-27T07:12:31.000Z</time>
      </trkpt>
      <trkpt lat="47.25615" lon="-2.32428">
        <ele>-0.20000000298023</ele>
        <time>2020-09-27T07:12:32.000Z</time>
      </trkpt>
      <trkpt lat="47.25636" lon="-2.32407">
        <ele>-0.20000000298023</ele>
        <time>2020-09-27T07:12:36.000Z</time>
      </trkpt>
      <trkpt lat="47.25642" lon="-2.32404">
        <ele>-0.60000002384186</ele>
        <time>2020-09-27T07:12:37.000Z</time>
      </trkpt>
      <trkpt lat="47.25648" lon="-2.32403">
        <ele>-1</ele>
        <time>2020-09-27T07:12:38.000Z</time>
      </trkpt>
      <trkpt lat="47.25652" lon="-2.32399">
        <ele>-1.3999999761581</ele>
        <time>2020-09-27T07:12:39.000Z</time>
      </trkpt>
      <trkpt lat="47.25656" lon="-2.32393">
        <ele>-1.7999999523163</ele>
        <time>2020-09-27T07:12:40.000Z</time>
      </trkpt>
      <trkpt lat="47.25657" lon="-2.32386">
        <ele>-2.4000000953674</ele>
        <time>2020-09-27T07:12:41.000Z</time>
      </trkpt>
      <trkpt lat="47.25656" lon="-2.32378">
        <ele>-2.4000000953674</ele>
        <time>2020-09-27T07:12:42.000Z</time>
      </trkpt>
      <trkpt lat="47.25654" lon="-2.32364">
        <ele>-2.4000000953674</ele>
        <time>2020-09-27T07:12:44.000Z</time>
      </trkpt>
      <trkpt lat="47.25653" lon="-2.3235">
        <ele>-2.4000000953674</ele>
        <time>2020-09-27T07:12:46.000Z</time>
      </trkpt>
      <trkpt lat="47.25649" lon="-2.32308">
        <ele>-2.4000000953674</ele>
        <time>2020-09-27T07:12:53.000Z</time>
      </trkpt>
      <trkpt lat="47.25649" lon="-2.32303">
        <ele>-1.7999999523163</ele>
        <time>2020-09-27T07:12:54.000Z</time>
      </trkpt>
      <trkpt lat="47.25648" lon="-2.32297">
        <ele>-1.3999999761581</ele>
        <time>2020-09-27T07:12:55.000Z</time>
      </trkpt>
      <trkpt lat="47.25647" lon="-2.32292">
        <ele>-1</ele>
        <time>2020-09-27T07:12:56.000Z</time>
      </trkpt>
      <trkpt lat="47.25647" lon="-2.32287">
        <ele>-0.60000002384186</ele>
        <time>2020-09-27T07:12:57.000Z</time>
      </trkpt>
      <trkpt lat="47.25647" lon="-2.32283">
        <ele>-0.20000000298023</ele>
        <time>2020-09-27T07:12:58.000Z</time>
      </trkpt>
      <trkpt lat="47.25647" lon="-2.32276">
        <ele>-0.20000000298023</ele>
        <time>2020-09-27T07:13:00.000Z</time>
      </trkpt>
      <trkpt lat="47.25647" lon="-2.32269">
        <ele>0.40000000596046</ele>
        <time>2020-09-27T07:13:02.000Z</time>
      </trkpt>
      <trkpt lat="47.25647" lon="-2.32266">
        <ele>0.80000001192093</ele>
        <time>2020-09-27T07:13:03.000Z</time>
      </trkpt>
      <trkpt lat="47.25648" lon="-2.32263">
        <ele>1.2000000476837</ele>
        <time>2020-09-27T07:13:04.000Z</time>
      </trkpt>
      <trkpt lat="47.25648" lon="-2.3226">
        <ele>1.6000000238419</ele>
        <time>2020-09-27T07:13:05.000Z</time>
      </trkpt>
      <trkpt lat="47.25647" lon="-2.32256">
        <ele>2</ele>
        <time>2020-09-27T07:13:06.000Z</time>
      </trkpt>
      <trkpt lat="47.25647" lon="-2.32249">
        <ele>2</ele>
        <time>2020-09-27T07:13:08.000Z</time>
      </trkpt>
      <trkpt lat="47.25646" lon="-2.32228">
        <ele>2.4000000953674</ele>
        <time>2020-09-27T07:13:14.000Z</time>
      </trkpt>
      <trkpt lat="47.25646" lon="-2.32224">
        <ele>2.7999999523163</ele>
        <time>2020-09-27T07:13:15.000Z</time>
      </trkpt>
      <trkpt lat="47.25645" lon="-2.32219">
        <ele>3.2000000476837</ele>
        <time>2020-09-27T07:13:16.000Z</time>
      </trkpt>
      <trkpt lat="47.25645" lon="-2.32215">
        <ele>3.5999999046326</ele>
        <time>2020-09-27T07:13:17.000Z</time>
      </trkpt>
      <trkpt lat="47.25645" lon="-2.32212">
        <ele>4</ele>
        <time>2020-09-27T07:13:18.000Z</time>
      </trkpt>
      <trkpt lat="47.2564" lon="-2.32185">
        <ele>4</ele>
        <time>2020-09-27T07:13:24.000Z</time>
      </trkpt>
      <trkpt lat="47.25629" lon="-2.32147">
        <ele>4</ele>
        <time>2020-09-27T07:13:32.000Z</time>
      </trkpt>
      <trkpt lat="47.25615" lon="-2.32105">
        <ele>4</ele>
        <time>2020-09-27T07:13:41.000Z</time>
      </trkpt>
      <trkpt lat="47.25614" lon="-2.321">
        <ele>4.4000000953674</ele>
        <time>2020-09-27T07:13:42.000Z</time>
      </trkpt>
      <trkpt lat="47.25612" lon="-2.32096">
        <ele>4.8000001907349</ele>
        <time>2020-09-27T07:13:43.000Z</time>
      </trkpt>
      <trkpt lat="47.2561" lon="-2.32091">
        <ele>5.1999998092651</ele>
        <time>2020-09-27T07:13:44.000Z</time>
      </trkpt>
      <trkpt lat="47.25609" lon="-2.32087">
        <ele>5.5999999046326</ele>
        <time>2020-09-27T07:13:45.000Z</time>
      </trkpt>
      <trkpt lat="47.25607" lon="-2.32082">
        <ele>6</ele>
        <time>2020-09-27T07:13:46.000Z</time>
      </trkpt>
      <trkpt lat="47.25602" lon="-2.32069">
        <ele>6</ele>
        <time>2020-09-27T07:13:49.000Z</time>
      </trkpt>
      <trkpt lat="47.25589" lon="-2.32031">
        <ele>6</ele>
        <time>2020-09-27T07:13:57.000Z</time>
      </trkpt>
      <trkpt lat="47.25578" lon="-2.31997">
        <ele>6</ele>
        <time>2020-09-27T07:14:04.000Z</time>
      </trkpt>
      <trkpt lat="47.25569" lon="-2.31952">
        <ele>6</ele>
        <time>2020-09-27T07:14:13.000Z</time>
      </trkpt>
      <trkpt lat="47.25565" lon="-2.31921">
        <ele>6</ele>
        <time>2020-09-27T07:14:20.000Z</time>
      </trkpt>
      <trkpt lat="47.25565" lon="-2.31918">
        <ele>6.4000000953674</ele>
        <time>2020-09-27T07:14:21.000Z</time>
      </trkpt>
      <trkpt lat="47.25563" lon="-2.31916">
        <ele>6.8000001907349</ele>
        <time>2020-09-27T07:14:22.000Z</time>
      </trkpt>
      <trkpt lat="47.25561" lon="-2.31915">
        <ele>7.1999998092651</ele>
        <time>2020-09-27T07:14:23.000Z</time>
      </trkpt>
      <trkpt lat="47.25559" lon="-2.31915">
        <ele>7.5999999046326</ele>
        <time>2020-09-27T07:14:24.000Z</time>
      </trkpt>
      <trkpt lat="47.25557" lon="-2.31915">
        <ele>8.1999998092651</ele>
        <time>2020-09-27T07:14:25.000Z</time>
      </trkpt>
      <trkpt lat="47.25555" lon="-2.31916">
        <ele>8.1999998092651</ele>
        <time>2020-09-27T07:14:26.000Z</time>
      </trkpt>
      <trkpt lat="47.2555" lon="-2.31917">
        <ele>8.1999998092651</ele>
        <time>2020-09-27T07:14:28.000Z</time>
      </trkpt>
      <trkpt lat="47.25539" lon="-2.31923">
        <ele>8.1999998092651</ele>
        <time>2020-09-27T07:14:33.000Z</time>
      </trkpt>
      <trkpt lat="47.25537" lon="-2.31922">
        <ele>8.1999998092651</ele>
        <time>2020-09-27T07:14:34.000Z</time>
      </trkpt>
      <trkpt lat="47.25535" lon="-2.31915">
        <ele>8.1999998092651</ele>
        <time>2020-09-27T07:14:36.000Z</time>
      </trkpt>
      <trkpt lat="47.25529" lon="-2.31888">
        <ele>8.1999998092651</ele>
        <time>2020-09-27T07:14:43.000Z</time>
      </trkpt>
      <trkpt lat="47.25525" lon="-2.31867">
        <ele>8.1999998092651</ele>
        <time>2020-09-27T07:14:49.000Z</time>
      </trkpt>
      <trkpt lat="47.25524" lon="-2.31841">
        <ele>8.1999998092651</ele>
        <time>2020-09-27T07:14:56.000Z</time>
      </trkpt>
      <trkpt lat="47.25525" lon="-2.31835">
        <ele>8.1999998092651</ele>
        <time>2020-09-27T07:14:58.000Z</time>
      </trkpt>
      <trkpt lat="47.25526" lon="-2.31833">
        <ele>8.6000003814697</ele>
        <time>2020-09-27T07:14:59.000Z</time>
      </trkpt>
      <trkpt lat="47.25527" lon="-2.31831">
        <ele>9</ele>
        <time>2020-09-27T07:15:00.000Z</time>
      </trkpt>
      <trkpt lat="47.25526" lon="-2.31828">
        <ele>9.3999996185303</ele>
        <time>2020-09-27T07:15:01.000Z</time>
      </trkpt>
      <trkpt lat="47.25526" lon="-2.31825">
        <ele>9.8000001907349</ele>
        <time>2020-09-27T07:15:02.000Z</time>
      </trkpt>
      <trkpt lat="47.25525" lon="-2.31822">
        <ele>10.199999809265</ele>
        <time>2020-09-27T07:15:03.000Z</time>
      </trkpt>
      <trkpt lat="47.25523" lon="-2.31819">
        <ele>10.199999809265</ele>
        <time>2020-09-27T07:15:05.000Z</time>
      </trkpt>
      <trkpt lat="47.25512" lon="-2.31819">
        <ele>10.199999809265</ele>
        <time>2020-09-27T07:15:10.000Z</time>
      </trkpt>
      <trkpt lat="47.25509" lon="-2.31812">
        <ele>10.199999809265</ele>
        <time>2020-09-27T07:15:13.000Z</time>
      </trkpt>
      <trkpt lat="47.25515" lon="-2.3181">
        <ele>10.199999809265</ele>
        <time>2020-09-27T07:15:16.000Z</time>
      </trkpt>
      <trkpt lat="47.25524" lon="-2.31806">
        <ele>10.199999809265</ele>
        <time>2020-09-27T07:15:19.000Z</time>
      </trkpt>
      <trkpt lat="47.25531" lon="-2.31805">
        <ele>10.199999809265</ele>
        <time>2020-09-27T07:15:21.000Z</time>
      </trkpt>
      <trkpt lat="47.25553" lon="-2.31799">
        <ele>10.199999809265</ele>
        <time>2020-09-27T07:15:26.000Z</time>
      </trkpt>
      <trkpt lat="47.25557" lon="-2.31796">
        <ele>10.199999809265</ele>
        <time>2020-09-27T07:15:27.000Z</time>
      </trkpt>
      <trkpt lat="47.25564" lon="-2.31786">
        <ele>10.199999809265</ele>
        <time>2020-09-27T07:15:29.000Z</time>
      </trkpt>
      <trkpt lat="47.2557" lon="-2.31774">
        <ele>10.199999809265</ele>
        <time>2020-09-27T07:15:31.000Z</time>
      </trkpt>
      <trkpt lat="47.25578" lon="-2.31762">
        <ele>10.199999809265</ele>
        <time>2020-09-27T07:15:33.000Z</time>
      </trkpt>
      <trkpt lat="47.25586" lon="-2.31749">
        <ele>10.199999809265</ele>
        <time>2020-09-27T07:15:35.000Z</time>
      </trkpt>
      <trkpt lat="47.25589" lon="-2.31742">
        <ele>9.8000001907349</ele>
        <time>2020-09-27T07:15:36.000Z</time>
      </trkpt>
      <trkpt lat="47.25591" lon="-2.31735">
        <ele>9.1999998092651</ele>
        <time>2020-09-27T07:15:37.000Z</time>
      </trkpt>
      <trkpt lat="47.25593" lon="-2.31727">
        <ele>8.8000001907349</ele>
        <time>2020-09-27T07:15:38.000Z</time>
      </trkpt>
      <trkpt lat="47.25596" lon="-2.31721">
        <ele>8.3999996185303</ele>
        <time>2020-09-27T07:15:39.000Z</time>
      </trkpt>
      <trkpt lat="47.25599" lon="-2.31716">
        <ele>7.8000001907349</ele>
        <time>2020-09-27T07:15:40.000Z</time>
      </trkpt>
      <trkpt lat="47.25603" lon="-2.31713">
        <ele>7.8000001907349</ele>
        <time>2020-09-27T07:15:41.000Z</time>
      </trkpt>
      <trkpt lat="47.25617" lon="-2.31709">
        <ele>7.8000001907349</ele>
        <time>2020-09-27T07:15:44.000Z</time>
      </trkpt>
      <trkpt lat="47.25622" lon="-2.31707">
        <ele>7.8000001907349</ele>
        <time>2020-09-27T07:15:45.000Z</time>
      </trkpt>
      <trkpt lat="47.25638" lon="-2.31701">
        <ele>7.8000001907349</ele>
        <time>2020-09-27T07:15:48.000Z</time>
      </trkpt>
      <trkpt lat="47.25647" lon="-2.3169">
        <ele>7.8000001907349</ele>
        <time>2020-09-27T07:15:50.000Z</time>
      </trkpt>
      <trkpt lat="47.25651" lon="-2.31683">
        <ele>7.4000000953674</ele>
        <time>2020-09-27T07:15:51.000Z</time>
      </trkpt>
      <trkpt lat="47.25655" lon="-2.31674">
        <ele>7</ele>
        <time>2020-09-27T07:15:52.000Z</time>
      </trkpt>
      <trkpt lat="47.25657" lon="-2.31668">
        <ele>6.5999999046326</ele>
        <time>2020-09-27T07:15:53.000Z</time>
      </trkpt>
      <trkpt lat="47.25661" lon="-2.31663">
        <ele>6.1999998092651</ele>
        <time>2020-09-27T07:15:54.000Z</time>
      </trkpt>
      <trkpt lat="47.25665" lon="-2.31662">
        <ele>5.8000001907349</ele>
        <time>2020-09-27T07:15:55.000Z</time>
      </trkpt>
      <trkpt lat="47.2567" lon="-2.31663">
        <ele>5.8000001907349</ele>
        <time>2020-09-27T07:15:56.000Z</time>
      </trkpt>
      <trkpt lat="47.25689" lon="-2.31674">
        <ele>5.4000000953674</ele>
        <time>2020-09-27T07:16:00.000Z</time>
      </trkpt>
      <trkpt lat="47.25695" lon="-2.31677">
        <ele>5</ele>
        <time>2020-09-27T07:16:01.000Z</time>
      </trkpt>
      <trkpt lat="47.25701" lon="-2.3168">
        <ele>4.5999999046326</ele>
        <time>2020-09-27T07:16:02.000Z</time>
      </trkpt>
      <trkpt lat="47.25706" lon="-2.31684">
        <ele>4</ele>
        <time>2020-09-27T07:16:03.000Z</time>
      </trkpt>
      <trkpt lat="47.25712" lon="-2.31688">
        <ele>3.5999999046326</ele>
        <time>2020-09-27T07:16:04.000Z</time>
      </trkpt>
      <trkpt lat="47.25722" lon="-2.31695">
        <ele>3.5999999046326</ele>
        <time>2020-09-27T07:16:06.000Z</time>
      </trkpt>
      <trkpt lat="47.25739" lon="-2.31689">
        <ele>3.5999999046326</ele>
        <time>2020-09-27T07:16:09.000Z</time>
      </trkpt>
      <trkpt lat="47.25745" lon="-2.31685">
        <ele>3.5999999046326</ele>
        <time>2020-09-27T07:16:10.000Z</time>
      </trkpt>
      <trkpt lat="47.25772" lon="-2.31662">
        <ele>3.5999999046326</ele>
        <time>2020-09-27T07:16:16.000Z</time>
      </trkpt>
      <trkpt lat="47.25808" lon="-2.31634">
        <ele>3.5999999046326</ele>
        <time>2020-09-27T07:16:25.000Z</time>
      </trkpt>
      <trkpt lat="47.2584" lon="-2.31608">
        <ele>3.5999999046326</ele>
        <time>2020-09-27T07:16:34.000Z</time>
      </trkpt>
      <trkpt lat="47.2587" lon="-2.31583">
        <ele>3.5999999046326</ele>
        <time>2020-09-27T07:16:41.000Z</time>
      </trkpt>
      <trkpt lat="47.25874" lon="-2.31578">
        <ele>3.5999999046326</ele>
        <time>2020-09-27T07:16:42.000Z</time>
      </trkpt>
      <trkpt lat="47.25882" lon="-2.31568">
        <ele>3.2000000476837</ele>
        <time>2020-09-27T07:16:44.000Z</time>
      </trkpt>
      <trkpt lat="47.25886" lon="-2.31561">
        <ele>2.7999999523163</ele>
        <time>2020-09-27T07:16:45.000Z</time>
      </trkpt>
      <trkpt lat="47.2589" lon="-2.31555">
        <ele>2.4000000953674</ele>
        <time>2020-09-27T07:16:46.000Z</time>
      </trkpt>
      <trkpt lat="47.25892" lon="-2.31549">
        <ele>2</ele>
        <time>2020-09-27T07:16:47.000Z</time>
      </trkpt>
      <trkpt lat="47.25894" lon="-2.31543">
        <ele>1.3999999761581</ele>
        <time>2020-09-27T07:16:48.000Z</time>
      </trkpt>
      <trkpt lat="47.25898" lon="-2.31532">
        <ele>1.3999999761581</ele>
        <time>2020-09-27T07:16:50.000Z</time>
      </trkpt>
      <trkpt lat="47.25906" lon="-2.31518">
        <ele>1.3999999761581</ele>
        <time>2020-09-27T07:16:54.000Z</time>
      </trkpt>
      <trkpt lat="47.25913" lon="-2.31509">
        <ele>1.3999999761581</ele>
        <time>2020-09-27T07:16:59.000Z</time>
      </trkpt>
      <trkpt lat="47.25913" lon="-2.31507">
        <ele>1</ele>
        <time>2020-09-27T07:17:00.000Z</time>
      </trkpt>
      <trkpt lat="47.25914" lon="-2.31506">
        <ele>0.60000002384186</ele>
        <time>2020-09-27T07:17:01.000Z</time>
      </trkpt>
      <trkpt lat="47.25913" lon="-2.31505">
        <ele>0.20000000298023</ele>
        <time>2020-09-27T07:17:02.000Z</time>
      </trkpt>
      <trkpt lat="47.25913" lon="-2.31504">
        <ele>-0.20000000298023</ele>
        <time>2020-09-27T07:17:03.000Z</time>
      </trkpt>
      <trkpt lat="47.25912" lon="-2.31502">
        <ele>-0.60000002384186</ele>
        <time>2020-09-27T07:17:04.000Z</time>
      </trkpt>
      <trkpt lat="47.25915" lon="-2.31496">
        <ele>-0.60000002384186</ele>
        <time>2020-09-27T07:17:07.000Z</time>
      </trkpt>
      <trkpt lat="47.25917" lon="-2.31493">
        <ele>-0.60000002384186</ele>
        <time>2020-09-27T07:17:08.000Z</time>
      </trkpt>
      <trkpt lat="47.25927" lon="-2.31464">
        <ele>-0.60000002384186</ele>
        <time>2020-09-27T07:17:15.000Z</time>
      </trkpt>
      <trkpt lat="47.25935" lon="-2.31457">
        <ele>-0.60000002384186</ele>
        <time>2020-09-27T07:17:19.000Z</time>
      </trkpt>
      <trkpt lat="47.25946" lon="-2.3146">
        <ele>-0.60000002384186</ele>
        <time>2020-09-27T07:17:24.000Z</time>
      </trkpt>
      <trkpt lat="47.25963" lon="-2.3148">
        <ele>-0.60000002384186</ele>
        <time>2020-09-27T07:17:30.000Z</time>
      </trkpt>
      <trkpt lat="47.25976" lon="-2.31507">
        <ele>-0.60000002384186</ele>
        <time>2020-09-27T07:17:36.000Z</time>
      </trkpt>
      <trkpt lat="47.25988" lon="-2.31533">
        <ele>-0.60000002384186</ele>
        <time>2020-09-27T07:17:42.000Z</time>
      </trkpt>
      <trkpt lat="47.26005" lon="-2.31557">
        <ele>-0.60000002384186</ele>
        <time>2020-09-27T07:17:49.000Z</time>
      </trkpt>
      <trkpt lat="47.26008" lon="-2.31559">
        <ele>-0.60000002384186</ele>
        <time>2020-09-27T07:17:50.000Z</time>
      </trkpt>
      <trkpt lat="47.26013" lon="-2.31556">
        <ele>-0.60000002384186</ele>
        <time>2020-09-27T07:17:52.000Z</time>
      </trkpt>
      <trkpt lat="47.26019" lon="-2.31549">
        <ele>-0.60000002384186</ele>
        <time>2020-09-27T07:17:54.000Z</time>
      </trkpt>
      <trkpt lat="47.26026" lon="-2.31536">
        <ele>-0.60000002384186</ele>
        <time>2020-09-27T07:17:57.000Z</time>
      </trkpt>
      <trkpt lat="47.26037" lon="-2.31513">
        <ele>-0.60000002384186</ele>
        <time>2020-09-27T07:18:03.000Z</time>
      </trkpt>
      <trkpt lat="47.26047" lon="-2.31523">
        <ele>-0.60000002384186</ele>
        <time>2020-09-27T07:18:06.000Z</time>
      </trkpt>
      <trkpt lat="47.26055" lon="-2.31533">
        <ele>-1.3999999761581</ele>
        <time>2020-09-27T07:18:08.000Z</time>
      </trkpt>
      <trkpt lat="47.26058" lon="-2.31538">
        <ele>-1.7999999523163</ele>
        <time>2020-09-27T07:18:09.000Z</time>
      </trkpt>
      <trkpt lat="47.26061" lon="-2.31543">
        <ele>-2.2000000476837</ele>
        <time>2020-09-27T07:18:10.000Z</time>
      </trkpt>
      <trkpt lat="47.26063" lon="-2.31549">
        <ele>-2.5999999046326</ele>
        <time>2020-09-27T07:18:11.000Z</time>
      </trkpt>
      <trkpt lat="47.26066" lon="-2.31555">
        <ele>-2.5999999046326</ele>
        <time>2020-09-27T07:18:12.000Z</time>
      </trkpt>
      <trkpt lat="47.26073" lon="-2.31572">
        <ele>-2.5999999046326</ele>
        <time>2020-09-27T07:18:15.000Z</time>
      </trkpt>
      <trkpt lat="47.26081" lon="-2.31582">
        <ele>-2.5999999046326</ele>
        <time>2020-09-27T07:18:18.000Z</time>
      </trkpt>
      <trkpt lat="47.26084" lon="-2.31584">
        <ele>-2.5999999046326</ele>
        <time>2020-09-27T07:18:19.000Z</time>
      </trkpt>
      <trkpt lat="47.26097" lon="-2.31601">
        <ele>-2.5999999046326</ele>
        <time>2020-09-27T07:18:23.000Z</time>
      </trkpt>
      <trkpt lat="47.26114" lon="-2.31615">
        <ele>-2.5999999046326</ele>
        <time>2020-09-27T07:18:27.000Z</time>
      </trkpt>
      <trkpt lat="47.26129" lon="-2.31615">
        <ele>-2.5999999046326</ele>
        <time>2020-09-27T07:18:30.000Z</time>
      </trkpt>
      <trkpt lat="47.26138" lon="-2.31614">
        <ele>-2.5999999046326</ele>
        <time>2020-09-27T07:18:32.000Z</time>
      </trkpt>
      <trkpt lat="47.26148" lon="-2.3161">
        <ele>-2.5999999046326</ele>
        <time>2020-09-27T07:18:34.000Z</time>
      </trkpt>
      <trkpt lat="47.26163" lon="-2.31603">
        <ele>-2.5999999046326</ele>
        <time>2020-09-27T07:18:37.000Z</time>
      </trkpt>
      <trkpt lat="47.26174" lon="-2.31599">
        <ele>-2.5999999046326</ele>
        <time>2020-09-27T07:18:39.000Z</time>
      </trkpt>
      <trkpt lat="47.26191" lon="-2.31594">
        <ele>-2.5999999046326</ele>
        <time>2020-09-27T07:18:42.000Z</time>
      </trkpt>
      <trkpt lat="47.26212" lon="-2.31589">
        <ele>-2.5999999046326</ele>
        <time>2020-09-27T07:18:46.000Z</time>
      </trkpt>
      <trkpt lat="47.26222" lon="-2.31592">
        <ele>-2.5999999046326</ele>
        <time>2020-09-27T07:18:48.000Z</time>
      </trkpt>
      <trkpt lat="47.26236" lon="-2.31599">
        <ele>-2.5999999046326</ele>
        <time>2020-09-27T07:18:51.000Z</time>
      </trkpt>
      <trkpt lat="47.26239" lon="-2.31602">
        <ele>-2.5999999046326</ele>
        <time>2020-09-27T07:18:52.000Z</time>
      </trkpt>
      <trkpt lat="47.26243" lon="-2.31606">
        <ele>-2.5999999046326</ele>
        <time>2020-09-27T07:18:53.000Z</time>
      </trkpt>
      <trkpt lat="47.26252" lon="-2.31613">
        <ele>-2.5999999046326</ele>
        <time>2020-09-27T07:18:55.000Z</time>
      </trkpt>
      <trkpt lat="47.26262" lon="-2.31628">
        <ele>-2.5999999046326</ele>
        <time>2020-09-27T07:18:58.000Z</time>
      </trkpt>
      <trkpt lat="47.26265" lon="-2.31633">
        <ele>-2.5999999046326</ele>
        <time>2020-09-27T07:18:59.000Z</time>
      </trkpt>
      <trkpt lat="47.26281" lon="-2.31661">
        <ele>-2.5999999046326</ele>
        <time>2020-09-27T07:19:04.000Z</time>
      </trkpt>
      <trkpt lat="47.26292" lon="-2.31686">
        <ele>-2.5999999046326</ele>
        <time>2020-09-27T07:19:08.000Z</time>
      </trkpt>
      <trkpt lat="47.263" lon="-2.31699">
        <ele>-2.5999999046326</ele>
        <time>2020-09-27T07:19:10.000Z</time>
      </trkpt>
      <trkpt lat="47.26304" lon="-2.31703">
        <ele>-2.5999999046326</ele>
        <time>2020-09-27T07:19:11.000Z</time>
      </trkpt>
      <trkpt lat="47.26316" lon="-2.31701">
        <ele>-2.5999999046326</ele>
        <time>2020-09-27T07:19:14.000Z</time>
      </trkpt>
      <trkpt lat="47.26324" lon="-2.31697">
        <ele>-2.5999999046326</ele>
        <time>2020-09-27T07:19:16.000Z</time>
      </trkpt>
      <trkpt lat="47.26337" lon="-2.31693">
        <ele>-2.5999999046326</ele>
        <time>2020-09-27T07:19:19.000Z</time>
      </trkpt>
      <trkpt lat="47.26342" lon="-2.31691">
        <ele>-2.5999999046326</ele>
        <time>2020-09-27T07:19:20.000Z</time>
      </trkpt>
      <trkpt lat="47.26364" lon="-2.31679">
        <ele>-2.5999999046326</ele>
        <time>2020-09-27T07:19:25.000Z</time>
      </trkpt>
      <trkpt lat="47.26393" lon="-2.31664">
        <ele>-2.2000000476837</ele>
        <time>2020-09-27T07:19:31.000Z</time>
      </trkpt>
      <trkpt lat="47.26397" lon="-2.31662">
        <ele>-1.7999999523163</ele>
        <time>2020-09-27T07:19:32.000Z</time>
      </trkpt>
      <trkpt lat="47.26402" lon="-2.3166">
        <ele>-1.3999999761581</ele>
        <time>2020-09-27T07:19:33.000Z</time>
      </trkpt>
      <trkpt lat="47.26406" lon="-2.31659">
        <ele>-1</ele>
        <time>2020-09-27T07:19:34.000Z</time>
      </trkpt>
      <trkpt lat="47.2641" lon="-2.31657">
        <ele>-0.60000002384186</ele>
        <time>2020-09-27T07:19:35.000Z</time>
      </trkpt>
      <trkpt lat="47.26423" lon="-2.31652">
        <ele>-0.60000002384186</ele>
        <time>2020-09-27T07:19:38.000Z</time>
      </trkpt>
      <trkpt lat="47.26432" lon="-2.3165">
        <ele>-0.60000002384186</ele>
        <time>2020-09-27T07:19:40.000Z</time>
      </trkpt>
      <trkpt lat="47.26444" lon="-2.31646">
        <ele>-0.60000002384186</ele>
        <time>2020-09-27T07:19:43.000Z</time>
      </trkpt>
      <trkpt lat="47.26463" lon="-2.31645">
        <ele>-0.60000002384186</ele>
        <time>2020-09-27T07:19:48.000Z</time>
      </trkpt>
      <trkpt lat="47.26466" lon="-2.31644">
        <ele>-0.20000000298023</ele>
        <time>2020-09-27T07:19:49.000Z</time>
      </trkpt>
      <trkpt lat="47.2647" lon="-2.31644">
        <ele>0.20000000298023</ele>
        <time>2020-09-27T07:19:50.000Z</time>
      </trkpt>
      <trkpt lat="47.26473" lon="-2.31643">
        <ele>0.80000001192093</ele>
        <time>2020-09-27T07:19:51.000Z</time>
      </trkpt>
      <trkpt lat="47.26476" lon="-2.31643">
        <ele>1.2000000476837</ele>
        <time>2020-09-27T07:19:52.000Z</time>
      </trkpt>
      <trkpt lat="47.2648" lon="-2.31642">
        <ele>1.6000000238419</ele>
        <time>2020-09-27T07:19:53.000Z</time>
      </trkpt>
      <trkpt lat="47.26483" lon="-2.31642">
        <ele>1.6000000238419</ele>
        <time>2020-09-27T07:19:54.000Z</time>
      </trkpt>
      <trkpt lat="47.26502" lon="-2.31636">
        <ele>1.6000000238419</ele>
        <time>2020-09-27T07:20:00.000Z</time>
      </trkpt>
      <trkpt lat="47.26505" lon="-2.31635">
        <ele>2</ele>
        <time>2020-09-27T07:20:01.000Z</time>
      </trkpt>
      <trkpt lat="47.26508" lon="-2.31634">
        <ele>2.4000000953674</ele>
        <time>2020-09-27T07:20:02.000Z</time>
      </trkpt>
      <trkpt lat="47.26511" lon="-2.31632">
        <ele>2.7999999523163</ele>
        <time>2020-09-27T07:20:03.000Z</time>
      </trkpt>
      <trkpt lat="47.26514" lon="-2.31631">
        <ele>3.2000000476837</ele>
        <time>2020-09-27T07:20:04.000Z</time>
      </trkpt>
      <trkpt lat="47.26518" lon="-2.3163">
        <ele>3.5999999046326</ele>
        <time>2020-09-27T07:20:05.000Z</time>
      </trkpt>
      <trkpt lat="47.26524" lon="-2.31627">
        <ele>3.5999999046326</ele>
        <time>2020-09-27T07:20:07.000Z</time>
      </trkpt>
      <trkpt lat="47.26542" lon="-2.31616">
        <ele>4</ele>
        <time>2020-09-27T07:20:13.000Z</time>
      </trkpt>
      <trkpt lat="47.26545" lon="-2.31614">
        <ele>4.4000000953674</ele>
        <time>2020-09-27T07:20:14.000Z</time>
      </trkpt>
      <trkpt lat="47.26548" lon="-2.31613">
        <ele>4.8000001907349</ele>
        <time>2020-09-27T07:20:15.000Z</time>
      </trkpt>
      <trkpt lat="47.26551" lon="-2.31611">
        <ele>5.1999998092651</ele>
        <time>2020-09-27T07:20:16.000Z</time>
      </trkpt>
      <trkpt lat="47.26554" lon="-2.31609">
        <ele>5.5999999046326</ele>
        <time>2020-09-27T07:20:17.000Z</time>
      </trkpt>
      <trkpt lat="47.26566" lon="-2.31602">
        <ele>5.5999999046326</ele>
        <time>2020-09-27T07:20:21.000Z</time>
      </trkpt>
      <trkpt lat="47.26575" lon="-2.31596">
        <ele>6</ele>
        <time>2020-09-27T07:20:24.000Z</time>
      </trkpt>
      <trkpt lat="47.26578" lon="-2.31593">
        <ele>6.5999999046326</ele>
        <time>2020-09-27T07:20:25.000Z</time>
      </trkpt>
      <trkpt lat="47.2658" lon="-2.31591">
        <ele>7</ele>
        <time>2020-09-27T07:20:26.000Z</time>
      </trkpt>
      <trkpt lat="47.26583" lon="-2.3159">
        <ele>7.4000000953674</ele>
        <time>2020-09-27T07:20:27.000Z</time>
      </trkpt>
      <trkpt lat="47.26586" lon="-2.31588">
        <ele>7.8000001907349</ele>
        <time>2020-09-27T07:20:28.000Z</time>
      </trkpt>
      <trkpt lat="47.26597" lon="-2.3158">
        <ele>8.1999998092651</ele>
        <time>2020-09-27T07:20:32.000Z</time>
      </trkpt>
      <trkpt lat="47.266" lon="-2.31578">
        <ele>8.6000003814697</ele>
        <time>2020-09-27T07:20:33.000Z</time>
      </trkpt>
      <trkpt lat="47.26602" lon="-2.31576">
        <ele>9.1999998092651</ele>
        <time>2020-09-27T07:20:34.000Z</time>
      </trkpt>
      <trkpt lat="47.26605" lon="-2.31575">
        <ele>9.6000003814697</ele>
        <time>2020-09-27T07:20:35.000Z</time>
      </trkpt>
      <trkpt lat="47.26608" lon="-2.31573">
        <ele>10</ele>
        <time>2020-09-27T07:20:36.000Z</time>
      </trkpt>
      <trkpt lat="47.26622" lon="-2.31565">
        <ele>10.39999961853</ele>
        <time>2020-09-27T07:20:41.000Z</time>
      </trkpt>
      <trkpt lat="47.26624" lon="-2.31563">
        <ele>11</ele>
        <time>2020-09-27T07:20:42.000Z</time>
      </trkpt>
      <trkpt lat="47.26627" lon="-2.31561">
        <ele>11.39999961853</ele>
        <time>2020-09-27T07:20:43.000Z</time>
      </trkpt>
      <trkpt lat="47.26629" lon="-2.3156">
        <ele>11.800000190735</ele>
        <time>2020-09-27T07:20:44.000Z</time>
      </trkpt>
      <trkpt lat="47.26631" lon="-2.31558">
        <ele>12.199999809265</ele>
        <time>2020-09-27T07:20:45.000Z</time>
      </trkpt>
      <trkpt lat="47.26634" lon="-2.31555">
        <ele>12.199999809265</ele>
        <time>2020-09-27T07:20:48.000Z</time>
      </trkpt>
      <trkpt lat="47.26634" lon="-2.31553">
        <ele>12.199999809265</ele>
        <time>2020-09-27T07:20:59.000Z</time>
      </trkpt>
      <trkpt lat="47.26633" lon="-2.31548">
        <ele>12.199999809265</ele>
        <time>2020-09-27T07:21:01.000Z</time>
      </trkpt>
      <trkpt lat="47.26623" lon="-2.31526">
        <ele>12.199999809265</ele>
        <time>2020-09-27T07:21:07.000Z</time>
      </trkpt>
      <trkpt lat="47.26616" lon="-2.31507">
        <ele>12.60000038147</ele>
        <time>2020-09-27T07:21:11.000Z</time>
      </trkpt>
      <trkpt lat="47.26614" lon="-2.31502">
        <ele>13</ele>
        <time>2020-09-27T07:21:12.000Z</time>
      </trkpt>
      <trkpt lat="47.26613" lon="-2.31497">
        <ele>13.39999961853</ele>
        <time>2020-09-27T07:21:13.000Z</time>
      </trkpt>
      <trkpt lat="47.26611" lon="-2.31492">
        <ele>13.800000190735</ele>
        <time>2020-09-27T07:21:14.000Z</time>
      </trkpt>
      <trkpt lat="47.26611" lon="-2.31486">
        <ele>14.39999961853</ele>
        <time>2020-09-27T07:21:15.000Z</time>
      </trkpt>
      <trkpt lat="47.26613" lon="-2.31481">
        <ele>14.39999961853</ele>
        <time>2020-09-27T07:21:16.000Z</time>
      </trkpt>
      <trkpt lat="47.26624" lon="-2.31467">
        <ele>14.39999961853</ele>
        <time>2020-09-27T07:21:20.000Z</time>
      </trkpt>
      <trkpt lat="47.26628" lon="-2.31464">
        <ele>14.39999961853</ele>
        <time>2020-09-27T07:21:21.000Z</time>
      </trkpt>
      <trkpt lat="47.26632" lon="-2.31461">
        <ele>14.39999961853</ele>
        <time>2020-09-27T07:21:24.000Z</time>
      </trkpt>
      <trkpt lat="47.26634" lon="-2.31455">
        <ele>14.39999961853</ele>
        <time>2020-09-27T07:21:28.000Z</time>
      </trkpt>
      <trkpt lat="47.2664" lon="-2.31451">
        <ele>14.800000190735</ele>
        <time>2020-09-27T07:21:32.000Z</time>
      </trkpt>
      <trkpt lat="47.26642" lon="-2.31449">
        <ele>15.199999809265</ele>
        <time>2020-09-27T07:21:33.000Z</time>
      </trkpt>
      <trkpt lat="47.26643" lon="-2.31448">
        <ele>15.60000038147</ele>
        <time>2020-09-27T07:21:34.000Z</time>
      </trkpt>
      <trkpt lat="47.26644" lon="-2.31447">
        <ele>16</ele>
        <time>2020-09-27T07:21:35.000Z</time>
      </trkpt>
      <trkpt lat="47.26646" lon="-2.31445">
        <ele>16.39999961853</ele>
        <time>2020-09-27T07:21:36.000Z</time>
      </trkpt>
      <trkpt lat="47.26649" lon="-2.31444">
        <ele>16.39999961853</ele>
        <time>2020-09-27T07:21:41.000Z</time>
      </trkpt>
      <trkpt lat="47.26654" lon="-2.3144">
        <ele>16.39999961853</ele>
        <time>2020-09-27T07:21:46.000Z</time>
      </trkpt>
      <trkpt lat="47.26667" lon="-2.3143">
        <ele>16.39999961853</ele>
        <time>2020-09-27T07:21:52.000Z</time>
      </trkpt>
      <trkpt lat="47.26687" lon="-2.31421">
        <ele>16.39999961853</ele>
        <time>2020-09-27T07:21:59.000Z</time>
      </trkpt>
      <trkpt lat="47.2669" lon="-2.3142">
        <ele>16.799999237061</ele>
        <time>2020-09-27T07:22:00.000Z</time>
      </trkpt>
      <trkpt lat="47.26692" lon="-2.31418">
        <ele>17.200000762939</ele>
        <time>2020-09-27T07:22:01.000Z</time>
      </trkpt>
      <trkpt lat="47.26695" lon="-2.31416">
        <ele>17.60000038147</ele>
        <time>2020-09-27T07:22:02.000Z</time>
      </trkpt>
      <trkpt lat="47.26697" lon="-2.31415">
        <ele>18</ele>
        <time>2020-09-27T07:22:03.000Z</time>
      </trkpt>
      <trkpt lat="47.267" lon="-2.31413">
        <ele>18.39999961853</ele>
        <time>2020-09-27T07:22:04.000Z</time>
      </trkpt>
      <trkpt lat="47.26708" lon="-2.31409">
        <ele>18.39999961853</ele>
        <time>2020-09-27T07:22:07.000Z</time>
      </trkpt>
      <trkpt lat="47.26724" lon="-2.31399">
        <ele>18.39999961853</ele>
        <time>2020-09-27T07:22:14.000Z</time>
      </trkpt>
      <trkpt lat="47.2674" lon="-2.3139">
        <ele>18.39999961853</ele>
        <time>2020-09-27T07:22:20.000Z</time>
      </trkpt>
      <trkpt lat="47.26758" lon="-2.3138">
        <ele>18.39999961853</ele>
        <time>2020-09-27T07:22:27.000Z</time>
      </trkpt>
      <trkpt lat="47.26768" lon="-2.31374">
        <ele>19</ele>
        <time>2020-09-27T07:22:31.000Z</time>
      </trkpt>
      <trkpt lat="47.2677" lon="-2.31373">
        <ele>19.39999961853</ele>
        <time>2020-09-27T07:22:32.000Z</time>
      </trkpt>
      <trkpt lat="47.26773" lon="-2.31372">
        <ele>19.799999237061</ele>
        <time>2020-09-27T07:22:33.000Z</time>
      </trkpt>
      <trkpt lat="47.26776" lon="-2.31371">
        <ele>20.200000762939</ele>
        <time>2020-09-27T07:22:34.000Z</time>
      </trkpt>
      <trkpt lat="47.26779" lon="-2.31369">
        <ele>20.60000038147</ele>
        <time>2020-09-27T07:22:35.000Z</time>
      </trkpt>
      <trkpt lat="47.26792" lon="-2.31362">
        <ele>20.60000038147</ele>
        <time>2020-09-27T07:22:40.000Z</time>
      </trkpt>
      <trkpt lat="47.26806" lon="-2.31351">
        <ele>20.60000038147</ele>
        <time>2020-09-27T07:22:46.000Z</time>
      </trkpt>
      <trkpt lat="47.26819" lon="-2.31341">
        <ele>20.60000038147</ele>
        <time>2020-09-27T07:22:52.000Z</time>
      </trkpt>
      <trkpt lat="47.26824" lon="-2.31339">
        <ele>20.60000038147</ele>
        <time>2020-09-27T07:22:56.000Z</time>
      </trkpt>
      <trkpt lat="47.26827" lon="-2.31341">
        <ele>20.60000038147</ele>
        <time>2020-09-27T07:22:58.000Z</time>
      </trkpt>
      <trkpt lat="47.26828" lon="-2.31358">
        <ele>20.60000038147</ele>
        <time>2020-09-27T07:23:03.000Z</time>
      </trkpt>
      <trkpt lat="47.26829" lon="-2.31379">
        <ele>20.60000038147</ele>
        <time>2020-09-27T07:23:07.000Z</time>
      </trkpt>
      <trkpt lat="47.26831" lon="-2.3139">
        <ele>20.60000038147</ele>
        <time>2020-09-27T07:23:09.000Z</time>
      </trkpt>
      <trkpt lat="47.26839" lon="-2.31414">
        <ele>20.60000038147</ele>
        <time>2020-09-27T07:23:14.000Z</time>
      </trkpt>
      <trkpt lat="47.26854" lon="-2.31451">
        <ele>20.60000038147</ele>
        <time>2020-09-27T07:23:21.000Z</time>
      </trkpt>
      <trkpt lat="47.26863" lon="-2.31495">
        <ele>20.60000038147</ele>
        <time>2020-09-27T07:23:27.000Z</time>
      </trkpt>
      <trkpt lat="47.26871" lon="-2.31556">
        <ele>20.60000038147</ele>
        <time>2020-09-27T07:23:34.000Z</time>
      </trkpt>
      <trkpt lat="47.26875" lon="-2.31584">
        <ele>20</ele>
        <time>2020-09-27T07:23:37.000Z</time>
      </trkpt>
      <trkpt lat="47.26876" lon="-2.31594">
        <ele>19.60000038147</ele>
        <time>2020-09-27T07:23:38.000Z</time>
      </trkpt>
      <trkpt lat="47.26878" lon="-2.31604">
        <ele>19</ele>
        <time>2020-09-27T07:23:39.000Z</time>
      </trkpt>
      <trkpt lat="47.26879" lon="-2.31614">
        <ele>18.60000038147</ele>
        <time>2020-09-27T07:23:40.000Z</time>
      </trkpt>
      <trkpt lat="47.2688" lon="-2.31624">
        <ele>18</ele>
        <time>2020-09-27T07:23:41.000Z</time>
      </trkpt>
      <trkpt lat="47.26887" lon="-2.31672">
        <ele>17.60000038147</ele>
        <time>2020-09-27T07:23:46.000Z</time>
      </trkpt>
      <trkpt lat="47.26889" lon="-2.31682">
        <ele>17.200000762939</ele>
        <time>2020-09-27T07:23:47.000Z</time>
      </trkpt>
      <trkpt lat="47.2689" lon="-2.31691">
        <ele>16.60000038147</ele>
        <time>2020-09-27T07:23:48.000Z</time>
      </trkpt>
      <trkpt lat="47.26891" lon="-2.31701">
        <ele>16.200000762939</ele>
        <time>2020-09-27T07:23:49.000Z</time>
      </trkpt>
      <trkpt lat="47.26892" lon="-2.31711">
        <ele>15.800000190735</ele>
        <time>2020-09-27T07:23:50.000Z</time>
      </trkpt>
      <trkpt lat="47.26892" lon="-2.3174">
        <ele>15.800000190735</ele>
        <time>2020-09-27T07:23:53.000Z</time>
      </trkpt>
      <trkpt lat="47.26884" lon="-2.31765">
        <ele>15.800000190735</ele>
        <time>2020-09-27T07:23:56.000Z</time>
      </trkpt>
      <trkpt lat="47.26866" lon="-2.31785">
        <ele>15.800000190735</ele>
        <time>2020-09-27T07:24:00.000Z</time>
      </trkpt>
      <trkpt lat="47.2686" lon="-2.31788">
        <ele>15.39999961853</ele>
        <time>2020-09-27T07:24:01.000Z</time>
      </trkpt>
      <trkpt lat="47.26855" lon="-2.31791">
        <ele>15</ele>
        <time>2020-09-27T07:24:02.000Z</time>
      </trkpt>
      <trkpt lat="47.2685" lon="-2.31794">
        <ele>14.60000038147</ele>
        <time>2020-09-27T07:24:03.000Z</time>
      </trkpt>
      <trkpt lat="47.26845" lon="-2.31796">
        <ele>14.199999809265</ele>
        <time>2020-09-27T07:24:04.000Z</time>
      </trkpt>
      <trkpt lat="47.2684" lon="-2.31797">
        <ele>13.800000190735</ele>
        <time>2020-09-27T07:24:05.000Z</time>
      </trkpt>
      <trkpt lat="47.26835" lon="-2.31799">
        <ele>13.800000190735</ele>
        <time>2020-09-27T07:24:06.000Z</time>
      </trkpt>
      <trkpt lat="47.26818" lon="-2.31813">
        <ele>13.800000190735</ele>
        <time>2020-09-27T07:24:11.000Z</time>
      </trkpt>
      <trkpt lat="47.26819" lon="-2.31827">
        <ele>13.800000190735</ele>
        <time>2020-09-27T07:24:14.000Z</time>
      </trkpt>
      <trkpt lat="47.26827" lon="-2.3185">
        <ele>13.800000190735</ele>
        <time>2020-09-27T07:24:18.000Z</time>
      </trkpt>
      <trkpt lat="47.26832" lon="-2.31863">
        <ele>13.199999809265</ele>
        <time>2020-09-27T07:24:20.000Z</time>
      </trkpt>
      <trkpt lat="47.26835" lon="-2.3187">
        <ele>12.800000190735</ele>
        <time>2020-09-27T07:24:21.000Z</time>
      </trkpt>
      <trkpt lat="47.26838" lon="-2.31877">
        <ele>12.39999961853</ele>
        <time>2020-09-27T07:24:22.000Z</time>
      </trkpt>
      <trkpt lat="47.26843" lon="-2.31884">
        <ele>12</ele>
        <time>2020-09-27T07:24:23.000Z</time>
      </trkpt>
      <trkpt lat="47.26847" lon="-2.31889">
        <ele>11.60000038147</ele>
        <time>2020-09-27T07:24:24.000Z</time>
      </trkpt>
      <trkpt lat="47.26864" lon="-2.31894">
        <ele>11.199999809265</ele>
        <time>2020-09-27T07:24:27.000Z</time>
      </trkpt>
      <trkpt lat="47.26869" lon="-2.31896">
        <ele>10.800000190735</ele>
        <time>2020-09-27T07:24:28.000Z</time>
      </trkpt>
      <trkpt lat="47.26875" lon="-2.31899">
        <ele>10.199999809265</ele>
        <time>2020-09-27T07:24:29.000Z</time>
      </trkpt>
      <trkpt lat="47.2688" lon="-2.31903">
        <ele>9.8000001907349</ele>
        <time>2020-09-27T07:24:30.000Z</time>
      </trkpt>
      <trkpt lat="47.26885" lon="-2.31908">
        <ele>9.3999996185303</ele>
        <time>2020-09-27T07:24:31.000Z</time>
      </trkpt>
      <trkpt lat="47.26902" lon="-2.31938">
        <ele>9</ele>
        <time>2020-09-27T07:24:35.000Z</time>
      </trkpt>
      <trkpt lat="47.26907" lon="-2.31945">
        <ele>8.6000003814697</ele>
        <time>2020-09-27T07:24:36.000Z</time>
      </trkpt>
      <trkpt lat="47.26912" lon="-2.31951">
        <ele>8.1999998092651</ele>
        <time>2020-09-27T07:24:37.000Z</time>
      </trkpt>
      <trkpt lat="47.26917" lon="-2.31957">
        <ele>7.8000001907349</ele>
        <time>2020-09-27T07:24:38.000Z</time>
      </trkpt>
      <trkpt lat="47.26922" lon="-2.31964">
        <ele>7.4000000953674</ele>
        <time>2020-09-27T07:24:39.000Z</time>
      </trkpt>
      <trkpt lat="47.26932" lon="-2.31978">
        <ele>6.8000001907349</ele>
        <time>2020-09-27T07:24:41.000Z</time>
      </trkpt>
      <trkpt lat="47.26937" lon="-2.31985">
        <ele>6.4000000953674</ele>
        <time>2020-09-27T07:24:42.000Z</time>
      </trkpt>
      <trkpt lat="47.26942" lon="-2.31991">
        <ele>6</ele>
        <time>2020-09-27T07:24:43.000Z</time>
      </trkpt>
      <trkpt lat="47.26947" lon="-2.31996">
        <ele>5.1999998092651</ele>
        <time>2020-09-27T07:24:44.000Z</time>
      </trkpt>
      <trkpt lat="47.26951" lon="-2.31999">
        <ele>4.8000001907349</ele>
        <time>2020-09-27T07:24:45.000Z</time>
      </trkpt>
      <trkpt lat="47.26955" lon="-2.32001">
        <ele>4.4000000953674</ele>
        <time>2020-09-27T07:24:46.000Z</time>
      </trkpt>
      <trkpt lat="47.26959" lon="-2.32001">
        <ele>4</ele>
        <time>2020-09-27T07:24:47.000Z</time>
      </trkpt>
      <trkpt lat="47.26963" lon="-2.31999">
        <ele>3.5999999046326</ele>
        <time>2020-09-27T07:24:48.000Z</time>
      </trkpt>
      <trkpt lat="47.26967" lon="-2.31997">
        <ele>3</ele>
        <time>2020-09-27T07:24:49.000Z</time>
      </trkpt>
      <trkpt lat="47.26972" lon="-2.31996">
        <ele>3</ele>
        <time>2020-09-27T07:24:50.000Z</time>
      </trkpt>
      <trkpt lat="47.26977" lon="-2.31994">
        <ele>3</ele>
        <time>2020-09-27T07:24:51.000Z</time>
      </trkpt>
      <trkpt lat="47.26987" lon="-2.31991">
        <ele>3</ele>
        <time>2020-09-27T07:24:53.000Z</time>
      </trkpt>
      <trkpt lat="47.26997" lon="-2.31985">
        <ele>2.5999999046326</ele>
        <time>2020-09-27T07:24:55.000Z</time>
      </trkpt>
      <trkpt lat="47.27001" lon="-2.31982">
        <ele>2.2000000476837</ele>
        <time>2020-09-27T07:24:56.000Z</time>
      </trkpt>
      <trkpt lat="47.27006" lon="-2.31978">
        <ele>1.7999999523163</ele>
        <time>2020-09-27T07:24:57.000Z</time>
      </trkpt>
      <trkpt lat="47.27011" lon="-2.31975">
        <ele>1.3999999761581</ele>
        <time>2020-09-27T07:24:58.000Z</time>
      </trkpt>
      <trkpt lat="47.27016" lon="-2.31972">
        <ele>1</ele>
        <time>2020-09-27T07:24:59.000Z</time>
      </trkpt>
      <trkpt lat="47.27021" lon="-2.3197">
        <ele>1</ele>
        <time>2020-09-27T07:25:00.000Z</time>
      </trkpt>
      <trkpt lat="47.27025" lon="-2.31968">
        <ele>1</ele>
        <time>2020-09-27T07:25:01.000Z</time>
      </trkpt>
      <trkpt lat="47.2703" lon="-2.31966">
        <ele>1</ele>
        <time>2020-09-27T07:25:02.000Z</time>
      </trkpt>
      <trkpt lat="47.27049" lon="-2.31959">
        <ele>1</ele>
        <time>2020-09-27T07:25:06.000Z</time>
      </trkpt>
      <trkpt lat="47.27077" lon="-2.31957">
        <ele>1</ele>
        <time>2020-09-27T07:25:11.000Z</time>
      </trkpt>
      <trkpt lat="47.27104" lon="-2.3196">
        <ele>0.60000002384186</ele>
        <time>2020-09-27T07:25:16.000Z</time>
      </trkpt>
      <trkpt lat="47.27109" lon="-2.31961">
        <ele>0.20000000298023</ele>
        <time>2020-09-27T07:25:17.000Z</time>
      </trkpt>
      <trkpt lat="47.27114" lon="-2.31963">
        <ele>-0.20000000298023</ele>
        <time>2020-09-27T07:25:18.000Z</time>
      </trkpt>
      <trkpt lat="47.2712" lon="-2.31966">
        <ele>-0.60000002384186</ele>
        <time>2020-09-27T07:25:19.000Z</time>
      </trkpt>
      <trkpt lat="47.27124" lon="-2.31968">
        <ele>-1</ele>
        <time>2020-09-27T07:25:20.000Z</time>
      </trkpt>
      <trkpt lat="47.27134" lon="-2.31976">
        <ele>-1</ele>
        <time>2020-09-27T07:25:22.000Z</time>
      </trkpt>
      <trkpt lat="47.27151" lon="-2.31989">
        <ele>-1</ele>
        <time>2020-09-27T07:25:26.000Z</time>
      </trkpt>
      <trkpt lat="47.27156" lon="-2.31991">
        <ele>-1</ele>
        <time>2020-09-27T07:25:27.000Z</time>
      </trkpt>
      <trkpt lat="47.27166" lon="-2.31982">
        <ele>-1</ele>
        <time>2020-09-27T07:25:30.000Z</time>
      </trkpt>
      <trkpt lat="47.2717" lon="-2.31977">
        <ele>-1</ele>
        <time>2020-09-27T07:25:31.000Z</time>
      </trkpt>
      <trkpt lat="47.27177" lon="-2.31967">
        <ele>-1</ele>
        <time>2020-09-27T07:25:33.000Z</time>
      </trkpt>
      <trkpt lat="47.2718" lon="-2.31963">
        <ele>-1</ele>
        <time>2020-09-27T07:25:34.000Z</time>
      </trkpt>
      <trkpt lat="47.2719" lon="-2.31957">
        <ele>-1</ele>
        <time>2020-09-27T07:25:36.000Z</time>
      </trkpt>
      <trkpt lat="47.27198" lon="-2.3195">
        <ele>-1</ele>
        <time>2020-09-27T07:25:38.000Z</time>
      </trkpt>
      <trkpt lat="47.27203" lon="-2.31943">
        <ele>-1</ele>
        <time>2020-09-27T07:25:40.000Z</time>
      </trkpt>
      <trkpt lat="47.27208" lon="-2.31936">
        <ele>-1</ele>
        <time>2020-09-27T07:25:42.000Z</time>
      </trkpt>
      <trkpt lat="47.27223" lon="-2.31922">
        <ele>-1</ele>
        <time>2020-09-27T07:25:48.000Z</time>
      </trkpt>
      <trkpt lat="47.27241" lon="-2.31926">
        <ele>-1</ele>
        <time>2020-09-27T07:25:54.000Z</time>
      </trkpt>
      <trkpt lat="47.27259" lon="-2.31933">
        <ele>-1</ele>
        <time>2020-09-27T07:25:59.000Z</time>
      </trkpt>
      <trkpt lat="47.27283" lon="-2.31942">
        <ele>-1</ele>
        <time>2020-09-27T07:26:04.000Z</time>
      </trkpt>
      <trkpt lat="47.27288" lon="-2.31944">
        <ele>-1</ele>
        <time>2020-09-27T07:26:05.000Z</time>
      </trkpt>
      <trkpt lat="47.27312" lon="-2.31963">
        <ele>-1</ele>
        <time>2020-09-27T07:26:10.000Z</time>
      </trkpt>
      <trkpt lat="47.27323" lon="-2.31973">
        <ele>-1</ele>
        <time>2020-09-27T07:26:12.000Z</time>
      </trkpt>
      <trkpt lat="47.27345" lon="-2.31993">
        <ele>-1</ele>
        <time>2020-09-27T07:26:16.000Z</time>
      </trkpt>
      <trkpt lat="47.27356" lon="-2.32004">
        <ele>-1</ele>
        <time>2020-09-27T07:26:18.000Z</time>
      </trkpt>
      <trkpt lat="47.27386" lon="-2.32034">
        <ele>-1</ele>
        <time>2020-09-27T07:26:25.000Z</time>
      </trkpt>
      <trkpt lat="47.2741" lon="-2.32061">
        <ele>-0.60000002384186</ele>
        <time>2020-09-27T07:26:32.000Z</time>
      </trkpt>
      <trkpt lat="47.27413" lon="-2.32065">
        <ele>-0.20000000298023</ele>
        <time>2020-09-27T07:26:33.000Z</time>
      </trkpt>
      <trkpt lat="47.27417" lon="-2.32069">
        <ele>0.20000000298023</ele>
        <time>2020-09-27T07:26:34.000Z</time>
      </trkpt>
      <trkpt lat="47.27421" lon="-2.32073">
        <ele>0.80000001192093</ele>
        <time>2020-09-27T07:26:35.000Z</time>
      </trkpt>
      <trkpt lat="47.27424" lon="-2.32077">
        <ele>1.2000000476837</ele>
        <time>2020-09-27T07:26:36.000Z</time>
      </trkpt>
      <trkpt lat="47.27436" lon="-2.32089">
        <ele>1.2000000476837</ele>
        <time>2020-09-27T07:26:39.000Z</time>
      </trkpt>
      <trkpt lat="47.2746" lon="-2.32121">
        <ele>1.2000000476837</ele>
        <time>2020-09-27T07:26:46.000Z</time>
      </trkpt>
      <trkpt lat="47.27468" lon="-2.32131">
        <ele>1.6000000238419</ele>
        <time>2020-09-27T07:26:48.000Z</time>
      </trkpt>
      <trkpt lat="47.27472" lon="-2.32136">
        <ele>2</ele>
        <time>2020-09-27T07:26:49.000Z</time>
      </trkpt>
      <trkpt lat="47.27475" lon="-2.32142">
        <ele>2.4000000953674</ele>
        <time>2020-09-27T07:26:50.000Z</time>
      </trkpt>
      <trkpt lat="47.27479" lon="-2.32147">
        <ele>2.7999999523163</ele>
        <time>2020-09-27T07:26:51.000Z</time>
      </trkpt>
      <trkpt lat="47.27483" lon="-2.32152">
        <ele>3.2000000476837</ele>
        <time>2020-09-27T07:26:52.000Z</time>
      </trkpt>
      <trkpt lat="47.27491" lon="-2.32162">
        <ele>3.2000000476837</ele>
        <time>2020-09-27T07:26:54.000Z</time>
      </trkpt>
      <trkpt lat="47.27512" lon="-2.3219">
        <ele>3.2000000476837</ele>
        <time>2020-09-27T07:27:00.000Z</time>
      </trkpt>
      <trkpt lat="47.27536" lon="-2.32216">
        <ele>3.5999999046326</ele>
        <time>2020-09-27T07:27:07.000Z</time>
      </trkpt>
      <trkpt lat="47.27539" lon="-2.3222">
        <ele>4</ele>
        <time>2020-09-27T07:27:08.000Z</time>
      </trkpt>
      <trkpt lat="47.27543" lon="-2.32223">
        <ele>4.4000000953674</ele>
        <time>2020-09-27T07:27:09.000Z</time>
      </trkpt>
      <trkpt lat="47.27547" lon="-2.32227">
        <ele>4.8000001907349</ele>
        <time>2020-09-27T07:27:10.000Z</time>
      </trkpt>
      <trkpt lat="47.2755" lon="-2.3223">
        <ele>5.1999998092651</ele>
        <time>2020-09-27T07:27:11.000Z</time>
      </trkpt>
      <trkpt lat="47.27564" lon="-2.32241">
        <ele>5.1999998092651</ele>
        <time>2020-09-27T07:27:15.000Z</time>
      </trkpt>
      <trkpt lat="47.27567" lon="-2.32243">
        <ele>5.8000001907349</ele>
        <time>2020-09-27T07:27:16.000Z</time>
      </trkpt>
      <trkpt lat="47.27571" lon="-2.32246">
        <ele>6.1999998092651</ele>
        <time>2020-09-27T07:27:17.000Z</time>
      </trkpt>
      <trkpt lat="47.27575" lon="-2.3225">
        <ele>6.5999999046326</ele>
        <time>2020-09-27T07:27:18.000Z</time>
      </trkpt>
      <trkpt lat="47.27578" lon="-2.32253">
        <ele>7</ele>
        <time>2020-09-27T07:27:19.000Z</time>
      </trkpt>
      <trkpt lat="47.27581" lon="-2.32256">
        <ele>7.4000000953674</ele>
        <time>2020-09-27T07:27:20.000Z</time>
      </trkpt>
      <trkpt lat="47.27588" lon="-2.32262">
        <ele>7.4000000953674</ele>
        <time>2020-09-27T07:27:22.000Z</time>
      </trkpt>
      <trkpt lat="47.27597" lon="-2.3227">
        <ele>7.8000001907349</ele>
        <time>2020-09-27T07:27:25.000Z</time>
      </trkpt>
      <trkpt lat="47.27599" lon="-2.32272">
        <ele>8.1999998092651</ele>
        <time>2020-09-27T07:27:26.000Z</time>
      </trkpt>
      <trkpt lat="47.27602" lon="-2.32274">
        <ele>8.6000003814697</ele>
        <time>2020-09-27T07:27:27.000Z</time>
      </trkpt>
      <trkpt lat="47.27604" lon="-2.32276">
        <ele>9</ele>
        <time>2020-09-27T07:27:28.000Z</time>
      </trkpt>
      <trkpt lat="47.27607" lon="-2.32278">
        <ele>9.3999996185303</ele>
        <time>2020-09-27T07:27:29.000Z</time>
      </trkpt>
      <trkpt lat="47.27618" lon="-2.32292">
        <ele>9.3999996185303</ele>
        <time>2020-09-27T07:27:35.000Z</time>
      </trkpt>
      <trkpt lat="47.2763" lon="-2.32303">
        <ele>9.3999996185303</ele>
        <time>2020-09-27T07:27:41.000Z</time>
      </trkpt>
      <trkpt lat="47.27637" lon="-2.32306">
        <ele>9.8000001907349</ele>
        <time>2020-09-27T07:27:45.000Z</time>
      </trkpt>
      <trkpt lat="47.27639" lon="-2.32307">
        <ele>10.199999809265</ele>
        <time>2020-09-27T07:27:46.000Z</time>
      </trkpt>
      <trkpt lat="47.27641" lon="-2.32308">
        <ele>10.60000038147</ele>
        <time>2020-09-27T07:27:47.000Z</time>
      </trkpt>
      <trkpt lat="47.27643" lon="-2.32309">
        <ele>11</ele>
        <time>2020-09-27T07:27:48.000Z</time>
      </trkpt>
      <trkpt lat="47.27646" lon="-2.3231">
        <ele>11.39999961853</ele>
        <time>2020-09-27T07:27:49.000Z</time>
      </trkpt>
      <trkpt lat="47.27657" lon="-2.32314">
        <ele>11.39999961853</ele>
        <time>2020-09-27T07:27:53.000Z</time>
      </trkpt>
      <trkpt lat="47.27676" lon="-2.32321">
        <ele>11.39999961853</ele>
        <time>2020-09-27T07:27:59.000Z</time>
      </trkpt>
      <trkpt lat="47.27699" lon="-2.3233">
        <ele>11.39999961853</ele>
        <time>2020-09-27T07:28:06.000Z</time>
      </trkpt>
      <trkpt lat="47.27713" lon="-2.32337">
        <ele>11.39999961853</ele>
        <time>2020-09-27T07:28:11.000Z</time>
      </trkpt>
      <trkpt lat="47.27714" lon="-2.32337">
        <ele>11.39999961853</ele>
        <time>2020-09-27T07:28:13.000Z</time>
      </trkpt>
      <trkpt lat="47.27715" lon="-2.32339">
        <ele>11.39999961853</ele>
        <time>2020-09-27T07:28:19.000Z</time>
      </trkpt>
      <trkpt lat="47.27717" lon="-2.3234">
        <ele>11.39999961853</ele>
        <time>2020-09-27T07:28:20.000Z</time>
      </trkpt>
      <trkpt lat="47.27729" lon="-2.32349">
        <ele>11.39999961853</ele>
        <time>2020-09-27T07:28:25.000Z</time>
      </trkpt>
      <trkpt lat="47.27754" lon="-2.32366">
        <ele>11.39999961853</ele>
        <time>2020-09-27T07:28:32.000Z</time>
      </trkpt>
      <trkpt lat="47.27763" lon="-2.32374">
        <ele>11.39999961853</ele>
        <time>2020-09-27T07:28:36.000Z</time>
      </trkpt>
      <trkpt lat="47.27767" lon="-2.32374">
        <ele>11.39999961853</ele>
        <time>2020-09-27T07:28:39.000Z</time>
      </trkpt>
      <trkpt lat="47.27766" lon="-2.32375">
        <ele>11.39999961853</ele>
        <time>2020-09-27T07:28:47.000Z</time>
      </trkpt>
      <trkpt lat="47.27765" lon="-2.32377">
        <ele>11.39999961853</ele>
        <time>2020-09-27T07:28:48.000Z</time>
      </trkpt>
      <trkpt lat="47.27762" lon="-2.32384">
        <ele>11.39999961853</ele>
        <time>2020-09-27T07:28:51.000Z</time>
      </trkpt>
      <trkpt lat="47.27759" lon="-2.32387">
        <ele>11.39999961853</ele>
        <time>2020-09-27T07:28:53.000Z</time>
      </trkpt>
      <trkpt lat="47.27747" lon="-2.32399">
        <ele>11.39999961853</ele>
        <time>2020-09-27T07:28:58.000Z</time>
      </trkpt>
      <trkpt lat="47.27744" lon="-2.32402">
        <ele>11.800000190735</ele>
        <time>2020-09-27T07:28:59.000Z</time>
      </trkpt>
      <trkpt lat="47.27741" lon="-2.32405">
        <ele>12.39999961853</ele>
        <time>2020-09-27T07:29:00.000Z</time>
      </trkpt>
      <trkpt lat="47.27738" lon="-2.32409">
        <ele>12.800000190735</ele>
        <time>2020-09-27T07:29:01.000Z</time>
      </trkpt>
      <trkpt lat="47.27735" lon="-2.32414">
        <ele>13.199999809265</ele>
        <time>2020-09-27T07:29:02.000Z</time>
      </trkpt>
      <trkpt lat="47.27733" lon="-2.32418">
        <ele>13.60000038147</ele>
        <time>2020-09-27T07:29:03.000Z</time>
      </trkpt>
      <trkpt lat="47.27727" lon="-2.32426">
        <ele>13.60000038147</ele>
        <time>2020-09-27T07:29:05.000Z</time>
      </trkpt>
      <trkpt lat="47.27719" lon="-2.32435">
        <ele>13.60000038147</ele>
        <time>2020-09-27T07:29:08.000Z</time>
      </trkpt>
      <trkpt lat="47.2771" lon="-2.32444">
        <ele>13.60000038147</ele>
        <time>2020-09-27T07:29:12.000Z</time>
      </trkpt>
      <trkpt lat="47.277" lon="-2.32457">
        <ele>13.60000038147</ele>
        <time>2020-09-27T07:29:15.000Z</time>
      </trkpt>
      <trkpt lat="47.27692" lon="-2.32467">
        <ele>13.60000038147</ele>
        <time>2020-09-27T07:29:17.000Z</time>
      </trkpt>
      <trkpt lat="47.27666" lon="-2.32494">
        <ele>13.60000038147</ele>
        <time>2020-09-27T07:29:24.000Z</time>
      </trkpt>
      <trkpt lat="47.27651" lon="-2.32487">
        <ele>13.60000038147</ele>
        <time>2020-09-27T07:29:28.000Z</time>
      </trkpt>
      <trkpt lat="47.27641" lon="-2.32483">
        <ele>13.60000038147</ele>
        <time>2020-09-27T07:29:30.000Z</time>
      </trkpt>
      <trkpt lat="47.27632" lon="-2.32485">
        <ele>13.60000038147</ele>
        <time>2020-09-27T07:29:32.000Z</time>
      </trkpt>
      <trkpt lat="47.27631" lon="-2.325">
        <ele>13.60000038147</ele>
        <time>2020-09-27T07:29:35.000Z</time>
      </trkpt>
      <trkpt lat="47.27632" lon="-2.32506">
        <ele>13.60000038147</ele>
        <time>2020-09-27T07:29:36.000Z</time>
      </trkpt>
      <trkpt lat="47.27633" lon="-2.32512">
        <ele>13.60000038147</ele>
        <time>2020-09-27T07:29:37.000Z</time>
      </trkpt>
      <trkpt lat="47.27635" lon="-2.32524">
        <ele>13</ele>
        <time>2020-09-27T07:29:39.000Z</time>
      </trkpt>
      <trkpt lat="47.27637" lon="-2.32531">
        <ele>12.60000038147</ele>
        <time>2020-09-27T07:29:40.000Z</time>
      </trkpt>
      <trkpt lat="47.27639" lon="-2.32538">
        <ele>12.199999809265</ele>
        <time>2020-09-27T07:29:41.000Z</time>
      </trkpt>
      <trkpt lat="47.2764" lon="-2.32545">
        <ele>11.800000190735</ele>
        <time>2020-09-27T07:29:42.000Z</time>
      </trkpt>
      <trkpt lat="47.27642" lon="-2.32553">
        <ele>11.39999961853</ele>
        <time>2020-09-27T07:29:43.000Z</time>
      </trkpt>
      <trkpt lat="47.27654" lon="-2.326">
        <ele>11.39999961853</ele>
        <time>2020-09-27T07:29:49.000Z</time>
      </trkpt>
      <trkpt lat="47.27657" lon="-2.32609">
        <ele>10.800000190735</ele>
        <time>2020-09-27T07:29:50.000Z</time>
      </trkpt>
      <trkpt lat="47.2766" lon="-2.32618">
        <ele>10.39999961853</ele>
        <time>2020-09-27T07:29:51.000Z</time>
      </trkpt>
      <trkpt lat="47.27664" lon="-2.32628">
        <ele>9.8000001907349</ele>
        <time>2020-09-27T07:29:52.000Z</time>
      </trkpt>
      <trkpt lat="47.27667" lon="-2.32637">
        <ele>9.3999996185303</ele>
        <time>2020-09-27T07:29:53.000Z</time>
      </trkpt>
      <trkpt lat="47.27671" lon="-2.32647">
        <ele>8.8000001907349</ele>
        <time>2020-09-27T07:29:54.000Z</time>
      </trkpt>
      <trkpt lat="47.27675" lon="-2.32656">
        <ele>8.3999996185303</ele>
        <time>2020-09-27T07:29:55.000Z</time>
      </trkpt>
      <trkpt lat="47.27679" lon="-2.32664">
        <ele>8</ele>
        <time>2020-09-27T07:29:56.000Z</time>
      </trkpt>
      <trkpt lat="47.27683" lon="-2.32673">
        <ele>7.5999999046326</ele>
        <time>2020-09-27T07:29:57.000Z</time>
      </trkpt>
      <trkpt lat="47.27687" lon="-2.3268">
        <ele>7</ele>
        <time>2020-09-27T07:29:58.000Z</time>
      </trkpt>
      <trkpt lat="47.27691" lon="-2.32687">
        <ele>5.5999999046326</ele>
        <time>2020-09-27T07:29:59.000Z</time>
      </trkpt>
      <trkpt lat="47.27696" lon="-2.32695">
        <ele>5</ele>
        <time>2020-09-27T07:30:00.000Z</time>
      </trkpt>
      <trkpt lat="47.27699" lon="-2.32701">
        <ele>4.4000000953674</ele>
        <time>2020-09-27T07:30:01.000Z</time>
      </trkpt>
      <trkpt lat="47.27701" lon="-2.32706">
        <ele>4.4000000953674</ele>
        <time>2020-09-27T07:30:02.000Z</time>
      </trkpt>
      <trkpt lat="47.27704" lon="-2.3271">
        <ele>4.4000000953674</ele>
        <time>2020-09-27T07:30:03.000Z</time>
      </trkpt>
      <trkpt lat="47.27706" lon="-2.32714">
        <ele>4</ele>
        <time>2020-09-27T07:30:04.000Z</time>
      </trkpt>
      <trkpt lat="47.27707" lon="-2.32718">
        <ele>3.5999999046326</ele>
        <time>2020-09-27T07:30:05.000Z</time>
      </trkpt>
      <trkpt lat="47.27707" lon="-2.32721">
        <ele>3.2000000476837</ele>
        <time>2020-09-27T07:30:06.000Z</time>
      </trkpt>
      <trkpt lat="47.27704" lon="-2.32723">
        <ele>2.7999999523163</ele>
        <time>2020-09-27T07:30:07.000Z</time>
      </trkpt>
      <trkpt lat="47.27702" lon="-2.32726">
        <ele>2.2000000476837</ele>
        <time>2020-09-27T07:30:08.000Z</time>
      </trkpt>
      <trkpt lat="47.27691" lon="-2.32731">
        <ele>2.2000000476837</ele>
        <time>2020-09-27T07:30:11.000Z</time>
      </trkpt>
      <trkpt lat="47.27675" lon="-2.32726">
        <ele>2.2000000476837</ele>
        <time>2020-09-27T07:30:15.000Z</time>
      </trkpt>
      <trkpt lat="47.27658" lon="-2.32715">
        <ele>2.2000000476837</ele>
        <time>2020-09-27T07:30:19.000Z</time>
      </trkpt>
      <trkpt lat="47.27649" lon="-2.32711">
        <ele>2.2000000476837</ele>
        <time>2020-09-27T07:30:21.000Z</time>
      </trkpt>
      <trkpt lat="47.27635" lon="-2.32705">
        <ele>2.2000000476837</ele>
        <time>2020-09-27T07:30:24.000Z</time>
      </trkpt>
      <trkpt lat="47.2763" lon="-2.32696">
        <ele>2.2000000476837</ele>
        <time>2020-09-27T07:30:26.000Z</time>
      </trkpt>
      <trkpt lat="47.27618" lon="-2.3269">
        <ele>2.2000000476837</ele>
        <time>2020-09-27T07:30:30.000Z</time>
      </trkpt>
      <trkpt lat="47.27609" lon="-2.32704">
        <ele>2.2000000476837</ele>
        <time>2020-09-27T07:30:34.000Z</time>
      </trkpt>
      <trkpt lat="47.27604" lon="-2.32713">
        <ele>2.2000000476837</ele>
        <time>2020-09-27T07:30:36.000Z</time>
      </trkpt>
      <trkpt lat="47.276" lon="-2.32722">
        <ele>2.2000000476837</ele>
        <time>2020-09-27T07:30:38.000Z</time>
      </trkpt>
      <trkpt lat="47.27594" lon="-2.32739">
        <ele>2.2000000476837</ele>
        <time>2020-09-27T07:30:43.000Z</time>
      </trkpt>
      <trkpt lat="47.27593" lon="-2.32742">
        <ele>2.7999999523163</ele>
        <time>2020-09-27T07:30:44.000Z</time>
      </trkpt>
      <trkpt lat="47.27593" lon="-2.32743">
        <ele>3.2000000476837</ele>
        <time>2020-09-27T07:30:45.000Z</time>
      </trkpt>
      <trkpt lat="47.27593" lon="-2.32746">
        <ele>3.5999999046326</ele>
        <time>2020-09-27T07:30:46.000Z</time>
      </trkpt>
      <trkpt lat="47.27593" lon="-2.32748">
        <ele>4</ele>
        <time>2020-09-27T07:30:47.000Z</time>
      </trkpt>
      <trkpt lat="47.27593" lon="-2.3275">
        <ele>4.4000000953674</ele>
        <time>2020-09-27T07:30:48.000Z</time>
      </trkpt>
      <trkpt lat="47.27592" lon="-2.32755">
        <ele>4.8000001907349</ele>
        <time>2020-09-27T07:30:50.000Z</time>
      </trkpt>
      <trkpt lat="47.2759" lon="-2.32759">
        <ele>5.1999998092651</ele>
        <time>2020-09-27T07:30:51.000Z</time>
      </trkpt>
      <trkpt lat="47.27589" lon="-2.32762">
        <ele>5.5999999046326</ele>
        <time>2020-09-27T07:30:52.000Z</time>
      </trkpt>
      <trkpt lat="47.27588" lon="-2.32764">
        <ele>6</ele>
        <time>2020-09-27T07:30:53.000Z</time>
      </trkpt>
      <trkpt lat="47.27587" lon="-2.32766">
        <ele>6.4000000953674</ele>
        <time>2020-09-27T07:30:54.000Z</time>
      </trkpt>
      <trkpt lat="47.27585" lon="-2.32772">
        <ele>6.4000000953674</ele>
        <time>2020-09-27T07:31:01.000Z</time>
      </trkpt>
      <trkpt lat="47.27585" lon="-2.32774">
        <ele>6.4000000953674</ele>
        <time>2020-09-27T07:31:06.000Z</time>
      </trkpt>
      <trkpt lat="47.27584" lon="-2.32781">
        <ele>6.4000000953674</ele>
        <time>2020-09-27T07:31:08.000Z</time>
      </trkpt>
      <trkpt lat="47.27579" lon="-2.32802">
        <ele>6.4000000953674</ele>
        <time>2020-09-27T07:31:13.000Z</time>
      </trkpt>
      <trkpt lat="47.27575" lon="-2.3281">
        <ele>6.8000001907349</ele>
        <time>2020-09-27T07:31:16.000Z</time>
      </trkpt>
      <trkpt lat="47.27574" lon="-2.32813">
        <ele>7.1999998092651</ele>
        <time>2020-09-27T07:31:17.000Z</time>
      </trkpt>
      <trkpt lat="47.27572" lon="-2.32815">
        <ele>7.5999999046326</ele>
        <time>2020-09-27T07:31:18.000Z</time>
      </trkpt>
      <trkpt lat="47.2757" lon="-2.32817">
        <ele>8</ele>
        <time>2020-09-27T07:31:19.000Z</time>
      </trkpt>
      <trkpt lat="47.27568" lon="-2.3282">
        <ele>8.6000003814697</ele>
        <time>2020-09-27T07:31:20.000Z</time>
      </trkpt>
      <trkpt lat="47.27562" lon="-2.3283">
        <ele>8.6000003814697</ele>
        <time>2020-09-27T07:31:23.000Z</time>
      </trkpt>
      <trkpt lat="47.27548" lon="-2.32845">
        <ele>8.6000003814697</ele>
        <time>2020-09-27T07:31:28.000Z</time>
      </trkpt>
      <trkpt lat="47.27528" lon="-2.3287">
        <ele>8.6000003814697</ele>
        <time>2020-09-27T07:31:34.000Z</time>
      </trkpt>
      <trkpt lat="47.27515" lon="-2.329">
        <ele>8.6000003814697</ele>
        <time>2020-09-27T07:31:40.000Z</time>
      </trkpt>
      <trkpt lat="47.27513" lon="-2.32905">
        <ele>9</ele>
        <time>2020-09-27T07:31:41.000Z</time>
      </trkpt>
      <trkpt lat="47.27512" lon="-2.32911">
        <ele>9.3999996185303</ele>
        <time>2020-09-27T07:31:42.000Z</time>
      </trkpt>
      <trkpt lat="47.2751" lon="-2.32916">
        <ele>9.8000001907349</ele>
        <time>2020-09-27T07:31:43.000Z</time>
      </trkpt>
      <trkpt lat="47.27509" lon="-2.32922">
        <ele>10.199999809265</ele>
        <time>2020-09-27T07:31:44.000Z</time>
      </trkpt>
      <trkpt lat="47.27508" lon="-2.32927">
        <ele>10.60000038147</ele>
        <time>2020-09-27T07:31:45.000Z</time>
      </trkpt>
      <trkpt lat="47.27506" lon="-2.32932">
        <ele>10.60000038147</ele>
        <time>2020-09-27T07:31:46.000Z</time>
      </trkpt>
      <trkpt lat="47.27494" lon="-2.32963">
        <ele>10.60000038147</ele>
        <time>2020-09-27T07:31:52.000Z</time>
      </trkpt>
      <trkpt lat="47.27487" lon="-2.32983">
        <ele>11</ele>
        <time>2020-09-27T07:31:56.000Z</time>
      </trkpt>
      <trkpt lat="47.27485" lon="-2.32988">
        <ele>11.39999961853</ele>
        <time>2020-09-27T07:31:57.000Z</time>
      </trkpt>
      <trkpt lat="47.27484" lon="-2.32993">
        <ele>11.800000190735</ele>
        <time>2020-09-27T07:31:58.000Z</time>
      </trkpt>
      <trkpt lat="47.27482" lon="-2.32998">
        <ele>12.199999809265</ele>
        <time>2020-09-27T07:31:59.000Z</time>
      </trkpt>
      <trkpt lat="47.2748" lon="-2.33002">
        <ele>12.60000038147</ele>
        <time>2020-09-27T07:32:00.000Z</time>
      </trkpt>
      <trkpt lat="47.27471" lon="-2.33026">
        <ele>13.199999809265</ele>
        <time>2020-09-27T07:32:05.000Z</time>
      </trkpt>
      <trkpt lat="47.2747" lon="-2.33031">
        <ele>13.60000038147</ele>
        <time>2020-09-27T07:32:06.000Z</time>
      </trkpt>
      <trkpt lat="47.27469" lon="-2.33036">
        <ele>14</ele>
        <time>2020-09-27T07:32:07.000Z</time>
      </trkpt>
      <trkpt lat="47.27468" lon="-2.33041">
        <ele>14.39999961853</ele>
        <time>2020-09-27T07:32:08.000Z</time>
      </trkpt>
      <trkpt lat="47.27468" lon="-2.33046">
        <ele>15</ele>
        <time>2020-09-27T07:32:09.000Z</time>
      </trkpt>
      <trkpt lat="47.27473" lon="-2.33064">
        <ele>15</ele>
        <time>2020-09-27T07:32:13.000Z</time>
      </trkpt>
      <trkpt lat="47.27477" lon="-2.33079">
        <ele>15</ele>
        <time>2020-09-27T07:32:17.000Z</time>
      </trkpt>
      <trkpt lat="47.27476" lon="-2.33081">
        <ele>15</ele>
        <time>2020-09-27T07:32:18.000Z</time>
      </trkpt>
      <trkpt lat="47.27466" lon="-2.33089">
        <ele>15</ele>
        <time>2020-09-27T07:32:22.000Z</time>
      </trkpt>
      <trkpt lat="47.27453" lon="-2.33101">
        <ele>15</ele>
        <time>2020-09-27T07:32:27.000Z</time>
      </trkpt>
      <trkpt lat="47.27452" lon="-2.33105">
        <ele>15</ele>
        <time>2020-09-27T07:32:28.000Z</time>
      </trkpt>
      <trkpt lat="47.27449" lon="-2.33121">
        <ele>15</ele>
        <time>2020-09-27T07:32:31.000Z</time>
      </trkpt>
      <trkpt lat="47.27448" lon="-2.33126">
        <ele>15.39999961853</ele>
        <time>2020-09-27T07:32:32.000Z</time>
      </trkpt>
      <trkpt lat="47.27447" lon="-2.33131">
        <ele>15.800000190735</ele>
        <time>2020-09-27T07:32:33.000Z</time>
      </trkpt>
      <trkpt lat="47.27446" lon="-2.33137">
        <ele>16.200000762939</ele>
        <time>2020-09-27T07:32:34.000Z</time>
      </trkpt>
      <trkpt lat="47.27445" lon="-2.33142">
        <ele>16.60000038147</ele>
        <time>2020-09-27T07:32:35.000Z</time>
      </trkpt>
      <trkpt lat="47.27445" lon="-2.33147">
        <ele>17</ele>
        <time>2020-09-27T07:32:36.000Z</time>
      </trkpt>
      <trkpt lat="47.27442" lon="-2.33157">
        <ele>17</ele>
        <time>2020-09-27T07:32:38.000Z</time>
      </trkpt>
      <trkpt lat="47.27435" lon="-2.33183">
        <ele>17</ele>
        <time>2020-09-27T07:32:43.000Z</time>
      </trkpt>
      <trkpt lat="47.27424" lon="-2.33227">
        <ele>17</ele>
        <time>2020-09-27T07:32:51.000Z</time>
      </trkpt>
      <trkpt lat="47.27416" lon="-2.33255">
        <ele>17</ele>
        <time>2020-09-27T07:32:57.000Z</time>
      </trkpt>
      <trkpt lat="47.27421" lon="-2.33259">
        <ele>17</ele>
        <time>2020-09-27T07:33:01.000Z</time>
      </trkpt>
      <trkpt lat="47.27426" lon="-2.33269">
        <ele>17</ele>
        <time>2020-09-27T07:33:04.000Z</time>
      </trkpt>
      <trkpt lat="47.27429" lon="-2.33274">
        <ele>17</ele>
        <time>2020-09-27T07:33:05.000Z</time>
      </trkpt>
      <trkpt lat="47.27433" lon="-2.33282">
        <ele>17.39999961853</ele>
        <time>2020-09-27T07:33:07.000Z</time>
      </trkpt>
      <trkpt lat="47.27434" lon="-2.33288">
        <ele>17.799999237061</ele>
        <time>2020-09-27T07:33:08.000Z</time>
      </trkpt>
      <trkpt lat="47.27436" lon="-2.33292">
        <ele>18.200000762939</ele>
        <time>2020-09-27T07:33:09.000Z</time>
      </trkpt>
      <trkpt lat="47.27438" lon="-2.33297">
        <ele>18.60000038147</ele>
        <time>2020-09-27T07:33:10.000Z</time>
      </trkpt>
      <trkpt lat="47.2744" lon="-2.33302">
        <ele>19.200000762939</ele>
        <time>2020-09-27T07:33:11.000Z</time>
      </trkpt>
      <trkpt lat="47.27456" lon="-2.33331">
        <ele>19.200000762939</ele>
        <time>2020-09-27T07:33:18.000Z</time>
      </trkpt>
      <trkpt lat="47.27471" lon="-2.33334">
        <ele>19.200000762939</ele>
        <time>2020-09-27T07:33:22.000Z</time>
      </trkpt>
      <trkpt lat="47.27498" lon="-2.33341">
        <ele>19.200000762939</ele>
        <time>2020-09-27T07:33:29.000Z</time>
      </trkpt>
      <trkpt lat="47.27516" lon="-2.33353">
        <ele>19.200000762939</ele>
        <time>2020-09-27T07:33:34.000Z</time>
      </trkpt>
      <trkpt lat="47.27532" lon="-2.33373">
        <ele>19.200000762939</ele>
        <time>2020-09-27T07:33:40.000Z</time>
      </trkpt>
      <trkpt lat="47.27536" lon="-2.33383">
        <ele>19.200000762939</ele>
        <time>2020-09-27T07:33:43.000Z</time>
      </trkpt>
      <trkpt lat="47.27546" lon="-2.33397">
        <ele>19.200000762939</ele>
        <time>2020-09-27T07:33:47.000Z</time>
      </trkpt>
      <trkpt lat="47.27552" lon="-2.33414">
        <ele>19.200000762939</ele>
        <time>2020-09-27T07:33:50.000Z</time>
      </trkpt>
      <trkpt lat="47.27553" lon="-2.3342">
        <ele>19.200000762939</ele>
        <time>2020-09-27T07:33:51.000Z</time>
      </trkpt>
      <trkpt lat="47.27556" lon="-2.3344">
        <ele>19.200000762939</ele>
        <time>2020-09-27T07:33:54.000Z</time>
      </trkpt>
      <trkpt lat="47.27557" lon="-2.33454">
        <ele>19.200000762939</ele>
        <time>2020-09-27T07:33:56.000Z</time>
      </trkpt>
      <trkpt lat="47.27557" lon="-2.33461">
        <ele>19.200000762939</ele>
        <time>2020-09-27T07:33:57.000Z</time>
      </trkpt>
      <trkpt lat="47.27556" lon="-2.33479">
        <ele>19.200000762939</ele>
        <time>2020-09-27T07:34:00.000Z</time>
      </trkpt>
      <trkpt lat="47.27553" lon="-2.33497">
        <ele>19.200000762939</ele>
        <time>2020-09-27T07:34:03.000Z</time>
      </trkpt>
      <trkpt lat="47.27551" lon="-2.33521">
        <ele>19.60000038147</ele>
        <time>2020-09-27T07:34:07.000Z</time>
      </trkpt>
      <trkpt lat="47.2755" lon="-2.33527">
        <ele>20</ele>
        <time>2020-09-27T07:34:08.000Z</time>
      </trkpt>
      <trkpt lat="47.2755" lon="-2.33533">
        <ele>20.39999961853</ele>
        <time>2020-09-27T07:34:09.000Z</time>
      </trkpt>
      <trkpt lat="47.27548" lon="-2.33539">
        <ele>20.799999237061</ele>
        <time>2020-09-27T07:34:10.000Z</time>
      </trkpt>
      <trkpt lat="47.27547" lon="-2.33545">
        <ele>21.200000762939</ele>
        <time>2020-09-27T07:34:11.000Z</time>
      </trkpt>
      <trkpt lat="47.27544" lon="-2.33564">
        <ele>21.200000762939</ele>
        <time>2020-09-27T07:34:14.000Z</time>
      </trkpt>
      <trkpt lat="47.27535" lon="-2.33608">
        <ele>21.200000762939</ele>
        <time>2020-09-27T07:34:20.000Z</time>
      </trkpt>
      <trkpt lat="47.27533" lon="-2.33624">
        <ele>21.200000762939</ele>
        <time>2020-09-27T07:34:22.000Z</time>
      </trkpt>
      <trkpt lat="47.27534" lon="-2.3365">
        <ele>21.200000762939</ele>
        <time>2020-09-27T07:34:25.000Z</time>
      </trkpt>
      <trkpt lat="47.27539" lon="-2.33689">
        <ele>21.200000762939</ele>
        <time>2020-09-27T07:34:30.000Z</time>
      </trkpt>
      <trkpt lat="47.27541" lon="-2.33697">
        <ele>21.200000762939</ele>
        <time>2020-09-27T07:34:31.000Z</time>
      </trkpt>
      <trkpt lat="47.27557" lon="-2.33754">
        <ele>21.200000762939</ele>
        <time>2020-09-27T07:34:39.000Z</time>
      </trkpt>
      <trkpt lat="47.27571" lon="-2.33801">
        <ele>21.200000762939</ele>
        <time>2020-09-27T07:34:46.000Z</time>
      </trkpt>
      <trkpt lat="47.27576" lon="-2.33831">
        <ele>21.200000762939</ele>
        <time>2020-09-27T07:34:51.000Z</time>
      </trkpt>
      <trkpt lat="47.27578" lon="-2.33837">
        <ele>21.200000762939</ele>
        <time>2020-09-27T07:34:52.000Z</time>
      </trkpt>
      <trkpt lat="47.27586" lon="-2.33865">
        <ele>21.200000762939</ele>
        <time>2020-09-27T07:34:56.000Z</time>
      </trkpt>
      <trkpt lat="47.27592" lon="-2.33912">
        <ele>21.200000762939</ele>
        <time>2020-09-27T07:35:03.000Z</time>
      </trkpt>
      <trkpt lat="47.27595" lon="-2.33957">
        <ele>21.200000762939</ele>
        <time>2020-09-27T07:35:09.000Z</time>
      </trkpt>
      <trkpt lat="47.27594" lon="-2.33987">
        <ele>21.200000762939</ele>
        <time>2020-09-27T07:35:13.000Z</time>
      </trkpt>
      <trkpt lat="47.2759" lon="-2.34001">
        <ele>21.200000762939</ele>
        <time>2020-09-27T07:35:15.000Z</time>
      </trkpt>
      <trkpt lat="47.27588" lon="-2.34008">
        <ele>21.200000762939</ele>
        <time>2020-09-27T07:35:16.000Z</time>
      </trkpt>
      <trkpt lat="47.27581" lon="-2.34015">
        <ele>20.799999237061</ele>
        <time>2020-09-27T07:35:18.000Z</time>
      </trkpt>
      <trkpt lat="47.27578" lon="-2.34019">
        <ele>20</ele>
        <time>2020-09-27T07:35:19.000Z</time>
      </trkpt>
      <trkpt lat="47.27575" lon="-2.34023">
        <ele>19.60000038147</ele>
        <time>2020-09-27T07:35:20.000Z</time>
      </trkpt>
      <trkpt lat="47.27571" lon="-2.34028">
        <ele>19.200000762939</ele>
        <time>2020-09-27T07:35:21.000Z</time>
      </trkpt>
      <trkpt lat="47.27568" lon="-2.34032">
        <ele>19.200000762939</ele>
        <time>2020-09-27T07:35:22.000Z</time>
      </trkpt>
      <trkpt lat="47.27566" lon="-2.34036">
        <ele>19.200000762939</ele>
        <time>2020-09-27T07:35:23.000Z</time>
      </trkpt>
      <trkpt lat="47.27555" lon="-2.34049">
        <ele>19.200000762939</ele>
        <time>2020-09-27T07:35:26.000Z</time>
      </trkpt>
      <trkpt lat="47.2755" lon="-2.34053">
        <ele>19.200000762939</ele>
        <time>2020-09-27T07:35:27.000Z</time>
      </trkpt>
      <trkpt lat="47.27538" lon="-2.34063">
        <ele>19.200000762939</ele>
        <time>2020-09-27T07:35:30.000Z</time>
      </trkpt>
      <trkpt lat="47.27535" lon="-2.34067">
        <ele>19.200000762939</ele>
        <time>2020-09-27T07:35:31.000Z</time>
      </trkpt>
      <trkpt lat="47.27524" lon="-2.34082">
        <ele>18.799999237061</ele>
        <time>2020-09-27T07:35:35.000Z</time>
      </trkpt>
      <trkpt lat="47.27523" lon="-2.34088">
        <ele>18.39999961853</ele>
        <time>2020-09-27T07:35:36.000Z</time>
      </trkpt>
      <trkpt lat="47.27523" lon="-2.34094">
        <ele>17.799999237061</ele>
        <time>2020-09-27T07:35:37.000Z</time>
      </trkpt>
      <trkpt lat="47.27525" lon="-2.341">
        <ele>17.39999961853</ele>
        <time>2020-09-27T07:35:38.000Z</time>
      </trkpt>
      <trkpt lat="47.27527" lon="-2.34106">
        <ele>17</ele>
        <time>2020-09-27T07:35:39.000Z</time>
      </trkpt>
      <trkpt lat="47.27543" lon="-2.34147">
        <ele>17</ele>
        <time>2020-09-27T07:35:46.000Z</time>
      </trkpt>
      <trkpt lat="47.27556" lon="-2.34186">
        <ele>17</ele>
        <time>2020-09-27T07:35:53.000Z</time>
      </trkpt>
      <trkpt lat="47.27556" lon="-2.34191">
        <ele>17</ele>
        <time>2020-09-27T07:35:55.000Z</time>
      </trkpt>
      <trkpt lat="47.27554" lon="-2.34192">
        <ele>17</ele>
        <time>2020-09-27T07:35:56.000Z</time>
      </trkpt>
      <trkpt lat="47.27545" lon="-2.34201">
        <ele>17</ele>
        <time>2020-09-27T07:35:59.000Z</time>
      </trkpt>
      <trkpt lat="47.27527" lon="-2.34208">
        <ele>17</ele>
        <time>2020-09-27T07:36:03.000Z</time>
      </trkpt>
      <trkpt lat="47.27506" lon="-2.34213">
        <ele>17</ele>
        <time>2020-09-27T07:36:07.000Z</time>
      </trkpt>
      <trkpt lat="47.27501" lon="-2.34216">
        <ele>17</ele>
        <time>2020-09-27T07:36:08.000Z</time>
      </trkpt>
      <trkpt lat="47.2747" lon="-2.34222">
        <ele>17</ele>
        <time>2020-09-27T07:36:14.000Z</time>
      </trkpt>
      <trkpt lat="47.27442" lon="-2.34229">
        <ele>17</ele>
        <time>2020-09-27T07:36:20.000Z</time>
      </trkpt>
      <trkpt lat="47.27417" lon="-2.34238">
        <ele>17</ele>
        <time>2020-09-27T07:36:25.000Z</time>
      </trkpt>
      <trkpt lat="47.27415" lon="-2.34244">
        <ele>16.60000038147</ele>
        <time>2020-09-27T07:36:26.000Z</time>
      </trkpt>
      <trkpt lat="47.27415" lon="-2.34251">
        <ele>16.200000762939</ele>
        <time>2020-09-27T07:36:27.000Z</time>
      </trkpt>
      <trkpt lat="47.27416" lon="-2.34258">
        <ele>15.800000190735</ele>
        <time>2020-09-27T07:36:28.000Z</time>
      </trkpt>
      <trkpt lat="47.27416" lon="-2.34265">
        <ele>15.39999961853</ele>
        <time>2020-09-27T07:36:29.000Z</time>
      </trkpt>
      <trkpt lat="47.27416" lon="-2.34273">
        <ele>15</ele>
        <time>2020-09-27T07:36:30.000Z</time>
      </trkpt>
      <trkpt lat="47.27417" lon="-2.34279">
        <ele>15</ele>
        <time>2020-09-27T07:36:31.000Z</time>
      </trkpt>
      <trkpt lat="47.27419" lon="-2.34309">
        <ele>15</ele>
        <time>2020-09-27T07:36:35.000Z</time>
      </trkpt>
      <trkpt lat="47.27421" lon="-2.34365">
        <ele>15</ele>
        <time>2020-09-27T07:36:42.000Z</time>
      </trkpt>
      <trkpt lat="47.27422" lon="-2.34379">
        <ele>15.39999961853</ele>
        <time>2020-09-27T07:36:44.000Z</time>
      </trkpt>
      <trkpt lat="47.27422" lon="-2.34386">
        <ele>15.800000190735</ele>
        <time>2020-09-27T07:36:45.000Z</time>
      </trkpt>
      <trkpt lat="47.27422" lon="-2.34394">
        <ele>16.200000762939</ele>
        <time>2020-09-27T07:36:46.000Z</time>
      </trkpt>
      <trkpt lat="47.27423" lon="-2.34402">
        <ele>16.799999237061</ele>
        <time>2020-09-27T07:36:47.000Z</time>
      </trkpt>
      <trkpt lat="47.27424" lon="-2.34409">
        <ele>17.200000762939</ele>
        <time>2020-09-27T07:36:48.000Z</time>
      </trkpt>
      <trkpt lat="47.27425" lon="-2.34417">
        <ele>17.200000762939</ele>
        <time>2020-09-27T07:36:49.000Z</time>
      </trkpt>
      <trkpt lat="47.27428" lon="-2.3447">
        <ele>17.200000762939</ele>
        <time>2020-09-27T07:36:56.000Z</time>
      </trkpt>
      <trkpt lat="47.27429" lon="-2.34486">
        <ele>17.200000762939</ele>
        <time>2020-09-27T07:36:58.000Z</time>
      </trkpt>
      <trkpt lat="47.27434" lon="-2.34506">
        <ele>17.200000762939</ele>
        <time>2020-09-27T07:37:01.000Z</time>
      </trkpt>
      <trkpt lat="47.27435" lon="-2.34513">
        <ele>17.200000762939</ele>
        <time>2020-09-27T07:37:02.000Z</time>
      </trkpt>
      <trkpt lat="47.27447" lon="-2.34559">
        <ele>17.200000762939</ele>
        <time>2020-09-27T07:37:09.000Z</time>
      </trkpt>
      <trkpt lat="47.27454" lon="-2.34604">
        <ele>17.200000762939</ele>
        <time>2020-09-27T07:37:15.000Z</time>
      </trkpt>
      <trkpt lat="47.27459" lon="-2.34664">
        <ele>17.200000762939</ele>
        <time>2020-09-27T07:37:23.000Z</time>
      </trkpt>
      <trkpt lat="47.27461" lon="-2.34701">
        <ele>17.200000762939</ele>
        <time>2020-09-27T07:37:28.000Z</time>
      </trkpt>
      <trkpt lat="47.2746" lon="-2.34716">
        <ele>17.200000762939</ele>
        <time>2020-09-27T07:37:30.000Z</time>
      </trkpt>
      <trkpt lat="47.2746" lon="-2.34775">
        <ele>17.200000762939</ele>
        <time>2020-09-27T07:37:37.000Z</time>
      </trkpt>
      <trkpt lat="47.27463" lon="-2.34836">
        <ele>17.200000762939</ele>
        <time>2020-09-27T07:37:44.000Z</time>
      </trkpt>
      <trkpt lat="47.27462" lon="-2.34874">
        <ele>16.39999961853</ele>
        <time>2020-09-27T07:37:48.000Z</time>
      </trkpt>
      <trkpt lat="47.27462" lon="-2.34884">
        <ele>16</ele>
        <time>2020-09-27T07:37:49.000Z</time>
      </trkpt>
      <trkpt lat="47.27461" lon="-2.34893">
        <ele>15.60000038147</ele>
        <time>2020-09-27T07:37:50.000Z</time>
      </trkpt>
      <trkpt lat="47.27461" lon="-2.349">
        <ele>15.199999809265</ele>
        <time>2020-09-27T07:37:51.000Z</time>
      </trkpt>
      <trkpt lat="47.27462" lon="-2.34907">
        <ele>15.199999809265</ele>
        <time>2020-09-27T07:37:52.000Z</time>
      </trkpt>
      <trkpt lat="47.27469" lon="-2.34915">
        <ele>15.199999809265</ele>
        <time>2020-09-27T07:37:54.000Z</time>
      </trkpt>
      <trkpt lat="47.27486" lon="-2.34915">
        <ele>15.199999809265</ele>
        <time>2020-09-27T07:37:57.000Z</time>
      </trkpt>
      <trkpt lat="47.27497" lon="-2.34913">
        <ele>15.199999809265</ele>
        <time>2020-09-27T07:37:59.000Z</time>
      </trkpt>
      <trkpt lat="47.27507" lon="-2.34909">
        <ele>15.199999809265</ele>
        <time>2020-09-27T07:38:01.000Z</time>
      </trkpt>
      <trkpt lat="47.27512" lon="-2.34907">
        <ele>15.199999809265</ele>
        <time>2020-09-27T07:38:02.000Z</time>
      </trkpt>
      <trkpt lat="47.27517" lon="-2.34903">
        <ele>15.199999809265</ele>
        <time>2020-09-27T07:38:03.000Z</time>
      </trkpt>
      <trkpt lat="47.27533" lon="-2.34898">
        <ele>15.199999809265</ele>
        <time>2020-09-27T07:38:06.000Z</time>
      </trkpt>
      <trkpt lat="47.27539" lon="-2.34899">
        <ele>15.199999809265</ele>
        <time>2020-09-27T07:38:07.000Z</time>
      </trkpt>
      <trkpt lat="47.2758" lon="-2.34906">
        <ele>15.199999809265</ele>
        <time>2020-09-27T07:38:14.000Z</time>
      </trkpt>
      <trkpt lat="47.27619" lon="-2.34911">
        <ele>15.199999809265</ele>
        <time>2020-09-27T07:38:21.000Z</time>
      </trkpt>
      <trkpt lat="47.27639" lon="-2.34913">
        <ele>15.199999809265</ele>
        <time>2020-09-27T07:38:25.000Z</time>
      </trkpt>
      <trkpt lat="47.27648" lon="-2.34912">
        <ele>15.199999809265</ele>
        <time>2020-09-27T07:38:27.000Z</time>
      </trkpt>
      <trkpt lat="47.27665" lon="-2.34909">
        <ele>15.199999809265</ele>
        <time>2020-09-27T07:38:31.000Z</time>
      </trkpt>
      <trkpt lat="47.27674" lon="-2.34911">
        <ele>15.199999809265</ele>
        <time>2020-09-27T07:38:33.000Z</time>
      </trkpt>
      <trkpt lat="47.27682" lon="-2.34928">
        <ele>15.199999809265</ele>
        <time>2020-09-27T07:38:36.000Z</time>
      </trkpt>
      <trkpt lat="47.27684" lon="-2.34954">
        <ele>15.199999809265</ele>
        <time>2020-09-27T07:38:39.000Z</time>
      </trkpt>
      <trkpt lat="47.27684" lon="-2.34972">
        <ele>15.199999809265</ele>
        <time>2020-09-27T07:38:41.000Z</time>
      </trkpt>
      <trkpt lat="47.27684" lon="-2.34998">
        <ele>15.199999809265</ele>
        <time>2020-09-27T07:38:44.000Z</time>
      </trkpt>
      <trkpt lat="47.27688" lon="-2.35031">
        <ele>15.199999809265</ele>
        <time>2020-09-27T07:38:48.000Z</time>
      </trkpt>
      <trkpt lat="47.27691" lon="-2.35036">
        <ele>15.199999809265</ele>
        <time>2020-09-27T07:38:49.000Z</time>
      </trkpt>
      <trkpt lat="47.27695" lon="-2.35039">
        <ele>14.800000190735</ele>
        <time>2020-09-27T07:38:50.000Z</time>
      </trkpt>
      <trkpt lat="47.277" lon="-2.35038">
        <ele>14.39999961853</ele>
        <time>2020-09-27T07:38:51.000Z</time>
      </trkpt>
      <trkpt lat="47.27706" lon="-2.35037">
        <ele>13.800000190735</ele>
        <time>2020-09-27T07:38:52.000Z</time>
      </trkpt>
      <trkpt lat="47.2771" lon="-2.35035">
        <ele>13.39999961853</ele>
        <time>2020-09-27T07:38:53.000Z</time>
      </trkpt>
      <trkpt lat="47.27715" lon="-2.35034">
        <ele>13</ele>
        <time>2020-09-27T07:38:54.000Z</time>
      </trkpt>
      <trkpt lat="47.27738" lon="-2.35028">
        <ele>13</ele>
        <time>2020-09-27T07:38:58.000Z</time>
      </trkpt>
      <trkpt lat="47.27754" lon="-2.35024">
        <ele>13</ele>
        <time>2020-09-27T07:39:01.000Z</time>
      </trkpt>
      <trkpt lat="47.27758" lon="-2.35027">
        <ele>12.60000038147</ele>
        <time>2020-09-27T07:39:02.000Z</time>
      </trkpt>
      <trkpt lat="47.27761" lon="-2.3503">
        <ele>12.199999809265</ele>
        <time>2020-09-27T07:39:03.000Z</time>
      </trkpt>
      <trkpt lat="47.27764" lon="-2.35037">
        <ele>11.60000038147</ele>
        <time>2020-09-27T07:39:04.000Z</time>
      </trkpt>
      <trkpt lat="47.27765" lon="-2.35044">
        <ele>11.199999809265</ele>
        <time>2020-09-27T07:39:05.000Z</time>
      </trkpt>
      <trkpt lat="47.27764" lon="-2.35052">
        <ele>10.800000190735</ele>
        <time>2020-09-27T07:39:06.000Z</time>
      </trkpt>
      <trkpt lat="47.27773" lon="-2.35063">
        <ele>10.800000190735</ele>
        <time>2020-09-27T07:39:09.000Z</time>
      </trkpt>
      <trkpt lat="47.27784" lon="-2.35061">
        <ele>10.800000190735</ele>
        <time>2020-09-27T07:39:12.000Z</time>
      </trkpt>
      <trkpt lat="47.27792" lon="-2.35057">
        <ele>10.800000190735</ele>
        <time>2020-09-27T07:39:14.000Z</time>
      </trkpt>
      <trkpt lat="47.27814" lon="-2.3505">
        <ele>10.800000190735</ele>
        <time>2020-09-27T07:39:19.000Z</time>
      </trkpt>
      <trkpt lat="47.27833" lon="-2.3504">
        <ele>10.800000190735</ele>
        <time>2020-09-27T07:39:24.000Z</time>
      </trkpt>
      <trkpt lat="47.27846" lon="-2.3503">
        <ele>10.800000190735</ele>
        <time>2020-09-27T07:39:29.000Z</time>
      </trkpt>
      <trkpt lat="47.2785" lon="-2.35033">
        <ele>10.800000190735</ele>
        <time>2020-09-27T07:39:32.000Z</time>
      </trkpt>
      <trkpt lat="47.27852" lon="-2.35034">
        <ele>10.800000190735</ele>
        <time>2020-09-27T07:39:33.000Z</time>
      </trkpt>
      <trkpt lat="47.27853" lon="-2.35035">
        <ele>10.800000190735</ele>
        <time>2020-09-27T07:39:34.000Z</time>
      </trkpt>
      <trkpt lat="47.27858" lon="-2.35047">
        <ele>10.800000190735</ele>
        <time>2020-09-27T07:39:38.000Z</time>
      </trkpt>
      <trkpt lat="47.27863" lon="-2.35063">
        <ele>10.800000190735</ele>
        <time>2020-09-27T07:39:42.000Z</time>
      </trkpt>
      <trkpt lat="47.27867" lon="-2.35067">
        <ele>10.800000190735</ele>
        <time>2020-09-27T07:39:44.000Z</time>
      </trkpt>
      <trkpt lat="47.27873" lon="-2.35062">
        <ele>10.800000190735</ele>
        <time>2020-09-27T07:39:46.000Z</time>
      </trkpt>
      <trkpt lat="47.2788" lon="-2.35057">
        <ele>10.800000190735</ele>
        <time>2020-09-27T07:39:48.000Z</time>
      </trkpt>
      <trkpt lat="47.27884" lon="-2.35055">
        <ele>10.800000190735</ele>
        <time>2020-09-27T07:39:49.000Z</time>
      </trkpt>
      <trkpt lat="47.27892" lon="-2.3505">
        <ele>10.800000190735</ele>
        <time>2020-09-27T07:39:51.000Z</time>
      </trkpt>
      <trkpt lat="47.27902" lon="-2.35039">
        <ele>11.199999809265</ele>
        <time>2020-09-27T07:39:54.000Z</time>
      </trkpt>
      <trkpt lat="47.27906" lon="-2.35036">
        <ele>11.60000038147</ele>
        <time>2020-09-27T07:39:55.000Z</time>
      </trkpt>
      <trkpt lat="47.27909" lon="-2.35033">
        <ele>12</ele>
        <time>2020-09-27T07:39:56.000Z</time>
      </trkpt>
      <trkpt lat="47.27912" lon="-2.35032">
        <ele>12.39999961853</ele>
        <time>2020-09-27T07:39:57.000Z</time>
      </trkpt>
      <trkpt lat="47.27916" lon="-2.35031">
        <ele>12.800000190735</ele>
        <time>2020-09-27T07:39:58.000Z</time>
      </trkpt>
      <trkpt lat="47.27927" lon="-2.35032">
        <ele>12.800000190735</ele>
        <time>2020-09-27T07:40:01.000Z</time>
      </trkpt>
      <trkpt lat="47.27932" lon="-2.35034">
        <ele>12.800000190735</ele>
        <time>2020-09-27T07:40:02.000Z</time>
      </trkpt>
      <trkpt lat="47.27945" lon="-2.35046">
        <ele>12.800000190735</ele>
        <time>2020-09-27T07:40:05.000Z</time>
      </trkpt>
      <trkpt lat="47.27949" lon="-2.3505">
        <ele>12.800000190735</ele>
        <time>2020-09-27T07:40:06.000Z</time>
      </trkpt>
      <trkpt lat="47.27953" lon="-2.35058">
        <ele>12.800000190735</ele>
        <time>2020-09-27T07:40:07.000Z</time>
      </trkpt>
      <trkpt lat="47.27964" lon="-2.35077">
        <ele>12.800000190735</ele>
        <time>2020-09-27T07:40:11.000Z</time>
      </trkpt>
      <trkpt lat="47.27969" lon="-2.35089">
        <ele>12.800000190735</ele>
        <time>2020-09-27T07:40:14.000Z</time>
      </trkpt>
      <trkpt lat="47.27974" lon="-2.35091">
        <ele>12.800000190735</ele>
        <time>2020-09-27T07:40:16.000Z</time>
      </trkpt>
      <trkpt lat="47.2798" lon="-2.35082">
        <ele>12.800000190735</ele>
        <time>2020-09-27T07:40:19.000Z</time>
      </trkpt>
      <trkpt lat="47.27993" lon="-2.35058">
        <ele>12.800000190735</ele>
        <time>2020-09-27T07:40:25.000Z</time>
      </trkpt>
      <trkpt lat="47.27996" lon="-2.35054">
        <ele>12.800000190735</ele>
        <time>2020-09-27T07:40:26.000Z</time>
      </trkpt>
      <trkpt lat="47.28006" lon="-2.35042">
        <ele>12.800000190735</ele>
        <time>2020-09-27T07:40:29.000Z</time>
      </trkpt>
      <trkpt lat="47.28019" lon="-2.35021">
        <ele>12.800000190735</ele>
        <time>2020-09-27T07:40:33.000Z</time>
      </trkpt>
      <trkpt lat="47.28027" lon="-2.35012">
        <ele>12.800000190735</ele>
        <time>2020-09-27T07:40:35.000Z</time>
      </trkpt>
      <trkpt lat="47.2805" lon="-2.34984">
        <ele>12.800000190735</ele>
        <time>2020-09-27T07:40:42.000Z</time>
      </trkpt>
      <trkpt lat="47.28064" lon="-2.34977">
        <ele>12.800000190735</ele>
        <time>2020-09-27T07:40:46.000Z</time>
      </trkpt>
      <trkpt lat="47.28072" lon="-2.34983">
        <ele>12.800000190735</ele>
        <time>2020-09-27T07:40:49.000Z</time>
      </trkpt>
      <trkpt lat="47.28075" lon="-2.34987">
        <ele>12.800000190735</ele>
        <time>2020-09-27T07:40:50.000Z</time>
      </trkpt>
      <trkpt lat="47.28094" lon="-2.3502">
        <ele>12.800000190735</ele>
        <time>2020-09-27T07:40:56.000Z</time>
      </trkpt>
      <trkpt lat="47.28118" lon="-2.35063">
        <ele>13.199999809265</ele>
        <time>2020-09-27T07:41:04.000Z</time>
      </trkpt>
      <trkpt lat="47.2812" lon="-2.35068">
        <ele>13.60000038147</ele>
        <time>2020-09-27T07:41:05.000Z</time>
      </trkpt>
      <trkpt lat="47.28123" lon="-2.35073">
        <ele>14</ele>
        <time>2020-09-27T07:41:06.000Z</time>
      </trkpt>
      <trkpt lat="47.28126" lon="-2.35078">
        <ele>14.39999961853</ele>
        <time>2020-09-27T07:41:07.000Z</time>
      </trkpt>
      <trkpt lat="47.28129" lon="-2.35083">
        <ele>14.800000190735</ele>
        <time>2020-09-27T07:41:08.000Z</time>
      </trkpt>
      <trkpt lat="47.28139" lon="-2.35096">
        <ele>14.800000190735</ele>
        <time>2020-09-27T07:41:11.000Z</time>
      </trkpt>
      <trkpt lat="47.28144" lon="-2.351">
        <ele>14.800000190735</ele>
        <time>2020-09-27T07:41:12.000Z</time>
      </trkpt>
      <trkpt lat="47.28163" lon="-2.35119">
        <ele>14.800000190735</ele>
        <time>2020-09-27T07:41:17.000Z</time>
      </trkpt>
      <trkpt lat="47.28176" lon="-2.35138">
        <ele>14.800000190735</ele>
        <time>2020-09-27T07:41:21.000Z</time>
      </trkpt>
      <trkpt lat="47.28184" lon="-2.35155">
        <ele>14.800000190735</ele>
        <time>2020-09-27T07:41:24.000Z</time>
      </trkpt>
      <trkpt lat="47.28193" lon="-2.35173">
        <ele>14.800000190735</ele>
        <time>2020-09-27T07:41:27.000Z</time>
      </trkpt>
      <trkpt lat="47.28205" lon="-2.35194">
        <ele>15.199999809265</ele>
        <time>2020-09-27T07:41:31.000Z</time>
      </trkpt>
      <trkpt lat="47.28208" lon="-2.35199">
        <ele>15.60000038147</ele>
        <time>2020-09-27T07:41:32.000Z</time>
      </trkpt>
      <trkpt lat="47.28211" lon="-2.35205">
        <ele>16</ele>
        <time>2020-09-27T07:41:33.000Z</time>
      </trkpt>
      <trkpt lat="47.28215" lon="-2.35211">
        <ele>16.39999961853</ele>
        <time>2020-09-27T07:41:34.000Z</time>
      </trkpt>
      <trkpt lat="47.28218" lon="-2.35216">
        <ele>16.799999237061</ele>
        <time>2020-09-27T07:41:35.000Z</time>
      </trkpt>
      <trkpt lat="47.28226" lon="-2.35233">
        <ele>16.799999237061</ele>
        <time>2020-09-27T07:41:38.000Z</time>
      </trkpt>
      <trkpt lat="47.28235" lon="-2.35247">
        <ele>16.799999237061</ele>
        <time>2020-09-27T07:41:41.000Z</time>
      </trkpt>
      <trkpt lat="47.28239" lon="-2.35247">
        <ele>16.799999237061</ele>
        <time>2020-09-27T07:41:42.000Z</time>
      </trkpt>
      <trkpt lat="47.28259" lon="-2.35235">
        <ele>16.799999237061</ele>
        <time>2020-09-27T07:41:46.000Z</time>
      </trkpt>
      <trkpt lat="47.28267" lon="-2.35228">
        <ele>16.799999237061</ele>
        <time>2020-09-27T07:41:48.000Z</time>
      </trkpt>
      <trkpt lat="47.28277" lon="-2.35227">
        <ele>16.799999237061</ele>
        <time>2020-09-27T07:41:50.000Z</time>
      </trkpt>
      <trkpt lat="47.28287" lon="-2.35242">
        <ele>16.799999237061</ele>
        <time>2020-09-27T07:41:53.000Z</time>
      </trkpt>
      <trkpt lat="47.28292" lon="-2.35263">
        <ele>16.799999237061</ele>
        <time>2020-09-27T07:41:56.000Z</time>
      </trkpt>
      <trkpt lat="47.28298" lon="-2.35283">
        <ele>16.799999237061</ele>
        <time>2020-09-27T07:41:59.000Z</time>
      </trkpt>
      <trkpt lat="47.28304" lon="-2.35302">
        <ele>16.799999237061</ele>
        <time>2020-09-27T07:42:02.000Z</time>
      </trkpt>
      <trkpt lat="47.28309" lon="-2.35306">
        <ele>16.799999237061</ele>
        <time>2020-09-27T07:42:03.000Z</time>
      </trkpt>
      <trkpt lat="47.28324" lon="-2.35306">
        <ele>16.799999237061</ele>
        <time>2020-09-27T07:42:06.000Z</time>
      </trkpt>
      <trkpt lat="47.28343" lon="-2.35301">
        <ele>16.799999237061</ele>
        <time>2020-09-27T07:42:11.000Z</time>
      </trkpt>
      <trkpt lat="47.28348" lon="-2.35314">
        <ele>16.799999237061</ele>
        <time>2020-09-27T07:42:14.000Z</time>
      </trkpt>
      <trkpt lat="47.28357" lon="-2.35343">
        <ele>16.799999237061</ele>
        <time>2020-09-27T07:42:19.000Z</time>
      </trkpt>
      <trkpt lat="47.28363" lon="-2.35356">
        <ele>16.799999237061</ele>
        <time>2020-09-27T07:42:23.000Z</time>
      </trkpt>
      <trkpt lat="47.28366" lon="-2.35359">
        <ele>16.799999237061</ele>
        <time>2020-09-27T07:42:25.000Z</time>
      </trkpt>
      <trkpt lat="47.2837" lon="-2.35362">
        <ele>16.799999237061</ele>
        <time>2020-09-27T07:42:27.000Z</time>
      </trkpt>
      <trkpt lat="47.28375" lon="-2.35368">
        <ele>16.799999237061</ele>
        <time>2020-09-27T07:42:30.000Z</time>
      </trkpt>
      <trkpt lat="47.28377" lon="-2.35371">
        <ele>17.200000762939</ele>
        <time>2020-09-27T07:42:32.000Z</time>
      </trkpt>
      <trkpt lat="47.28378" lon="-2.35373">
        <ele>17.60000038147</ele>
        <time>2020-09-27T07:42:33.000Z</time>
      </trkpt>
      <trkpt lat="47.28378" lon="-2.35374">
        <ele>18</ele>
        <time>2020-09-27T07:42:34.000Z</time>
      </trkpt>
      <trkpt lat="47.28378" lon="-2.35376">
        <ele>18.39999961853</ele>
        <time>2020-09-27T07:42:35.000Z</time>
      </trkpt>
      <trkpt lat="47.28379" lon="-2.35378">
        <ele>18.799999237061</ele>
        <time>2020-09-27T07:42:36.000Z</time>
      </trkpt>
      <trkpt lat="47.2838" lon="-2.35382">
        <ele>18.799999237061</ele>
        <time>2020-09-27T07:42:38.000Z</time>
      </trkpt>
      <trkpt lat="47.2838" lon="-2.35383">
        <ele>19.200000762939</ele>
        <time>2020-09-27T07:42:39.000Z</time>
      </trkpt>
      <trkpt lat="47.2838" lon="-2.35384">
        <ele>19.799999237061</ele>
        <time>2020-09-27T07:42:40.000Z</time>
      </trkpt>
      <trkpt lat="47.2838" lon="-2.35386">
        <ele>20.200000762939</ele>
        <time>2020-09-27T07:42:41.000Z</time>
      </trkpt>
      <trkpt lat="47.2838" lon="-2.35388">
        <ele>20.60000038147</ele>
        <time>2020-09-27T07:42:42.000Z</time>
      </trkpt>
      <trkpt lat="47.28381" lon="-2.3539">
        <ele>21</ele>
        <time>2020-09-27T07:42:43.000Z</time>
      </trkpt>
      <trkpt lat="47.28381" lon="-2.35392">
        <ele>21.60000038147</ele>
        <time>2020-09-27T07:42:44.000Z</time>
      </trkpt>
      <trkpt lat="47.28382" lon="-2.35394">
        <ele>22</ele>
        <time>2020-09-27T07:42:45.000Z</time>
      </trkpt>
      <trkpt lat="47.28383" lon="-2.35396">
        <ele>22.39999961853</ele>
        <time>2020-09-27T07:42:46.000Z</time>
      </trkpt>
      <trkpt lat="47.28384" lon="-2.35397">
        <ele>23</ele>
        <time>2020-09-27T07:42:47.000Z</time>
      </trkpt>
      <trkpt lat="47.28384" lon="-2.35399">
        <ele>23.39999961853</ele>
        <time>2020-09-27T07:42:48.000Z</time>
      </trkpt>
      <trkpt lat="47.28388" lon="-2.35408">
        <ele>23.39999961853</ele>
        <time>2020-09-27T07:42:51.000Z</time>
      </trkpt>
      <trkpt lat="47.28392" lon="-2.35415">
        <ele>23.799999237061</ele>
        <time>2020-09-27T07:42:55.000Z</time>
      </trkpt>
      <trkpt lat="47.28393" lon="-2.35417">
        <ele>24.200000762939</ele>
        <time>2020-09-27T07:42:56.000Z</time>
      </trkpt>
      <trkpt lat="47.28395" lon="-2.3542">
        <ele>24.60000038147</ele>
        <time>2020-09-27T07:42:57.000Z</time>
      </trkpt>
      <trkpt lat="47.28396" lon="-2.35422">
        <ele>25</ele>
        <time>2020-09-27T07:42:58.000Z</time>
      </trkpt>
      <trkpt lat="47.28398" lon="-2.35426">
        <ele>25.39999961853</ele>
        <time>2020-09-27T07:42:59.000Z</time>
      </trkpt>
      <trkpt lat="47.28404" lon="-2.35443">
        <ele>25.39999961853</ele>
        <time>2020-09-27T07:43:02.000Z</time>
      </trkpt>
      <trkpt lat="47.28409" lon="-2.35462">
        <ele>25</ele>
        <time>2020-09-27T07:43:05.000Z</time>
      </trkpt>
      <trkpt lat="47.28411" lon="-2.35471">
        <ele>24.60000038147</ele>
        <time>2020-09-27T07:43:06.000Z</time>
      </trkpt>
      <trkpt lat="47.28412" lon="-2.3548">
        <ele>23.60000038147</ele>
        <time>2020-09-27T07:43:07.000Z</time>
      </trkpt>
      <trkpt lat="47.28412" lon="-2.35488">
        <ele>23.200000762939</ele>
        <time>2020-09-27T07:43:08.000Z</time>
      </trkpt>
      <trkpt lat="47.28408" lon="-2.35518">
        <ele>23.200000762939</ele>
        <time>2020-09-27T07:43:12.000Z</time>
      </trkpt>
      <trkpt lat="47.28405" lon="-2.35532">
        <ele>23.200000762939</ele>
        <time>2020-09-27T07:43:14.000Z</time>
      </trkpt>
      <trkpt lat="47.28404" lon="-2.3554">
        <ele>22.799999237061</ele>
        <time>2020-09-27T07:43:15.000Z</time>
      </trkpt>
      <trkpt lat="47.28402" lon="-2.35548">
        <ele>22.39999961853</ele>
        <time>2020-09-27T07:43:16.000Z</time>
      </trkpt>
      <trkpt lat="47.28401" lon="-2.35555">
        <ele>22</ele>
        <time>2020-09-27T07:43:17.000Z</time>
      </trkpt>
      <trkpt lat="47.28399" lon="-2.35563">
        <ele>21.60000038147</ele>
        <time>2020-09-27T07:43:18.000Z</time>
      </trkpt>
      <trkpt lat="47.28399" lon="-2.3557">
        <ele>21.200000762939</ele>
        <time>2020-09-27T07:43:19.000Z</time>
      </trkpt>
      <trkpt lat="47.28398" lon="-2.35577">
        <ele>21.200000762939</ele>
        <time>2020-09-27T07:43:20.000Z</time>
      </trkpt>
      <trkpt lat="47.28395" lon="-2.35598">
        <ele>21.200000762939</ele>
        <time>2020-09-27T07:43:23.000Z</time>
      </trkpt>
      <trkpt lat="47.28397" lon="-2.35615">
        <ele>21.200000762939</ele>
        <time>2020-09-27T07:43:27.000Z</time>
      </trkpt>
      <trkpt lat="47.28405" lon="-2.3564">
        <ele>21.200000762939</ele>
        <time>2020-09-27T07:43:32.000Z</time>
      </trkpt>
      <trkpt lat="47.28411" lon="-2.35662">
        <ele>21.200000762939</ele>
        <time>2020-09-27T07:43:37.000Z</time>
      </trkpt>
      <trkpt lat="47.28416" lon="-2.35691">
        <ele>21.200000762939</ele>
        <time>2020-09-27T07:43:43.000Z</time>
      </trkpt>
      <trkpt lat="47.28419" lon="-2.3572">
        <ele>21.200000762939</ele>
        <time>2020-09-27T07:43:48.000Z</time>
      </trkpt>
      <trkpt lat="47.28423" lon="-2.35747">
        <ele>21.200000762939</ele>
        <time>2020-09-27T07:43:54.000Z</time>
      </trkpt>
      <trkpt lat="47.28423" lon="-2.35762">
        <ele>21.200000762939</ele>
        <time>2020-09-27T07:43:59.000Z</time>
      </trkpt>
      <trkpt lat="47.28423" lon="-2.35778">
        <ele>21.200000762939</ele>
        <time>2020-09-27T07:44:05.000Z</time>
      </trkpt>
      <trkpt lat="47.28425" lon="-2.35781">
        <ele>21.200000762939</ele>
        <time>2020-09-27T07:44:06.000Z</time>
      </trkpt>
      <trkpt lat="47.28436" lon="-2.35792">
        <ele>21.200000762939</ele>
        <time>2020-09-27T07:44:11.000Z</time>
      </trkpt>
      <trkpt lat="47.28453" lon="-2.35803">
        <ele>21.200000762939</ele>
        <time>2020-09-27T07:44:18.000Z</time>
      </trkpt>
      <trkpt lat="47.28466" lon="-2.35817">
        <ele>21.200000762939</ele>
        <time>2020-09-27T07:44:23.000Z</time>
      </trkpt>
      <trkpt lat="47.28472" lon="-2.35829">
        <ele>21.200000762939</ele>
        <time>2020-09-27T07:44:27.000Z</time>
      </trkpt>
      <trkpt lat="47.28474" lon="-2.35849">
        <ele>21.200000762939</ele>
        <time>2020-09-27T07:44:32.000Z</time>
      </trkpt>
      <trkpt lat="47.28469" lon="-2.35869">
        <ele>21.200000762939</ele>
        <time>2020-09-27T07:44:37.000Z</time>
      </trkpt>
      <trkpt lat="47.2847" lon="-2.35873">
        <ele>21.200000762939</ele>
        <time>2020-09-27T07:44:38.000Z</time>
      </trkpt>
      <trkpt lat="47.28467" lon="-2.35886">
        <ele>21.200000762939</ele>
        <time>2020-09-27T07:44:43.000Z</time>
      </trkpt>
      <trkpt lat="47.2846" lon="-2.35887">
        <ele>21.200000762939</ele>
        <time>2020-09-27T07:44:48.000Z</time>
      </trkpt>
      <trkpt lat="47.28455" lon="-2.35885">
        <ele>21.200000762939</ele>
        <time>2020-09-27T07:44:50.000Z</time>
      </trkpt>
      <trkpt lat="47.28451" lon="-2.35884">
        <ele>21.200000762939</ele>
        <time>2020-09-27T07:44:52.000Z</time>
      </trkpt>
      <trkpt lat="47.28446" lon="-2.35878">
        <ele>21.200000762939</ele>
        <time>2020-09-27T07:44:55.000Z</time>
      </trkpt>
      <trkpt lat="47.28435" lon="-2.35866">
        <ele>21.200000762939</ele>
        <time>2020-09-27T07:45:00.000Z</time>
      </trkpt>
      <trkpt lat="47.28423" lon="-2.35865">
        <ele>21.200000762939</ele>
        <time>2020-09-27T07:45:04.000Z</time>
      </trkpt>
      <trkpt lat="47.28421" lon="-2.35866">
        <ele>21.200000762939</ele>
        <time>2020-09-27T07:45:05.000Z</time>
      </trkpt>
      <trkpt lat="47.28405" lon="-2.35873">
        <ele>21.200000762939</ele>
        <time>2020-09-27T07:45:10.000Z</time>
      </trkpt>
      <trkpt lat="47.28388" lon="-2.35885">
        <ele>21.200000762939</ele>
        <time>2020-09-27T07:45:15.000Z</time>
      </trkpt>
      <trkpt lat="47.28372" lon="-2.35906">
        <ele>21.200000762939</ele>
        <time>2020-09-27T07:45:20.000Z</time>
      </trkpt>
      <trkpt lat="47.28369" lon="-2.35926">
        <ele>21.200000762939</ele>
        <time>2020-09-27T07:45:25.000Z</time>
      </trkpt>
      <trkpt lat="47.28376" lon="-2.35947">
        <ele>21.200000762939</ele>
        <time>2020-09-27T07:45:30.000Z</time>
      </trkpt>
      <trkpt lat="47.28377" lon="-2.35967">
        <ele>21.200000762939</ele>
        <time>2020-09-27T07:45:35.000Z</time>
      </trkpt>
      <trkpt lat="47.28377" lon="-2.35977">
        <ele>21.60000038147</ele>
        <time>2020-09-27T07:45:39.000Z</time>
      </trkpt>
      <trkpt lat="47.28376" lon="-2.35979">
        <ele>22</ele>
        <time>2020-09-27T07:45:40.000Z</time>
      </trkpt>
      <trkpt lat="47.28375" lon="-2.35982">
        <ele>22.39999961853</ele>
        <time>2020-09-27T07:45:41.000Z</time>
      </trkpt>
      <trkpt lat="47.28374" lon="-2.35984">
        <ele>22.799999237061</ele>
        <time>2020-09-27T07:45:42.000Z</time>
      </trkpt>
      <trkpt lat="47.28373" lon="-2.35987">
        <ele>23.200000762939</ele>
        <time>2020-09-27T07:45:43.000Z</time>
      </trkpt>
      <trkpt lat="47.28372" lon="-2.35989">
        <ele>23.200000762939</ele>
        <time>2020-09-27T07:45:44.000Z</time>
      </trkpt>
      <trkpt lat="47.28371" lon="-2.35992">
        <ele>23.799999237061</ele>
        <time>2020-09-27T07:45:45.000Z</time>
      </trkpt>
      <trkpt lat="47.28371" lon="-2.35994">
        <ele>24.200000762939</ele>
        <time>2020-09-27T07:45:46.000Z</time>
      </trkpt>
      <trkpt lat="47.28372" lon="-2.35997">
        <ele>24.799999237061</ele>
        <time>2020-09-27T07:45:47.000Z</time>
      </trkpt>
      <trkpt lat="47.28372" lon="-2.35999">
        <ele>25.200000762939</ele>
        <time>2020-09-27T07:45:48.000Z</time>
      </trkpt>
      <trkpt lat="47.28373" lon="-2.36002">
        <ele>25.799999237061</ele>
        <time>2020-09-27T07:45:49.000Z</time>
      </trkpt>
      <trkpt lat="47.28374" lon="-2.36005">
        <ele>26.200000762939</ele>
        <time>2020-09-27T07:45:51.000Z</time>
      </trkpt>
      <trkpt lat="47.28375" lon="-2.36006">
        <ele>26.60000038147</ele>
        <time>2020-09-27T07:45:52.000Z</time>
      </trkpt>
      <trkpt lat="47.28371" lon="-2.3602">
        <ele>27.799999237061</ele>
        <time>2020-09-27T07:46:07.000Z</time>
      </trkpt>
      <trkpt lat="47.28354" lon="-2.36023">
        <ele>27.799999237061</ele>
        <time>2020-09-27T07:46:11.000Z</time>
      </trkpt>
      <trkpt lat="47.28349" lon="-2.36025">
        <ele>27.799999237061</ele>
        <time>2020-09-27T07:46:12.000Z</time>
      </trkpt>
      <trkpt lat="47.28336" lon="-2.36035">
        <ele>27.39999961853</ele>
        <time>2020-09-27T07:46:15.000Z</time>
      </trkpt>
      <trkpt lat="47.28331" lon="-2.3604">
        <ele>27</ele>
        <time>2020-09-27T07:46:16.000Z</time>
      </trkpt>
      <trkpt lat="47.28328" lon="-2.36044">
        <ele>26.60000038147</ele>
        <time>2020-09-27T07:46:17.000Z</time>
      </trkpt>
      <trkpt lat="47.28324" lon="-2.36047">
        <ele>26.200000762939</ele>
        <time>2020-09-27T07:46:18.000Z</time>
      </trkpt>
      <trkpt lat="47.28321" lon="-2.36049">
        <ele>25.799999237061</ele>
        <time>2020-09-27T07:46:19.000Z</time>
      </trkpt>
      <trkpt lat="47.28317" lon="-2.3605">
        <ele>25.799999237061</ele>
        <time>2020-09-27T07:46:20.000Z</time>
      </trkpt>
      <trkpt lat="47.28307" lon="-2.36044">
        <ele>25.799999237061</ele>
        <time>2020-09-27T07:46:24.000Z</time>
      </trkpt>
      <trkpt lat="47.283" lon="-2.36042">
        <ele>25.39999961853</ele>
        <time>2020-09-27T07:46:28.000Z</time>
      </trkpt>
      <trkpt lat="47.28298" lon="-2.36042">
        <ele>25</ele>
        <time>2020-09-27T07:46:29.000Z</time>
      </trkpt>
      <trkpt lat="47.28296" lon="-2.36042">
        <ele>24.60000038147</ele>
        <time>2020-09-27T07:46:30.000Z</time>
      </trkpt>
      <trkpt lat="47.28295" lon="-2.36041">
        <ele>24.200000762939</ele>
        <time>2020-09-27T07:46:31.000Z</time>
      </trkpt>
      <trkpt lat="47.28293" lon="-2.36041">
        <ele>23.799999237061</ele>
        <time>2020-09-27T07:46:32.000Z</time>
      </trkpt>
      <trkpt lat="47.28291" lon="-2.36039">
        <ele>23.799999237061</ele>
        <time>2020-09-27T07:46:34.000Z</time>
      </trkpt>
      <trkpt lat="47.2829" lon="-2.36038">
        <ele>23.799999237061</ele>
        <time>2020-09-27T07:46:35.000Z</time>
      </trkpt>
      <trkpt lat="47.28289" lon="-2.36036">
        <ele>23.39999961853</ele>
        <time>2020-09-27T07:46:36.000Z</time>
      </trkpt>
      <trkpt lat="47.28287" lon="-2.36034">
        <ele>23</ele>
        <time>2020-09-27T07:46:37.000Z</time>
      </trkpt>
      <trkpt lat="47.28286" lon="-2.36033">
        <ele>22.39999961853</ele>
        <time>2020-09-27T07:46:38.000Z</time>
      </trkpt>
      <trkpt lat="47.28285" lon="-2.36031">
        <ele>22</ele>
        <time>2020-09-27T07:46:39.000Z</time>
      </trkpt>
      <trkpt lat="47.28285" lon="-2.3603">
        <ele>21.60000038147</ele>
        <time>2020-09-27T07:46:40.000Z</time>
      </trkpt>
      <trkpt lat="47.28284" lon="-2.36029">
        <ele>21.200000762939</ele>
        <time>2020-09-27T07:46:41.000Z</time>
      </trkpt>
      <trkpt lat="47.28283" lon="-2.36027">
        <ele>20.799999237061</ele>
        <time>2020-09-27T07:46:42.000Z</time>
      </trkpt>
      <trkpt lat="47.28282" lon="-2.36026">
        <ele>20.39999961853</ele>
        <time>2020-09-27T07:46:43.000Z</time>
      </trkpt>
      <trkpt lat="47.28282" lon="-2.36025">
        <ele>20</ele>
        <time>2020-09-27T07:46:44.000Z</time>
      </trkpt>
      <trkpt lat="47.28282" lon="-2.36023">
        <ele>19.60000038147</ele>
        <time>2020-09-27T07:46:45.000Z</time>
      </trkpt>
      <trkpt lat="47.2828" lon="-2.36016">
        <ele>19.200000762939</ele>
        <time>2020-09-27T07:46:47.000Z</time>
      </trkpt>
      <trkpt lat="47.28279" lon="-2.36012">
        <ele>18.799999237061</ele>
        <time>2020-09-27T07:46:48.000Z</time>
      </trkpt>
      <trkpt lat="47.28277" lon="-2.36009">
        <ele>17.799999237061</ele>
        <time>2020-09-27T07:46:49.000Z</time>
      </trkpt>
      <trkpt lat="47.28273" lon="-2.36007">
        <ele>17.39999961853</ele>
        <time>2020-09-27T07:46:50.000Z</time>
      </trkpt>
      <trkpt lat="47.28266" lon="-2.36009">
        <ele>17</ele>
        <time>2020-09-27T07:46:52.000Z</time>
      </trkpt>
      <trkpt lat="47.28263" lon="-2.36013">
        <ele>16.60000038147</ele>
        <time>2020-09-27T07:46:53.000Z</time>
      </trkpt>
      <trkpt lat="47.2826" lon="-2.36018">
        <ele>16</ele>
        <time>2020-09-27T07:46:54.000Z</time>
      </trkpt>
      <trkpt lat="47.28258" lon="-2.36023">
        <ele>15.60000038147</ele>
        <time>2020-09-27T07:46:55.000Z</time>
      </trkpt>
      <trkpt lat="47.28257" lon="-2.36028">
        <ele>15.199999809265</ele>
        <time>2020-09-27T07:46:56.000Z</time>
      </trkpt>
      <trkpt lat="47.28253" lon="-2.36045">
        <ele>15.199999809265</ele>
        <time>2020-09-27T07:46:59.000Z</time>
      </trkpt>
      <trkpt lat="47.2825" lon="-2.36063">
        <ele>15.199999809265</ele>
        <time>2020-09-27T07:47:02.000Z</time>
      </trkpt>
      <trkpt lat="47.28248" lon="-2.36071">
        <ele>15.60000038147</ele>
        <time>2020-09-27T07:47:04.000Z</time>
      </trkpt>
      <trkpt lat="47.28247" lon="-2.36075">
        <ele>16</ele>
        <time>2020-09-27T07:47:05.000Z</time>
      </trkpt>
      <trkpt lat="47.28246" lon="-2.36079">
        <ele>16.39999961853</ele>
        <time>2020-09-27T07:47:06.000Z</time>
      </trkpt>
      <trkpt lat="47.28245" lon="-2.36083">
        <ele>16.799999237061</ele>
        <time>2020-09-27T07:47:07.000Z</time>
      </trkpt>
      <trkpt lat="47.28243" lon="-2.36087">
        <ele>17.200000762939</ele>
        <time>2020-09-27T07:47:08.000Z</time>
      </trkpt>
      <trkpt lat="47.28243" lon="-2.36104">
        <ele>17.200000762939</ele>
        <time>2020-09-27T07:47:11.000Z</time>
      </trkpt>
      <trkpt lat="47.28256" lon="-2.3613">
        <ele>17.200000762939</ele>
        <time>2020-09-27T07:47:16.000Z</time>
      </trkpt>
      <trkpt lat="47.28266" lon="-2.36158">
        <ele>17.200000762939</ele>
        <time>2020-09-27T07:47:21.000Z</time>
      </trkpt>
      <trkpt lat="47.28271" lon="-2.36182">
        <ele>17.200000762939</ele>
        <time>2020-09-27T07:47:25.000Z</time>
      </trkpt>
      <trkpt lat="47.28278" lon="-2.36211">
        <ele>16.799999237061</ele>
        <time>2020-09-27T07:47:31.000Z</time>
      </trkpt>
      <trkpt lat="47.28278" lon="-2.36214">
        <ele>16.39999961853</ele>
        <time>2020-09-27T07:47:32.000Z</time>
      </trkpt>
      <trkpt lat="47.28278" lon="-2.36216">
        <ele>15.800000190735</ele>
        <time>2020-09-27T07:47:33.000Z</time>
      </trkpt>
      <trkpt lat="47.28278" lon="-2.36216">
        <ele>15.39999961853</ele>
        <time>2020-09-27T07:47:34.000Z</time>
      </trkpt>
      <trkpt lat="47.28278" lon="-2.36217">
        <ele>15</ele>
        <time>2020-09-27T07:47:35.000Z</time>
      </trkpt>
      <trkpt lat="47.2828" lon="-2.36223">
        <ele>15</ele>
        <time>2020-09-27T07:47:37.000Z</time>
      </trkpt>
      <trkpt lat="47.28286" lon="-2.36239">
        <ele>15</ele>
        <time>2020-09-27T07:47:41.000Z</time>
      </trkpt>
      <trkpt lat="47.28298" lon="-2.36243">
        <ele>15</ele>
        <time>2020-09-27T07:47:44.000Z</time>
      </trkpt>
      <trkpt lat="47.28303" lon="-2.36242">
        <ele>15</ele>
        <time>2020-09-27T07:47:45.000Z</time>
      </trkpt>
      <trkpt lat="47.28307" lon="-2.36243">
        <ele>15</ele>
        <time>2020-09-27T07:47:46.000Z</time>
      </trkpt>
      <trkpt lat="47.2832" lon="-2.36245">
        <ele>15</ele>
        <time>2020-09-27T07:47:49.000Z</time>
      </trkpt>
      <trkpt lat="47.2834" lon="-2.36252">
        <ele>15</ele>
        <time>2020-09-27T07:47:55.000Z</time>
      </trkpt>
      <trkpt lat="47.28353" lon="-2.3626">
        <ele>15</ele>
        <time>2020-09-27T07:48:00.000Z</time>
      </trkpt>
      <trkpt lat="47.28361" lon="-2.36272">
        <ele>15</ele>
        <time>2020-09-27T07:48:05.000Z</time>
      </trkpt>
      <trkpt lat="47.2836" lon="-2.36288">
        <ele>15</ele>
        <time>2020-09-27T07:48:10.000Z</time>
      </trkpt>
      <trkpt lat="47.28365" lon="-2.363">
        <ele>15.39999961853</ele>
        <time>2020-09-27T07:48:14.000Z</time>
      </trkpt>
      <trkpt lat="47.28367" lon="-2.36302">
        <ele>15.800000190735</ele>
        <time>2020-09-27T07:48:15.000Z</time>
      </trkpt>
      <trkpt lat="47.28368" lon="-2.36303">
        <ele>16.200000762939</ele>
        <time>2020-09-27T07:48:16.000Z</time>
      </trkpt>
      <trkpt lat="47.2837" lon="-2.36305">
        <ele>16.60000038147</ele>
        <time>2020-09-27T07:48:17.000Z</time>
      </trkpt>
      <trkpt lat="47.28371" lon="-2.36306">
        <ele>17</ele>
        <time>2020-09-27T07:48:18.000Z</time>
      </trkpt>
      <trkpt lat="47.2838" lon="-2.36314">
        <ele>17</ele>
        <time>2020-09-27T07:48:22.000Z</time>
      </trkpt>
      <trkpt lat="47.28396" lon="-2.36324">
        <ele>17.799999237061</ele>
        <time>2020-09-27T07:48:27.000Z</time>
      </trkpt>
      <trkpt lat="47.28399" lon="-2.36325">
        <ele>18.200000762939</ele>
        <time>2020-09-27T07:48:28.000Z</time>
      </trkpt>
      <trkpt lat="47.28401" lon="-2.36328">
        <ele>18.60000038147</ele>
        <time>2020-09-27T07:48:29.000Z</time>
      </trkpt>
      <trkpt lat="47.28403" lon="-2.36331">
        <ele>19</ele>
        <time>2020-09-27T07:48:30.000Z</time>
      </trkpt>
      <trkpt lat="47.28408" lon="-2.3634">
        <ele>19</ele>
        <time>2020-09-27T07:48:32.000Z</time>
      </trkpt>
      <trkpt lat="47.28422" lon="-2.36357">
        <ele>19</ele>
        <time>2020-09-27T07:48:37.000Z</time>
      </trkpt>
      <trkpt lat="47.28441" lon="-2.36372">
        <ele>19</ele>
        <time>2020-09-27T07:48:43.000Z</time>
      </trkpt>
      <trkpt lat="47.28457" lon="-2.3639">
        <ele>19.60000038147</ele>
        <time>2020-09-27T07:48:49.000Z</time>
      </trkpt>
      <trkpt lat="47.28459" lon="-2.36392">
        <ele>20</ele>
        <time>2020-09-27T07:48:50.000Z</time>
      </trkpt>
      <trkpt lat="47.28461" lon="-2.36396">
        <ele>20.39999961853</ele>
        <time>2020-09-27T07:48:51.000Z</time>
      </trkpt>
      <trkpt lat="47.28464" lon="-2.36401">
        <ele>21.39999961853</ele>
        <time>2020-09-27T07:48:52.000Z</time>
      </trkpt>
      <trkpt lat="47.28474" lon="-2.36417">
        <ele>21.39999961853</ele>
        <time>2020-09-27T07:48:57.000Z</time>
      </trkpt>
      <trkpt lat="47.28486" lon="-2.36438">
        <ele>21.39999961853</ele>
        <time>2020-09-27T07:49:02.000Z</time>
      </trkpt>
      <trkpt lat="47.28503" lon="-2.36459">
        <ele>21.39999961853</ele>
        <time>2020-09-27T07:49:07.000Z</time>
      </trkpt>
      <trkpt lat="47.28511" lon="-2.36482">
        <ele>21.39999961853</ele>
        <time>2020-09-27T07:49:12.000Z</time>
      </trkpt>
      <trkpt lat="47.28516" lon="-2.365">
        <ele>21.39999961853</ele>
        <time>2020-09-27T07:49:16.000Z</time>
      </trkpt>
      <trkpt lat="47.28517" lon="-2.36505">
        <ele>21.39999961853</ele>
        <time>2020-09-27T07:49:18.000Z</time>
      </trkpt>
      <trkpt lat="47.28516" lon="-2.3651">
        <ele>21.39999961853</ele>
        <time>2020-09-27T07:49:20.000Z</time>
      </trkpt>
      <trkpt lat="47.28503" lon="-2.36526">
        <ele>21.39999961853</ele>
        <time>2020-09-27T07:49:23.000Z</time>
      </trkpt>
      <trkpt lat="47.28497" lon="-2.36531">
        <ele>21.39999961853</ele>
        <time>2020-09-27T07:49:24.000Z</time>
      </trkpt>
      <trkpt lat="47.28478" lon="-2.36554">
        <ele>21.39999961853</ele>
        <time>2020-09-27T07:49:28.000Z</time>
      </trkpt>
      <trkpt lat="47.28475" lon="-2.36562">
        <ele>21.39999961853</ele>
        <time>2020-09-27T07:49:29.000Z</time>
      </trkpt>
      <trkpt lat="47.28472" lon="-2.3657">
        <ele>21</ele>
        <time>2020-09-27T07:49:30.000Z</time>
      </trkpt>
      <trkpt lat="47.28471" lon="-2.36579">
        <ele>20.60000038147</ele>
        <time>2020-09-27T07:49:31.000Z</time>
      </trkpt>
      <trkpt lat="47.28472" lon="-2.36587">
        <ele>20.200000762939</ele>
        <time>2020-09-27T07:49:32.000Z</time>
      </trkpt>
      <trkpt lat="47.28473" lon="-2.36593">
        <ele>19.799999237061</ele>
        <time>2020-09-27T07:49:33.000Z</time>
      </trkpt>
      <trkpt lat="47.28475" lon="-2.366">
        <ele>19.39999961853</ele>
        <time>2020-09-27T07:49:34.000Z</time>
      </trkpt>
      <trkpt lat="47.28478" lon="-2.36613">
        <ele>19.39999961853</ele>
        <time>2020-09-27T07:49:36.000Z</time>
      </trkpt>
      <trkpt lat="47.28491" lon="-2.36655">
        <ele>19.39999961853</ele>
        <time>2020-09-27T07:49:43.000Z</time>
      </trkpt>
      <trkpt lat="47.28504" lon="-2.36679">
        <ele>19.39999961853</ele>
        <time>2020-09-27T07:49:47.000Z</time>
      </trkpt>
      <trkpt lat="47.28508" lon="-2.36685">
        <ele>19.39999961853</ele>
        <time>2020-09-27T07:49:48.000Z</time>
      </trkpt>
      <trkpt lat="47.2853" lon="-2.36723">
        <ele>19.39999961853</ele>
        <time>2020-09-27T07:49:53.000Z</time>
      </trkpt>
      <trkpt lat="47.28544" lon="-2.36752">
        <ele>18.799999237061</ele>
        <time>2020-09-27T07:49:56.000Z</time>
      </trkpt>
      <trkpt lat="47.28548" lon="-2.36762">
        <ele>18.39999961853</ele>
        <time>2020-09-27T07:49:57.000Z</time>
      </trkpt>
      <trkpt lat="47.28553" lon="-2.36772">
        <ele>18</ele>
        <time>2020-09-27T07:49:58.000Z</time>
      </trkpt>
      <trkpt lat="47.28558" lon="-2.36781">
        <ele>17.39999961853</ele>
        <time>2020-09-27T07:49:59.000Z</time>
      </trkpt>
      <trkpt lat="47.28564" lon="-2.3679">
        <ele>16.799999237061</ele>
        <time>2020-09-27T07:50:00.000Z</time>
      </trkpt>
      <trkpt lat="47.28569" lon="-2.36799">
        <ele>16.200000762939</ele>
        <time>2020-09-27T07:50:01.000Z</time>
      </trkpt>
      <trkpt lat="47.28574" lon="-2.36808">
        <ele>15.60000038147</ele>
        <time>2020-09-27T07:50:02.000Z</time>
      </trkpt>
      <trkpt lat="47.28579" lon="-2.36817">
        <ele>15</ele>
        <time>2020-09-27T07:50:03.000Z</time>
      </trkpt>
      <trkpt lat="47.28588" lon="-2.36833">
        <ele>15</ele>
        <time>2020-09-27T07:50:05.000Z</time>
      </trkpt>
      <trkpt lat="47.28592" lon="-2.36839">
        <ele>14.60000038147</ele>
        <time>2020-09-27T07:50:06.000Z</time>
      </trkpt>
      <trkpt lat="47.28597" lon="-2.36843">
        <ele>14</ele>
        <time>2020-09-27T07:50:07.000Z</time>
      </trkpt>
      <trkpt lat="47.28603" lon="-2.36844">
        <ele>13.60000038147</ele>
        <time>2020-09-27T07:50:08.000Z</time>
      </trkpt>
      <trkpt lat="47.28609" lon="-2.36844">
        <ele>13.199999809265</ele>
        <time>2020-09-27T07:50:09.000Z</time>
      </trkpt>
      <trkpt lat="47.28614" lon="-2.36842">
        <ele>12.800000190735</ele>
        <time>2020-09-27T07:50:10.000Z</time>
      </trkpt>
      <trkpt lat="47.28619" lon="-2.36838">
        <ele>12.800000190735</ele>
        <time>2020-09-27T07:50:11.000Z</time>
      </trkpt>
      <trkpt lat="47.28633" lon="-2.36823">
        <ele>12.800000190735</ele>
        <time>2020-09-27T07:50:14.000Z</time>
      </trkpt>
      <trkpt lat="47.28641" lon="-2.36811">
        <ele>12.800000190735</ele>
        <time>2020-09-27T07:50:16.000Z</time>
      </trkpt>
      <trkpt lat="47.28645" lon="-2.36807">
        <ele>12.800000190735</ele>
        <time>2020-09-27T07:50:17.000Z</time>
      </trkpt>
      <trkpt lat="47.28656" lon="-2.36793">
        <ele>12.800000190735</ele>
        <time>2020-09-27T07:50:20.000Z</time>
      </trkpt>
      <trkpt lat="47.28659" lon="-2.36791">
        <ele>12.800000190735</ele>
        <time>2020-09-27T07:50:21.000Z</time>
      </trkpt>
      <trkpt lat="47.2867" lon="-2.36798">
        <ele>12.800000190735</ele>
        <time>2020-09-27T07:50:25.000Z</time>
      </trkpt>
      <trkpt lat="47.28683" lon="-2.36825">
        <ele>12.800000190735</ele>
        <time>2020-09-27T07:50:31.000Z</time>
      </trkpt>
      <trkpt lat="47.28697" lon="-2.36861">
        <ele>12.800000190735</ele>
        <time>2020-09-27T07:50:37.000Z</time>
      </trkpt>
      <trkpt lat="47.28705" lon="-2.36874">
        <ele>12.800000190735</ele>
        <time>2020-09-27T07:50:41.000Z</time>
      </trkpt>
      <trkpt lat="47.28707" lon="-2.36874">
        <ele>12.800000190735</ele>
        <time>2020-09-27T07:50:42.000Z</time>
      </trkpt>
      <trkpt lat="47.28712" lon="-2.36875">
        <ele>12.39999961853</ele>
        <time>2020-09-27T07:50:44.000Z</time>
      </trkpt>
      <trkpt lat="47.28714" lon="-2.36876">
        <ele>12</ele>
        <time>2020-09-27T07:50:45.000Z</time>
      </trkpt>
      <trkpt lat="47.28717" lon="-2.36877">
        <ele>11.60000038147</ele>
        <time>2020-09-27T07:50:46.000Z</time>
      </trkpt>
      <trkpt lat="47.28719" lon="-2.36878">
        <ele>11.199999809265</ele>
        <time>2020-09-27T07:50:47.000Z</time>
      </trkpt>
      <trkpt lat="47.28721" lon="-2.3688">
        <ele>10.800000190735</ele>
        <time>2020-09-27T07:50:48.000Z</time>
      </trkpt>
      <trkpt lat="47.28729" lon="-2.36896">
        <ele>10.199999809265</ele>
        <time>2020-09-27T07:50:51.000Z</time>
      </trkpt>
      <trkpt lat="47.28731" lon="-2.36901">
        <ele>9.8000001907349</ele>
        <time>2020-09-27T07:50:52.000Z</time>
      </trkpt>
      <trkpt lat="47.28734" lon="-2.36908">
        <ele>9.3999996185303</ele>
        <time>2020-09-27T07:50:53.000Z</time>
      </trkpt>
      <trkpt lat="47.28736" lon="-2.36914">
        <ele>8.3999996185303</ele>
        <time>2020-09-27T07:50:54.000Z</time>
      </trkpt>
      <trkpt lat="47.28742" lon="-2.36923">
        <ele>8.3999996185303</ele>
        <time>2020-09-27T07:50:56.000Z</time>
      </trkpt>
      <trkpt lat="47.28746" lon="-2.36932">
        <ele>8.8000001907349</ele>
        <time>2020-09-27T07:50:58.000Z</time>
      </trkpt>
      <trkpt lat="47.28748" lon="-2.36936">
        <ele>9.1999998092651</ele>
        <time>2020-09-27T07:50:59.000Z</time>
      </trkpt>
      <trkpt lat="47.28749" lon="-2.36941">
        <ele>9.6000003814697</ele>
        <time>2020-09-27T07:51:00.000Z</time>
      </trkpt>
      <trkpt lat="47.2875" lon="-2.36945">
        <ele>10</ele>
        <time>2020-09-27T07:51:01.000Z</time>
      </trkpt>
      <trkpt lat="47.28751" lon="-2.36949">
        <ele>10.39999961853</ele>
        <time>2020-09-27T07:51:02.000Z</time>
      </trkpt>
      <trkpt lat="47.28752" lon="-2.36952">
        <ele>10.800000190735</ele>
        <time>2020-09-27T07:51:03.000Z</time>
      </trkpt>
      <trkpt lat="47.28753" lon="-2.36955">
        <ele>11.199999809265</ele>
        <time>2020-09-27T07:51:04.000Z</time>
      </trkpt>
      <trkpt lat="47.28755" lon="-2.36958">
        <ele>11.800000190735</ele>
        <time>2020-09-27T07:51:05.000Z</time>
      </trkpt>
      <trkpt lat="47.28756" lon="-2.36963">
        <ele>12.199999809265</ele>
        <time>2020-09-27T07:51:06.000Z</time>
      </trkpt>
      <trkpt lat="47.28758" lon="-2.36969">
        <ele>12.60000038147</ele>
        <time>2020-09-27T07:51:07.000Z</time>
      </trkpt>
      <trkpt lat="47.2876" lon="-2.36974">
        <ele>12.60000038147</ele>
        <time>2020-09-27T07:51:08.000Z</time>
      </trkpt>
      <trkpt lat="47.2877" lon="-2.36988">
        <ele>12.60000038147</ele>
        <time>2020-09-27T07:51:14.000Z</time>
      </trkpt>
      <trkpt lat="47.2878" lon="-2.37008">
        <ele>12.60000038147</ele>
        <time>2020-09-27T07:51:19.000Z</time>
      </trkpt>
      <trkpt lat="47.28789" lon="-2.37047">
        <ele>12.60000038147</ele>
        <time>2020-09-27T07:51:25.000Z</time>
      </trkpt>
      <trkpt lat="47.28792" lon="-2.37085">
        <ele>12</ele>
        <time>2020-09-27T07:51:29.000Z</time>
      </trkpt>
      <trkpt lat="47.28793" lon="-2.37093">
        <ele>11.60000038147</ele>
        <time>2020-09-27T07:51:30.000Z</time>
      </trkpt>
      <trkpt lat="47.28795" lon="-2.371">
        <ele>11.199999809265</ele>
        <time>2020-09-27T07:51:31.000Z</time>
      </trkpt>
      <trkpt lat="47.28796" lon="-2.37104">
        <ele>10.60000038147</ele>
        <time>2020-09-27T07:51:32.000Z</time>
      </trkpt>
      <trkpt lat="47.28798" lon="-2.37107">
        <ele>10.199999809265</ele>
        <time>2020-09-27T07:51:33.000Z</time>
      </trkpt>
      <trkpt lat="47.288" lon="-2.37109">
        <ele>9.6000003814697</ele>
        <time>2020-09-27T07:51:34.000Z</time>
      </trkpt>
      <trkpt lat="47.28802" lon="-2.37109">
        <ele>9</ele>
        <time>2020-09-27T07:51:35.000Z</time>
      </trkpt>
      <trkpt lat="47.28805" lon="-2.3711">
        <ele>8.6000003814697</ele>
        <time>2020-09-27T07:51:36.000Z</time>
      </trkpt>
      <trkpt lat="47.28808" lon="-2.3711">
        <ele>8</ele>
        <time>2020-09-27T07:51:37.000Z</time>
      </trkpt>
      <trkpt lat="47.28811" lon="-2.3711">
        <ele>8</ele>
        <time>2020-09-27T07:51:38.000Z</time>
      </trkpt>
      <trkpt lat="47.28814" lon="-2.37109">
        <ele>7.5999999046326</ele>
        <time>2020-09-27T07:51:39.000Z</time>
      </trkpt>
      <trkpt lat="47.28816" lon="-2.37108">
        <ele>7.1999998092651</ele>
        <time>2020-09-27T07:51:40.000Z</time>
      </trkpt>
      <trkpt lat="47.28819" lon="-2.37107">
        <ele>6.5999999046326</ele>
        <time>2020-09-27T07:51:41.000Z</time>
      </trkpt>
      <trkpt lat="47.28821" lon="-2.37105">
        <ele>5.5999999046326</ele>
        <time>2020-09-27T07:51:42.000Z</time>
      </trkpt>
      <trkpt lat="47.28823" lon="-2.37105">
        <ele>5.1999998092651</ele>
        <time>2020-09-27T07:51:43.000Z</time>
      </trkpt>
      <trkpt lat="47.28825" lon="-2.37106">
        <ele>4.5999999046326</ele>
        <time>2020-09-27T07:51:44.000Z</time>
      </trkpt>
      <trkpt lat="47.28827" lon="-2.37108">
        <ele>4</ele>
        <time>2020-09-27T07:51:45.000Z</time>
      </trkpt>
      <trkpt lat="47.28828" lon="-2.37111">
        <ele>3.4000000953674</ele>
        <time>2020-09-27T07:51:46.000Z</time>
      </trkpt>
      <trkpt lat="47.28828" lon="-2.3712">
        <ele>3.4000000953674</ele>
        <time>2020-09-27T07:51:48.000Z</time>
      </trkpt>
      <trkpt lat="47.28827" lon="-2.37141">
        <ele>3.4000000953674</ele>
        <time>2020-09-27T07:51:52.000Z</time>
      </trkpt>
      <trkpt lat="47.28828" lon="-2.37147">
        <ele>3.4000000953674</ele>
        <time>2020-09-27T07:51:53.000Z</time>
      </trkpt>
      <trkpt lat="47.28831" lon="-2.37161">
        <ele>3.4000000953674</ele>
        <time>2020-09-27T07:51:55.000Z</time>
      </trkpt>
      <trkpt lat="47.28835" lon="-2.37176">
        <ele>3.4000000953674</ele>
        <time>2020-09-27T07:51:57.000Z</time>
      </trkpt>
      <trkpt lat="47.28845" lon="-2.37214">
        <ele>3.4000000953674</ele>
        <time>2020-09-27T07:52:03.000Z</time>
      </trkpt>
      <trkpt lat="47.2885" lon="-2.37233">
        <ele>3.4000000953674</ele>
        <time>2020-09-27T07:52:06.000Z</time>
      </trkpt>
      <trkpt lat="47.28856" lon="-2.3725">
        <ele>3.4000000953674</ele>
        <time>2020-09-27T07:52:09.000Z</time>
      </trkpt>
      <trkpt lat="47.28858" lon="-2.37256">
        <ele>3</ele>
        <time>2020-09-27T07:52:10.000Z</time>
      </trkpt>
      <trkpt lat="47.28859" lon="-2.37263">
        <ele>2.5999999046326</ele>
        <time>2020-09-27T07:52:11.000Z</time>
      </trkpt>
      <trkpt lat="47.28859" lon="-2.3727">
        <ele>2.2000000476837</ele>
        <time>2020-09-27T07:52:12.000Z</time>
      </trkpt>
      <trkpt lat="47.28859" lon="-2.37277">
        <ele>1.7999999523163</ele>
        <time>2020-09-27T07:52:13.000Z</time>
      </trkpt>
      <trkpt lat="47.28859" lon="-2.37284">
        <ele>1.3999999761581</ele>
        <time>2020-09-27T07:52:14.000Z</time>
      </trkpt>
      <trkpt lat="47.28862" lon="-2.37312">
        <ele>1.3999999761581</ele>
        <time>2020-09-27T07:52:18.000Z</time>
      </trkpt>
      <trkpt lat="47.28862" lon="-2.37325">
        <ele>1.3999999761581</ele>
        <time>2020-09-27T07:52:20.000Z</time>
      </trkpt>
      <trkpt lat="47.28863" lon="-2.37338">
        <ele>1.3999999761581</ele>
        <time>2020-09-27T07:52:22.000Z</time>
      </trkpt>
      <trkpt lat="47.28864" lon="-2.37363">
        <ele>1.3999999761581</ele>
        <time>2020-09-27T07:52:26.000Z</time>
      </trkpt>
      <trkpt lat="47.28869" lon="-2.37387">
        <ele>1.3999999761581</ele>
        <time>2020-09-27T07:52:30.000Z</time>
      </trkpt>
      <trkpt lat="47.28871" lon="-2.374">
        <ele>1.3999999761581</ele>
        <time>2020-09-27T07:52:32.000Z</time>
      </trkpt>
      <trkpt lat="47.2887" lon="-2.37419">
        <ele>1.3999999761581</ele>
        <time>2020-09-27T07:52:35.000Z</time>
      </trkpt>
      <trkpt lat="47.28872" lon="-2.37452">
        <ele>1.3999999761581</ele>
        <time>2020-09-27T07:52:41.000Z</time>
      </trkpt>
      <trkpt lat="47.28875" lon="-2.37483">
        <ele>1.3999999761581</ele>
        <time>2020-09-27T07:52:47.000Z</time>
      </trkpt>
      <trkpt lat="47.28878" lon="-2.3751">
        <ele>1.3999999761581</ele>
        <time>2020-09-27T07:52:53.000Z</time>
      </trkpt>
      <trkpt lat="47.28879" lon="-2.37521">
        <ele>1</ele>
        <time>2020-09-27T07:52:56.000Z</time>
      </trkpt>
      <trkpt lat="47.2888" lon="-2.37524">
        <ele>0.60000002384186</ele>
        <time>2020-09-27T07:52:57.000Z</time>
      </trkpt>
      <trkpt lat="47.2888" lon="-2.37528">
        <ele>0.20000000298023</ele>
        <time>2020-09-27T07:52:58.000Z</time>
      </trkpt>
      <trkpt lat="47.28881" lon="-2.37532">
        <ele>-0.20000000298023</ele>
        <time>2020-09-27T07:52:59.000Z</time>
      </trkpt>
      <trkpt lat="47.28881" lon="-2.37536">
        <ele>-0.60000002384186</ele>
        <time>2020-09-27T07:53:00.000Z</time>
      </trkpt>
      <trkpt lat="47.2888" lon="-2.37547">
        <ele>-0.60000002384186</ele>
        <time>2020-09-27T07:53:02.000Z</time>
      </trkpt>
      <trkpt lat="47.28877" lon="-2.37559">
        <ele>-0.60000002384186</ele>
        <time>2020-09-27T07:53:04.000Z</time>
      </trkpt>
      <trkpt lat="47.28873" lon="-2.37571">
        <ele>-0.60000002384186</ele>
        <time>2020-09-27T07:53:06.000Z</time>
      </trkpt>
      <trkpt lat="47.2887" lon="-2.37577">
        <ele>-0.60000002384186</ele>
        <time>2020-09-27T07:53:07.000Z</time>
      </trkpt>
      <trkpt lat="47.28855" lon="-2.3761">
        <ele>-0.60000002384186</ele>
        <time>2020-09-27T07:53:13.000Z</time>
      </trkpt>
      <trkpt lat="47.28843" lon="-2.37634">
        <ele>-0.60000002384186</ele>
        <time>2020-09-27T07:53:17.000Z</time>
      </trkpt>
      <trkpt lat="47.28837" lon="-2.37647">
        <ele>-0.60000002384186</ele>
        <time>2020-09-27T07:53:19.000Z</time>
      </trkpt>
      <trkpt lat="47.28814" lon="-2.37704">
        <ele>-0.60000002384186</ele>
        <time>2020-09-27T07:53:27.000Z</time>
      </trkpt>
      <trkpt lat="47.28791" lon="-2.37768">
        <ele>-0.60000002384186</ele>
        <time>2020-09-27T07:53:35.000Z</time>
      </trkpt>
      <trkpt lat="47.28777" lon="-2.37815">
        <ele>-0.60000002384186</ele>
        <time>2020-09-27T07:53:41.000Z</time>
      </trkpt>
      <trkpt lat="47.28777" lon="-2.37824">
        <ele>-0.60000002384186</ele>
        <time>2020-09-27T07:53:42.000Z</time>
      </trkpt>
      <trkpt lat="47.28782" lon="-2.37847">
        <ele>-0.60000002384186</ele>
        <time>2020-09-27T07:53:45.000Z</time>
      </trkpt>
      <trkpt lat="47.28784" lon="-2.37854">
        <ele>-0.60000002384186</ele>
        <time>2020-09-27T07:53:46.000Z</time>
      </trkpt>
      <trkpt lat="47.28793" lon="-2.37893">
        <ele>-0.60000002384186</ele>
        <time>2020-09-27T07:53:52.000Z</time>
      </trkpt>
      <trkpt lat="47.28798" lon="-2.37914">
        <ele>-0.60000002384186</ele>
        <time>2020-09-27T07:53:57.000Z</time>
      </trkpt>
      <trkpt lat="47.28805" lon="-2.37943">
        <ele>-0.60000002384186</ele>
        <time>2020-09-27T07:54:04.000Z</time>
      </trkpt>
      <trkpt lat="47.28813" lon="-2.37968">
        <ele>-0.60000002384186</ele>
        <time>2020-09-27T07:54:11.000Z</time>
      </trkpt>
      <trkpt lat="47.28819" lon="-2.37995">
        <ele>-0.60000002384186</ele>
        <time>2020-09-27T07:54:17.000Z</time>
      </trkpt>
      <trkpt lat="47.28831" lon="-2.38041">
        <ele>-0.60000002384186</ele>
        <time>2020-09-27T07:54:26.000Z</time>
      </trkpt>
      <trkpt lat="47.28839" lon="-2.38073">
        <ele>-0.60000002384186</ele>
        <time>2020-09-27T07:54:33.000Z</time>
      </trkpt>
      <trkpt lat="47.28839" lon="-2.38083">
        <ele>-0.60000002384186</ele>
        <time>2020-09-27T07:54:35.000Z</time>
      </trkpt>
      <trkpt lat="47.28832" lon="-2.38091">
        <ele>-0.60000002384186</ele>
        <time>2020-09-27T07:54:37.000Z</time>
      </trkpt>
      <trkpt lat="47.28823" lon="-2.38098">
        <ele>-0.60000002384186</ele>
        <time>2020-09-27T07:54:39.000Z</time>
      </trkpt>
      <trkpt lat="47.28805" lon="-2.3811">
        <ele>-0.60000002384186</ele>
        <time>2020-09-27T07:54:43.000Z</time>
      </trkpt>
      <trkpt lat="47.28789" lon="-2.38121">
        <ele>-1</ele>
        <time>2020-09-27T07:54:47.000Z</time>
      </trkpt>
      <trkpt lat="47.28785" lon="-2.38123">
        <ele>-1.6000000238419</ele>
        <time>2020-09-27T07:54:48.000Z</time>
      </trkpt>
      <trkpt lat="47.28781" lon="-2.38126">
        <ele>-2</ele>
        <time>2020-09-27T07:54:49.000Z</time>
      </trkpt>
      <trkpt lat="47.28777" lon="-2.38128">
        <ele>-2.4000000953674</ele>
        <time>2020-09-27T07:54:50.000Z</time>
      </trkpt>
      <trkpt lat="47.28773" lon="-2.38131">
        <ele>-2.7999999523163</ele>
        <time>2020-09-27T07:54:51.000Z</time>
      </trkpt>
      <trkpt lat="47.28762" lon="-2.38146">
        <ele>-2.7999999523163</ele>
        <time>2020-09-27T07:54:55.000Z</time>
      </trkpt>
      <trkpt lat="47.28761" lon="-2.38152">
        <ele>-2.7999999523163</ele>
        <time>2020-09-27T07:54:56.000Z</time>
      </trkpt>
      <trkpt lat="47.28764" lon="-2.3817">
        <ele>-2.7999999523163</ele>
        <time>2020-09-27T07:54:59.000Z</time>
      </trkpt>
      <trkpt lat="47.28766" lon="-2.38176">
        <ele>-2.7999999523163</ele>
        <time>2020-09-27T07:55:00.000Z</time>
      </trkpt>
      <trkpt lat="47.28773" lon="-2.3821">
        <ele>-2.7999999523163</ele>
        <time>2020-09-27T07:55:05.000Z</time>
      </trkpt>
      <trkpt lat="47.28774" lon="-2.38217">
        <ele>-2.7999999523163</ele>
        <time>2020-09-27T07:55:06.000Z</time>
      </trkpt>
      <trkpt lat="47.28777" lon="-2.38237">
        <ele>-2.7999999523163</ele>
        <time>2020-09-27T07:55:09.000Z</time>
      </trkpt>
      <trkpt lat="47.28782" lon="-2.38258">
        <ele>-2.7999999523163</ele>
        <time>2020-09-27T07:55:12.000Z</time>
      </trkpt>
      <trkpt lat="47.28792" lon="-2.38314">
        <ele>-2.7999999523163</ele>
        <time>2020-09-27T07:55:20.000Z</time>
      </trkpt>
      <trkpt lat="47.28794" lon="-2.38327">
        <ele>-2.4000000953674</ele>
        <time>2020-09-27T07:55:22.000Z</time>
      </trkpt>
      <trkpt lat="47.28795" lon="-2.38334">
        <ele>-2</ele>
        <time>2020-09-27T07:55:23.000Z</time>
      </trkpt>
      <trkpt lat="47.28796" lon="-2.3834">
        <ele>-1.6000000238419</ele>
        <time>2020-09-27T07:55:24.000Z</time>
      </trkpt>
      <trkpt lat="47.28797" lon="-2.38347">
        <ele>-0.80000001192093</ele>
        <time>2020-09-27T07:55:25.000Z</time>
      </trkpt>
      <trkpt lat="47.288" lon="-2.3836">
        <ele>-0.80000001192093</ele>
        <time>2020-09-27T07:55:27.000Z</time>
      </trkpt>
      <trkpt lat="47.2881" lon="-2.38405">
        <ele>-0.80000001192093</ele>
        <time>2020-09-27T07:55:34.000Z</time>
      </trkpt>
      <trkpt lat="47.28817" lon="-2.38431">
        <ele>-0.80000001192093</ele>
        <time>2020-09-27T07:55:38.000Z</time>
      </trkpt>
      <trkpt lat="47.28821" lon="-2.38446">
        <ele>-0.80000001192093</ele>
        <time>2020-09-27T07:55:40.000Z</time>
      </trkpt>
      <trkpt lat="47.28832" lon="-2.38501">
        <ele>-0.80000001192093</ele>
        <time>2020-09-27T07:55:47.000Z</time>
      </trkpt>
      <trkpt lat="47.28835" lon="-2.38557">
        <ele>-0.80000001192093</ele>
        <time>2020-09-27T07:55:53.000Z</time>
      </trkpt>
      <trkpt lat="47.28834" lon="-2.38567">
        <ele>-0.80000001192093</ele>
        <time>2020-09-27T07:55:54.000Z</time>
      </trkpt>
      <trkpt lat="47.28827" lon="-2.38604">
        <ele>-0.80000001192093</ele>
        <time>2020-09-27T07:55:58.000Z</time>
      </trkpt>
      <trkpt lat="47.28814" lon="-2.38659">
        <ele>-0.80000001192093</ele>
        <time>2020-09-27T07:56:04.000Z</time>
      </trkpt>
      <trkpt lat="47.28799" lon="-2.38719">
        <ele>-0.80000001192093</ele>
        <time>2020-09-27T07:56:11.000Z</time>
      </trkpt>
      <trkpt lat="47.28782" lon="-2.3879">
        <ele>-0.80000001192093</ele>
        <time>2020-09-27T07:56:20.000Z</time>
      </trkpt>
      <trkpt lat="47.28766" lon="-2.38852">
        <ele>-0.80000001192093</ele>
        <time>2020-09-27T07:56:28.000Z</time>
      </trkpt>
      <trkpt lat="47.28755" lon="-2.38893">
        <ele>-0.80000001192093</ele>
        <time>2020-09-27T07:56:34.000Z</time>
      </trkpt>
      <trkpt lat="47.28744" lon="-2.38936">
        <ele>-0.80000001192093</ele>
        <time>2020-09-27T07:56:40.000Z</time>
      </trkpt>
      <trkpt lat="47.28731" lon="-2.38993">
        <ele>-0.80000001192093</ele>
        <time>2020-09-27T07:56:47.000Z</time>
      </trkpt>
      <trkpt lat="47.28717" lon="-2.39054">
        <ele>-0.80000001192093</ele>
        <time>2020-09-27T07:56:55.000Z</time>
      </trkpt>
      <trkpt lat="47.28716" lon="-2.3906">
        <ele>-0.80000001192093</ele>
        <time>2020-09-27T07:56:56.000Z</time>
      </trkpt>
      <trkpt lat="47.2871" lon="-2.3908">
        <ele>-0.80000001192093</ele>
        <time>2020-09-27T07:56:59.000Z</time>
      </trkpt>
      <trkpt lat="47.28709" lon="-2.39087">
        <ele>-0.80000001192093</ele>
        <time>2020-09-27T07:57:00.000Z</time>
      </trkpt>
      <trkpt lat="47.28699" lon="-2.39136">
        <ele>-0.80000001192093</ele>
        <time>2020-09-27T07:57:07.000Z</time>
      </trkpt>
      <trkpt lat="47.28688" lon="-2.39173">
        <ele>-0.80000001192093</ele>
        <time>2020-09-27T07:57:12.000Z</time>
      </trkpt>
      <trkpt lat="47.28686" lon="-2.39181">
        <ele>-0.80000001192093</ele>
        <time>2020-09-27T07:57:13.000Z</time>
      </trkpt>
      <trkpt lat="47.28676" lon="-2.39228">
        <ele>-0.80000001192093</ele>
        <time>2020-09-27T07:57:19.000Z</time>
      </trkpt>
      <trkpt lat="47.28664" lon="-2.39283">
        <ele>-0.80000001192093</ele>
        <time>2020-09-27T07:57:26.000Z</time>
      </trkpt>
      <trkpt lat="47.28651" lon="-2.39338">
        <ele>-0.80000001192093</ele>
        <time>2020-09-27T07:57:33.000Z</time>
      </trkpt>
      <trkpt lat="47.28637" lon="-2.39399">
        <ele>-0.80000001192093</ele>
        <time>2020-09-27T07:57:41.000Z</time>
      </trkpt>
      <trkpt lat="47.28621" lon="-2.39466">
        <ele>-0.80000001192093</ele>
        <time>2020-09-27T07:57:50.000Z</time>
      </trkpt>
      <trkpt lat="47.28608" lon="-2.39517">
        <ele>-0.80000001192093</ele>
        <time>2020-09-27T07:57:58.000Z</time>
      </trkpt>
      <trkpt lat="47.28591" lon="-2.39587">
        <ele>-0.80000001192093</ele>
        <time>2020-09-27T07:58:07.000Z</time>
      </trkpt>
      <trkpt lat="47.28588" lon="-2.39604">
        <ele>-0.80000001192093</ele>
        <time>2020-09-27T07:58:09.000Z</time>
      </trkpt>
      <trkpt lat="47.28579" lon="-2.39635">
        <ele>-0.80000001192093</ele>
        <time>2020-09-27T07:58:13.000Z</time>
      </trkpt>
      <trkpt lat="47.28564" lon="-2.39692">
        <ele>-0.80000001192093</ele>
        <time>2020-09-27T07:58:20.000Z</time>
      </trkpt>
      <trkpt lat="47.28549" lon="-2.39748">
        <ele>-0.80000001192093</ele>
        <time>2020-09-27T07:58:27.000Z</time>
      </trkpt>
      <trkpt lat="47.28546" lon="-2.39763">
        <ele>-0.80000001192093</ele>
        <time>2020-09-27T07:58:29.000Z</time>
      </trkpt>
      <trkpt lat="47.28539" lon="-2.39796">
        <ele>-0.80000001192093</ele>
        <time>2020-09-27T07:58:33.000Z</time>
      </trkpt>
      <trkpt lat="47.2853" lon="-2.39837">
        <ele>-1.2000000476837</ele>
        <time>2020-09-27T07:58:38.000Z</time>
      </trkpt>
      <trkpt lat="47.28529" lon="-2.39845">
        <ele>-1.6000000238419</ele>
        <time>2020-09-27T07:58:39.000Z</time>
      </trkpt>
      <trkpt lat="47.28527" lon="-2.39853">
        <ele>-2</ele>
        <time>2020-09-27T07:58:40.000Z</time>
      </trkpt>
      <trkpt lat="47.28525" lon="-2.39862">
        <ele>-2.4000000953674</ele>
        <time>2020-09-27T07:58:41.000Z</time>
      </trkpt>
      <trkpt lat="47.28523" lon="-2.3987">
        <ele>-2.7999999523163</ele>
        <time>2020-09-27T07:58:42.000Z</time>
      </trkpt>
      <trkpt lat="47.28512" lon="-2.39927">
        <ele>-2.7999999523163</ele>
        <time>2020-09-27T07:58:49.000Z</time>
      </trkpt>
      <trkpt lat="47.28503" lon="-2.39964">
        <ele>-2.4000000953674</ele>
        <time>2020-09-27T07:58:54.000Z</time>
      </trkpt>
      <trkpt lat="47.28502" lon="-2.3997">
        <ele>-2</ele>
        <time>2020-09-27T07:58:55.000Z</time>
      </trkpt>
      <trkpt lat="47.28501" lon="-2.39977">
        <ele>-1.6000000238419</ele>
        <time>2020-09-27T07:58:56.000Z</time>
      </trkpt>
      <trkpt lat="47.285" lon="-2.39984">
        <ele>-1.2000000476837</ele>
        <time>2020-09-27T07:58:57.000Z</time>
      </trkpt>
      <trkpt lat="47.28498" lon="-2.39991">
        <ele>-0.80000001192093</ele>
        <time>2020-09-27T07:58:58.000Z</time>
      </trkpt>
      <trkpt lat="47.28492" lon="-2.40011">
        <ele>-1.2000000476837</ele>
        <time>2020-09-27T07:59:01.000Z</time>
      </trkpt>
      <trkpt lat="47.2849" lon="-2.40017">
        <ele>-1.6000000238419</ele>
        <time>2020-09-27T07:59:02.000Z</time>
      </trkpt>
      <trkpt lat="47.28492" lon="-2.40023">
        <ele>-2</ele>
        <time>2020-09-27T07:59:03.000Z</time>
      </trkpt>
      <trkpt lat="47.28495" lon="-2.40026">
        <ele>-2.4000000953674</ele>
        <time>2020-09-27T07:59:04.000Z</time>
      </trkpt>
      <trkpt lat="47.28499" lon="-2.40027">
        <ele>-2.7999999523163</ele>
        <time>2020-09-27T07:59:05.000Z</time>
      </trkpt>
      <trkpt lat="47.2851" lon="-2.40026">
        <ele>-2.7999999523163</ele>
        <time>2020-09-27T07:59:07.000Z</time>
      </trkpt>
      <trkpt lat="47.28515" lon="-2.40025">
        <ele>-2.7999999523163</ele>
        <time>2020-09-27T07:59:08.000Z</time>
      </trkpt>
      <trkpt lat="47.2854" lon="-2.40023">
        <ele>-2.7999999523163</ele>
        <time>2020-09-27T07:59:13.000Z</time>
      </trkpt>
      <trkpt lat="47.2855" lon="-2.40023">
        <ele>-2.7999999523163</ele>
        <time>2020-09-27T07:59:17.000Z</time>
      </trkpt>
      <trkpt lat="47.28552" lon="-2.40025">
        <ele>-2.7999999523163</ele>
        <time>2020-09-27T07:59:18.000Z</time>
      </trkpt>
      <trkpt lat="47.28554" lon="-2.40032">
        <ele>-2.7999999523163</ele>
        <time>2020-09-27T07:59:20.000Z</time>
      </trkpt>
      <trkpt lat="47.28557" lon="-2.40041">
        <ele>-2.7999999523163</ele>
        <time>2020-09-27T07:59:22.000Z</time>
      </trkpt>
      <trkpt lat="47.28559" lon="-2.40059">
        <ele>-2.7999999523163</ele>
        <time>2020-09-27T07:59:25.000Z</time>
      </trkpt>
      <trkpt lat="47.2856" lon="-2.40066">
        <ele>-2.7999999523163</ele>
        <time>2020-09-27T07:59:26.000Z</time>
      </trkpt>
      <trkpt lat="47.2856" lon="-2.40081">
        <ele>-2.7999999523163</ele>
        <time>2020-09-27T07:59:28.000Z</time>
      </trkpt>
      <trkpt lat="47.28559" lon="-2.40098">
        <ele>-2.7999999523163</ele>
        <time>2020-09-27T07:59:30.000Z</time>
      </trkpt>
      <trkpt lat="47.28553" lon="-2.40154">
        <ele>-2.7999999523163</ele>
        <time>2020-09-27T07:59:37.000Z</time>
      </trkpt>
      <trkpt lat="47.28544" lon="-2.40228">
        <ele>-3.2000000476837</ele>
        <time>2020-09-27T07:59:46.000Z</time>
      </trkpt>
      <trkpt lat="47.28543" lon="-2.40236">
        <ele>-3.5999999046326</ele>
        <time>2020-09-27T07:59:47.000Z</time>
      </trkpt>
      <trkpt lat="47.28542" lon="-2.40243">
        <ele>-4</ele>
        <time>2020-09-27T07:59:48.000Z</time>
      </trkpt>
      <trkpt lat="47.28541" lon="-2.40251">
        <ele>-4.5999999046326</ele>
        <time>2020-09-27T07:59:49.000Z</time>
      </trkpt>
      <trkpt lat="47.28541" lon="-2.40259">
        <ele>-5</ele>
        <time>2020-09-27T07:59:50.000Z</time>
      </trkpt>
      <trkpt lat="47.28537" lon="-2.40282">
        <ele>-5</ele>
        <time>2020-09-27T07:59:53.000Z</time>
      </trkpt>
      <trkpt lat="47.2853" lon="-2.40347">
        <ele>-5</ele>
        <time>2020-09-27T08:00:01.000Z</time>
      </trkpt>
      <trkpt lat="47.28526" lon="-2.40386">
        <ele>-5</ele>
        <time>2020-09-27T08:00:07.000Z</time>
      </trkpt>
      <trkpt lat="47.28526" lon="-2.4041">
        <ele>-5</ele>
        <time>2020-09-27T08:00:11.000Z</time>
      </trkpt>
      <trkpt lat="47.28528" lon="-2.40415">
        <ele>-5</ele>
        <time>2020-09-27T08:00:12.000Z</time>
      </trkpt>
      <trkpt lat="47.28539" lon="-2.40426">
        <ele>-5</ele>
        <time>2020-09-27T08:00:15.000Z</time>
      </trkpt>
      <trkpt lat="47.28568" lon="-2.40452">
        <ele>-5</ele>
        <time>2020-09-27T08:00:22.000Z</time>
      </trkpt>
      <trkpt lat="47.28572" lon="-2.40455">
        <ele>-5</ele>
        <time>2020-09-27T08:00:23.000Z</time>
      </trkpt>
      <trkpt lat="47.28584" lon="-2.40465">
        <ele>-5</ele>
        <time>2020-09-27T08:00:27.000Z</time>
      </trkpt>
      <trkpt lat="47.28599" lon="-2.40487">
        <ele>-5</ele>
        <time>2020-09-27T08:00:32.000Z</time>
      </trkpt>
      <trkpt lat="47.2861" lon="-2.40501">
        <ele>-4.4000000953674</ele>
        <time>2020-09-27T08:00:35.000Z</time>
      </trkpt>
      <trkpt lat="47.28614" lon="-2.40505">
        <ele>-4</ele>
        <time>2020-09-27T08:00:36.000Z</time>
      </trkpt>
      <trkpt lat="47.28617" lon="-2.4051">
        <ele>-3.4000000953674</ele>
        <time>2020-09-27T08:00:37.000Z</time>
      </trkpt>
      <trkpt lat="47.2862" lon="-2.40514">
        <ele>-3</ele>
        <time>2020-09-27T08:00:38.000Z</time>
      </trkpt>
      <trkpt lat="47.28624" lon="-2.40519">
        <ele>-2.5999999046326</ele>
        <time>2020-09-27T08:00:39.000Z</time>
      </trkpt>
      <trkpt lat="47.28645" lon="-2.40549">
        <ele>-2.5999999046326</ele>
        <time>2020-09-27T08:00:46.000Z</time>
      </trkpt>
      <trkpt lat="47.2865" lon="-2.4056">
        <ele>-2.5999999046326</ele>
        <time>2020-09-27T08:00:48.000Z</time>
      </trkpt>
      <trkpt lat="47.28651" lon="-2.40577">
        <ele>-2.5999999046326</ele>
        <time>2020-09-27T08:00:51.000Z</time>
      </trkpt>
      <trkpt lat="47.28641" lon="-2.40593">
        <ele>-2.5999999046326</ele>
        <time>2020-09-27T08:00:54.000Z</time>
      </trkpt>
      <trkpt lat="47.28638" lon="-2.40598">
        <ele>-2.5999999046326</ele>
        <time>2020-09-27T08:00:55.000Z</time>
      </trkpt>
      <trkpt lat="47.28631" lon="-2.40609">
        <ele>-3</ele>
        <time>2020-09-27T08:00:57.000Z</time>
      </trkpt>
      <trkpt lat="47.28628" lon="-2.40614">
        <ele>-3.4000000953674</ele>
        <time>2020-09-27T08:00:58.000Z</time>
      </trkpt>
      <trkpt lat="47.28625" lon="-2.40619">
        <ele>-3.7999999523163</ele>
        <time>2020-09-27T08:00:59.000Z</time>
      </trkpt>
      <trkpt lat="47.28621" lon="-2.40624">
        <ele>-4.1999998092651</ele>
        <time>2020-09-27T08:01:00.000Z</time>
      </trkpt>
      <trkpt lat="47.28618" lon="-2.40629">
        <ele>-4.5999999046326</ele>
        <time>2020-09-27T08:01:01.000Z</time>
      </trkpt>
      <trkpt lat="47.28595" lon="-2.40664">
        <ele>-4.5999999046326</ele>
        <time>2020-09-27T08:01:09.000Z</time>
      </trkpt>
      <trkpt lat="47.28576" lon="-2.40693">
        <ele>-4.5999999046326</ele>
        <time>2020-09-27T08:01:15.000Z</time>
      </trkpt>
      <trkpt lat="47.28548" lon="-2.40732">
        <ele>-4.5999999046326</ele>
        <time>2020-09-27T08:01:23.000Z</time>
      </trkpt>
      <trkpt lat="47.28532" lon="-2.40756">
        <ele>-5</ele>
        <time>2020-09-27T08:01:28.000Z</time>
      </trkpt>
      <trkpt lat="47.28529" lon="-2.40761">
        <ele>-5.4000000953674</ele>
        <time>2020-09-27T08:01:29.000Z</time>
      </trkpt>
      <trkpt lat="47.28526" lon="-2.40767">
        <ele>-5.8000001907349</ele>
        <time>2020-09-27T08:01:30.000Z</time>
      </trkpt>
      <trkpt lat="47.28523" lon="-2.40772">
        <ele>-6.1999998092651</ele>
        <time>2020-09-27T08:01:31.000Z</time>
      </trkpt>
      <trkpt lat="47.28519" lon="-2.40777">
        <ele>-6.5999999046326</ele>
        <time>2020-09-27T08:01:32.000Z</time>
      </trkpt>
      <trkpt lat="47.28502" lon="-2.40805">
        <ele>-6.5999999046326</ele>
        <time>2020-09-27T08:01:37.000Z</time>
      </trkpt>
      <trkpt lat="47.28477" lon="-2.40844">
        <ele>-6.5999999046326</ele>
        <time>2020-09-27T08:01:44.000Z</time>
      </trkpt>
      <trkpt lat="47.28464" lon="-2.40865">
        <ele>-6.5999999046326</ele>
        <time>2020-09-27T08:01:48.000Z</time>
      </trkpt>
      <trkpt lat="47.28458" lon="-2.40875">
        <ele>-6.5999999046326</ele>
        <time>2020-09-27T08:01:50.000Z</time>
      </trkpt>
      <trkpt lat="47.28434" lon="-2.40912">
        <ele>-6.5999999046326</ele>
        <time>2020-09-27T08:01:58.000Z</time>
      </trkpt>
      <trkpt lat="47.28432" lon="-2.40917">
        <ele>-6.5999999046326</ele>
        <time>2020-09-27T08:01:59.000Z</time>
      </trkpt>
      <trkpt lat="47.28425" lon="-2.40943">
        <ele>-6.5999999046326</ele>
        <time>2020-09-27T08:02:03.000Z</time>
      </trkpt>
      <trkpt lat="47.28424" lon="-2.40949">
        <ele>-6.5999999046326</ele>
        <time>2020-09-27T08:02:04.000Z</time>
      </trkpt>
      <trkpt lat="47.28413" lon="-2.40995">
        <ele>-6.5999999046326</ele>
        <time>2020-09-27T08:02:11.000Z</time>
      </trkpt>
      <trkpt lat="47.284" lon="-2.41043">
        <ele>-6.5999999046326</ele>
        <time>2020-09-27T08:02:18.000Z</time>
      </trkpt>
      <trkpt lat="47.28386" lon="-2.41102">
        <ele>-6.5999999046326</ele>
        <time>2020-09-27T08:02:26.000Z</time>
      </trkpt>
      <trkpt lat="47.28374" lon="-2.41149">
        <ele>-6.5999999046326</ele>
        <time>2020-09-27T08:02:33.000Z</time>
      </trkpt>
      <trkpt lat="47.28364" lon="-2.4119">
        <ele>-6.5999999046326</ele>
        <time>2020-09-27T08:02:40.000Z</time>
      </trkpt>
      <trkpt lat="47.28361" lon="-2.41202">
        <ele>-6.5999999046326</ele>
        <time>2020-09-27T08:02:44.000Z</time>
      </trkpt>
      <trkpt lat="47.28361" lon="-2.41201">
        <ele>-6.5999999046326</ele>
        <time>2020-09-27T08:02:45.000Z</time>
      </trkpt>
      <trkpt lat="47.28361" lon="-2.41207">
        <ele>-6.5999999046326</ele>
        <time>2020-09-27T08:02:50.000Z</time>
      </trkpt>
      <trkpt lat="47.28363" lon="-2.4121">
        <ele>-6.5999999046326</ele>
        <time>2020-09-27T08:02:51.000Z</time>
      </trkpt>
      <trkpt lat="47.28368" lon="-2.41223">
        <ele>-6.5999999046326</ele>
        <time>2020-09-27T08:02:55.000Z</time>
      </trkpt>
      <trkpt lat="47.28374" lon="-2.41232">
        <ele>-6.5999999046326</ele>
        <time>2020-09-27T08:02:58.000Z</time>
      </trkpt>
      <trkpt lat="47.28377" lon="-2.41234">
        <ele>-6.5999999046326</ele>
        <time>2020-09-27T08:02:59.000Z</time>
      </trkpt>
      <trkpt lat="47.28398" lon="-2.41243">
        <ele>-6.5999999046326</ele>
        <time>2020-09-27T08:03:04.000Z</time>
      </trkpt>
      <trkpt lat="47.28416" lon="-2.41252">
        <ele>-6.5999999046326</ele>
        <time>2020-09-27T08:03:08.000Z</time>
      </trkpt>
      <trkpt lat="47.28425" lon="-2.41256">
        <ele>-6.5999999046326</ele>
        <time>2020-09-27T08:03:10.000Z</time>
      </trkpt>
      <trkpt lat="47.28451" lon="-2.41269">
        <ele>-6.5999999046326</ele>
        <time>2020-09-27T08:03:17.000Z</time>
      </trkpt>
      <trkpt lat="47.28454" lon="-2.41275">
        <ele>-6.1999998092651</ele>
        <time>2020-09-27T08:03:19.000Z</time>
      </trkpt>
      <trkpt lat="47.28455" lon="-2.41278">
        <ele>-5.8000001907349</ele>
        <time>2020-09-27T08:03:20.000Z</time>
      </trkpt>
      <trkpt lat="47.28455" lon="-2.41282">
        <ele>-5.4000000953674</ele>
        <time>2020-09-27T08:03:21.000Z</time>
      </trkpt>
      <trkpt lat="47.28454" lon="-2.41287">
        <ele>-4.8000001907349</ele>
        <time>2020-09-27T08:03:22.000Z</time>
      </trkpt>
      <trkpt lat="47.28454" lon="-2.41292">
        <ele>-4.4000000953674</ele>
        <time>2020-09-27T08:03:23.000Z</time>
      </trkpt>
      <trkpt lat="47.28452" lon="-2.41309">
        <ele>-4</ele>
        <time>2020-09-27T08:03:26.000Z</time>
      </trkpt>
      <trkpt lat="47.28451" lon="-2.41314">
        <ele>-3.5999999046326</ele>
        <time>2020-09-27T08:03:27.000Z</time>
      </trkpt>
      <trkpt lat="47.2845" lon="-2.41319">
        <ele>-3.2000000476837</ele>
        <time>2020-09-27T08:03:28.000Z</time>
      </trkpt>
      <trkpt lat="47.28449" lon="-2.41325">
        <ele>-2.7999999523163</ele>
        <time>2020-09-27T08:03:29.000Z</time>
      </trkpt>
      <trkpt lat="47.28448" lon="-2.4133">
        <ele>-2.4000000953674</ele>
        <time>2020-09-27T08:03:30.000Z</time>
      </trkpt>
      <trkpt lat="47.28444" lon="-2.41343">
        <ele>-2.4000000953674</ele>
        <time>2020-09-27T08:03:32.000Z</time>
      </trkpt>
      <trkpt lat="47.28433" lon="-2.41384">
        <ele>-2.4000000953674</ele>
        <time>2020-09-27T08:03:39.000Z</time>
      </trkpt>
      <trkpt lat="47.28424" lon="-2.41421">
        <ele>-2.4000000953674</ele>
        <time>2020-09-27T08:03:45.000Z</time>
      </trkpt>
      <trkpt lat="47.28422" lon="-2.41427">
        <ele>-2.4000000953674</ele>
        <time>2020-09-27T08:03:46.000Z</time>
      </trkpt>
      <trkpt lat="47.28416" lon="-2.41474">
        <ele>-2.4000000953674</ele>
        <time>2020-09-27T08:03:53.000Z</time>
      </trkpt>
      <trkpt lat="47.28412" lon="-2.41509">
        <ele>-2.7999999523163</ele>
        <time>2020-09-27T08:03:58.000Z</time>
      </trkpt>
      <trkpt lat="47.28412" lon="-2.41516">
        <ele>-3.2000000476837</ele>
        <time>2020-09-27T08:03:59.000Z</time>
      </trkpt>
      <trkpt lat="47.28411" lon="-2.41523">
        <ele>-3.5999999046326</ele>
        <time>2020-09-27T08:04:00.000Z</time>
      </trkpt>
      <trkpt lat="47.28411" lon="-2.4153">
        <ele>-4</ele>
        <time>2020-09-27T08:04:01.000Z</time>
      </trkpt>
      <trkpt lat="47.2841" lon="-2.41537">
        <ele>-4.4000000953674</ele>
        <time>2020-09-27T08:04:02.000Z</time>
      </trkpt>
      <trkpt lat="47.28404" lon="-2.41588">
        <ele>-4.4000000953674</ele>
        <time>2020-09-27T08:04:09.000Z</time>
      </trkpt>
      <trkpt lat="47.284" lon="-2.41636">
        <ele>-4</ele>
        <time>2020-09-27T08:04:16.000Z</time>
      </trkpt>
      <trkpt lat="47.28399" lon="-2.41643">
        <ele>-3.4000000953674</ele>
        <time>2020-09-27T08:04:17.000Z</time>
      </trkpt>
      <trkpt lat="47.28399" lon="-2.4165">
        <ele>-3</ele>
        <time>2020-09-27T08:04:18.000Z</time>
      </trkpt>
      <trkpt lat="47.28398" lon="-2.41657">
        <ele>-2.5999999046326</ele>
        <time>2020-09-27T08:04:19.000Z</time>
      </trkpt>
      <trkpt lat="47.28396" lon="-2.41663">
        <ele>-2</ele>
        <time>2020-09-27T08:04:20.000Z</time>
      </trkpt>
      <trkpt lat="47.28393" lon="-2.41683">
        <ele>-2</ele>
        <time>2020-09-27T08:04:23.000Z</time>
      </trkpt>
      <trkpt lat="47.28382" lon="-2.41723">
        <ele>-2.7999999523163</ele>
        <time>2020-09-27T08:04:29.000Z</time>
      </trkpt>
      <trkpt lat="47.28381" lon="-2.4173">
        <ele>-3.2000000476837</ele>
        <time>2020-09-27T08:04:30.000Z</time>
      </trkpt>
      <trkpt lat="47.28379" lon="-2.41736">
        <ele>-3.5999999046326</ele>
        <time>2020-09-27T08:04:31.000Z</time>
      </trkpt>
      <trkpt lat="47.28376" lon="-2.41743">
        <ele>-4.1999998092651</ele>
        <time>2020-09-27T08:04:32.000Z</time>
      </trkpt>
      <trkpt lat="47.28368" lon="-2.41778">
        <ele>-4.1999998092651</ele>
        <time>2020-09-27T08:04:37.000Z</time>
      </trkpt>
      <trkpt lat="47.28365" lon="-2.41791">
        <ele>-4.1999998092651</ele>
        <time>2020-09-27T08:04:39.000Z</time>
      </trkpt>
      <trkpt lat="47.2836" lon="-2.41806">
        <ele>-4.1999998092651</ele>
        <time>2020-09-27T08:04:42.000Z</time>
      </trkpt>
      <trkpt lat="47.28352" lon="-2.41832">
        <ele>-4.1999998092651</ele>
        <time>2020-09-27T08:04:49.000Z</time>
      </trkpt>
      <trkpt lat="47.28342" lon="-2.41846">
        <ele>-4.1999998092651</ele>
        <time>2020-09-27T08:04:57.000Z</time>
      </trkpt>
      <trkpt lat="47.28338" lon="-2.41856">
        <ele>-4.1999998092651</ele>
        <time>2020-09-27T08:05:02.000Z</time>
      </trkpt>
      <trkpt lat="47.28337" lon="-2.41857">
        <ele>-4.1999998092651</ele>
        <time>2020-09-27T08:05:06.000Z</time>
      </trkpt>
      <trkpt lat="47.28339" lon="-2.41861">
        <ele>-4.1999998092651</ele>
        <time>2020-09-27T08:05:28.000Z</time>
      </trkpt>
      <trkpt lat="47.28348" lon="-2.41869">
        <ele>-4.1999998092651</ele>
        <time>2020-09-27T08:05:33.000Z</time>
      </trkpt>
      <trkpt lat="47.28348" lon="-2.41878">
        <ele>-4.1999998092651</ele>
        <time>2020-09-27T08:05:37.000Z</time>
      </trkpt>
      <trkpt lat="47.28348" lon="-2.41878">
        <ele>-4.1999998092651</ele>
        <time>2020-09-27T08:05:38.000Z</time>
      </trkpt>
      <trkpt lat="47.28346" lon="-2.41881">
        <ele>-6.1999998092651</ele>
        <time>2020-09-27T08:06:34.000Z</time>
      </trkpt>
      <trkpt lat="47.28344" lon="-2.41883">
        <ele>-6.1999998092651</ele>
        <time>2020-09-27T08:06:36.000Z</time>
      </trkpt>
      <trkpt lat="47.28334" lon="-2.41889">
        <ele>-6.1999998092651</ele>
        <time>2020-09-27T08:06:43.000Z</time>
      </trkpt>
      <trkpt lat="47.28331" lon="-2.41896">
        <ele>-6.1999998092651</ele>
        <time>2020-09-27T08:06:47.000Z</time>
      </trkpt>
      <trkpt lat="47.28331" lon="-2.419">
        <ele>-6.1999998092651</ele>
        <time>2020-09-27T08:06:49.000Z</time>
      </trkpt>
      <trkpt lat="47.2833" lon="-2.41908">
        <ele>-6.1999998092651</ele>
        <time>2020-09-27T08:06:53.000Z</time>
      </trkpt>
      <trkpt lat="47.28329" lon="-2.41913">
        <ele>-6.1999998092651</ele>
        <time>2020-09-27T08:06:55.000Z</time>
      </trkpt>
      <trkpt lat="47.28323" lon="-2.41933">
        <ele>-6.1999998092651</ele>
        <time>2020-09-27T08:07:03.000Z</time>
      </trkpt>
      <trkpt lat="47.2832" lon="-2.41961">
        <ele>-6.1999998092651</ele>
        <time>2020-09-27T08:07:09.000Z</time>
      </trkpt>
      <trkpt lat="47.28313" lon="-2.41999">
        <ele>-6.1999998092651</ele>
        <time>2020-09-27T08:07:16.000Z</time>
      </trkpt>
      <trkpt lat="47.28307" lon="-2.42034">
        <ele>-6.1999998092651</ele>
        <time>2020-09-27T08:07:23.000Z</time>
      </trkpt>
      <trkpt lat="47.28299" lon="-2.42084">
        <ele>-6.1999998092651</ele>
        <time>2020-09-27T08:07:33.000Z</time>
      </trkpt>
      <trkpt lat="47.28292" lon="-2.42124">
        <ele>-6.1999998092651</ele>
        <time>2020-09-27T08:07:41.000Z</time>
      </trkpt>
      <trkpt lat="47.28286" lon="-2.42164">
        <ele>-6.1999998092651</ele>
        <time>2020-09-27T08:07:48.000Z</time>
      </trkpt>
      <trkpt lat="47.2828" lon="-2.4221">
        <ele>-5.5999999046326</ele>
        <time>2020-09-27T08:07:56.000Z</time>
      </trkpt>
      <trkpt lat="47.28279" lon="-2.42215">
        <ele>-5.1999998092651</ele>
        <time>2020-09-27T08:07:57.000Z</time>
      </trkpt>
      <trkpt lat="47.28279" lon="-2.4222">
        <ele>-4.8000001907349</ele>
        <time>2020-09-27T08:07:58.000Z</time>
      </trkpt>
      <trkpt lat="47.28278" lon="-2.42226">
        <ele>-4.4000000953674</ele>
        <time>2020-09-27T08:07:59.000Z</time>
      </trkpt>
      <trkpt lat="47.28278" lon="-2.42231">
        <ele>-4</ele>
        <time>2020-09-27T08:08:00.000Z</time>
      </trkpt>
      <trkpt lat="47.28275" lon="-2.42253">
        <ele>-4</ele>
        <time>2020-09-27T08:08:04.000Z</time>
      </trkpt>
      <trkpt lat="47.28268" lon="-2.42291">
        <ele>-4</ele>
        <time>2020-09-27T08:08:11.000Z</time>
      </trkpt>
      <trkpt lat="47.28264" lon="-2.42341">
        <ele>-4</ele>
        <time>2020-09-27T08:08:19.000Z</time>
      </trkpt>
      <trkpt lat="47.28255" lon="-2.42386">
        <ele>-4</ele>
        <time>2020-09-27T08:08:26.000Z</time>
      </trkpt>
      <trkpt lat="47.28246" lon="-2.42427">
        <ele>-4</ele>
        <time>2020-09-27T08:08:33.000Z</time>
      </trkpt>
      <trkpt lat="47.28242" lon="-2.4244">
        <ele>-4</ele>
        <time>2020-09-27T08:08:35.000Z</time>
      </trkpt>
      <trkpt lat="47.28231" lon="-2.42462">
        <ele>-4</ele>
        <time>2020-09-27T08:08:39.000Z</time>
      </trkpt>
      <trkpt lat="47.28213" lon="-2.42496">
        <ele>-4</ele>
        <time>2020-09-27T08:08:45.000Z</time>
      </trkpt>
      <trkpt lat="47.28204" lon="-2.42509">
        <ele>-4</ele>
        <time>2020-09-27T08:08:48.000Z</time>
      </trkpt>
      <trkpt lat="47.282" lon="-2.42513">
        <ele>-4</ele>
        <time>2020-09-27T08:08:49.000Z</time>
      </trkpt>
      <trkpt lat="47.28187" lon="-2.42522">
        <ele>-4</ele>
        <time>2020-09-27T08:08:53.000Z</time>
      </trkpt>
      <trkpt lat="47.28163" lon="-2.4253">
        <ele>-4.4000000953674</ele>
        <time>2020-09-27T08:08:59.000Z</time>
      </trkpt>
      <trkpt lat="47.28159" lon="-2.42532">
        <ele>-4.8000001907349</ele>
        <time>2020-09-27T08:09:00.000Z</time>
      </trkpt>
      <trkpt lat="47.28155" lon="-2.42534">
        <ele>-5.8000001907349</ele>
        <time>2020-09-27T08:09:01.000Z</time>
      </trkpt>
      <trkpt lat="47.2815" lon="-2.42535">
        <ele>-6.1999998092651</ele>
        <time>2020-09-27T08:09:02.000Z</time>
      </trkpt>
      <trkpt lat="47.28125" lon="-2.42542">
        <ele>-6.1999998092651</ele>
        <time>2020-09-27T08:09:08.000Z</time>
      </trkpt>
      <trkpt lat="47.28106" lon="-2.42547">
        <ele>-6.1999998092651</ele>
        <time>2020-09-27T08:09:14.000Z</time>
      </trkpt>
      <trkpt lat="47.28101" lon="-2.42551">
        <ele>-6.1999998092651</ele>
        <time>2020-09-27T08:09:18.000Z</time>
      </trkpt>
      <trkpt lat="47.281" lon="-2.42552">
        <ele>-6.1999998092651</ele>
        <time>2020-09-27T08:09:19.000Z</time>
      </trkpt>
      <trkpt lat="47.28097" lon="-2.42562">
        <ele>-6.1999998092651</ele>
        <time>2020-09-27T08:09:25.000Z</time>
      </trkpt>
      <trkpt lat="47.2809" lon="-2.42562">
        <ele>-6.1999998092651</ele>
        <time>2020-09-27T08:09:29.000Z</time>
      </trkpt>
      <trkpt lat="47.28088" lon="-2.42563">
        <ele>-6.1999998092651</ele>
        <time>2020-09-27T08:09:30.000Z</time>
      </trkpt>
      <trkpt lat="47.28078" lon="-2.42572">
        <ele>-6.1999998092651</ele>
        <time>2020-09-27T08:09:34.000Z</time>
      </trkpt>
      <trkpt lat="47.28072" lon="-2.42583">
        <ele>-6.1999998092651</ele>
        <time>2020-09-27T08:09:36.000Z</time>
      </trkpt>
      <trkpt lat="47.28069" lon="-2.42587">
        <ele>-6.1999998092651</ele>
        <time>2020-09-27T08:09:37.000Z</time>
      </trkpt>
      <trkpt lat="47.28061" lon="-2.42594">
        <ele>-6.1999998092651</ele>
        <time>2020-09-27T08:09:39.000Z</time>
      </trkpt>
      <trkpt lat="47.28048" lon="-2.42599">
        <ele>-6.1999998092651</ele>
        <time>2020-09-27T08:09:42.000Z</time>
      </trkpt>
      <trkpt lat="47.28039" lon="-2.42604">
        <ele>-6.1999998092651</ele>
        <time>2020-09-27T08:09:44.000Z</time>
      </trkpt>
      <trkpt lat="47.28032" lon="-2.4261">
        <ele>-6.1999998092651</ele>
        <time>2020-09-27T08:09:46.000Z</time>
      </trkpt>
      <trkpt lat="47.28018" lon="-2.42626">
        <ele>-6.1999998092651</ele>
        <time>2020-09-27T08:09:50.000Z</time>
      </trkpt>
      <trkpt lat="47.27997" lon="-2.4264">
        <ele>-6.1999998092651</ele>
        <time>2020-09-27T08:09:56.000Z</time>
      </trkpt>
      <trkpt lat="47.27971" lon="-2.42646">
        <ele>-6.1999998092651</ele>
        <time>2020-09-27T08:10:03.000Z</time>
      </trkpt>
      <trkpt lat="47.27947" lon="-2.42659">
        <ele>-6.1999998092651</ele>
        <time>2020-09-27T08:10:09.000Z</time>
      </trkpt>
      <trkpt lat="47.27928" lon="-2.42672">
        <ele>-6.1999998092651</ele>
        <time>2020-09-27T08:10:14.000Z</time>
      </trkpt>
      <trkpt lat="47.27925" lon="-2.42674">
        <ele>-6.1999998092651</ele>
        <time>2020-09-27T08:10:15.000Z</time>
      </trkpt>
      <trkpt lat="47.2792" lon="-2.4268">
        <ele>-6.1999998092651</ele>
        <time>2020-09-27T08:10:18.000Z</time>
      </trkpt>
      <trkpt lat="47.27918" lon="-2.42683">
        <ele>-6.1999998092651</ele>
        <time>2020-09-27T08:10:19.000Z</time>
      </trkpt>
      <trkpt lat="47.27908" lon="-2.42687">
        <ele>-6.1999998092651</ele>
        <time>2020-09-27T08:10:22.000Z</time>
      </trkpt>
      <trkpt lat="47.27896" lon="-2.42692">
        <ele>-6.1999998092651</ele>
        <time>2020-09-27T08:10:25.000Z</time>
      </trkpt>
      <trkpt lat="47.27888" lon="-2.42697">
        <ele>-6.1999998092651</ele>
        <time>2020-09-27T08:10:27.000Z</time>
      </trkpt>
      <trkpt lat="47.27857" lon="-2.42715">
        <ele>-6.1999998092651</ele>
        <time>2020-09-27T08:10:35.000Z</time>
      </trkpt>
      <trkpt lat="47.2784" lon="-2.4272">
        <ele>-6.1999998092651</ele>
        <time>2020-09-27T08:10:40.000Z</time>
      </trkpt>
      <trkpt lat="47.27835" lon="-2.4272">
        <ele>-5.8000001907349</ele>
        <time>2020-09-27T08:10:43.000Z</time>
      </trkpt>
      <trkpt lat="47.27833" lon="-2.42723">
        <ele>-5.4000000953674</ele>
        <time>2020-09-27T08:10:44.000Z</time>
      </trkpt>
      <trkpt lat="47.27832" lon="-2.42727">
        <ele>-5</ele>
        <time>2020-09-27T08:10:45.000Z</time>
      </trkpt>
      <trkpt lat="47.27832" lon="-2.42731">
        <ele>-4.4000000953674</ele>
        <time>2020-09-27T08:10:46.000Z</time>
      </trkpt>
      <trkpt lat="47.27832" lon="-2.42735">
        <ele>-4</ele>
        <time>2020-09-27T08:10:47.000Z</time>
      </trkpt>
      <trkpt lat="47.27832" lon="-2.42739">
        <ele>-4</ele>
        <time>2020-09-27T08:10:48.000Z</time>
      </trkpt>
      <trkpt lat="47.27832" lon="-2.42747">
        <ele>-4</ele>
        <time>2020-09-27T08:10:50.000Z</time>
      </trkpt>
      <trkpt lat="47.27833" lon="-2.42766">
        <ele>-3.5999999046326</ele>
        <time>2020-09-27T08:10:55.000Z</time>
      </trkpt>
      <trkpt lat="47.27833" lon="-2.4277">
        <ele>-3.2000000476837</ele>
        <time>2020-09-27T08:10:56.000Z</time>
      </trkpt>
      <trkpt lat="47.27833" lon="-2.42774">
        <ele>-2.7999999523163</ele>
        <time>2020-09-27T08:10:57.000Z</time>
      </trkpt>
      <trkpt lat="47.27833" lon="-2.42778">
        <ele>-2.4000000953674</ele>
        <time>2020-09-27T08:10:58.000Z</time>
      </trkpt>
      <trkpt lat="47.27834" lon="-2.42782">
        <ele>-2</ele>
        <time>2020-09-27T08:10:59.000Z</time>
      </trkpt>
      <trkpt lat="47.27836" lon="-2.42813">
        <ele>-2</ele>
        <time>2020-09-27T08:11:07.000Z</time>
      </trkpt>
      <trkpt lat="47.27835" lon="-2.42826">
        <ele>-2.4000000953674</ele>
        <time>2020-09-27T08:11:11.000Z</time>
      </trkpt>
      <trkpt lat="47.27833" lon="-2.42828">
        <ele>-2.7999999523163</ele>
        <time>2020-09-27T08:11:12.000Z</time>
      </trkpt>
      <trkpt lat="47.2783" lon="-2.42827">
        <ele>-3.2000000476837</ele>
        <time>2020-09-27T08:11:13.000Z</time>
      </trkpt>
      <trkpt lat="47.27827" lon="-2.42826">
        <ele>-3.5999999046326</ele>
        <time>2020-09-27T08:11:14.000Z</time>
      </trkpt>
      <trkpt lat="47.27824" lon="-2.42826">
        <ele>-4</ele>
        <time>2020-09-27T08:11:15.000Z</time>
      </trkpt>
      <trkpt lat="47.27821" lon="-2.42825">
        <ele>-4</ele>
        <time>2020-09-27T08:11:16.000Z</time>
      </trkpt>
      <trkpt lat="47.27801" lon="-2.4282">
        <ele>-4</ele>
        <time>2020-09-27T08:11:23.000Z</time>
      </trkpt>
      <trkpt lat="47.27787" lon="-2.42818">
        <ele>-4</ele>
        <time>2020-09-27T08:11:29.000Z</time>
      </trkpt>
      <trkpt lat="47.27766" lon="-2.42814">
        <ele>-4</ele>
        <time>2020-09-27T08:11:37.000Z</time>
      </trkpt>
      <trkpt lat="47.27751" lon="-2.42808">
        <ele>-4</ele>
        <time>2020-09-27T08:11:43.000Z</time>
      </trkpt>
      <trkpt lat="47.27728" lon="-2.42801">
        <ele>-4</ele>
        <time>2020-09-27T08:11:50.000Z</time>
      </trkpt>
      <trkpt lat="47.27705" lon="-2.42792">
        <ele>-4</ele>
        <time>2020-09-27T08:11:57.000Z</time>
      </trkpt>
      <trkpt lat="47.27686" lon="-2.42784">
        <ele>-4</ele>
        <time>2020-09-27T08:12:03.000Z</time>
      </trkpt>
      <trkpt lat="47.27663" lon="-2.4277">
        <ele>-4</ele>
        <time>2020-09-27T08:12:11.000Z</time>
      </trkpt>
      <trkpt lat="47.27645" lon="-2.42751">
        <ele>-4</ele>
        <time>2020-09-27T08:12:18.000Z</time>
      </trkpt>
      <trkpt lat="47.27639" lon="-2.42736">
        <ele>-4</ele>
        <time>2020-09-27T08:12:22.000Z</time>
      </trkpt>
      <trkpt lat="47.27628" lon="-2.42723">
        <ele>-4</ele>
        <time>2020-09-27T08:12:27.000Z</time>
      </trkpt>
      <trkpt lat="47.27619" lon="-2.42714">
        <ele>-4</ele>
        <time>2020-09-27T08:12:33.000Z</time>
      </trkpt>
      <trkpt lat="47.27613" lon="-2.4271">
        <ele>-4</ele>
        <time>2020-09-27T08:12:39.000Z</time>
      </trkpt>
      <trkpt lat="47.27608" lon="-2.42705">
        <ele>-4</ele>
        <time>2020-09-27T08:16:33.000Z</time>
      </trkpt>
      <trkpt lat="47.27605" lon="-2.42704">
        <ele>-4</ele>
        <time>2020-09-27T08:16:35.000Z</time>
      </trkpt>
      <trkpt lat="47.276" lon="-2.42701">
        <ele>-4</ele>
        <time>2020-09-27T08:16:38.000Z</time>
      </trkpt>
      <trkpt lat="47.27597" lon="-2.42697">
        <ele>-4</ele>
        <time>2020-09-27T08:16:40.000Z</time>
      </trkpt>
      <trkpt lat="47.27595" lon="-2.42695">
        <ele>-4</ele>
        <time>2020-09-27T08:16:41.000Z</time>
      </trkpt>
      <trkpt lat="47.27587" lon="-2.42691">
        <ele>-4</ele>
        <time>2020-09-27T08:16:44.000Z</time>
      </trkpt>
      <trkpt lat="47.27583" lon="-2.42686">
        <ele>-4</ele>
        <time>2020-09-27T08:16:46.000Z</time>
      </trkpt>
      <trkpt lat="47.27571" lon="-2.42671">
        <ele>-4</ele>
        <time>2020-09-27T08:16:52.000Z</time>
      </trkpt>
      <trkpt lat="47.27548" lon="-2.42641">
        <ele>-4</ele>
        <time>2020-09-27T08:17:01.000Z</time>
      </trkpt>
      <trkpt lat="47.27531" lon="-2.42624">
        <ele>-4</ele>
        <time>2020-09-27T08:17:08.000Z</time>
      </trkpt>
      <trkpt lat="47.27513" lon="-2.42605">
        <ele>-4</ele>
        <time>2020-09-27T08:17:14.000Z</time>
      </trkpt>
      <trkpt lat="47.2749" lon="-2.42582">
        <ele>-4</ele>
        <time>2020-09-27T08:17:22.000Z</time>
      </trkpt>
      <trkpt lat="47.27472" lon="-2.42563">
        <ele>-4</ele>
        <time>2020-09-27T08:17:28.000Z</time>
      </trkpt>
      <trkpt lat="47.27451" lon="-2.42538">
        <ele>-4</ele>
        <time>2020-09-27T08:17:36.000Z</time>
      </trkpt>
      <trkpt lat="47.27448" lon="-2.42538">
        <ele>-4</ele>
        <time>2020-09-27T08:17:37.000Z</time>
      </trkpt>
      <trkpt lat="47.27441" lon="-2.4254">
        <ele>-4</ele>
        <time>2020-09-27T08:17:39.000Z</time>
      </trkpt>
      <trkpt lat="47.27433" lon="-2.4253">
        <ele>-4</ele>
        <time>2020-09-27T08:17:42.000Z</time>
      </trkpt>
      <trkpt lat="47.27432" lon="-2.42525">
        <ele>-4</ele>
        <time>2020-09-27T08:17:43.000Z</time>
      </trkpt>
      <trkpt lat="47.27423" lon="-2.42509">
        <ele>-4</ele>
        <time>2020-09-27T08:17:47.000Z</time>
      </trkpt>
      <trkpt lat="47.27399" lon="-2.42481">
        <ele>-4</ele>
        <time>2020-09-27T08:17:55.000Z</time>
      </trkpt>
      <trkpt lat="47.27386" lon="-2.42467">
        <ele>-3.5999999046326</ele>
        <time>2020-09-27T08:18:00.000Z</time>
      </trkpt>
      <trkpt lat="47.27383" lon="-2.42464">
        <ele>-3.2000000476837</ele>
        <time>2020-09-27T08:18:01.000Z</time>
      </trkpt>
      <trkpt lat="47.27381" lon="-2.42462">
        <ele>-2.7999999523163</ele>
        <time>2020-09-27T08:18:02.000Z</time>
      </trkpt>
      <trkpt lat="47.27378" lon="-2.4246">
        <ele>-2.4000000953674</ele>
        <time>2020-09-27T08:18:03.000Z</time>
      </trkpt>
      <trkpt lat="47.27376" lon="-2.42457">
        <ele>-2</ele>
        <time>2020-09-27T08:18:04.000Z</time>
      </trkpt>
      <trkpt lat="47.27371" lon="-2.42455">
        <ele>-2</ele>
        <time>2020-09-27T08:18:06.000Z</time>
      </trkpt>
      <trkpt lat="47.27366" lon="-2.42456">
        <ele>-2</ele>
        <time>2020-09-27T08:18:08.000Z</time>
      </trkpt>
      <trkpt lat="47.27358" lon="-2.42464">
        <ele>-2</ele>
        <time>2020-09-27T08:18:12.000Z</time>
      </trkpt>
      <trkpt lat="47.27354" lon="-2.4247">
        <ele>-2</ele>
        <time>2020-09-27T08:18:16.000Z</time>
      </trkpt>
      <trkpt lat="47.27352" lon="-2.42472">
        <ele>-2</ele>
        <time>2020-09-27T08:18:17.000Z</time>
      </trkpt>
      <trkpt lat="47.27343" lon="-2.4248">
        <ele>-2</ele>
        <time>2020-09-27T08:18:22.000Z</time>
      </trkpt>
      <trkpt lat="47.27332" lon="-2.42489">
        <ele>-2</ele>
        <time>2020-09-27T08:18:27.000Z</time>
      </trkpt>
      <trkpt lat="47.27308" lon="-2.42501">
        <ele>-2</ele>
        <time>2020-09-27T08:18:34.000Z</time>
      </trkpt>
      <trkpt lat="47.27273" lon="-2.42513">
        <ele>-2</ele>
        <time>2020-09-27T08:18:43.000Z</time>
      </trkpt>
      <trkpt lat="47.27241" lon="-2.42522">
        <ele>-2</ele>
        <time>2020-09-27T08:18:51.000Z</time>
      </trkpt>
      <trkpt lat="47.27216" lon="-2.42528">
        <ele>-2</ele>
        <time>2020-09-27T08:18:59.000Z</time>
      </trkpt>
      <trkpt lat="47.27205" lon="-2.4252">
        <ele>-2</ele>
        <time>2020-09-27T08:19:04.000Z</time>
      </trkpt>
      <trkpt lat="47.27202" lon="-2.425">
        <ele>-2</ele>
        <time>2020-09-27T08:19:08.000Z</time>
      </trkpt>
      <trkpt lat="47.272" lon="-2.42466">
        <ele>-2</ele>
        <time>2020-09-27T08:19:14.000Z</time>
      </trkpt>
      <trkpt lat="47.27199" lon="-2.4245">
        <ele>-2.4000000953674</ele>
        <time>2020-09-27T08:19:17.000Z</time>
      </trkpt>
      <trkpt lat="47.27199" lon="-2.42446">
        <ele>-3.2000000476837</ele>
        <time>2020-09-27T08:19:18.000Z</time>
      </trkpt>
      <trkpt lat="47.27198" lon="-2.42442">
        <ele>-3.5999999046326</ele>
        <time>2020-09-27T08:19:19.000Z</time>
      </trkpt>
      <trkpt lat="47.27197" lon="-2.42439">
        <ele>-4</ele>
        <time>2020-09-27T08:19:20.000Z</time>
      </trkpt>
      <trkpt lat="47.27195" lon="-2.42438">
        <ele>-4</ele>
        <time>2020-09-27T08:19:21.000Z</time>
      </trkpt>
      <trkpt lat="47.2718" lon="-2.42442">
        <ele>-4</ele>
        <time>2020-09-27T08:19:27.000Z</time>
      </trkpt>
      <trkpt lat="47.27162" lon="-2.42446">
        <ele>-4</ele>
        <time>2020-09-27T08:19:35.000Z</time>
      </trkpt>
      <trkpt lat="47.27159" lon="-2.42447">
        <ele>-4</ele>
        <time>2020-09-27T08:19:39.000Z</time>
      </trkpt>
      <trkpt lat="47.27149" lon="-2.4245">
        <ele>-4</ele>
        <time>2020-09-27T08:23:09.000Z</time>
      </trkpt>
      <trkpt lat="47.27147" lon="-2.42451">
        <ele>-4</ele>
        <time>2020-09-27T08:23:10.000Z</time>
      </trkpt>
      <trkpt lat="47.27142" lon="-2.42452">
        <ele>-4</ele>
        <time>2020-09-27T08:23:17.000Z</time>
      </trkpt>
      <trkpt lat="47.27141" lon="-2.42452">
        <ele>-4</ele>
        <time>2020-09-27T08:23:18.000Z</time>
      </trkpt>
      <trkpt lat="47.27134" lon="-2.42453">
        <ele>-4</ele>
        <time>2020-09-27T08:23:23.000Z</time>
      </trkpt>
      <trkpt lat="47.27123" lon="-2.42455">
        <ele>-4</ele>
        <time>2020-09-27T08:23:31.000Z</time>
      </trkpt>
      <trkpt lat="47.27112" lon="-2.42459">
        <ele>-4</ele>
        <time>2020-09-27T08:23:38.000Z</time>
      </trkpt>
      <trkpt lat="47.27112" lon="-2.4247">
        <ele>-4</ele>
        <time>2020-09-27T08:23:44.000Z</time>
      </trkpt>
      <trkpt lat="47.2711" lon="-2.42487">
        <ele>-4</ele>
        <time>2020-09-27T08:23:52.000Z</time>
      </trkpt>
      <trkpt lat="47.27109" lon="-2.42501">
        <ele>-4</ele>
        <time>2020-09-27T08:23:58.000Z</time>
      </trkpt>
      <trkpt lat="47.27108" lon="-2.4251">
        <ele>-4</ele>
        <time>2020-09-27T08:24:04.000Z</time>
      </trkpt>
      <trkpt lat="47.27108" lon="-2.42517">
        <ele>-4</ele>
        <time>2020-09-27T08:24:10.000Z</time>
      </trkpt>
      <trkpt lat="47.27109" lon="-2.42523">
        <ele>-4</ele>
        <time>2020-09-27T08:24:15.000Z</time>
      </trkpt>
      <trkpt lat="47.2711" lon="-2.42529">
        <ele>-4</ele>
        <time>2020-09-27T08:24:19.000Z</time>
      </trkpt>
      <trkpt lat="47.27109" lon="-2.42534">
        <ele>-4</ele>
        <time>2020-09-27T08:24:21.000Z</time>
      </trkpt>
      <trkpt lat="47.27108" lon="-2.42545">
        <ele>-4</ele>
        <time>2020-09-27T08:24:24.000Z</time>
      </trkpt>
      <trkpt lat="47.27107" lon="-2.42554">
        <ele>-4</ele>
        <time>2020-09-27T08:24:26.000Z</time>
      </trkpt>
      <trkpt lat="47.27099" lon="-2.42572">
        <ele>-4</ele>
        <time>2020-09-27T08:24:31.000Z</time>
      </trkpt>
      <trkpt lat="47.27082" lon="-2.42589">
        <ele>-4</ele>
        <time>2020-09-27T08:24:37.000Z</time>
      </trkpt>
      <trkpt lat="47.2706" lon="-2.42611">
        <ele>-4</ele>
        <time>2020-09-27T08:24:45.000Z</time>
      </trkpt>
      <trkpt lat="47.27038" lon="-2.42629">
        <ele>-4</ele>
        <time>2020-09-27T08:24:52.000Z</time>
      </trkpt>
      <trkpt lat="47.27028" lon="-2.42642">
        <ele>-4</ele>
        <time>2020-09-27T08:24:57.000Z</time>
      </trkpt>
      <trkpt lat="47.27027" lon="-2.42644">
        <ele>-4</ele>
        <time>2020-09-27T08:24:58.000Z</time>
      </trkpt>
      <trkpt lat="47.27019" lon="-2.42642">
        <ele>-4</ele>
        <time>2020-09-27T08:25:01.000Z</time>
      </trkpt>
      <trkpt lat="47.27012" lon="-2.42626">
        <ele>-4</ele>
        <time>2020-09-27T08:25:05.000Z</time>
      </trkpt>
      <trkpt lat="47.26995" lon="-2.42578">
        <ele>-4</ele>
        <time>2020-09-27T08:25:13.000Z</time>
      </trkpt>
      <trkpt lat="47.26976" lon="-2.42532">
        <ele>-4</ele>
        <time>2020-09-27T08:25:21.000Z</time>
      </trkpt>
      <trkpt lat="47.26966" lon="-2.42519">
        <ele>-4</ele>
        <time>2020-09-27T08:25:24.000Z</time>
      </trkpt>
      <trkpt lat="47.26957" lon="-2.42509">
        <ele>-4</ele>
        <time>2020-09-27T08:25:27.000Z</time>
      </trkpt>
      <trkpt lat="47.26935" lon="-2.42488">
        <ele>-4</ele>
        <time>2020-09-27T08:25:33.000Z</time>
      </trkpt>
      <trkpt lat="47.26932" lon="-2.42486">
        <ele>-4</ele>
        <time>2020-09-27T08:25:34.000Z</time>
      </trkpt>
      <trkpt lat="47.2692" lon="-2.42478">
        <ele>-3.5999999046326</ele>
        <time>2020-09-27T08:25:37.000Z</time>
      </trkpt>
      <trkpt lat="47.26915" lon="-2.42476">
        <ele>-3.2000000476837</ele>
        <time>2020-09-27T08:25:38.000Z</time>
      </trkpt>
      <trkpt lat="47.26911" lon="-2.42475">
        <ele>-2.7999999523163</ele>
        <time>2020-09-27T08:25:39.000Z</time>
      </trkpt>
      <trkpt lat="47.26907" lon="-2.42473">
        <ele>-2.4000000953674</ele>
        <time>2020-09-27T08:25:40.000Z</time>
      </trkpt>
      <trkpt lat="47.26903" lon="-2.42472">
        <ele>-2</ele>
        <time>2020-09-27T08:25:41.000Z</time>
      </trkpt>
      <trkpt lat="47.26872" lon="-2.42467">
        <ele>-2</ele>
        <time>2020-09-27T08:25:48.000Z</time>
      </trkpt>
      <trkpt lat="47.26841" lon="-2.42462">
        <ele>-2</ele>
        <time>2020-09-27T08:25:55.000Z</time>
      </trkpt>
      <trkpt lat="47.26832" lon="-2.42458">
        <ele>-2</ele>
        <time>2020-09-27T08:25:57.000Z</time>
      </trkpt>
      <trkpt lat="47.26822" lon="-2.42446">
        <ele>-2</ele>
        <time>2020-09-27T08:26:00.000Z</time>
      </trkpt>
      <trkpt lat="47.26818" lon="-2.42441">
        <ele>-2</ele>
        <time>2020-09-27T08:26:01.000Z</time>
      </trkpt>
      <trkpt lat="47.268" lon="-2.42408">
        <ele>-2</ele>
        <time>2020-09-27T08:26:07.000Z</time>
      </trkpt>
      <trkpt lat="47.26776" lon="-2.42364">
        <ele>-2</ele>
        <time>2020-09-27T08:26:15.000Z</time>
      </trkpt>
      <trkpt lat="47.26769" lon="-2.42353">
        <ele>-2</ele>
        <time>2020-09-27T08:26:17.000Z</time>
      </trkpt>
      <trkpt lat="47.26757" lon="-2.42342">
        <ele>-2</ele>
        <time>2020-09-27T08:26:20.000Z</time>
      </trkpt>
      <trkpt lat="47.26718" lon="-2.42317">
        <ele>-2</ele>
        <time>2020-09-27T08:26:28.000Z</time>
      </trkpt>
      <trkpt lat="47.2668" lon="-2.42289">
        <ele>-2</ele>
        <time>2020-09-27T08:26:36.000Z</time>
      </trkpt>
      <trkpt lat="47.26666" lon="-2.42275">
        <ele>-2</ele>
        <time>2020-09-27T08:26:39.000Z</time>
      </trkpt>
      <trkpt lat="47.26654" lon="-2.42257">
        <ele>-2</ele>
        <time>2020-09-27T08:26:42.000Z</time>
      </trkpt>
      <trkpt lat="47.26619" lon="-2.42213">
        <ele>-2</ele>
        <time>2020-09-27T08:26:50.000Z</time>
      </trkpt>
      <trkpt lat="47.26605" lon="-2.42198">
        <ele>-2.4000000953674</ele>
        <time>2020-09-27T08:26:53.000Z</time>
      </trkpt>
      <trkpt lat="47.26599" lon="-2.42193">
        <ele>-2.7999999523163</ele>
        <time>2020-09-27T08:26:54.000Z</time>
      </trkpt>
      <trkpt lat="47.26594" lon="-2.42189">
        <ele>-3.2000000476837</ele>
        <time>2020-09-27T08:26:55.000Z</time>
      </trkpt>
      <trkpt lat="47.26588" lon="-2.42185">
        <ele>-3.5999999046326</ele>
        <time>2020-09-27T08:26:56.000Z</time>
      </trkpt>
      <trkpt lat="47.26583" lon="-2.42181">
        <ele>-4</ele>
        <time>2020-09-27T08:26:57.000Z</time>
      </trkpt>
      <trkpt lat="47.26578" lon="-2.42177">
        <ele>-4</ele>
        <time>2020-09-27T08:26:58.000Z</time>
      </trkpt>
      <trkpt lat="47.26573" lon="-2.42173">
        <ele>-4</ele>
        <time>2020-09-27T08:26:59.000Z</time>
      </trkpt>
      <trkpt lat="47.26554" lon="-2.4216">
        <ele>-4</ele>
        <time>2020-09-27T08:27:03.000Z</time>
      </trkpt>
      <trkpt lat="47.2654" lon="-2.42149">
        <ele>-4</ele>
        <time>2020-09-27T08:27:06.000Z</time>
      </trkpt>
      <trkpt lat="47.26523" lon="-2.42132">
        <ele>-4</ele>
        <time>2020-09-27T08:27:10.000Z</time>
      </trkpt>
      <trkpt lat="47.26492" lon="-2.42098">
        <ele>-4</ele>
        <time>2020-09-27T08:27:17.000Z</time>
      </trkpt>
      <trkpt lat="47.26454" lon="-2.42058">
        <ele>-4</ele>
        <time>2020-09-27T08:27:25.000Z</time>
      </trkpt>
      <trkpt lat="47.26417" lon="-2.4202">
        <ele>-4</ele>
        <time>2020-09-27T08:27:33.000Z</time>
      </trkpt>
      <trkpt lat="47.2637" lon="-2.41984">
        <ele>-4</ele>
        <time>2020-09-27T08:27:42.000Z</time>
      </trkpt>
      <trkpt lat="47.26327" lon="-2.41956">
        <ele>-4</ele>
        <time>2020-09-27T08:27:50.000Z</time>
      </trkpt>
      <trkpt lat="47.26297" lon="-2.41938">
        <ele>-4</ele>
        <time>2020-09-27T08:27:56.000Z</time>
      </trkpt>
      <trkpt lat="47.26278" lon="-2.41926">
        <ele>-3.5999999046326</ele>
        <time>2020-09-27T08:28:00.000Z</time>
      </trkpt>
      <trkpt lat="47.26273" lon="-2.41923">
        <ele>-3.2000000476837</ele>
        <time>2020-09-27T08:28:01.000Z</time>
      </trkpt>
      <trkpt lat="47.26268" lon="-2.41919">
        <ele>-2.7999999523163</ele>
        <time>2020-09-27T08:28:02.000Z</time>
      </trkpt>
      <trkpt lat="47.26263" lon="-2.41916">
        <ele>-2.4000000953674</ele>
        <time>2020-09-27T08:28:03.000Z</time>
      </trkpt>
      <trkpt lat="47.26258" lon="-2.41912">
        <ele>-2</ele>
        <time>2020-09-27T08:28:04.000Z</time>
      </trkpt>
      <trkpt lat="47.26217" lon="-2.41883">
        <ele>-2</ele>
        <time>2020-09-27T08:28:13.000Z</time>
      </trkpt>
      <trkpt lat="47.26188" lon="-2.41853">
        <ele>-2</ele>
        <time>2020-09-27T08:28:20.000Z</time>
      </trkpt>
      <trkpt lat="47.26174" lon="-2.41831">
        <ele>-2</ele>
        <time>2020-09-27T08:28:24.000Z</time>
      </trkpt>
      <trkpt lat="47.26171" lon="-2.41826">
        <ele>-2</ele>
        <time>2020-09-27T08:28:25.000Z</time>
      </trkpt>
      <trkpt lat="47.26153" lon="-2.4181">
        <ele>-1.6000000238419</ele>
        <time>2020-09-27T08:28:29.000Z</time>
      </trkpt>
      <trkpt lat="47.26149" lon="-2.41807">
        <ele>-1.2000000476837</ele>
        <time>2020-09-27T08:28:30.000Z</time>
      </trkpt>
      <trkpt lat="47.26143" lon="-2.41804">
        <ele>-0.80000001192093</ele>
        <time>2020-09-27T08:28:31.000Z</time>
      </trkpt>
      <trkpt lat="47.26138" lon="-2.41802">
        <ele>-0.40000000596046</ele>
        <time>2020-09-27T08:28:32.000Z</time>
      </trkpt>
      <trkpt lat="47.26132" lon="-2.41802">
        <ele>9.9</ele>
        <time>2020-09-27T08:28:33.000Z</time>
      </trkpt>
      <trkpt lat="47.26119" lon="-2.4181">
        <ele>10.2</ele>
        <time>2020-09-27T08:28:36.000Z</time>
      </trkpt>
      <trkpt lat="47.26113" lon="-2.41821">
        <ele>10.5</ele>
        <time>2020-09-27T08:28:38.000Z</time>
      </trkpt>
      <trkpt lat="47.26104" lon="-2.41835">
        <ele>11.1</ele>
        <time>2020-09-27T08:28:41.000Z</time>
      </trkpt>
      <trkpt lat="47.26078" lon="-2.41874">
        <ele>11.4</ele>
        <time>2020-09-27T08:28:49.000Z</time>
      </trkpt>
      <trkpt lat="47.26071" lon="-2.41882">
        <ele>0.40000000596046</ele>
        <time>2020-09-27T08:28:51.000Z</time>
      </trkpt>
      <trkpt lat="47.26068" lon="-2.41886">
        <ele>0.80000001192093</ele>
        <time>2020-09-27T08:28:52.000Z</time>
      </trkpt>
      <trkpt lat="47.26065" lon="-2.41891">
        <ele>1.3999999761581</ele>
        <time>2020-09-27T08:28:53.000Z</time>
      </trkpt>
      <trkpt lat="47.26062" lon="-2.41895">
        <ele>1.7999999523163</ele>
        <time>2020-09-27T08:28:54.000Z</time>
      </trkpt>
      <trkpt lat="47.26059" lon="-2.419">
        <ele>2.2000000476837</ele>
        <time>2020-09-27T08:28:55.000Z</time>
      </trkpt>
      <trkpt lat="47.26053" lon="-2.41908">
        <ele>2.2000000476837</ele>
        <time>2020-09-27T08:28:57.000Z</time>
      </trkpt>
      <trkpt lat="47.26031" lon="-2.41935">
        <ele>2.2000000476837</ele>
        <time>2020-09-27T08:29:04.000Z</time>
      </trkpt>
      <trkpt lat="47.26016" lon="-2.41961">
        <ele>2.2000000476837</ele>
        <time>2020-09-27T08:29:10.000Z</time>
      </trkpt>
      <trkpt lat="47.26014" lon="-2.41964">
        <ele>2.5999999046326</ele>
        <time>2020-09-27T08:29:11.000Z</time>
      </trkpt>
      <trkpt lat="47.26011" lon="-2.41968">
        <ele>3</ele>
        <time>2020-09-27T08:29:12.000Z</time>
      </trkpt>
      <trkpt lat="47.26009" lon="-2.41972">
        <ele>3.4000000953674</ele>
        <time>2020-09-27T08:29:13.000Z</time>
      </trkpt>
      <trkpt lat="47.26006" lon="-2.41977">
        <ele>3.7999999523163</ele>
        <time>2020-09-27T08:29:14.000Z</time>
      </trkpt>
      <trkpt lat="47.26004" lon="-2.41982">
        <ele>4.1999998092651</ele>
        <time>2020-09-27T08:29:15.000Z</time>
      </trkpt>
      <trkpt lat="47.26002" lon="-2.41987">
        <ele>4.1999998092651</ele>
        <time>2020-09-27T08:29:16.000Z</time>
      </trkpt>
      <trkpt lat="47.25999" lon="-2.41998">
        <ele>4.1999998092651</ele>
        <time>2020-09-27T08:29:18.000Z</time>
      </trkpt>
      <trkpt lat="47.25999" lon="-2.42011">
        <ele>4.1999998092651</ele>
        <time>2020-09-27T08:29:20.000Z</time>
      </trkpt>
      <trkpt lat="47.26006" lon="-2.4203">
        <ele>4.1999998092651</ele>
        <time>2020-09-27T08:29:23.000Z</time>
      </trkpt>
      <trkpt lat="47.26008" lon="-2.42037">
        <ele>4.1999998092651</ele>
        <time>2020-09-27T08:29:24.000Z</time>
      </trkpt>
      <trkpt lat="47.26026" lon="-2.42092">
        <ele>4.1999998092651</ele>
        <time>2020-09-27T08:29:32.000Z</time>
      </trkpt>
      <trkpt lat="47.26038" lon="-2.42127">
        <ele>4.1999998092651</ele>
        <time>2020-09-27T08:29:37.000Z</time>
      </trkpt>
      <trkpt lat="47.26044" lon="-2.42141">
        <ele>4.1999998092651</ele>
        <time>2020-09-27T08:29:39.000Z</time>
      </trkpt>
      <trkpt lat="47.26046" lon="-2.42149">
        <ele>3.7999999523163</ele>
        <time>2020-09-27T08:29:40.000Z</time>
      </trkpt>
      <trkpt lat="47.26049" lon="-2.42156">
        <ele>3.4000000953674</ele>
        <time>2020-09-27T08:29:41.000Z</time>
      </trkpt>
      <trkpt lat="47.26052" lon="-2.42164">
        <ele>3</ele>
        <time>2020-09-27T08:29:42.000Z</time>
      </trkpt>
      <trkpt lat="47.26054" lon="-2.42172">
        <ele>2.5999999046326</ele>
        <time>2020-09-27T08:29:43.000Z</time>
      </trkpt>
      <trkpt lat="47.26057" lon="-2.42179">
        <ele>2.2000000476837</ele>
        <time>2020-09-27T08:29:44.000Z</time>
      </trkpt>
      <trkpt lat="47.26064" lon="-2.422">
        <ele>2.2000000476837</ele>
        <time>2020-09-27T08:29:47.000Z</time>
      </trkpt>
      <trkpt lat="47.26086" lon="-2.42262">
        <ele>2.2000000476837</ele>
        <time>2020-09-27T08:29:56.000Z</time>
      </trkpt>
      <trkpt lat="47.26099" lon="-2.42301">
        <ele>2.2000000476837</ele>
        <time>2020-09-27T08:30:03.000Z</time>
      </trkpt>
      <trkpt lat="47.26103" lon="-2.42316">
        <ele>2.2000000476837</ele>
        <time>2020-09-27T08:30:09.000Z</time>
      </trkpt>
      <trkpt lat="47.26103" lon="-2.42318">
        <ele>2.2000000476837</ele>
        <time>2020-09-27T08:30:11.000Z</time>
      </trkpt>
      <trkpt lat="47.26102" lon="-2.42324">
        <ele>2.2000000476837</ele>
        <time>2020-09-27T08:30:13.000Z</time>
      </trkpt>
      <trkpt lat="47.26103" lon="-2.42338">
        <ele>2.2000000476837</ele>
        <time>2020-09-27T08:30:16.000Z</time>
      </trkpt>
      <trkpt lat="47.26105" lon="-2.42343">
        <ele>2.2000000476837</ele>
        <time>2020-09-27T08:30:17.000Z</time>
      </trkpt>
      <trkpt lat="47.26106" lon="-2.4235">
        <ele>2.2000000476837</ele>
        <time>2020-09-27T08:30:18.000Z</time>
      </trkpt>
      <trkpt lat="47.2611" lon="-2.42377">
        <ele>2.2000000476837</ele>
        <time>2020-09-27T08:30:22.000Z</time>
      </trkpt>
      <trkpt lat="47.26117" lon="-2.42414">
        <ele>2.2000000476837</ele>
        <time>2020-09-27T08:30:28.000Z</time>
      </trkpt>
      <trkpt lat="47.26118" lon="-2.4242">
        <ele>2.2000000476837</ele>
        <time>2020-09-27T08:30:29.000Z</time>
      </trkpt>
      <trkpt lat="47.26127" lon="-2.42471">
        <ele>2.2000000476837</ele>
        <time>2020-09-27T08:30:37.000Z</time>
      </trkpt>
      <trkpt lat="47.26137" lon="-2.42537">
        <ele>2.2000000476837</ele>
        <time>2020-09-27T08:30:47.000Z</time>
      </trkpt>
      <trkpt lat="47.26146" lon="-2.42586">
        <ele>2.2000000476837</ele>
        <time>2020-09-27T08:30:54.000Z</time>
      </trkpt>
      <trkpt lat="47.26156" lon="-2.42657">
        <ele>2.2000000476837</ele>
        <time>2020-09-27T08:31:04.000Z</time>
      </trkpt>
      <trkpt lat="47.2616" lon="-2.427">
        <ele>2.2000000476837</ele>
        <time>2020-09-27T08:31:11.000Z</time>
      </trkpt>
      <trkpt lat="47.26166" lon="-2.4272">
        <ele>1.7999999523163</ele>
        <time>2020-09-27T08:31:16.000Z</time>
      </trkpt>
      <trkpt lat="47.26167" lon="-2.42724">
        <ele>1.3999999761581</ele>
        <time>2020-09-27T08:31:17.000Z</time>
      </trkpt>
      <trkpt lat="47.26168" lon="-2.42729">
        <ele>1</ele>
        <time>2020-09-27T08:31:18.000Z</time>
      </trkpt>
      <trkpt lat="47.2617" lon="-2.42734">
        <ele>0.60000002384186</ele>
        <time>2020-09-27T08:31:19.000Z</time>
      </trkpt>
      <trkpt lat="47.26171" lon="-2.42739">
        <ele>0.20000000298023</ele>
        <time>2020-09-27T08:31:20.000Z</time>
      </trkpt>
      <trkpt lat="47.26174" lon="-2.4275">
        <ele>0.20000000298023</ele>
        <time>2020-09-27T08:31:22.000Z</time>
      </trkpt>
      <trkpt lat="47.26176" lon="-2.42762">
        <ele>0.20000000298023</ele>
        <time>2020-09-27T08:31:24.000Z</time>
      </trkpt>
      <trkpt lat="47.26185" lon="-2.42792">
        <ele>0.20000000298023</ele>
        <time>2020-09-27T08:31:29.000Z</time>
      </trkpt>
      <trkpt lat="47.26201" lon="-2.42849">
        <ele>0.20000000298023</ele>
        <time>2020-09-27T08:31:39.000Z</time>
      </trkpt>
      <trkpt lat="47.26218" lon="-2.42909">
        <ele>0.20000000298023</ele>
        <time>2020-09-27T08:31:48.000Z</time>
      </trkpt>
      <trkpt lat="47.26228" lon="-2.4295">
        <ele>0.60000002384186</ele>
        <time>2020-09-27T08:31:54.000Z</time>
      </trkpt>
      <trkpt lat="47.2623" lon="-2.42957">
        <ele>1</ele>
        <time>2020-09-27T08:31:55.000Z</time>
      </trkpt>
      <trkpt lat="47.26232" lon="-2.42964">
        <ele>1.3999999761581</ele>
        <time>2020-09-27T08:31:56.000Z</time>
      </trkpt>
      <trkpt lat="47.26234" lon="-2.4297">
        <ele>1.7999999523163</ele>
        <time>2020-09-27T08:31:57.000Z</time>
      </trkpt>
      <trkpt lat="47.26236" lon="-2.42976">
        <ele>2.2000000476837</ele>
        <time>2020-09-27T08:31:58.000Z</time>
      </trkpt>
      <trkpt lat="47.26246" lon="-2.43">
        <ele>2.2000000476837</ele>
        <time>2020-09-27T08:32:02.000Z</time>
      </trkpt>
      <trkpt lat="47.26253" lon="-2.43011">
        <ele>2.2000000476837</ele>
        <time>2020-09-27T08:32:04.000Z</time>
      </trkpt>
      <trkpt lat="47.26279" lon="-2.43043">
        <ele>2.2000000476837</ele>
        <time>2020-09-27T08:32:11.000Z</time>
      </trkpt>
      <trkpt lat="47.26318" lon="-2.43087">
        <ele>2.2000000476837</ele>
        <time>2020-09-27T08:32:21.000Z</time>
      </trkpt>
      <trkpt lat="47.26341" lon="-2.43124">
        <ele>2.2000000476837</ele>
        <time>2020-09-27T08:32:28.000Z</time>
      </trkpt>
      <trkpt lat="47.2637" lon="-2.43179">
        <ele>2.2000000476837</ele>
        <time>2020-09-27T08:32:38.000Z</time>
      </trkpt>
      <trkpt lat="47.26397" lon="-2.43227">
        <ele>2.2000000476837</ele>
        <time>2020-09-27T08:32:47.000Z</time>
      </trkpt>
      <trkpt lat="47.264" lon="-2.43232">
        <ele>2.2000000476837</ele>
        <time>2020-09-27T08:32:48.000Z</time>
      </trkpt>
      <trkpt lat="47.26413" lon="-2.43243">
        <ele>2.2000000476837</ele>
        <time>2020-09-27T08:32:51.000Z</time>
      </trkpt>
      <trkpt lat="47.26417" lon="-2.43248">
        <ele>2.2000000476837</ele>
        <time>2020-09-27T08:32:52.000Z</time>
      </trkpt>
      <trkpt lat="47.26422" lon="-2.4326">
        <ele>2.2000000476837</ele>
        <time>2020-09-27T08:32:54.000Z</time>
      </trkpt>
      <trkpt lat="47.26434" lon="-2.4328">
        <ele>2.2000000476837</ele>
        <time>2020-09-27T08:32:58.000Z</time>
      </trkpt>
      <trkpt lat="47.26438" lon="-2.43285">
        <ele>2.2000000476837</ele>
        <time>2020-09-27T08:32:59.000Z</time>
      </trkpt>
      <trkpt lat="47.26442" lon="-2.43289">
        <ele>2.7999999523163</ele>
        <time>2020-09-27T08:33:00.000Z</time>
      </trkpt>
      <trkpt lat="47.26445" lon="-2.43294">
        <ele>3.2000000476837</ele>
        <time>2020-09-27T08:33:01.000Z</time>
      </trkpt>
      <trkpt lat="47.26449" lon="-2.43298">
        <ele>3.5999999046326</ele>
        <time>2020-09-27T08:33:02.000Z</time>
      </trkpt>
      <trkpt lat="47.26453" lon="-2.43303">
        <ele>4</ele>
        <time>2020-09-27T08:33:03.000Z</time>
      </trkpt>
      <trkpt lat="47.26457" lon="-2.43308">
        <ele>4.4000000953674</ele>
        <time>2020-09-27T08:33:04.000Z</time>
      </trkpt>
      <trkpt lat="47.26469" lon="-2.43322">
        <ele>4.4000000953674</ele>
        <time>2020-09-27T08:33:07.000Z</time>
      </trkpt>
      <trkpt lat="47.26495" lon="-2.43361">
        <ele>4.4000000953674</ele>
        <time>2020-09-27T08:33:14.000Z</time>
      </trkpt>
      <trkpt lat="47.2653" lon="-2.43416">
        <ele>4.4000000953674</ele>
        <time>2020-09-27T08:33:23.000Z</time>
      </trkpt>
      <trkpt lat="47.26556" lon="-2.4347">
        <ele>4.4000000953674</ele>
        <time>2020-09-27T08:33:31.000Z</time>
      </trkpt>
      <trkpt lat="47.26569" lon="-2.43522">
        <ele>4.4000000953674</ele>
        <time>2020-09-27T08:33:38.000Z</time>
      </trkpt>
      <trkpt lat="47.26577" lon="-2.43574">
        <ele>4.4000000953674</ele>
        <time>2020-09-27T08:33:45.000Z</time>
      </trkpt>
      <trkpt lat="47.26589" lon="-2.43637">
        <ele>4.4000000953674</ele>
        <time>2020-09-27T08:33:53.000Z</time>
      </trkpt>
      <trkpt lat="47.26604" lon="-2.43679">
        <ele>4.4000000953674</ele>
        <time>2020-09-27T08:33:59.000Z</time>
      </trkpt>
      <trkpt lat="47.26629" lon="-2.43724">
        <ele>4.4000000953674</ele>
        <time>2020-09-27T08:34:07.000Z</time>
      </trkpt>
      <trkpt lat="47.26661" lon="-2.43776">
        <ele>4.4000000953674</ele>
        <time>2020-09-27T08:34:17.000Z</time>
      </trkpt>
      <trkpt lat="47.26682" lon="-2.4381">
        <ele>4.4000000953674</ele>
        <time>2020-09-27T08:34:24.000Z</time>
      </trkpt>
      <trkpt lat="47.26686" lon="-2.43815">
        <ele>4.4000000953674</ele>
        <time>2020-09-27T08:34:25.000Z</time>
      </trkpt>
      <trkpt lat="47.26705" lon="-2.43841">
        <ele>4.4000000953674</ele>
        <time>2020-09-27T08:34:31.000Z</time>
      </trkpt>
      <trkpt lat="47.26708" lon="-2.43845">
        <ele>4.4000000953674</ele>
        <time>2020-09-27T08:34:32.000Z</time>
      </trkpt>
      <trkpt lat="47.26711" lon="-2.43849">
        <ele>4.4000000953674</ele>
        <time>2020-09-27T08:34:33.000Z</time>
      </trkpt>
      <trkpt lat="47.26717" lon="-2.43867">
        <ele>4.4000000953674</ele>
        <time>2020-09-27T08:34:36.000Z</time>
      </trkpt>
      <trkpt lat="47.26717" lon="-2.43874">
        <ele>4.4000000953674</ele>
        <time>2020-09-27T08:34:37.000Z</time>
      </trkpt>
      <trkpt lat="47.26719" lon="-2.43882">
        <ele>4.4000000953674</ele>
        <time>2020-09-27T08:34:38.000Z</time>
      </trkpt>
      <trkpt lat="47.26726" lon="-2.43903">
        <ele>4.4000000953674</ele>
        <time>2020-09-27T08:34:41.000Z</time>
      </trkpt>
      <trkpt lat="47.26731" lon="-2.43916">
        <ele>5</ele>
        <time>2020-09-27T08:34:43.000Z</time>
      </trkpt>
      <trkpt lat="47.26733" lon="-2.43923">
        <ele>5.4000000953674</ele>
        <time>2020-09-27T08:34:44.000Z</time>
      </trkpt>
      <trkpt lat="47.26735" lon="-2.43929">
        <ele>5.8000001907349</ele>
        <time>2020-09-27T08:34:45.000Z</time>
      </trkpt>
      <trkpt lat="47.26738" lon="-2.43936">
        <ele>6.1999998092651</ele>
        <time>2020-09-27T08:34:46.000Z</time>
      </trkpt>
      <trkpt lat="47.26741" lon="-2.43942">
        <ele>6.5999999046326</ele>
        <time>2020-09-27T08:34:47.000Z</time>
      </trkpt>
      <trkpt lat="47.26743" lon="-2.43949">
        <ele>6.5999999046326</ele>
        <time>2020-09-27T08:34:48.000Z</time>
      </trkpt>
      <trkpt lat="47.26762" lon="-2.44001">
        <ele>6.5999999046326</ele>
        <time>2020-09-27T08:34:56.000Z</time>
      </trkpt>
      <trkpt lat="47.26779" lon="-2.44048">
        <ele>6.5999999046326</ele>
        <time>2020-09-27T08:35:03.000Z</time>
      </trkpt>
      <trkpt lat="47.26791" lon="-2.4407">
        <ele>6.5999999046326</ele>
        <time>2020-09-27T08:35:08.000Z</time>
      </trkpt>
      <trkpt lat="47.26805" lon="-2.44087">
        <ele>6.5999999046326</ele>
        <time>2020-09-27T08:35:13.000Z</time>
      </trkpt>
      <trkpt lat="47.26806" lon="-2.44094">
        <ele>6.5999999046326</ele>
        <time>2020-09-27T08:35:15.000Z</time>
      </trkpt>
      <trkpt lat="47.26805" lon="-2.44096">
        <ele>6.1999998092651</ele>
        <time>2020-09-27T08:35:16.000Z</time>
      </trkpt>
      <trkpt lat="47.26805" lon="-2.44099">
        <ele>5.8000001907349</ele>
        <time>2020-09-27T08:35:17.000Z</time>
      </trkpt>
      <trkpt lat="47.26805" lon="-2.44101">
        <ele>5.4000000953674</ele>
        <time>2020-09-27T08:35:18.000Z</time>
      </trkpt>
      <trkpt lat="47.26805" lon="-2.44104">
        <ele>5</ele>
        <time>2020-09-27T08:35:19.000Z</time>
      </trkpt>
      <trkpt lat="47.26807" lon="-2.44105">
        <ele>4.5999999046326</ele>
        <time>2020-09-27T08:35:20.000Z</time>
      </trkpt>
      <trkpt lat="47.26808" lon="-2.44106">
        <ele>4.5999999046326</ele>
        <time>2020-09-27T08:35:21.000Z</time>
      </trkpt>
      <trkpt lat="47.26813" lon="-2.44117">
        <ele>4.5999999046326</ele>
        <time>2020-09-27T08:35:25.000Z</time>
      </trkpt>
      <trkpt lat="47.26814" lon="-2.44121">
        <ele>4.5999999046326</ele>
        <time>2020-09-27T08:35:26.000Z</time>
      </trkpt>
      <trkpt lat="47.26821" lon="-2.44144">
        <ele>4.5999999046326</ele>
        <time>2020-09-27T08:35:32.000Z</time>
      </trkpt>
      <trkpt lat="47.26823" lon="-2.4415">
        <ele>4.5999999046326</ele>
        <time>2020-09-27T08:35:33.000Z</time>
      </trkpt>
      <trkpt lat="47.2683" lon="-2.44166">
        <ele>4.5999999046326</ele>
        <time>2020-09-27T08:35:36.000Z</time>
      </trkpt>
      <trkpt lat="47.26832" lon="-2.44177">
        <ele>4.5999999046326</ele>
        <time>2020-09-27T08:35:40.000Z</time>
      </trkpt>
      <trkpt lat="47.26836" lon="-2.44181">
        <ele>4.5999999046326</ele>
        <time>2020-09-27T08:35:42.000Z</time>
      </trkpt>
      <trkpt lat="47.26844" lon="-2.44179">
        <ele>4.5999999046326</ele>
        <time>2020-09-27T08:35:44.000Z</time>
      </trkpt>
      <trkpt lat="47.26855" lon="-2.44174">
        <ele>4.5999999046326</ele>
        <time>2020-09-27T08:35:47.000Z</time>
      </trkpt>
      <trkpt lat="47.2687" lon="-2.44168">
        <ele>4.5999999046326</ele>
        <time>2020-09-27T08:35:50.000Z</time>
      </trkpt>
      <trkpt lat="47.26903" lon="-2.44155">
        <ele>4.5999999046326</ele>
        <time>2020-09-27T08:35:57.000Z</time>
      </trkpt>
      <trkpt lat="47.26907" lon="-2.44157">
        <ele>4.5999999046326</ele>
        <time>2020-09-27T08:35:58.000Z</time>
      </trkpt>
      <trkpt lat="47.26912" lon="-2.44164">
        <ele>4.1999998092651</ele>
        <time>2020-09-27T08:36:00.000Z</time>
      </trkpt>
      <trkpt lat="47.26914" lon="-2.4417">
        <ele>3.7999999523163</ele>
        <time>2020-09-27T08:36:01.000Z</time>
      </trkpt>
      <trkpt lat="47.26916" lon="-2.44175">
        <ele>3.4000000953674</ele>
        <time>2020-09-27T08:36:02.000Z</time>
      </trkpt>
      <trkpt lat="47.26919" lon="-2.44181">
        <ele>3</ele>
        <time>2020-09-27T08:36:03.000Z</time>
      </trkpt>
      <trkpt lat="47.26922" lon="-2.44187">
        <ele>2.5999999046326</ele>
        <time>2020-09-27T08:36:04.000Z</time>
      </trkpt>
      <trkpt lat="47.26935" lon="-2.4421">
        <ele>2.5999999046326</ele>
        <time>2020-09-27T08:36:06.000Z</time>
      </trkpt>
      <trkpt lat="47.26935" lon="-2.4421">
        <ele>2.5999999046326</ele>
        <time>2020-09-27T08:36:08.000Z</time>
      </trkpt>
      <trkpt lat="47.2694" lon="-2.44224">
        <ele>2.5999999046326</ele>
        <time>2020-09-27T08:36:10.000Z</time>
      </trkpt>
      <trkpt lat="47.26941" lon="-2.44241">
        <ele>2.5999999046326</ele>
        <time>2020-09-27T08:36:12.000Z</time>
      </trkpt>
      <trkpt lat="47.2695" lon="-2.44302">
        <ele>2.5999999046326</ele>
        <time>2020-09-27T08:36:20.000Z</time>
      </trkpt>
      <trkpt lat="47.26963" lon="-2.44345">
        <ele>2.5999999046326</ele>
        <time>2020-09-27T08:36:26.000Z</time>
      </trkpt>
      <trkpt lat="47.26976" lon="-2.44392">
        <ele>2.5999999046326</ele>
        <time>2020-09-27T08:36:33.000Z</time>
      </trkpt>
      <trkpt lat="47.26977" lon="-2.44405">
        <ele>2.5999999046326</ele>
        <time>2020-09-27T08:36:35.000Z</time>
      </trkpt>
      <trkpt lat="47.26976" lon="-2.44424">
        <ele>2.5999999046326</ele>
        <time>2020-09-27T08:36:38.000Z</time>
      </trkpt>
      <trkpt lat="47.26975" lon="-2.44456">
        <ele>2.5999999046326</ele>
        <time>2020-09-27T08:36:44.000Z</time>
      </trkpt>
      <trkpt lat="47.2698" lon="-2.44466">
        <ele>2.5999999046326</ele>
        <time>2020-09-27T08:36:48.000Z</time>
      </trkpt>
      <trkpt lat="47.26983" lon="-2.4447">
        <ele>2.5999999046326</ele>
        <time>2020-09-27T08:36:49.000Z</time>
      </trkpt>
      <trkpt lat="47.26993" lon="-2.44484">
        <ele>2.5999999046326</ele>
        <time>2020-09-27T08:36:52.000Z</time>
      </trkpt>
      <trkpt lat="47.26998" lon="-2.44506">
        <ele>2.5999999046326</ele>
        <time>2020-09-27T08:36:56.000Z</time>
      </trkpt>
      <trkpt lat="47.26998" lon="-2.44541">
        <ele>2.5999999046326</ele>
        <time>2020-09-27T08:37:02.000Z</time>
      </trkpt>
      <trkpt lat="47.26997" lon="-2.44571">
        <ele>2.5999999046326</ele>
        <time>2020-09-27T08:37:07.000Z</time>
      </trkpt>
      <trkpt lat="47.27001" lon="-2.44584">
        <ele>2.5999999046326</ele>
        <time>2020-09-27T08:37:10.000Z</time>
      </trkpt>
      <trkpt lat="47.27003" lon="-2.44586">
        <ele>2.5999999046326</ele>
        <time>2020-09-27T08:37:11.000Z</time>
      </trkpt>
      <trkpt lat="47.27017" lon="-2.44596">
        <ele>2.5999999046326</ele>
        <time>2020-09-27T08:37:16.000Z</time>
      </trkpt>
      <trkpt lat="47.27023" lon="-2.44607">
        <ele>2.5999999046326</ele>
        <time>2020-09-27T08:37:19.000Z</time>
      </trkpt>
      <trkpt lat="47.27025" lon="-2.44611">
        <ele>2.5999999046326</ele>
        <time>2020-09-27T08:37:20.000Z</time>
      </trkpt>
      <trkpt lat="47.27034" lon="-2.44648">
        <ele>2.5999999046326</ele>
        <time>2020-09-27T08:37:26.000Z</time>
      </trkpt>
      <trkpt lat="47.27045" lon="-2.44707">
        <ele>2.5999999046326</ele>
        <time>2020-09-27T08:37:34.000Z</time>
      </trkpt>
      <trkpt lat="47.27051" lon="-2.44757">
        <ele>2.5999999046326</ele>
        <time>2020-09-27T08:37:41.000Z</time>
      </trkpt>
      <trkpt lat="47.27055" lon="-2.44799">
        <ele>2.5999999046326</ele>
        <time>2020-09-27T08:37:47.000Z</time>
      </trkpt>
      <trkpt lat="47.27057" lon="-2.44853">
        <ele>2.5999999046326</ele>
        <time>2020-09-27T08:37:54.000Z</time>
      </trkpt>
      <trkpt lat="47.27059" lon="-2.44924">
        <ele>2.5999999046326</ele>
        <time>2020-09-27T08:38:03.000Z</time>
      </trkpt>
      <trkpt lat="47.27063" lon="-2.44968">
        <ele>2.5999999046326</ele>
        <time>2020-09-27T08:38:09.000Z</time>
      </trkpt>
      <trkpt lat="47.27063" lon="-2.44975">
        <ele>2.5999999046326</ele>
        <time>2020-09-27T08:38:10.000Z</time>
      </trkpt>
      <trkpt lat="47.27064" lon="-2.44996">
        <ele>2.5999999046326</ele>
        <time>2020-09-27T08:38:13.000Z</time>
      </trkpt>
      <trkpt lat="47.27065" lon="-2.45009">
        <ele>2.5999999046326</ele>
        <time>2020-09-27T08:38:15.000Z</time>
      </trkpt>
      <trkpt lat="47.27063" lon="-2.45055">
        <ele>2.5999999046326</ele>
        <time>2020-09-27T08:38:22.000Z</time>
      </trkpt>
      <trkpt lat="47.27063" lon="-2.45062">
        <ele>2.5999999046326</ele>
        <time>2020-09-27T08:38:23.000Z</time>
      </trkpt>
      <trkpt lat="47.27064" lon="-2.451">
        <ele>2.5999999046326</ele>
        <time>2020-09-27T08:38:29.000Z</time>
      </trkpt>
      <trkpt lat="47.27062" lon="-2.45151">
        <ele>2.5999999046326</ele>
        <time>2020-09-27T08:38:36.000Z</time>
      </trkpt>
      <trkpt lat="47.27062" lon="-2.45204">
        <ele>2.5999999046326</ele>
        <time>2020-09-27T08:38:44.000Z</time>
      </trkpt>
      <trkpt lat="47.27061" lon="-2.45249">
        <ele>2.5999999046326</ele>
        <time>2020-09-27T08:38:51.000Z</time>
      </trkpt>
      <trkpt lat="47.27062" lon="-2.45258">
        <ele>2.5999999046326</ele>
        <time>2020-09-27T08:38:53.000Z</time>
      </trkpt>
      <trkpt lat="47.27065" lon="-2.45262">
        <ele>2.5999999046326</ele>
        <time>2020-09-27T08:38:54.000Z</time>
      </trkpt>
      <trkpt lat="47.2708" lon="-2.45273">
        <ele>2.5999999046326</ele>
        <time>2020-09-27T08:38:59.000Z</time>
      </trkpt>
      <trkpt lat="47.27082" lon="-2.45275">
        <ele>2.5999999046326</ele>
        <time>2020-09-27T08:39:00.000Z</time>
      </trkpt>
      <trkpt lat="47.27086" lon="-2.45283">
        <ele>2.5999999046326</ele>
        <time>2020-09-27T08:39:03.000Z</time>
      </trkpt>
      <trkpt lat="47.27088" lon="-2.45286">
        <ele>2.2000000476837</ele>
        <time>2020-09-27T08:39:04.000Z</time>
      </trkpt>
      <trkpt lat="47.2709" lon="-2.45289">
        <ele>1.7999999523163</ele>
        <time>2020-09-27T08:39:05.000Z</time>
      </trkpt>
      <trkpt lat="47.27092" lon="-2.45292">
        <ele>1.3999999761581</ele>
        <time>2020-09-27T08:39:06.000Z</time>
      </trkpt>
      <trkpt lat="47.27094" lon="-2.45296">
        <ele>1</ele>
        <time>2020-09-27T08:39:07.000Z</time>
      </trkpt>
      <trkpt lat="47.27097" lon="-2.453">
        <ele>0.60000002384186</ele>
        <time>2020-09-27T08:39:08.000Z</time>
      </trkpt>
      <trkpt lat="47.271" lon="-2.45304">
        <ele>0.60000002384186</ele>
        <time>2020-09-27T08:39:09.000Z</time>
      </trkpt>
      <trkpt lat="47.27116" lon="-2.45329">
        <ele>0.60000002384186</ele>
        <time>2020-09-27T08:39:15.000Z</time>
      </trkpt>
      <trkpt lat="47.27134" lon="-2.45359">
        <ele>0.60000002384186</ele>
        <time>2020-09-27T08:39:22.000Z</time>
      </trkpt>
      <trkpt lat="47.27155" lon="-2.45379">
        <ele>0.60000002384186</ele>
        <time>2020-09-27T08:39:29.000Z</time>
      </trkpt>
      <trkpt lat="47.27176" lon="-2.45399">
        <ele>0.20000000298023</ele>
        <time>2020-09-27T08:39:36.000Z</time>
      </trkpt>
      <trkpt lat="47.2718" lon="-2.45402">
        <ele>-0.20000000298023</ele>
        <time>2020-09-27T08:39:37.000Z</time>
      </trkpt>
      <trkpt lat="47.27183" lon="-2.45404">
        <ele>-0.60000002384186</ele>
        <time>2020-09-27T08:39:38.000Z</time>
      </trkpt>
      <trkpt lat="47.27187" lon="-2.45408">
        <ele>-1</ele>
        <time>2020-09-27T08:39:39.000Z</time>
      </trkpt>
      <trkpt lat="47.2719" lon="-2.4541">
        <ele>-1.3999999761581</ele>
        <time>2020-09-27T08:39:40.000Z</time>
      </trkpt>
      <trkpt lat="47.27199" lon="-2.45418">
        <ele>-1.3999999761581</ele>
        <time>2020-09-27T08:39:43.000Z</time>
      </trkpt>
      <trkpt lat="47.27214" lon="-2.45431">
        <ele>-1.3999999761581</ele>
        <time>2020-09-27T08:39:48.000Z</time>
      </trkpt>
      <trkpt lat="47.27232" lon="-2.45447">
        <ele>-1.3999999761581</ele>
        <time>2020-09-27T08:39:54.000Z</time>
      </trkpt>
      <trkpt lat="47.27246" lon="-2.45463">
        <ele>-1.3999999761581</ele>
        <time>2020-09-27T08:40:00.000Z</time>
      </trkpt>
      <trkpt lat="47.27261" lon="-2.45485">
        <ele>-1.3999999761581</ele>
        <time>2020-09-27T08:40:07.000Z</time>
      </trkpt>
      <trkpt lat="47.27277" lon="-2.45514">
        <ele>-1.3999999761581</ele>
        <time>2020-09-27T08:40:15.000Z</time>
      </trkpt>
      <trkpt lat="47.2729" lon="-2.45542">
        <ele>-1.3999999761581</ele>
        <time>2020-09-27T08:40:22.000Z</time>
      </trkpt>
      <trkpt lat="47.27298" lon="-2.45568">
        <ele>-1.3999999761581</ele>
        <time>2020-09-27T08:40:29.000Z</time>
      </trkpt>
      <trkpt lat="47.27305" lon="-2.4559">
        <ele>-1.3999999761581</ele>
        <time>2020-09-27T08:40:35.000Z</time>
      </trkpt>
      <trkpt lat="47.27316" lon="-2.45606">
        <ele>-1.3999999761581</ele>
        <time>2020-09-27T08:40:40.000Z</time>
      </trkpt>
      <trkpt lat="47.27323" lon="-2.45629">
        <ele>-1.3999999761581</ele>
        <time>2020-09-27T08:40:45.000Z</time>
      </trkpt>
      <trkpt lat="47.27332" lon="-2.45664">
        <ele>-1</ele>
        <time>2020-09-27T08:40:51.000Z</time>
      </trkpt>
      <trkpt lat="47.27334" lon="-2.45669">
        <ele>-0.60000002384186</ele>
        <time>2020-09-27T08:40:52.000Z</time>
      </trkpt>
      <trkpt lat="47.27336" lon="-2.45675">
        <ele>-0.20000000298023</ele>
        <time>2020-09-27T08:40:53.000Z</time>
      </trkpt>
      <trkpt lat="47.27338" lon="-2.45681">
        <ele>0.20000000298023</ele>
        <time>2020-09-27T08:40:54.000Z</time>
      </trkpt>
      <trkpt lat="47.2734" lon="-2.45686">
        <ele>0.60000002384186</ele>
        <time>2020-09-27T08:40:55.000Z</time>
      </trkpt>
      <trkpt lat="47.27346" lon="-2.45702">
        <ele>0.60000002384186</ele>
        <time>2020-09-27T08:40:58.000Z</time>
      </trkpt>
      <trkpt lat="47.27348" lon="-2.45708">
        <ele>0.60000002384186</ele>
        <time>2020-09-27T08:40:59.000Z</time>
      </trkpt>
      <trkpt lat="47.27364" lon="-2.45749">
        <ele>0.60000002384186</ele>
        <time>2020-09-27T08:41:07.000Z</time>
      </trkpt>
      <trkpt lat="47.27372" lon="-2.45773">
        <ele>0.60000002384186</ele>
        <time>2020-09-27T08:41:13.000Z</time>
      </trkpt>
      <trkpt lat="47.27375" lon="-2.45776">
        <ele>0.60000002384186</ele>
        <time>2020-09-27T08:41:15.000Z</time>
      </trkpt>
      <trkpt lat="47.27381" lon="-2.45774">
        <ele>0.60000002384186</ele>
        <time>2020-09-27T08:41:17.000Z</time>
      </trkpt>
      <trkpt lat="47.27391" lon="-2.45773">
        <ele>0.60000002384186</ele>
        <time>2020-09-27T08:41:20.000Z</time>
      </trkpt>
      <trkpt lat="47.27399" lon="-2.45771">
        <ele>0.60000002384186</ele>
        <time>2020-09-27T08:41:23.000Z</time>
      </trkpt>
      <trkpt lat="47.27418" lon="-2.45768">
        <ele>0.60000002384186</ele>
        <time>2020-09-27T08:41:28.000Z</time>
      </trkpt>
      <trkpt lat="47.27457" lon="-2.45761">
        <ele>0.60000002384186</ele>
        <time>2020-09-27T08:41:37.000Z</time>
      </trkpt>
      <trkpt lat="47.27487" lon="-2.45751">
        <ele>0.60000002384186</ele>
        <time>2020-09-27T08:41:44.000Z</time>
      </trkpt>
      <trkpt lat="47.27523" lon="-2.45739">
        <ele>0.60000002384186</ele>
        <time>2020-09-27T08:41:52.000Z</time>
      </trkpt>
      <trkpt lat="47.2756" lon="-2.45726">
        <ele>0.60000002384186</ele>
        <time>2020-09-27T08:42:00.000Z</time>
      </trkpt>
      <trkpt lat="47.27591" lon="-2.45715">
        <ele>0.60000002384186</ele>
        <time>2020-09-27T08:42:07.000Z</time>
      </trkpt>
      <trkpt lat="47.27612" lon="-2.45709">
        <ele>0.60000002384186</ele>
        <time>2020-09-27T08:42:13.000Z</time>
      </trkpt>
      <trkpt lat="47.2762" lon="-2.45709">
        <ele>0.60000002384186</ele>
        <time>2020-09-27T08:42:17.000Z</time>
      </trkpt>
      <trkpt lat="47.27628" lon="-2.4571">
        <ele>0.60000002384186</ele>
        <time>2020-09-27T08:42:21.000Z</time>
      </trkpt>
      <trkpt lat="47.2763" lon="-2.45713">
        <ele>0.60000002384186</ele>
        <time>2020-09-27T08:42:22.000Z</time>
      </trkpt>
      <trkpt lat="47.27639" lon="-2.45741">
        <ele>0.60000002384186</ele>
        <time>2020-09-27T08:42:27.000Z</time>
      </trkpt>
      <trkpt lat="47.27644" lon="-2.45785">
        <ele>0.60000002384186</ele>
        <time>2020-09-27T08:42:32.000Z</time>
      </trkpt>
      <trkpt lat="47.27646" lon="-2.45814">
        <ele>0.20000000298023</ele>
        <time>2020-09-27T08:42:35.000Z</time>
      </trkpt>
      <trkpt lat="47.27646" lon="-2.45824">
        <ele>-0.20000000298023</ele>
        <time>2020-09-27T08:42:36.000Z</time>
      </trkpt>
      <trkpt lat="47.27645" lon="-2.45834">
        <ele>-0.60000002384186</ele>
        <time>2020-09-27T08:42:37.000Z</time>
      </trkpt>
      <trkpt lat="47.27645" lon="-2.45845">
        <ele>-1</ele>
        <time>2020-09-27T08:42:38.000Z</time>
      </trkpt>
      <trkpt lat="47.27644" lon="-2.45855">
        <ele>-1.6000000238419</ele>
        <time>2020-09-27T08:42:39.000Z</time>
      </trkpt>
      <trkpt lat="47.27643" lon="-2.45896">
        <ele>-1.6000000238419</ele>
        <time>2020-09-27T08:42:43.000Z</time>
      </trkpt>
      <trkpt lat="47.27641" lon="-2.4594">
        <ele>-1.6000000238419</ele>
        <time>2020-09-27T08:42:48.000Z</time>
      </trkpt>
      <trkpt lat="47.2764" lon="-2.45958">
        <ele>-1.6000000238419</ele>
        <time>2020-09-27T08:42:52.000Z</time>
      </trkpt>
      <trkpt lat="47.27642" lon="-2.45979">
        <ele>-1.6000000238419</ele>
        <time>2020-09-27T08:42:58.000Z</time>
      </trkpt>
      <trkpt lat="47.27644" lon="-2.46">
        <ele>-1.6000000238419</ele>
        <time>2020-09-27T08:43:05.000Z</time>
      </trkpt>
      <trkpt lat="47.27646" lon="-2.46018">
        <ele>-1.6000000238419</ele>
        <time>2020-09-27T08:43:09.000Z</time>
      </trkpt>
      <trkpt lat="47.27652" lon="-2.46051">
        <ele>-1.6000000238419</ele>
        <time>2020-09-27T08:43:14.000Z</time>
      </trkpt>
      <trkpt lat="47.27653" lon="-2.46058">
        <ele>-1.6000000238419</ele>
        <time>2020-09-27T08:43:15.000Z</time>
      </trkpt>
      <trkpt lat="47.27656" lon="-2.4608">
        <ele>-1.6000000238419</ele>
        <time>2020-09-27T08:43:18.000Z</time>
      </trkpt>
      <trkpt lat="47.27659" lon="-2.46094">
        <ele>-1.6000000238419</ele>
        <time>2020-09-27T08:43:20.000Z</time>
      </trkpt>
      <trkpt lat="47.27667" lon="-2.46138">
        <ele>-1.6000000238419</ele>
        <time>2020-09-27T08:43:27.000Z</time>
      </trkpt>
      <trkpt lat="47.27671" lon="-2.46172">
        <ele>-1.6000000238419</ele>
        <time>2020-09-27T08:43:33.000Z</time>
      </trkpt>
      <trkpt lat="47.27672" lon="-2.46202">
        <ele>-1.6000000238419</ele>
        <time>2020-09-27T08:43:37.000Z</time>
      </trkpt>
      <trkpt lat="47.27673" lon="-2.46211">
        <ele>-1.6000000238419</ele>
        <time>2020-09-27T08:43:38.000Z</time>
      </trkpt>
      <trkpt lat="47.27674" lon="-2.46218">
        <ele>-1</ele>
        <time>2020-09-27T08:43:39.000Z</time>
      </trkpt>
      <trkpt lat="47.27675" lon="-2.46226">
        <ele>-0.60000002384186</ele>
        <time>2020-09-27T08:43:40.000Z</time>
      </trkpt>
      <trkpt lat="47.27676" lon="-2.46234">
        <ele>-0.20000000298023</ele>
        <time>2020-09-27T08:43:41.000Z</time>
      </trkpt>
      <trkpt lat="47.27676" lon="-2.46241">
        <ele>0.20000000298023</ele>
        <time>2020-09-27T08:43:42.000Z</time>
      </trkpt>
      <trkpt lat="47.27677" lon="-2.46249">
        <ele>0.60000002384186</ele>
        <time>2020-09-27T08:43:43.000Z</time>
      </trkpt>
      <trkpt lat="47.27675" lon="-2.46256">
        <ele>0.60000002384186</ele>
        <time>2020-09-27T08:43:44.000Z</time>
      </trkpt>
      <trkpt lat="47.27667" lon="-2.4627">
        <ele>0.60000002384186</ele>
        <time>2020-09-27T08:43:47.000Z</time>
      </trkpt>
      <trkpt lat="47.27661" lon="-2.46285">
        <ele>0.60000002384186</ele>
        <time>2020-09-27T08:43:50.000Z</time>
      </trkpt>
      <trkpt lat="47.27661" lon="-2.4629">
        <ele>0.60000002384186</ele>
        <time>2020-09-27T08:43:51.000Z</time>
      </trkpt>
      <trkpt lat="47.27671" lon="-2.46309">
        <ele>0.60000002384186</ele>
        <time>2020-09-27T08:43:55.000Z</time>
      </trkpt>
      <trkpt lat="47.27673" lon="-2.46314">
        <ele>0.60000002384186</ele>
        <time>2020-09-27T08:43:56.000Z</time>
      </trkpt>
      <trkpt lat="47.27677" lon="-2.46338">
        <ele>0.60000002384186</ele>
        <time>2020-09-27T08:44:00.000Z</time>
      </trkpt>
      <trkpt lat="47.2769" lon="-2.46382">
        <ele>0.60000002384186</ele>
        <time>2020-09-27T08:44:06.000Z</time>
      </trkpt>
      <trkpt lat="47.27708" lon="-2.46427">
        <ele>0.60000002384186</ele>
        <time>2020-09-27T08:44:12.000Z</time>
      </trkpt>
      <trkpt lat="47.27726" lon="-2.46469">
        <ele>0.60000002384186</ele>
        <time>2020-09-27T08:44:18.000Z</time>
      </trkpt>
      <trkpt lat="47.27728" lon="-2.46477">
        <ele>0.60000002384186</ele>
        <time>2020-09-27T08:44:19.000Z</time>
      </trkpt>
      <trkpt lat="47.27738" lon="-2.4652">
        <ele>0.60000002384186</ele>
        <time>2020-09-27T08:44:25.000Z</time>
      </trkpt>
      <trkpt lat="47.27751" lon="-2.4657">
        <ele>0.60000002384186</ele>
        <time>2020-09-27T08:44:33.000Z</time>
      </trkpt>
      <trkpt lat="47.27763" lon="-2.46592">
        <ele>0.60000002384186</ele>
        <time>2020-09-27T08:44:38.000Z</time>
      </trkpt>
      <trkpt lat="47.27766" lon="-2.46612">
        <ele>0.60000002384186</ele>
        <time>2020-09-27T08:44:42.000Z</time>
      </trkpt>
      <trkpt lat="47.27764" lon="-2.46616">
        <ele>0.60000002384186</ele>
        <time>2020-09-27T08:44:43.000Z</time>
      </trkpt>
      <trkpt lat="47.27761" lon="-2.46625">
        <ele>0.60000002384186</ele>
        <time>2020-09-27T08:44:45.000Z</time>
      </trkpt>
      <trkpt lat="47.27765" lon="-2.46642">
        <ele>0.60000002384186</ele>
        <time>2020-09-27T08:44:48.000Z</time>
      </trkpt>
      <trkpt lat="47.27765" lon="-2.46661">
        <ele>0.20000000298023</ele>
        <time>2020-09-27T08:44:51.000Z</time>
      </trkpt>
      <trkpt lat="47.27765" lon="-2.46667">
        <ele>-0.20000000298023</ele>
        <time>2020-09-27T08:44:52.000Z</time>
      </trkpt>
      <trkpt lat="47.27764" lon="-2.46673">
        <ele>-0.60000002384186</ele>
        <time>2020-09-27T08:44:53.000Z</time>
      </trkpt>
      <trkpt lat="47.27764" lon="-2.46678">
        <ele>-1</ele>
        <time>2020-09-27T08:44:54.000Z</time>
      </trkpt>
      <trkpt lat="47.27764" lon="-2.46682">
        <ele>-1.3999999761581</ele>
        <time>2020-09-27T08:44:55.000Z</time>
      </trkpt>
      <trkpt lat="47.27764" lon="-2.46686">
        <ele>-1.3999999761581</ele>
        <time>2020-09-27T08:44:56.000Z</time>
      </trkpt>
      <trkpt lat="47.27765" lon="-2.46695">
        <ele>-1.3999999761581</ele>
        <time>2020-09-27T08:44:59.000Z</time>
      </trkpt>
      <trkpt lat="47.27769" lon="-2.46697">
        <ele>-1.3999999761581</ele>
        <time>2020-09-27T08:45:01.000Z</time>
      </trkpt>
      <trkpt lat="47.27777" lon="-2.46696">
        <ele>-1.3999999761581</ele>
        <time>2020-09-27T08:45:05.000Z</time>
      </trkpt>
      <trkpt lat="47.27786" lon="-2.46707">
        <ele>-1.3999999761581</ele>
        <time>2020-09-27T08:45:08.000Z</time>
      </trkpt>
      <trkpt lat="47.27786" lon="-2.46727">
        <ele>-1.3999999761581</ele>
        <time>2020-09-27T08:45:11.000Z</time>
      </trkpt>
      <trkpt lat="47.27784" lon="-2.46765">
        <ele>-1.3999999761581</ele>
        <time>2020-09-27T08:45:17.000Z</time>
      </trkpt>
      <trkpt lat="47.27785" lon="-2.46771">
        <ele>-1.3999999761581</ele>
        <time>2020-09-27T08:45:18.000Z</time>
      </trkpt>
      <trkpt lat="47.27785" lon="-2.46777">
        <ele>-1.7999999523163</ele>
        <time>2020-09-27T08:45:19.000Z</time>
      </trkpt>
      <trkpt lat="47.27785" lon="-2.46782">
        <ele>-2.2000000476837</ele>
        <time>2020-09-27T08:45:20.000Z</time>
      </trkpt>
      <trkpt lat="47.27785" lon="-2.46787">
        <ele>-2.5999999046326</ele>
        <time>2020-09-27T08:45:21.000Z</time>
      </trkpt>
      <trkpt lat="47.27785" lon="-2.46792">
        <ele>-3</ele>
        <time>2020-09-27T08:45:22.000Z</time>
      </trkpt>
      <trkpt lat="47.27785" lon="-2.46797">
        <ele>-3.4000000953674</ele>
        <time>2020-09-27T08:45:23.000Z</time>
      </trkpt>
      <trkpt lat="47.27791" lon="-2.46824">
        <ele>-3.4000000953674</ele>
        <time>2020-09-27T08:45:29.000Z</time>
      </trkpt>
      <trkpt lat="47.27793" lon="-2.46828">
        <ele>-3.4000000953674</ele>
        <time>2020-09-27T08:45:30.000Z</time>
      </trkpt>
      <trkpt lat="47.27797" lon="-2.46846">
        <ele>-3.4000000953674</ele>
        <time>2020-09-27T08:45:33.000Z</time>
      </trkpt>
      <trkpt lat="47.27797" lon="-2.46852">
        <ele>-3.4000000953674</ele>
        <time>2020-09-27T08:45:34.000Z</time>
      </trkpt>
      <trkpt lat="47.27798" lon="-2.46885">
        <ele>-3.4000000953674</ele>
        <time>2020-09-27T08:45:40.000Z</time>
      </trkpt>
      <trkpt lat="47.27807" lon="-2.46908">
        <ele>-3.4000000953674</ele>
        <time>2020-09-27T08:45:46.000Z</time>
      </trkpt>
      <trkpt lat="47.27808" lon="-2.46913">
        <ele>-3.4000000953674</ele>
        <time>2020-09-27T08:45:47.000Z</time>
      </trkpt>
      <trkpt lat="47.27807" lon="-2.46928">
        <ele>-3.4000000953674</ele>
        <time>2020-09-27T08:45:50.000Z</time>
      </trkpt>
      <trkpt lat="47.27804" lon="-2.46936">
        <ele>-3.4000000953674</ele>
        <time>2020-09-27T08:45:52.000Z</time>
      </trkpt>
      <trkpt lat="47.27799" lon="-2.46944">
        <ele>-3.4000000953674</ele>
        <time>2020-09-27T08:45:55.000Z</time>
      </trkpt>
      <trkpt lat="47.27794" lon="-2.46958">
        <ele>-3.4000000953674</ele>
        <time>2020-09-27T08:46:01.000Z</time>
      </trkpt>
      <trkpt lat="47.27794" lon="-2.4696">
        <ele>-3.4000000953674</ele>
        <time>2020-09-27T08:46:02.000Z</time>
      </trkpt>
      <trkpt lat="47.27796" lon="-2.4697">
        <ele>-3.4000000953674</ele>
        <time>2020-09-27T08:46:06.000Z</time>
      </trkpt>
      <trkpt lat="47.27796" lon="-2.46988">
        <ele>-3.4000000953674</ele>
        <time>2020-09-27T08:46:12.000Z</time>
      </trkpt>
      <trkpt lat="47.27794" lon="-2.47007">
        <ele>-3.4000000953674</ele>
        <time>2020-09-27T08:46:19.000Z</time>
      </trkpt>
      <trkpt lat="47.27796" lon="-2.47026">
        <ele>-3.4000000953674</ele>
        <time>2020-09-27T08:46:23.000Z</time>
      </trkpt>
      <trkpt lat="47.27796" lon="-2.47032">
        <ele>-3.4000000953674</ele>
        <time>2020-09-27T08:46:24.000Z</time>
      </trkpt>
      <trkpt lat="47.27795" lon="-2.47065">
        <ele>-3.4000000953674</ele>
        <time>2020-09-27T08:46:29.000Z</time>
      </trkpt>
      <trkpt lat="47.27795" lon="-2.47099">
        <ele>-3.4000000953674</ele>
        <time>2020-09-27T08:46:35.000Z</time>
      </trkpt>
      <trkpt lat="47.27793" lon="-2.47124">
        <ele>-3.4000000953674</ele>
        <time>2020-09-27T08:46:41.000Z</time>
      </trkpt>
      <trkpt lat="47.27795" lon="-2.47144">
        <ele>-3.4000000953674</ele>
        <time>2020-09-27T08:46:46.000Z</time>
      </trkpt>
      <trkpt lat="47.27795" lon="-2.4715">
        <ele>-3.4000000953674</ele>
        <time>2020-09-27T08:46:47.000Z</time>
      </trkpt>
      <trkpt lat="47.27794" lon="-2.4717">
        <ele>-3.4000000953674</ele>
        <time>2020-09-27T08:46:50.000Z</time>
      </trkpt>
      <trkpt lat="47.27795" lon="-2.47204">
        <ele>-3.4000000953674</ele>
        <time>2020-09-27T08:46:55.000Z</time>
      </trkpt>
      <trkpt lat="47.27797" lon="-2.47233">
        <ele>-3</ele>
        <time>2020-09-27T08:46:59.000Z</time>
      </trkpt>
      <trkpt lat="47.27797" lon="-2.47239">
        <ele>-2.5999999046326</ele>
        <time>2020-09-27T08:47:00.000Z</time>
      </trkpt>
      <trkpt lat="47.27797" lon="-2.47246">
        <ele>-2.2000000476837</ele>
        <time>2020-09-27T08:47:01.000Z</time>
      </trkpt>
      <trkpt lat="47.27797" lon="-2.47253">
        <ele>-1.7999999523163</ele>
        <time>2020-09-27T08:47:02.000Z</time>
      </trkpt>
      <trkpt lat="47.27798" lon="-2.4726">
        <ele>-1.3999999761581</ele>
        <time>2020-09-27T08:47:03.000Z</time>
      </trkpt>
      <trkpt lat="47.27797" lon="-2.47297">
        <ele>-1.3999999761581</ele>
        <time>2020-09-27T08:47:08.000Z</time>
      </trkpt>
      <trkpt lat="47.27797" lon="-2.47304">
        <ele>-1.3999999761581</ele>
        <time>2020-09-27T08:47:09.000Z</time>
      </trkpt>
      <trkpt lat="47.27795" lon="-2.47339">
        <ele>-1.3999999761581</ele>
        <time>2020-09-27T08:47:14.000Z</time>
      </trkpt>
      <trkpt lat="47.27795" lon="-2.47386">
        <ele>-1.3999999761581</ele>
        <time>2020-09-27T08:47:21.000Z</time>
      </trkpt>
      <trkpt lat="47.27795" lon="-2.47439">
        <ele>-1.3999999761581</ele>
        <time>2020-09-27T08:47:29.000Z</time>
      </trkpt>
      <trkpt lat="47.27794" lon="-2.47472">
        <ele>-1</ele>
        <time>2020-09-27T08:47:34.000Z</time>
      </trkpt>
      <trkpt lat="47.27794" lon="-2.47478">
        <ele>-0.40000000596046</ele>
        <time>2020-09-27T08:47:35.000Z</time>
      </trkpt>
      <trkpt lat="47.27795" lon="-2.47484">
        <ele>8.2</ele>
        <time>2020-09-27T08:47:36.000Z</time>
      </trkpt>
      <trkpt lat="47.27795" lon="-2.4749">
        <ele>0.40000000596046</ele>
        <time>2020-09-27T08:47:37.000Z</time>
      </trkpt>
      <trkpt lat="47.27795" lon="-2.47497">
        <ele>1</ele>
        <time>2020-09-27T08:47:38.000Z</time>
      </trkpt>
      <trkpt lat="47.27797" lon="-2.47523">
        <ele>1</ele>
        <time>2020-09-27T08:47:42.000Z</time>
      </trkpt>
      <trkpt lat="47.27799" lon="-2.47536">
        <ele>1</ele>
        <time>2020-09-27T08:47:44.000Z</time>
      </trkpt>
      <trkpt lat="47.27804" lon="-2.47574">
        <ele>1</ele>
        <time>2020-09-27T08:47:50.000Z</time>
      </trkpt>
      <trkpt lat="47.2781" lon="-2.47607">
        <ele>1.3999999761581</ele>
        <time>2020-09-27T08:47:55.000Z</time>
      </trkpt>
      <trkpt lat="47.2781" lon="-2.47613">
        <ele>1.7999999523163</ele>
        <time>2020-09-27T08:47:56.000Z</time>
      </trkpt>
      <trkpt lat="47.27811" lon="-2.4762">
        <ele>2.2000000476837</ele>
        <time>2020-09-27T08:47:57.000Z</time>
      </trkpt>
      <trkpt lat="47.27811" lon="-2.47627">
        <ele>2.5999999046326</ele>
        <time>2020-09-27T08:47:58.000Z</time>
      </trkpt>
      <trkpt lat="47.27811" lon="-2.47634">
        <ele>3</ele>
        <time>2020-09-27T08:47:59.000Z</time>
      </trkpt>
      <trkpt lat="47.27812" lon="-2.47665">
        <ele>3</ele>
        <time>2020-09-27T08:48:03.000Z</time>
      </trkpt>
      <trkpt lat="47.27817" lon="-2.47696">
        <ele>3.5999999046326</ele>
        <time>2020-09-27T08:48:07.000Z</time>
      </trkpt>
      <trkpt lat="47.27818" lon="-2.47703">
        <ele>4</ele>
        <time>2020-09-27T08:48:08.000Z</time>
      </trkpt>
      <trkpt lat="47.2782" lon="-2.47711">
        <ele>4.4000000953674</ele>
        <time>2020-09-27T08:48:09.000Z</time>
      </trkpt>
      <trkpt lat="47.27822" lon="-2.47718">
        <ele>4.8000001907349</ele>
        <time>2020-09-27T08:48:10.000Z</time>
      </trkpt>
      <trkpt lat="47.27825" lon="-2.47725">
        <ele>5.1999998092651</ele>
        <time>2020-09-27T08:48:11.000Z</time>
      </trkpt>
      <trkpt lat="47.27837" lon="-2.47757">
        <ele>5.1999998092651</ele>
        <time>2020-09-27T08:48:16.000Z</time>
      </trkpt>
      <trkpt lat="47.27848" lon="-2.47788">
        <ele>5.1999998092651</ele>
        <time>2020-09-27T08:48:21.000Z</time>
      </trkpt>
      <trkpt lat="47.27851" lon="-2.47801">
        <ele>5.1999998092651</ele>
        <time>2020-09-27T08:48:23.000Z</time>
      </trkpt>
      <trkpt lat="47.27859" lon="-2.47835">
        <ele>5.1999998092651</ele>
        <time>2020-09-27T08:48:28.000Z</time>
      </trkpt>
      <trkpt lat="47.2786" lon="-2.47842">
        <ele>5.1999998092651</ele>
        <time>2020-09-27T08:48:29.000Z</time>
      </trkpt>
      <trkpt lat="47.27867" lon="-2.47878">
        <ele>5.5999999046326</ele>
        <time>2020-09-27T08:48:34.000Z</time>
      </trkpt>
      <trkpt lat="47.27868" lon="-2.47885">
        <ele>6</ele>
        <time>2020-09-27T08:48:35.000Z</time>
      </trkpt>
      <trkpt lat="47.27869" lon="-2.47892">
        <ele>6.4000000953674</ele>
        <time>2020-09-27T08:48:36.000Z</time>
      </trkpt>
      <trkpt lat="47.2787" lon="-2.47899">
        <ele>6.8000001907349</ele>
        <time>2020-09-27T08:48:37.000Z</time>
      </trkpt>
      <trkpt lat="47.27872" lon="-2.47906">
        <ele>7.1999998092651</ele>
        <time>2020-09-27T08:48:38.000Z</time>
      </trkpt>
      <trkpt lat="47.27877" lon="-2.47951">
        <ele>7.1999998092651</ele>
        <time>2020-09-27T08:48:44.000Z</time>
      </trkpt>
      <trkpt lat="47.27883" lon="-2.47978">
        <ele>7.1999998092651</ele>
        <time>2020-09-27T08:48:48.000Z</time>
      </trkpt>
      <trkpt lat="47.27886" lon="-2.47993">
        <ele>6.8000001907349</ele>
        <time>2020-09-27T08:48:50.000Z</time>
      </trkpt>
      <trkpt lat="47.27887" lon="-2.48">
        <ele>6.4000000953674</ele>
        <time>2020-09-27T08:48:51.000Z</time>
      </trkpt>
      <trkpt lat="47.27888" lon="-2.48008">
        <ele>6</ele>
        <time>2020-09-27T08:48:52.000Z</time>
      </trkpt>
      <trkpt lat="47.2789" lon="-2.48015">
        <ele>5.5999999046326</ele>
        <time>2020-09-27T08:48:53.000Z</time>
      </trkpt>
      <trkpt lat="47.27891" lon="-2.48023">
        <ele>5.1999998092651</ele>
        <time>2020-09-27T08:48:54.000Z</time>
      </trkpt>
      <trkpt lat="47.27895" lon="-2.48048">
        <ele>5.1999998092651</ele>
        <time>2020-09-27T08:48:57.000Z</time>
      </trkpt>
      <trkpt lat="47.27903" lon="-2.48108">
        <ele>5.1999998092651</ele>
        <time>2020-09-27T08:49:04.000Z</time>
      </trkpt>
      <trkpt lat="47.27909" lon="-2.48142">
        <ele>4.5999999046326</ele>
        <time>2020-09-27T08:49:08.000Z</time>
      </trkpt>
      <trkpt lat="47.2791" lon="-2.48151">
        <ele>3.5999999046326</ele>
        <time>2020-09-27T08:49:09.000Z</time>
      </trkpt>
      <trkpt lat="47.27912" lon="-2.48159">
        <ele>3.2000000476837</ele>
        <time>2020-09-27T08:49:10.000Z</time>
      </trkpt>
      <trkpt lat="47.27913" lon="-2.48167">
        <ele>2.7999999523163</ele>
        <time>2020-09-27T08:49:11.000Z</time>
      </trkpt>
      <trkpt lat="47.27921" lon="-2.4822">
        <ele>2.7999999523163</ele>
        <time>2020-09-27T08:49:18.000Z</time>
      </trkpt>
      <trkpt lat="47.27927" lon="-2.48273">
        <ele>2.7999999523163</ele>
        <time>2020-09-27T08:49:25.000Z</time>
      </trkpt>
      <trkpt lat="47.27929" lon="-2.48281">
        <ele>2.7999999523163</ele>
        <time>2020-09-27T08:49:26.000Z</time>
      </trkpt>
      <trkpt lat="47.27936" lon="-2.48291">
        <ele>2.7999999523163</ele>
        <time>2020-09-27T08:49:28.000Z</time>
      </trkpt>
      <trkpt lat="47.27947" lon="-2.48294">
        <ele>2.7999999523163</ele>
        <time>2020-09-27T08:49:30.000Z</time>
      </trkpt>
      <trkpt lat="47.27959" lon="-2.48297">
        <ele>2.7999999523163</ele>
        <time>2020-09-27T08:49:32.000Z</time>
      </trkpt>
      <trkpt lat="47.28004" lon="-2.48311">
        <ele>2.7999999523163</ele>
        <time>2020-09-27T08:49:40.000Z</time>
      </trkpt>
      <trkpt lat="47.28042" lon="-2.48323">
        <ele>2.7999999523163</ele>
        <time>2020-09-27T08:49:47.000Z</time>
      </trkpt>
      <trkpt lat="47.28058" lon="-2.4833">
        <ele>2.4000000953674</ele>
        <time>2020-09-27T08:49:50.000Z</time>
      </trkpt>
      <trkpt lat="47.28063" lon="-2.48332">
        <ele>2</ele>
        <time>2020-09-27T08:49:51.000Z</time>
      </trkpt>
      <trkpt lat="47.28068" lon="-2.48334">
        <ele>1.6000000238419</ele>
        <time>2020-09-27T08:49:52.000Z</time>
      </trkpt>
      <trkpt lat="47.28073" lon="-2.48336">
        <ele>1.2000000476837</ele>
        <time>2020-09-27T08:49:53.000Z</time>
      </trkpt>
      <trkpt lat="47.28078" lon="-2.48337">
        <ele>0.80000001192093</ele>
        <time>2020-09-27T08:49:54.000Z</time>
      </trkpt>
      <trkpt lat="47.28083" lon="-2.48339">
        <ele>0.80000001192093</ele>
        <time>2020-09-27T08:49:55.000Z</time>
      </trkpt>
      <trkpt lat="47.28112" lon="-2.48352">
        <ele>0.80000001192093</ele>
        <time>2020-09-27T08:50:01.000Z</time>
      </trkpt>
      <trkpt lat="47.28117" lon="-2.48354">
        <ele>0.80000001192093</ele>
        <time>2020-09-27T08:50:02.000Z</time>
      </trkpt>
      <trkpt lat="47.28137" lon="-2.48359">
        <ele>0.80000001192093</ele>
        <time>2020-09-27T08:50:06.000Z</time>
      </trkpt>
      <trkpt lat="47.28152" lon="-2.48362">
        <ele>0.80000001192093</ele>
        <time>2020-09-27T08:50:09.000Z</time>
      </trkpt>
      <trkpt lat="47.28162" lon="-2.4836">
        <ele>0.80000001192093</ele>
        <time>2020-09-27T08:50:11.000Z</time>
      </trkpt>
      <trkpt lat="47.28185" lon="-2.48353">
        <ele>0.40000000596046</ele>
        <time>2020-09-27T08:50:16.000Z</time>
      </trkpt>
      <trkpt lat="47.2819" lon="-2.48352">
        <ele>6.7</ele>
        <time>2020-09-27T08:50:17.000Z</time>
      </trkpt>
      <trkpt lat="47.28194" lon="-2.48352">
        <ele>-0.40000000596046</ele>
        <time>2020-09-27T08:50:18.000Z</time>
      </trkpt>
      <trkpt lat="47.28199" lon="-2.48352">
        <ele>-1</ele>
        <time>2020-09-27T08:50:19.000Z</time>
      </trkpt>
      <trkpt lat="47.28203" lon="-2.48352">
        <ele>-1.3999999761581</ele>
        <time>2020-09-27T08:50:20.000Z</time>
      </trkpt>
      <trkpt lat="47.28208" lon="-2.48351">
        <ele>-1.3999999761581</ele>
        <time>2020-09-27T08:50:21.000Z</time>
      </trkpt>
      <trkpt lat="47.28213" lon="-2.48349">
        <ele>-1.3999999761581</ele>
        <time>2020-09-27T08:50:22.000Z</time>
      </trkpt>
      <trkpt lat="47.28235" lon="-2.48345">
        <ele>-1.3999999761581</ele>
        <time>2020-09-27T08:50:26.000Z</time>
      </trkpt>
      <trkpt lat="47.28244" lon="-2.48346">
        <ele>-1.3999999761581</ele>
        <time>2020-09-27T08:50:28.000Z</time>
      </trkpt>
      <trkpt lat="47.28253" lon="-2.48357">
        <ele>-1.7999999523163</ele>
        <time>2020-09-27T08:50:31.000Z</time>
      </trkpt>
      <trkpt lat="47.28256" lon="-2.48362">
        <ele>-2.2000000476837</ele>
        <time>2020-09-27T08:50:32.000Z</time>
      </trkpt>
      <trkpt lat="47.28259" lon="-2.48366">
        <ele>-2.5999999046326</ele>
        <time>2020-09-27T08:50:33.000Z</time>
      </trkpt>
      <trkpt lat="47.28263" lon="-2.48369">
        <ele>-3</ele>
        <time>2020-09-27T08:50:34.000Z</time>
      </trkpt>
      <trkpt lat="47.28268" lon="-2.48371">
        <ele>-3.4000000953674</ele>
        <time>2020-09-27T08:50:35.000Z</time>
      </trkpt>
      <trkpt lat="47.28287" lon="-2.48367">
        <ele>-3.4000000953674</ele>
        <time>2020-09-27T08:50:39.000Z</time>
      </trkpt>
      <trkpt lat="47.28294" lon="-2.4837">
        <ele>-3.7999999523163</ele>
        <time>2020-09-27T08:50:41.000Z</time>
      </trkpt>
      <trkpt lat="47.28296" lon="-2.48374">
        <ele>-4.1999998092651</ele>
        <time>2020-09-27T08:50:42.000Z</time>
      </trkpt>
      <trkpt lat="47.28299" lon="-2.48379">
        <ele>-4.5999999046326</ele>
        <time>2020-09-27T08:50:43.000Z</time>
      </trkpt>
      <trkpt lat="47.28302" lon="-2.48383">
        <ele>-5</ele>
        <time>2020-09-27T08:50:44.000Z</time>
      </trkpt>
      <trkpt lat="47.28307" lon="-2.48383">
        <ele>-5.4000000953674</ele>
        <time>2020-09-27T08:50:45.000Z</time>
      </trkpt>
      <trkpt lat="47.28311" lon="-2.48383">
        <ele>-5.4000000953674</ele>
        <time>2020-09-27T08:50:46.000Z</time>
      </trkpt>
      <trkpt lat="47.28328" lon="-2.48373">
        <ele>-5.4000000953674</ele>
        <time>2020-09-27T08:50:50.000Z</time>
      </trkpt>
      <trkpt lat="47.28333" lon="-2.4837">
        <ele>-5.4000000953674</ele>
        <time>2020-09-27T08:50:51.000Z</time>
      </trkpt>
      <trkpt lat="47.2835" lon="-2.48358">
        <ele>-5.4000000953674</ele>
        <time>2020-09-27T08:50:55.000Z</time>
      </trkpt>
      <trkpt lat="47.28355" lon="-2.48358">
        <ele>-5.4000000953674</ele>
        <time>2020-09-27T08:50:56.000Z</time>
      </trkpt>
      <trkpt lat="47.28364" lon="-2.48357">
        <ele>-5.4000000953674</ele>
        <time>2020-09-27T08:50:58.000Z</time>
      </trkpt>
      <trkpt lat="47.28381" lon="-2.48354">
        <ele>-5.4000000953674</ele>
        <time>2020-09-27T08:51:02.000Z</time>
      </trkpt>
      <trkpt lat="47.28386" lon="-2.48354">
        <ele>-5.4000000953674</ele>
        <time>2020-09-27T08:51:03.000Z</time>
      </trkpt>
      <trkpt lat="47.28401" lon="-2.48357">
        <ele>-5.4000000953674</ele>
        <time>2020-09-27T08:51:06.000Z</time>
      </trkpt>
      <trkpt lat="47.28405" lon="-2.48359">
        <ele>-5</ele>
        <time>2020-09-27T08:51:07.000Z</time>
      </trkpt>
      <trkpt lat="47.28409" lon="-2.48363">
        <ele>-4.5999999046326</ele>
        <time>2020-09-27T08:51:08.000Z</time>
      </trkpt>
      <trkpt lat="47.28414" lon="-2.48365">
        <ele>-4</ele>
        <time>2020-09-27T08:51:09.000Z</time>
      </trkpt>
      <trkpt lat="47.28418" lon="-2.48369">
        <ele>-3.5999999046326</ele>
        <time>2020-09-27T08:51:10.000Z</time>
      </trkpt>
      <trkpt lat="47.28422" lon="-2.48372">
        <ele>-3.2000000476837</ele>
        <time>2020-09-27T08:51:11.000Z</time>
      </trkpt>
      <trkpt lat="47.28425" lon="-2.48375">
        <ele>-3.2000000476837</ele>
        <time>2020-09-27T08:51:12.000Z</time>
      </trkpt>
      <trkpt lat="47.28429" lon="-2.48379">
        <ele>-3.2000000476837</ele>
        <time>2020-09-27T08:51:13.000Z</time>
      </trkpt>
      <trkpt lat="47.28448" lon="-2.48399">
        <ele>-3.2000000476837</ele>
        <time>2020-09-27T08:51:19.000Z</time>
      </trkpt>
      <trkpt lat="47.28449" lon="-2.48416">
        <ele>-3.2000000476837</ele>
        <time>2020-09-27T08:51:22.000Z</time>
      </trkpt>
      <trkpt lat="47.28448" lon="-2.48421">
        <ele>-3.2000000476837</ele>
        <time>2020-09-27T08:51:23.000Z</time>
      </trkpt>
      <trkpt lat="47.28447" lon="-2.48427">
        <ele>-3.5999999046326</ele>
        <time>2020-09-27T08:51:24.000Z</time>
      </trkpt>
      <trkpt lat="47.28447" lon="-2.48433">
        <ele>-4</ele>
        <time>2020-09-27T08:51:25.000Z</time>
      </trkpt>
      <trkpt lat="47.28446" lon="-2.48439">
        <ele>-4.4000000953674</ele>
        <time>2020-09-27T08:51:26.000Z</time>
      </trkpt>
      <trkpt lat="47.28446" lon="-2.48446">
        <ele>-4.8000001907349</ele>
        <time>2020-09-27T08:51:27.000Z</time>
      </trkpt>
      <trkpt lat="47.28445" lon="-2.48453">
        <ele>-5.4000000953674</ele>
        <time>2020-09-27T08:51:28.000Z</time>
      </trkpt>
      <trkpt lat="47.28445" lon="-2.4846">
        <ele>-5.4000000953674</ele>
        <time>2020-09-27T08:51:30.000Z</time>
      </trkpt>
      <trkpt lat="47.28442" lon="-2.485">
        <ele>-5.4000000953674</ele>
        <time>2020-09-27T08:51:36.000Z</time>
      </trkpt>
      <trkpt lat="47.28436" lon="-2.48524">
        <ele>-5.4000000953674</ele>
        <time>2020-09-27T08:51:40.000Z</time>
      </trkpt>
      <trkpt lat="47.28435" lon="-2.4853">
        <ele>-5.4000000953674</ele>
        <time>2020-09-27T08:51:41.000Z</time>
      </trkpt>
      <trkpt lat="47.28442" lon="-2.48546">
        <ele>-5.4000000953674</ele>
        <time>2020-09-27T08:51:44.000Z</time>
      </trkpt>
      <trkpt lat="47.28451" lon="-2.48551">
        <ele>-5.4000000953674</ele>
        <time>2020-09-27T08:51:46.000Z</time>
      </trkpt>
      <trkpt lat="47.28461" lon="-2.48557">
        <ele>-5.4000000953674</ele>
        <time>2020-09-27T08:51:48.000Z</time>
      </trkpt>
      <trkpt lat="47.28465" lon="-2.4856">
        <ele>-5.4000000953674</ele>
        <time>2020-09-27T08:51:49.000Z</time>
      </trkpt>
      <trkpt lat="47.28473" lon="-2.48576">
        <ele>-5.4000000953674</ele>
        <time>2020-09-27T08:51:52.000Z</time>
      </trkpt>
      <trkpt lat="47.28475" lon="-2.48582">
        <ele>-5.4000000953674</ele>
        <time>2020-09-27T08:51:53.000Z</time>
      </trkpt>
      <trkpt lat="47.28481" lon="-2.4861">
        <ele>-5.4000000953674</ele>
        <time>2020-09-27T08:51:58.000Z</time>
      </trkpt>
      <trkpt lat="47.28476" lon="-2.48636">
        <ele>-5.4000000953674</ele>
        <time>2020-09-27T08:52:02.000Z</time>
      </trkpt>
      <trkpt lat="47.28471" lon="-2.4866">
        <ele>-5.4000000953674</ele>
        <time>2020-09-27T08:52:06.000Z</time>
      </trkpt>
      <trkpt lat="47.2847" lon="-2.48667">
        <ele>-5.4000000953674</ele>
        <time>2020-09-27T08:52:07.000Z</time>
      </trkpt>
      <trkpt lat="47.28478" lon="-2.48692">
        <ele>-5.4000000953674</ele>
        <time>2020-09-27T08:52:11.000Z</time>
      </trkpt>
      <trkpt lat="47.28485" lon="-2.487">
        <ele>-5</ele>
        <time>2020-09-27T08:52:13.000Z</time>
      </trkpt>
      <trkpt lat="47.28488" lon="-2.48704">
        <ele>-4.4000000953674</ele>
        <time>2020-09-27T08:52:14.000Z</time>
      </trkpt>
      <trkpt lat="47.28492" lon="-2.48708">
        <ele>-4</ele>
        <time>2020-09-27T08:52:15.000Z</time>
      </trkpt>
      <trkpt lat="47.28495" lon="-2.48712">
        <ele>-3.5999999046326</ele>
        <time>2020-09-27T08:52:16.000Z</time>
      </trkpt>
      <trkpt lat="47.28499" lon="-2.48715">
        <ele>-3.2000000476837</ele>
        <time>2020-09-27T08:52:17.000Z</time>
      </trkpt>
      <trkpt lat="47.28511" lon="-2.48732">
        <ele>-3.2000000476837</ele>
        <time>2020-09-27T08:52:21.000Z</time>
      </trkpt>
      <trkpt lat="47.28518" lon="-2.4874">
        <ele>-3.2000000476837</ele>
        <time>2020-09-27T08:52:23.000Z</time>
      </trkpt>
      <trkpt lat="47.28533" lon="-2.48762">
        <ele>-3.2000000476837</ele>
        <time>2020-09-27T08:52:28.000Z</time>
      </trkpt>
      <trkpt lat="47.28538" lon="-2.48773">
        <ele>-3.2000000476837</ele>
        <time>2020-09-27T08:52:30.000Z</time>
      </trkpt>
      <trkpt lat="47.28556" lon="-2.48808">
        <ele>-3.2000000476837</ele>
        <time>2020-09-27T08:52:37.000Z</time>
      </trkpt>
      <trkpt lat="47.28562" lon="-2.48817">
        <ele>-2.7999999523163</ele>
        <time>2020-09-27T08:52:39.000Z</time>
      </trkpt>
      <trkpt lat="47.28565" lon="-2.48821">
        <ele>-2.4000000953674</ele>
        <time>2020-09-27T08:52:40.000Z</time>
      </trkpt>
      <trkpt lat="47.28569" lon="-2.48825">
        <ele>-1.7999999523163</ele>
        <time>2020-09-27T08:52:41.000Z</time>
      </trkpt>
      <trkpt lat="47.28572" lon="-2.48829">
        <ele>-1.3999999761581</ele>
        <time>2020-09-27T08:52:42.000Z</time>
      </trkpt>
      <trkpt lat="47.28575" lon="-2.48832">
        <ele>-0.80000001192093</ele>
        <time>2020-09-27T08:52:43.000Z</time>
      </trkpt>
      <trkpt lat="47.28578" lon="-2.48837">
        <ele>-0.80000001192093</ele>
        <time>2020-09-27T08:52:44.000Z</time>
      </trkpt>
      <trkpt lat="47.2858" lon="-2.48854">
        <ele>-1.3999999761581</ele>
        <time>2020-09-27T08:52:47.000Z</time>
      </trkpt>
      <trkpt lat="47.28581" lon="-2.48861">
        <ele>-2</ele>
        <time>2020-09-27T08:52:48.000Z</time>
      </trkpt>
      <trkpt lat="47.28581" lon="-2.48867">
        <ele>-2.4000000953674</ele>
        <time>2020-09-27T08:52:49.000Z</time>
      </trkpt>
      <trkpt lat="47.28581" lon="-2.48874">
        <ele>-3</ele>
        <time>2020-09-27T08:52:50.000Z</time>
      </trkpt>
      <trkpt lat="47.2858" lon="-2.4888">
        <ele>-4</ele>
        <time>2020-09-27T08:52:51.000Z</time>
      </trkpt>
      <trkpt lat="47.2858" lon="-2.48886">
        <ele>-4.4000000953674</ele>
        <time>2020-09-27T08:52:52.000Z</time>
      </trkpt>
      <trkpt lat="47.28579" lon="-2.48893">
        <ele>-5</ele>
        <time>2020-09-27T08:52:53.000Z</time>
      </trkpt>
      <trkpt lat="47.28577" lon="-2.48899">
        <ele>-5.4000000953674</ele>
        <time>2020-09-27T08:52:54.000Z</time>
      </trkpt>
      <trkpt lat="47.2857" lon="-2.48909">
        <ele>-5.4000000953674</ele>
        <time>2020-09-27T08:52:56.000Z</time>
      </trkpt>
      <trkpt lat="47.28552" lon="-2.48916">
        <ele>-5.4000000953674</ele>
        <time>2020-09-27T08:53:00.000Z</time>
      </trkpt>
      <trkpt lat="47.28548" lon="-2.48919">
        <ele>-5.4000000953674</ele>
        <time>2020-09-27T08:53:01.000Z</time>
      </trkpt>
      <trkpt lat="47.28529" lon="-2.48927">
        <ele>-5.4000000953674</ele>
        <time>2020-09-27T08:53:05.000Z</time>
      </trkpt>
      <trkpt lat="47.28519" lon="-2.48928">
        <ele>-5.4000000953674</ele>
        <time>2020-09-27T08:53:07.000Z</time>
      </trkpt>
      <trkpt lat="47.28504" lon="-2.48927">
        <ele>-5.4000000953674</ele>
        <time>2020-09-27T08:53:10.000Z</time>
      </trkpt>
      <trkpt lat="47.28481" lon="-2.48923">
        <ele>-5.4000000953674</ele>
        <time>2020-09-27T08:53:15.000Z</time>
      </trkpt>
      <trkpt lat="47.28476" lon="-2.48924">
        <ele>-5.4000000953674</ele>
        <time>2020-09-27T08:53:16.000Z</time>
      </trkpt>
      <trkpt lat="47.28469" lon="-2.48941">
        <ele>-5.4000000953674</ele>
        <time>2020-09-27T08:53:19.000Z</time>
      </trkpt>
      <trkpt lat="47.28468" lon="-2.48946">
        <ele>-5.4000000953674</ele>
        <time>2020-09-27T08:53:20.000Z</time>
      </trkpt>
      <trkpt lat="47.28464" lon="-2.48958">
        <ele>-5.4000000953674</ele>
        <time>2020-09-27T08:53:22.000Z</time>
      </trkpt>
      <trkpt lat="47.28457" lon="-2.48963">
        <ele>-5.4000000953674</ele>
        <time>2020-09-27T08:53:24.000Z</time>
      </trkpt>
      <trkpt lat="47.28448" lon="-2.48961">
        <ele>-5.4000000953674</ele>
        <time>2020-09-27T08:53:26.000Z</time>
      </trkpt>
      <trkpt lat="47.28444" lon="-2.4896">
        <ele>-5</ele>
        <time>2020-09-27T08:53:27.000Z</time>
      </trkpt>
      <trkpt lat="47.2844" lon="-2.48961">
        <ele>-4.5999999046326</ele>
        <time>2020-09-27T08:53:28.000Z</time>
      </trkpt>
      <trkpt lat="47.28435" lon="-2.48962">
        <ele>-4.1999998092651</ele>
        <time>2020-09-27T08:53:29.000Z</time>
      </trkpt>
      <trkpt lat="47.28431" lon="-2.48963">
        <ele>-3.7999999523163</ele>
        <time>2020-09-27T08:53:30.000Z</time>
      </trkpt>
      <trkpt lat="47.28427" lon="-2.48964">
        <ele>-3.4000000953674</ele>
        <time>2020-09-27T08:53:31.000Z</time>
      </trkpt>
      <trkpt lat="47.28414" lon="-2.48971">
        <ele>-3.4000000953674</ele>
        <time>2020-09-27T08:53:34.000Z</time>
      </trkpt>
      <trkpt lat="47.28398" lon="-2.4898">
        <ele>-3.4000000953674</ele>
        <time>2020-09-27T08:53:37.000Z</time>
      </trkpt>
      <trkpt lat="47.28388" lon="-2.48989">
        <ele>-3.4000000953674</ele>
        <time>2020-09-27T08:53:39.000Z</time>
      </trkpt>
      <trkpt lat="47.28374" lon="-2.49004">
        <ele>-3.4000000953674</ele>
        <time>2020-09-27T08:53:43.000Z</time>
      </trkpt>
      <trkpt lat="47.2837" lon="-2.49007">
        <ele>-3.4000000953674</ele>
        <time>2020-09-27T08:53:44.000Z</time>
      </trkpt>
      <trkpt lat="47.28347" lon="-2.49027">
        <ele>-3.4000000953674</ele>
        <time>2020-09-27T08:53:50.000Z</time>
      </trkpt>
      <trkpt lat="47.28319" lon="-2.49052">
        <ele>-3.4000000953674</ele>
        <time>2020-09-27T08:53:58.000Z</time>
      </trkpt>
      <trkpt lat="47.28312" lon="-2.4907">
        <ele>-3.4000000953674</ele>
        <time>2020-09-27T08:54:03.000Z</time>
      </trkpt>
      <trkpt lat="47.28314" lon="-2.49096">
        <ele>-3.4000000953674</ele>
        <time>2020-09-27T08:54:09.000Z</time>
      </trkpt>
      <trkpt lat="47.28316" lon="-2.49131">
        <ele>-3.4000000953674</ele>
        <time>2020-09-27T08:54:16.000Z</time>
      </trkpt>
      <trkpt lat="47.28318" lon="-2.49156">
        <ele>-3</ele>
        <time>2020-09-27T08:54:21.000Z</time>
      </trkpt>
      <trkpt lat="47.28318" lon="-2.49161">
        <ele>-2.5999999046326</ele>
        <time>2020-09-27T08:54:22.000Z</time>
      </trkpt>
      <trkpt lat="47.28319" lon="-2.49165">
        <ele>-2.2000000476837</ele>
        <time>2020-09-27T08:54:23.000Z</time>
      </trkpt>
      <trkpt lat="47.2832" lon="-2.49168">
        <ele>-1.7999999523163</ele>
        <time>2020-09-27T08:54:24.000Z</time>
      </trkpt>
      <trkpt lat="47.28321" lon="-2.49172">
        <ele>-1.3999999761581</ele>
        <time>2020-09-27T08:54:25.000Z</time>
      </trkpt>
      <trkpt lat="47.28321" lon="-2.49193">
        <ele>-1.3999999761581</ele>
        <time>2020-09-27T08:54:30.000Z</time>
      </trkpt>
      <trkpt lat="47.28322" lon="-2.49223">
        <ele>-1.3999999761581</ele>
        <time>2020-09-27T08:54:37.000Z</time>
      </trkpt>
      <trkpt lat="47.28329" lon="-2.49252">
        <ele>-1.3999999761581</ele>
        <time>2020-09-27T08:54:43.000Z</time>
      </trkpt>
      <trkpt lat="47.28331" lon="-2.4928">
        <ele>-1.3999999761581</ele>
        <time>2020-09-27T08:54:50.000Z</time>
      </trkpt>
      <trkpt lat="47.28334" lon="-2.49308">
        <ele>-1.3999999761581</ele>
        <time>2020-09-27T08:54:57.000Z</time>
      </trkpt>
      <trkpt lat="47.28335" lon="-2.49334">
        <ele>-1.3999999761581</ele>
        <time>2020-09-27T08:55:04.000Z</time>
      </trkpt>
      <trkpt lat="47.28336" lon="-2.49358">
        <ele>-1.3999999761581</ele>
        <time>2020-09-27T08:55:11.000Z</time>
      </trkpt>
      <trkpt lat="47.28335" lon="-2.4938">
        <ele>-1.3999999761581</ele>
        <time>2020-09-27T08:55:17.000Z</time>
      </trkpt>
      <trkpt lat="47.28329" lon="-2.49411">
        <ele>-1.3999999761581</ele>
        <time>2020-09-27T08:55:24.000Z</time>
      </trkpt>
      <trkpt lat="47.28321" lon="-2.49453">
        <ele>-1.3999999761581</ele>
        <time>2020-09-27T08:55:33.000Z</time>
      </trkpt>
      <trkpt lat="47.28315" lon="-2.49495">
        <ele>-1.3999999761581</ele>
        <time>2020-09-27T08:55:42.000Z</time>
      </trkpt>
      <trkpt lat="47.28312" lon="-2.49522">
        <ele>-1.3999999761581</ele>
        <time>2020-09-27T08:55:48.000Z</time>
      </trkpt>
      <trkpt lat="47.28312" lon="-2.49532">
        <ele>-1.7999999523163</ele>
        <time>2020-09-27T08:55:50.000Z</time>
      </trkpt>
      <trkpt lat="47.28312" lon="-2.49538">
        <ele>-2.2000000476837</ele>
        <time>2020-09-27T08:55:51.000Z</time>
      </trkpt>
      <trkpt lat="47.28313" lon="-2.49543">
        <ele>-2.5999999046326</ele>
        <time>2020-09-27T08:55:52.000Z</time>
      </trkpt>
      <trkpt lat="47.28313" lon="-2.49548">
        <ele>-3</ele>
        <time>2020-09-27T08:55:53.000Z</time>
      </trkpt>
      <trkpt lat="47.28314" lon="-2.49552">
        <ele>-3.4000000953674</ele>
        <time>2020-09-27T08:55:54.000Z</time>
      </trkpt>
      <trkpt lat="47.28322" lon="-2.49579">
        <ele>-3.4000000953674</ele>
        <time>2020-09-27T08:56:01.000Z</time>
      </trkpt>
      <trkpt lat="47.28329" lon="-2.49606">
        <ele>-3.4000000953674</ele>
        <time>2020-09-27T08:56:07.000Z</time>
      </trkpt>
      <trkpt lat="47.28336" lon="-2.49633">
        <ele>-3.4000000953674</ele>
        <time>2020-09-27T08:56:14.000Z</time>
      </trkpt>
      <trkpt lat="47.28342" lon="-2.49665">
        <ele>-3.4000000953674</ele>
        <time>2020-09-27T08:56:21.000Z</time>
      </trkpt>
      <trkpt lat="47.28344" lon="-2.49698">
        <ele>-3.4000000953674</ele>
        <time>2020-09-27T08:56:27.000Z</time>
      </trkpt>
      <trkpt lat="47.28344" lon="-2.49707">
        <ele>-3.7999999523163</ele>
        <time>2020-09-27T08:56:29.000Z</time>
      </trkpt>
      <trkpt lat="47.28343" lon="-2.4971">
        <ele>-4.1999998092651</ele>
        <time>2020-09-27T08:56:30.000Z</time>
      </trkpt>
      <trkpt lat="47.28343" lon="-2.49712">
        <ele>-4.5999999046326</ele>
        <time>2020-09-27T08:56:31.000Z</time>
      </trkpt>
      <trkpt lat="47.28343" lon="-2.49715">
        <ele>-5</ele>
        <time>2020-09-27T08:56:32.000Z</time>
      </trkpt>
      <trkpt lat="47.28343" lon="-2.49717">
        <ele>-5.4000000953674</ele>
        <time>2020-09-27T08:56:33.000Z</time>
      </trkpt>
      <trkpt lat="47.28342" lon="-2.49726">
        <ele>-5.4000000953674</ele>
        <time>2020-09-27T08:56:37.000Z</time>
      </trkpt>
      <trkpt lat="47.28341" lon="-2.49728">
        <ele>-5.4000000953674</ele>
        <time>2020-09-27T08:56:38.000Z</time>
      </trkpt>
      <trkpt lat="47.28341" lon="-2.4973">
        <ele>-5.4000000953674</ele>
        <time>2020-09-27T08:56:39.000Z</time>
      </trkpt>
      <trkpt lat="47.28341" lon="-2.49737">
        <ele>-5.4000000953674</ele>
        <time>2020-09-27T08:56:42.000Z</time>
      </trkpt>
      <trkpt lat="47.28341" lon="-2.4974">
        <ele>-5.4000000953674</ele>
        <time>2020-09-27T08:56:43.000Z</time>
      </trkpt>
      <trkpt lat="47.28342" lon="-2.49754">
        <ele>-5.4000000953674</ele>
        <time>2020-09-27T08:56:49.000Z</time>
      </trkpt>
      <trkpt lat="47.28342" lon="-2.49756">
        <ele>-5.4000000953674</ele>
        <time>2020-09-27T08:56:52.000Z</time>
      </trkpt>
      <trkpt lat="47.28344" lon="-2.4978">
        <ele>-5.4000000953674</ele>
        <time>2020-09-27T08:59:42.000Z</time>
      </trkpt>
      <trkpt lat="47.28344" lon="-2.49782">
        <ele>-5.4000000953674</ele>
        <time>2020-09-27T08:59:43.000Z</time>
      </trkpt>
      <trkpt lat="47.28343" lon="-2.49797">
        <ele>-5.4000000953674</ele>
        <time>2020-09-27T08:59:47.000Z</time>
      </trkpt>
      <trkpt lat="47.28343" lon="-2.49815">
        <ele>-5</ele>
        <time>2020-09-27T08:59:51.000Z</time>
      </trkpt>
      <trkpt lat="47.28344" lon="-2.4982">
        <ele>-4.5999999046326</ele>
        <time>2020-09-27T08:59:52.000Z</time>
      </trkpt>
      <trkpt lat="47.28346" lon="-2.49825">
        <ele>-4.1999998092651</ele>
        <time>2020-09-27T08:59:53.000Z</time>
      </trkpt>
      <trkpt lat="47.28349" lon="-2.49828">
        <ele>-3.7999999523163</ele>
        <time>2020-09-27T08:59:54.000Z</time>
      </trkpt>
      <trkpt lat="47.28352" lon="-2.49829">
        <ele>-3.4000000953674</ele>
        <time>2020-09-27T08:59:55.000Z</time>
      </trkpt>
      <trkpt lat="47.28359" lon="-2.4983">
        <ele>-3.4000000953674</ele>
        <time>2020-09-27T08:59:57.000Z</time>
      </trkpt>
      <trkpt lat="47.28378" lon="-2.49836">
        <ele>-3.4000000953674</ele>
        <time>2020-09-27T09:00:04.000Z</time>
      </trkpt>
      <trkpt lat="47.28391" lon="-2.4985">
        <ele>-3.4000000953674</ele>
        <time>2020-09-27T09:00:08.000Z</time>
      </trkpt>
      <trkpt lat="47.284" lon="-2.49879">
        <ele>-3.4000000953674</ele>
        <time>2020-09-27T09:00:13.000Z</time>
      </trkpt>
      <trkpt lat="47.28413" lon="-2.49908">
        <ele>-3.4000000953674</ele>
        <time>2020-09-27T09:00:18.000Z</time>
      </trkpt>
      <trkpt lat="47.28416" lon="-2.49912">
        <ele>-3.4000000953674</ele>
        <time>2020-09-27T09:00:19.000Z</time>
      </trkpt>
      <trkpt lat="47.28434" lon="-2.49917">
        <ele>-3.4000000953674</ele>
        <time>2020-09-27T09:00:23.000Z</time>
      </trkpt>
      <trkpt lat="47.28454" lon="-2.49907">
        <ele>-3.4000000953674</ele>
        <time>2020-09-27T09:00:28.000Z</time>
      </trkpt>
      <trkpt lat="47.28458" lon="-2.49903">
        <ele>-3.4000000953674</ele>
        <time>2020-09-27T09:00:29.000Z</time>
      </trkpt>
      <trkpt lat="47.28467" lon="-2.49898">
        <ele>-3.4000000953674</ele>
        <time>2020-09-27T09:00:31.000Z</time>
      </trkpt>
      <trkpt lat="47.28475" lon="-2.49894">
        <ele>-3.4000000953674</ele>
        <time>2020-09-27T09:00:33.000Z</time>
      </trkpt>
      <trkpt lat="47.28507" lon="-2.49888">
        <ele>-3.4000000953674</ele>
        <time>2020-09-27T09:00:40.000Z</time>
      </trkpt>
      <trkpt lat="47.28516" lon="-2.49888">
        <ele>-3.4000000953674</ele>
        <time>2020-09-27T09:00:42.000Z</time>
      </trkpt>
      <trkpt lat="47.28527" lon="-2.49895">
        <ele>-3.4000000953674</ele>
        <time>2020-09-27T09:00:45.000Z</time>
      </trkpt>
      <trkpt lat="47.28532" lon="-2.49917">
        <ele>-3.4000000953674</ele>
        <time>2020-09-27T09:00:49.000Z</time>
      </trkpt>
      <trkpt lat="47.28533" lon="-2.49923">
        <ele>-3.4000000953674</ele>
        <time>2020-09-27T09:00:50.000Z</time>
      </trkpt>
      <trkpt lat="47.28535" lon="-2.4996">
        <ele>-3.4000000953674</ele>
        <time>2020-09-27T09:00:56.000Z</time>
      </trkpt>
      <trkpt lat="47.28537" lon="-2.50004">
        <ele>-3.4000000953674</ele>
        <time>2020-09-27T09:01:03.000Z</time>
      </trkpt>
      <trkpt lat="47.28541" lon="-2.50021">
        <ele>-3.4000000953674</ele>
        <time>2020-09-27T09:01:06.000Z</time>
      </trkpt>
      <trkpt lat="47.28545" lon="-2.50038">
        <ele>-3.4000000953674</ele>
        <time>2020-09-27T09:01:09.000Z</time>
      </trkpt>
      <trkpt lat="47.28549" lon="-2.50071">
        <ele>-3.4000000953674</ele>
        <time>2020-09-27T09:01:15.000Z</time>
      </trkpt>
      <trkpt lat="47.2855" lon="-2.50078">
        <ele>-3.4000000953674</ele>
        <time>2020-09-27T09:01:16.000Z</time>
      </trkpt>
      <trkpt lat="47.28552" lon="-2.50091">
        <ele>-3.7999999523163</ele>
        <time>2020-09-27T09:01:18.000Z</time>
      </trkpt>
      <trkpt lat="47.28553" lon="-2.50097">
        <ele>-4.1999998092651</ele>
        <time>2020-09-27T09:01:19.000Z</time>
      </trkpt>
      <trkpt lat="47.28554" lon="-2.50103">
        <ele>-4.5999999046326</ele>
        <time>2020-09-27T09:01:20.000Z</time>
      </trkpt>
      <trkpt lat="47.28554" lon="-2.50108">
        <ele>-5</ele>
        <time>2020-09-27T09:01:21.000Z</time>
      </trkpt>
      <trkpt lat="47.28555" lon="-2.50113">
        <ele>-5.4000000953674</ele>
        <time>2020-09-27T09:01:22.000Z</time>
      </trkpt>
      <trkpt lat="47.28556" lon="-2.50138">
        <ele>-5.4000000953674</ele>
        <time>2020-09-27T09:01:27.000Z</time>
      </trkpt>
      <trkpt lat="47.28556" lon="-2.50155">
        <ele>-5.4000000953674</ele>
        <time>2020-09-27T09:01:31.000Z</time>
      </trkpt>
      <trkpt lat="47.28555" lon="-2.50158">
        <ele>-5.4000000953674</ele>
        <time>2020-09-27T09:01:32.000Z</time>
      </trkpt>
      <trkpt lat="47.28544" lon="-2.50165">
        <ele>-5.4000000953674</ele>
        <time>2020-09-27T09:01:36.000Z</time>
      </trkpt>
      <trkpt lat="47.28541" lon="-2.50165">
        <ele>-5.4000000953674</ele>
        <time>2020-09-27T09:01:37.000Z</time>
      </trkpt>
      <trkpt lat="47.2852" lon="-2.50171">
        <ele>-5.4000000953674</ele>
        <time>2020-09-27T09:01:43.000Z</time>
      </trkpt>
      <trkpt lat="47.28519" lon="-2.50169">
        <ele>-5.4000000953674</ele>
        <time>2020-09-27T09:01:44.000Z</time>
      </trkpt>
      <trkpt lat="47.28515" lon="-2.50164">
        <ele>-5.4000000953674</ele>
        <time>2020-09-27T09:01:46.000Z</time>
      </trkpt>
      <trkpt lat="47.28508" lon="-2.50159">
        <ele>-5.4000000953674</ele>
        <time>2020-09-27T09:01:49.000Z</time>
      </trkpt>
      <trkpt lat="47.28505" lon="-2.50159">
        <ele>-5.4000000953674</ele>
        <time>2020-09-27T09:01:50.000Z</time>
      </trkpt>
      <trkpt lat="47.285" lon="-2.50164">
        <ele>-5.4000000953674</ele>
        <time>2020-09-27T09:01:53.000Z</time>
      </trkpt>
      <trkpt lat="47.285" lon="-2.50168">
        <ele>-5.4000000953674</ele>
        <time>2020-09-27T09:01:54.000Z</time>
      </trkpt>
      <trkpt lat="47.28499" lon="-2.50192">
        <ele>-5.4000000953674</ele>
        <time>2020-09-27T09:01:59.000Z</time>
      </trkpt>
      <trkpt lat="47.28497" lon="-2.50223">
        <ele>-5.4000000953674</ele>
        <time>2020-09-27T09:02:05.000Z</time>
      </trkpt>
      <trkpt lat="47.2849" lon="-2.50236">
        <ele>-5.4000000953674</ele>
        <time>2020-09-27T09:02:09.000Z</time>
      </trkpt>
      <trkpt lat="47.28485" lon="-2.50247">
        <ele>-5.4000000953674</ele>
        <time>2020-09-27T09:02:13.000Z</time>
      </trkpt>
      <trkpt lat="47.28485" lon="-2.50251">
        <ele>-5.4000000953674</ele>
        <time>2020-09-27T09:02:14.000Z</time>
      </trkpt>
      <trkpt lat="47.28491" lon="-2.50263">
        <ele>-5.4000000953674</ele>
        <time>2020-09-27T09:02:18.000Z</time>
      </trkpt>
      <trkpt lat="47.28502" lon="-2.50276">
        <ele>-5.4000000953674</ele>
        <time>2020-09-27T09:02:23.000Z</time>
      </trkpt>
      <trkpt lat="47.28524" lon="-2.50285">
        <ele>-5</ele>
        <time>2020-09-27T09:02:28.000Z</time>
      </trkpt>
      <trkpt lat="47.28527" lon="-2.50289">
        <ele>-4.5999999046326</ele>
        <time>2020-09-27T09:02:29.000Z</time>
      </trkpt>
      <trkpt lat="47.28531" lon="-2.50292">
        <ele>-4.1999998092651</ele>
        <time>2020-09-27T09:02:30.000Z</time>
      </trkpt>
      <trkpt lat="47.28536" lon="-2.50293">
        <ele>-3.7999999523163</ele>
        <time>2020-09-27T09:02:31.000Z</time>
      </trkpt>
      <trkpt lat="47.2854" lon="-2.50296">
        <ele>-3.4000000953674</ele>
        <time>2020-09-27T09:02:32.000Z</time>
      </trkpt>
      <trkpt lat="47.28551" lon="-2.50305">
        <ele>-3.4000000953674</ele>
        <time>2020-09-27T09:02:35.000Z</time>
      </trkpt>
      <trkpt lat="47.28558" lon="-2.50311">
        <ele>-3.4000000953674</ele>
        <time>2020-09-27T09:02:37.000Z</time>
      </trkpt>
      <trkpt lat="47.28562" lon="-2.50314">
        <ele>-3.4000000953674</ele>
        <time>2020-09-27T09:02:38.000Z</time>
      </trkpt>
      <trkpt lat="47.28584" lon="-2.50326">
        <ele>-3.4000000953674</ele>
        <time>2020-09-27T09:02:44.000Z</time>
      </trkpt>
      <trkpt lat="47.28608" lon="-2.50328">
        <ele>-3.4000000953674</ele>
        <time>2020-09-27T09:02:50.000Z</time>
      </trkpt>
      <trkpt lat="47.28624" lon="-2.50337">
        <ele>-3.4000000953674</ele>
        <time>2020-09-27T09:02:55.000Z</time>
      </trkpt>
      <trkpt lat="47.28649" lon="-2.50354">
        <ele>-3.4000000953674</ele>
        <time>2020-09-27T09:03:02.000Z</time>
      </trkpt>
      <trkpt lat="47.28653" lon="-2.50357">
        <ele>-3.4000000953674</ele>
        <time>2020-09-27T09:03:03.000Z</time>
      </trkpt>
      <trkpt lat="47.28673" lon="-2.50374">
        <ele>-3.4000000953674</ele>
        <time>2020-09-27T09:03:08.000Z</time>
      </trkpt>
      <trkpt lat="47.28698" lon="-2.50396">
        <ele>-3.4000000953674</ele>
        <time>2020-09-27T09:03:15.000Z</time>
      </trkpt>
      <trkpt lat="47.2871" lon="-2.50408">
        <ele>-3.4000000953674</ele>
        <time>2020-09-27T09:03:18.000Z</time>
      </trkpt>
      <trkpt lat="47.2872" lon="-2.50419">
        <ele>-3.4000000953674</ele>
        <time>2020-09-27T09:03:21.000Z</time>
      </trkpt>
      <trkpt lat="47.28745" lon="-2.50445">
        <ele>-3.4000000953674</ele>
        <time>2020-09-27T09:03:28.000Z</time>
      </trkpt>
      <trkpt lat="47.28773" lon="-2.5047">
        <ele>-3.4000000953674</ele>
        <time>2020-09-27T09:03:35.000Z</time>
      </trkpt>
      <trkpt lat="47.28807" lon="-2.50494">
        <ele>-3.4000000953674</ele>
        <time>2020-09-27T09:03:43.000Z</time>
      </trkpt>
      <trkpt lat="47.28831" lon="-2.50513">
        <ele>-3.4000000953674</ele>
        <time>2020-09-27T09:03:49.000Z</time>
      </trkpt>
      <trkpt lat="47.28865" lon="-2.50535">
        <ele>-3.4000000953674</ele>
        <time>2020-09-27T09:03:57.000Z</time>
      </trkpt>
      <trkpt lat="47.28896" lon="-2.50557">
        <ele>-3.4000000953674</ele>
        <time>2020-09-27T09:04:05.000Z</time>
      </trkpt>
      <trkpt lat="47.28908" lon="-2.50566">
        <ele>-3</ele>
        <time>2020-09-27T09:04:08.000Z</time>
      </trkpt>
      <trkpt lat="47.28913" lon="-2.50568">
        <ele>-2.5999999046326</ele>
        <time>2020-09-27T09:04:09.000Z</time>
      </trkpt>
      <trkpt lat="47.28917" lon="-2.50571">
        <ele>-2.2000000476837</ele>
        <time>2020-09-27T09:04:10.000Z</time>
      </trkpt>
      <trkpt lat="47.28921" lon="-2.50574">
        <ele>-1.7999999523163</ele>
        <time>2020-09-27T09:04:11.000Z</time>
      </trkpt>
      <trkpt lat="47.28925" lon="-2.50577">
        <ele>-1.3999999761581</ele>
        <time>2020-09-27T09:04:12.000Z</time>
      </trkpt>
      <trkpt lat="47.28929" lon="-2.50579">
        <ele>-1.3999999761581</ele>
        <time>2020-09-27T09:04:13.000Z</time>
      </trkpt>
      <trkpt lat="47.28957" lon="-2.506">
        <ele>-1.7999999523163</ele>
        <time>2020-09-27T09:04:20.000Z</time>
      </trkpt>
      <trkpt lat="47.28962" lon="-2.50603">
        <ele>-2.2000000476837</ele>
        <time>2020-09-27T09:04:21.000Z</time>
      </trkpt>
      <trkpt lat="47.28966" lon="-2.50606">
        <ele>-2.5999999046326</ele>
        <time>2020-09-27T09:04:22.000Z</time>
      </trkpt>
      <trkpt lat="47.2897" lon="-2.50609">
        <ele>-3.4000000953674</ele>
        <time>2020-09-27T09:04:23.000Z</time>
      </trkpt>
      <trkpt lat="47.28989" lon="-2.50622">
        <ele>-3.4000000953674</ele>
        <time>2020-09-27T09:04:28.000Z</time>
      </trkpt>
      <trkpt lat="47.29005" lon="-2.50633">
        <ele>-3.4000000953674</ele>
        <time>2020-09-27T09:04:32.000Z</time>
      </trkpt>
      <trkpt lat="47.29013" lon="-2.50638">
        <ele>-3.4000000953674</ele>
        <time>2020-09-27T09:04:34.000Z</time>
      </trkpt>
      <trkpt lat="47.29042" lon="-2.50657">
        <ele>-3.4000000953674</ele>
        <time>2020-09-27T09:04:42.000Z</time>
      </trkpt>
      <trkpt lat="47.29054" lon="-2.50667">
        <ele>-3.4000000953674</ele>
        <time>2020-09-27T09:04:46.000Z</time>
      </trkpt>
      <trkpt lat="47.29051" lon="-2.50685">
        <ele>-3.4000000953674</ele>
        <time>2020-09-27T09:04:49.000Z</time>
      </trkpt>
      <trkpt lat="47.29042" lon="-2.50708">
        <ele>-3.4000000953674</ele>
        <time>2020-09-27T09:04:53.000Z</time>
      </trkpt>
      <trkpt lat="47.29038" lon="-2.5072">
        <ele>-3.4000000953674</ele>
        <time>2020-09-27T09:04:55.000Z</time>
      </trkpt>
      <trkpt lat="47.29033" lon="-2.50751">
        <ele>-3.4000000953674</ele>
        <time>2020-09-27T09:05:00.000Z</time>
      </trkpt>
      <trkpt lat="47.29034" lon="-2.50765">
        <ele>-3.4000000953674</ele>
        <time>2020-09-27T09:05:02.000Z</time>
      </trkpt>
      <trkpt lat="47.2904" lon="-2.50778">
        <ele>-3.4000000953674</ele>
        <time>2020-09-27T09:05:04.000Z</time>
      </trkpt>
      <trkpt lat="47.29054" lon="-2.50787">
        <ele>-3.4000000953674</ele>
        <time>2020-09-27T09:05:07.000Z</time>
      </trkpt>
      <trkpt lat="47.29058" lon="-2.50789">
        <ele>-3.4000000953674</ele>
        <time>2020-09-27T09:05:08.000Z</time>
      </trkpt>
      <trkpt lat="47.29087" lon="-2.50803">
        <ele>-3.4000000953674</ele>
        <time>2020-09-27T09:05:14.000Z</time>
      </trkpt>
      <trkpt lat="47.29114" lon="-2.50808">
        <ele>-3.4000000953674</ele>
        <time>2020-09-27T09:05:19.000Z</time>
      </trkpt>
      <trkpt lat="47.2913" lon="-2.50814">
        <ele>-3.4000000953674</ele>
        <time>2020-09-27T09:05:22.000Z</time>
      </trkpt>
      <trkpt lat="47.29145" lon="-2.50821">
        <ele>-3.4000000953674</ele>
        <time>2020-09-27T09:05:25.000Z</time>
      </trkpt>
      <trkpt lat="47.29155" lon="-2.50827">
        <ele>-3.4000000953674</ele>
        <time>2020-09-27T09:05:27.000Z</time>
      </trkpt>
      <trkpt lat="47.29169" lon="-2.50834">
        <ele>-3.4000000953674</ele>
        <time>2020-09-27T09:05:30.000Z</time>
      </trkpt>
      <trkpt lat="47.29174" lon="-2.50836">
        <ele>-3</ele>
        <time>2020-09-27T09:05:31.000Z</time>
      </trkpt>
      <trkpt lat="47.29179" lon="-2.50838">
        <ele>-2.5999999046326</ele>
        <time>2020-09-27T09:05:32.000Z</time>
      </trkpt>
      <trkpt lat="47.29183" lon="-2.5084">
        <ele>-2</ele>
        <time>2020-09-27T09:05:33.000Z</time>
      </trkpt>
      <trkpt lat="47.29188" lon="-2.50843">
        <ele>-1.6000000238419</ele>
        <time>2020-09-27T09:05:34.000Z</time>
      </trkpt>
      <trkpt lat="47.29192" lon="-2.50844">
        <ele>-1.2000000476837</ele>
        <time>2020-09-27T09:05:35.000Z</time>
      </trkpt>
      <trkpt lat="47.29201" lon="-2.50849">
        <ele>-1.6000000238419</ele>
        <time>2020-09-27T09:05:37.000Z</time>
      </trkpt>
      <trkpt lat="47.29205" lon="-2.50851">
        <ele>-2</ele>
        <time>2020-09-27T09:05:38.000Z</time>
      </trkpt>
      <trkpt lat="47.29209" lon="-2.50852">
        <ele>-2.4000000953674</ele>
        <time>2020-09-27T09:05:39.000Z</time>
      </trkpt>
      <trkpt lat="47.29214" lon="-2.50854">
        <ele>-2.7999999523163</ele>
        <time>2020-09-27T09:05:40.000Z</time>
      </trkpt>
      <trkpt lat="47.29218" lon="-2.50854">
        <ele>-3.2000000476837</ele>
        <time>2020-09-27T09:05:41.000Z</time>
      </trkpt>
      <trkpt lat="47.29235" lon="-2.50859">
        <ele>-3.2000000476837</ele>
        <time>2020-09-27T09:05:45.000Z</time>
      </trkpt>
      <trkpt lat="47.29252" lon="-2.50868">
        <ele>-3.2000000476837</ele>
        <time>2020-09-27T09:05:49.000Z</time>
      </trkpt>
      <trkpt lat="47.2926" lon="-2.50875">
        <ele>-3.2000000476837</ele>
        <time>2020-09-27T09:05:51.000Z</time>
      </trkpt>
      <trkpt lat="47.29275" lon="-2.5089">
        <ele>-3.2000000476837</ele>
        <time>2020-09-27T09:05:55.000Z</time>
      </trkpt>
      <trkpt lat="47.29281" lon="-2.50898">
        <ele>-3.2000000476837</ele>
        <time>2020-09-27T09:05:57.000Z</time>
      </trkpt>
      <trkpt lat="47.29289" lon="-2.50902">
        <ele>-3.2000000476837</ele>
        <time>2020-09-27T09:05:59.000Z</time>
      </trkpt>
      <trkpt lat="47.29298" lon="-2.50903">
        <ele>-3.2000000476837</ele>
        <time>2020-09-27T09:06:01.000Z</time>
      </trkpt>
      <trkpt lat="47.29318" lon="-2.50909">
        <ele>-3.2000000476837</ele>
        <time>2020-09-27T09:06:05.000Z</time>
      </trkpt>
      <trkpt lat="47.29322" lon="-2.50911">
        <ele>-3.2000000476837</ele>
        <time>2020-09-27T09:06:06.000Z</time>
      </trkpt>
      <trkpt lat="47.29348" lon="-2.50929">
        <ele>-3.2000000476837</ele>
        <time>2020-09-27T09:06:12.000Z</time>
      </trkpt>
      <trkpt lat="47.2936" lon="-2.50934">
        <ele>-3.2000000476837</ele>
        <time>2020-09-27T09:06:15.000Z</time>
      </trkpt>
      <trkpt lat="47.29368" lon="-2.50936">
        <ele>-3.2000000476837</ele>
        <time>2020-09-27T09:06:17.000Z</time>
      </trkpt>
      <trkpt lat="47.29372" lon="-2.50938">
        <ele>-3.2000000476837</ele>
        <time>2020-09-27T09:06:18.000Z</time>
      </trkpt>
      <trkpt lat="47.29384" lon="-2.50956">
        <ele>-3.2000000476837</ele>
        <time>2020-09-27T09:06:22.000Z</time>
      </trkpt>
      <trkpt lat="47.29392" lon="-2.50989">
        <ele>-3.2000000476837</ele>
        <time>2020-09-27T09:06:27.000Z</time>
      </trkpt>
      <trkpt lat="47.29402" lon="-2.51019">
        <ele>-3.2000000476837</ele>
        <time>2020-09-27T09:06:32.000Z</time>
      </trkpt>
      <trkpt lat="47.29409" lon="-2.51028">
        <ele>-3.2000000476837</ele>
        <time>2020-09-27T09:06:34.000Z</time>
      </trkpt>
      <trkpt lat="47.29425" lon="-2.5105">
        <ele>-3.2000000476837</ele>
        <time>2020-09-27T09:06:39.000Z</time>
      </trkpt>
      <trkpt lat="47.29448" lon="-2.51081">
        <ele>-3.2000000476837</ele>
        <time>2020-09-27T09:06:46.000Z</time>
      </trkpt>
      <trkpt lat="47.29469" lon="-2.5111">
        <ele>-3.2000000476837</ele>
        <time>2020-09-27T09:06:53.000Z</time>
      </trkpt>
      <trkpt lat="47.29481" lon="-2.51122">
        <ele>-3.2000000476837</ele>
        <time>2020-09-27T09:06:58.000Z</time>
      </trkpt>
      <trkpt lat="47.29488" lon="-2.5111">
        <ele>-3.2000000476837</ele>
        <time>2020-09-27T09:07:02.000Z</time>
      </trkpt>
      <trkpt lat="47.29498" lon="-2.51085">
        <ele>-3.2000000476837</ele>
        <time>2020-09-27T09:07:11.000Z</time>
      </trkpt>
      <trkpt lat="47.295" lon="-2.51082">
        <ele>-3.2000000476837</ele>
        <time>2020-09-27T09:07:15.000Z</time>
      </trkpt>
      <trkpt lat="47.29497" lon="-2.51082">
        <ele>-3.2000000476837</ele>
        <time>2020-09-27T09:24:34.000Z</time>
      </trkpt>
      <trkpt lat="47.2949" lon="-2.511">
        <ele>-3.2000000476837</ele>
        <time>2020-09-27T09:24:40.000Z</time>
      </trkpt>
      <trkpt lat="47.29485" lon="-2.51116">
        <ele>-3.2000000476837</ele>
        <time>2020-09-27T09:24:45.000Z</time>
      </trkpt>
      <trkpt lat="47.29485" lon="-2.51118">
        <ele>-3.2000000476837</ele>
        <time>2020-09-27T09:24:46.000Z</time>
      </trkpt>
      <trkpt lat="47.29488" lon="-2.51126">
        <ele>-2.7999999523163</ele>
        <time>2020-09-27T09:24:49.000Z</time>
      </trkpt>
      <trkpt lat="47.29489" lon="-2.51129">
        <ele>-2.4000000953674</ele>
        <time>2020-09-27T09:24:50.000Z</time>
      </trkpt>
      <trkpt lat="47.29489" lon="-2.51133">
        <ele>-2</ele>
        <time>2020-09-27T09:24:51.000Z</time>
      </trkpt>
      <trkpt lat="47.29491" lon="-2.51136">
        <ele>-1.6000000238419</ele>
        <time>2020-09-27T09:24:52.000Z</time>
      </trkpt>
      <trkpt lat="47.29493" lon="-2.51138">
        <ele>-1.2000000476837</ele>
        <time>2020-09-27T09:24:53.000Z</time>
      </trkpt>
      <trkpt lat="47.29497" lon="-2.51146">
        <ele>-1.2000000476837</ele>
        <time>2020-09-27T09:24:55.000Z</time>
      </trkpt>
      <trkpt lat="47.29501" lon="-2.51157">
        <ele>-1.2000000476837</ele>
        <time>2020-09-27T09:24:57.000Z</time>
      </trkpt>
      <trkpt lat="47.29505" lon="-2.51169">
        <ele>-1.2000000476837</ele>
        <time>2020-09-27T09:24:59.000Z</time>
      </trkpt>
      <trkpt lat="47.29517" lon="-2.51208">
        <ele>-1.2000000476837</ele>
        <time>2020-09-27T09:25:06.000Z</time>
      </trkpt>
      <trkpt lat="47.29526" lon="-2.51237">
        <ele>-1.2000000476837</ele>
        <time>2020-09-27T09:25:12.000Z</time>
      </trkpt>
      <trkpt lat="47.29526" lon="-2.51249">
        <ele>-1.2000000476837</ele>
        <time>2020-09-27T09:25:15.000Z</time>
      </trkpt>
      <trkpt lat="47.29525" lon="-2.5125">
        <ele>-1.2000000476837</ele>
        <time>2020-09-27T09:25:16.000Z</time>
      </trkpt>
      <trkpt lat="47.29519" lon="-2.51253">
        <ele>-1.2000000476837</ele>
        <time>2020-09-27T09:25:21.000Z</time>
      </trkpt>
      <trkpt lat="47.29517" lon="-2.51254">
        <ele>-1.6000000238419</ele>
        <time>2020-09-27T09:25:23.000Z</time>
      </trkpt>
      <trkpt lat="47.29515" lon="-2.51254">
        <ele>-2</ele>
        <time>2020-09-27T09:25:24.000Z</time>
      </trkpt>
      <trkpt lat="47.29514" lon="-2.51255">
        <ele>-2.4000000953674</ele>
        <time>2020-09-27T09:25:25.000Z</time>
      </trkpt>
      <trkpt lat="47.29513" lon="-2.51254">
        <ele>-2.7999999523163</ele>
        <time>2020-09-27T09:25:26.000Z</time>
      </trkpt>
      <trkpt lat="47.29508" lon="-2.51249">
        <ele>-3.2000000476837</ele>
        <time>2020-09-27T09:25:47.000Z</time>
      </trkpt>
      <trkpt lat="47.29504" lon="-2.5124">
        <ele>-3.2000000476837</ele>
        <time>2020-09-27T09:25:50.000Z</time>
      </trkpt>
      <trkpt lat="47.29492" lon="-2.51211">
        <ele>-3.2000000476837</ele>
        <time>2020-09-27T09:25:56.000Z</time>
      </trkpt>
      <trkpt lat="47.29475" lon="-2.51186">
        <ele>-3.2000000476837</ele>
        <time>2020-09-27T09:26:03.000Z</time>
      </trkpt>
      <trkpt lat="47.29462" lon="-2.51169">
        <ele>-3.2000000476837</ele>
        <time>2020-09-27T09:26:09.000Z</time>
      </trkpt>
      <trkpt lat="47.29442" lon="-2.51149">
        <ele>-3.2000000476837</ele>
        <time>2020-09-27T09:26:17.000Z</time>
      </trkpt>
      <trkpt lat="47.29424" lon="-2.51131">
        <ele>-3.2000000476837</ele>
        <time>2020-09-27T09:26:24.000Z</time>
      </trkpt>
      <trkpt lat="47.29405" lon="-2.51111">
        <ele>-3.2000000476837</ele>
        <time>2020-09-27T09:26:32.000Z</time>
      </trkpt>
      <trkpt lat="47.29394" lon="-2.51101">
        <ele>-3.2000000476837</ele>
        <time>2020-09-27T09:26:37.000Z</time>
      </trkpt>
      <trkpt lat="47.2938" lon="-2.51087">
        <ele>-3.2000000476837</ele>
        <time>2020-09-27T09:26:42.000Z</time>
      </trkpt>
      <trkpt lat="47.29376" lon="-2.51076">
        <ele>-3.2000000476837</ele>
        <time>2020-09-27T09:26:44.000Z</time>
      </trkpt>
      <trkpt lat="47.29369" lon="-2.51062">
        <ele>-3.2000000476837</ele>
        <time>2020-09-27T09:26:47.000Z</time>
      </trkpt>
      <trkpt lat="47.29352" lon="-2.51025">
        <ele>-3.2000000476837</ele>
        <time>2020-09-27T09:26:55.000Z</time>
      </trkpt>
      <trkpt lat="47.29334" lon="-2.50996">
        <ele>-3.2000000476837</ele>
        <time>2020-09-27T09:27:02.000Z</time>
      </trkpt>
      <trkpt lat="47.29326" lon="-2.50984">
        <ele>-2.7999999523163</ele>
        <time>2020-09-27T09:27:05.000Z</time>
      </trkpt>
      <trkpt lat="47.29323" lon="-2.50979">
        <ele>-2.4000000953674</ele>
        <time>2020-09-27T09:27:06.000Z</time>
      </trkpt>
      <trkpt lat="47.2932" lon="-2.50974">
        <ele>-2</ele>
        <time>2020-09-27T09:27:07.000Z</time>
      </trkpt>
      <trkpt lat="47.29317" lon="-2.5097">
        <ele>-1.6000000238419</ele>
        <time>2020-09-27T09:27:08.000Z</time>
      </trkpt>
      <trkpt lat="47.29314" lon="-2.50965">
        <ele>-1.2000000476837</ele>
        <time>2020-09-27T09:27:09.000Z</time>
      </trkpt>
      <trkpt lat="47.29292" lon="-2.50931">
        <ele>-1.2000000476837</ele>
        <time>2020-09-27T09:27:16.000Z</time>
      </trkpt>
      <trkpt lat="47.29277" lon="-2.50903">
        <ele>-1.2000000476837</ele>
        <time>2020-09-27T09:27:22.000Z</time>
      </trkpt>
      <trkpt lat="47.2927" lon="-2.50887">
        <ele>-1.2000000476837</ele>
        <time>2020-09-27T09:27:25.000Z</time>
      </trkpt>
      <trkpt lat="47.29263" lon="-2.50878">
        <ele>-1.2000000476837</ele>
        <time>2020-09-27T09:27:27.000Z</time>
      </trkpt>
      <trkpt lat="47.29254" lon="-2.50873">
        <ele>-1.2000000476837</ele>
        <time>2020-09-27T09:27:29.000Z</time>
      </trkpt>
      <trkpt lat="47.29243" lon="-2.50869">
        <ele>-1.2000000476837</ele>
        <time>2020-09-27T09:27:31.000Z</time>
      </trkpt>
      <trkpt lat="47.29238" lon="-2.50869">
        <ele>-1.2000000476837</ele>
        <time>2020-09-27T09:27:32.000Z</time>
      </trkpt>
      <trkpt lat="47.29227" lon="-2.50862">
        <ele>-1.2000000476837</ele>
        <time>2020-09-27T09:27:35.000Z</time>
      </trkpt>
      <trkpt lat="47.29224" lon="-2.50859">
        <ele>-1.2000000476837</ele>
        <time>2020-09-27T09:27:36.000Z</time>
      </trkpt>
      <trkpt lat="47.29215" lon="-2.50858">
        <ele>-1.2000000476837</ele>
        <time>2020-09-27T09:27:38.000Z</time>
      </trkpt>
      <trkpt lat="47.29211" lon="-2.50858">
        <ele>-1.2000000476837</ele>
        <time>2020-09-27T09:27:39.000Z</time>
      </trkpt>
      <trkpt lat="47.2918" lon="-2.50867">
        <ele>-1.2000000476837</ele>
        <time>2020-09-27T09:27:45.000Z</time>
      </trkpt>
      <trkpt lat="47.29169" lon="-2.50868">
        <ele>-1.2000000476837</ele>
        <time>2020-09-27T09:27:47.000Z</time>
      </trkpt>
      <trkpt lat="47.29158" lon="-2.50864">
        <ele>-1.2000000476837</ele>
        <time>2020-09-27T09:27:49.000Z</time>
      </trkpt>
      <trkpt lat="47.29124" lon="-2.50845">
        <ele>-1.2000000476837</ele>
        <time>2020-09-27T09:27:55.000Z</time>
      </trkpt>
      <trkpt lat="47.29078" lon="-2.50819">
        <ele>-1.2000000476837</ele>
        <time>2020-09-27T09:28:03.000Z</time>
      </trkpt>
      <trkpt lat="47.29033" lon="-2.50793">
        <ele>-1.2000000476837</ele>
        <time>2020-09-27T09:28:11.000Z</time>
      </trkpt>
      <trkpt lat="47.29004" lon="-2.50776">
        <ele>-1.2000000476837</ele>
        <time>2020-09-27T09:28:17.000Z</time>
      </trkpt>
      <trkpt lat="47.28995" lon="-2.5077">
        <ele>-1.2000000476837</ele>
        <time>2020-09-27T09:28:19.000Z</time>
      </trkpt>
      <trkpt lat="47.28985" lon="-2.50767">
        <ele>-1.2000000476837</ele>
        <time>2020-09-27T09:28:21.000Z</time>
      </trkpt>
      <trkpt lat="47.28975" lon="-2.50763">
        <ele>-1.2000000476837</ele>
        <time>2020-09-27T09:28:23.000Z</time>
      </trkpt>
      <trkpt lat="47.28935" lon="-2.50743">
        <ele>-1.2000000476837</ele>
        <time>2020-09-27T09:28:31.000Z</time>
      </trkpt>
      <trkpt lat="47.28914" lon="-2.50721">
        <ele>-1.2000000476837</ele>
        <time>2020-09-27T09:28:36.000Z</time>
      </trkpt>
      <trkpt lat="47.28895" lon="-2.50689">
        <ele>-1.2000000476837</ele>
        <time>2020-09-27T09:28:42.000Z</time>
      </trkpt>
      <trkpt lat="47.28879" lon="-2.5066">
        <ele>-1.6000000238419</ele>
        <time>2020-09-27T09:28:47.000Z</time>
      </trkpt>
      <trkpt lat="47.28876" lon="-2.50654">
        <ele>-2</ele>
        <time>2020-09-27T09:28:48.000Z</time>
      </trkpt>
      <trkpt lat="47.28872" lon="-2.50649">
        <ele>-2.4000000953674</ele>
        <time>2020-09-27T09:28:49.000Z</time>
      </trkpt>
      <trkpt lat="47.28869" lon="-2.50644">
        <ele>-2.7999999523163</ele>
        <time>2020-09-27T09:28:50.000Z</time>
      </trkpt>
      <trkpt lat="47.28864" lon="-2.5064">
        <ele>-3.2000000476837</ele>
        <time>2020-09-27T09:28:51.000Z</time>
      </trkpt>
      <trkpt lat="47.28848" lon="-2.50631">
        <ele>-2.7999999523163</ele>
        <time>2020-09-27T09:28:54.000Z</time>
      </trkpt>
      <trkpt lat="47.28843" lon="-2.50628">
        <ele>-2.4000000953674</ele>
        <time>2020-09-27T09:28:55.000Z</time>
      </trkpt>
      <trkpt lat="47.28837" lon="-2.50625">
        <ele>-2</ele>
        <time>2020-09-27T09:28:56.000Z</time>
      </trkpt>
      <trkpt lat="47.28832" lon="-2.50622">
        <ele>-1.6000000238419</ele>
        <time>2020-09-27T09:28:57.000Z</time>
      </trkpt>
      <trkpt lat="47.28826" lon="-2.5062">
        <ele>-1.2000000476837</ele>
        <time>2020-09-27T09:28:58.000Z</time>
      </trkpt>
      <trkpt lat="47.28811" lon="-2.50612">
        <ele>-1.2000000476837</ele>
        <time>2020-09-27T09:29:01.000Z</time>
      </trkpt>
      <trkpt lat="47.28772" lon="-2.50594">
        <ele>-1.2000000476837</ele>
        <time>2020-09-27T09:29:09.000Z</time>
      </trkpt>
      <trkpt lat="47.28753" lon="-2.50585">
        <ele>-1.2000000476837</ele>
        <time>2020-09-27T09:29:13.000Z</time>
      </trkpt>
      <trkpt lat="47.28739" lon="-2.50576">
        <ele>-1.2000000476837</ele>
        <time>2020-09-27T09:29:16.000Z</time>
      </trkpt>
      <trkpt lat="47.287" lon="-2.50552">
        <ele>-1.2000000476837</ele>
        <time>2020-09-27T09:29:24.000Z</time>
      </trkpt>
      <trkpt lat="47.28652" lon="-2.5052">
        <ele>-1.2000000476837</ele>
        <time>2020-09-27T09:29:34.000Z</time>
      </trkpt>
      <trkpt lat="47.28612" lon="-2.50495">
        <ele>-1.2000000476837</ele>
        <time>2020-09-27T09:29:42.000Z</time>
      </trkpt>
      <trkpt lat="47.28575" lon="-2.5047">
        <ele>-1.2000000476837</ele>
        <time>2020-09-27T09:29:49.000Z</time>
      </trkpt>
      <trkpt lat="47.28535" lon="-2.50443">
        <ele>-1.2000000476837</ele>
        <time>2020-09-27T09:29:57.000Z</time>
      </trkpt>
      <trkpt lat="47.28489" lon="-2.50413">
        <ele>-0.80000001192093</ele>
        <time>2020-09-27T09:30:06.000Z</time>
      </trkpt>
      <trkpt lat="47.28483" lon="-2.50409">
        <ele>-0.40000000596046</ele>
        <time>2020-09-27T09:30:07.000Z</time>
      </trkpt>
      <trkpt lat="47.28478" lon="-2.50406">
        <ele>5.2</ele>
        <time>2020-09-27T09:30:08.000Z</time>
      </trkpt>
      <trkpt lat="47.28472" lon="-2.50403">
        <ele>0.40000000596046</ele>
        <time>2020-09-27T09:30:09.000Z</time>
      </trkpt>
      <trkpt lat="47.28466" lon="-2.50399">
        <ele>0.80000001192093</ele>
        <time>2020-09-27T09:30:10.000Z</time>
      </trkpt>
      <trkpt lat="47.28449" lon="-2.50388">
        <ele>0.80000001192093</ele>
        <time>2020-09-27T09:30:13.000Z</time>
      </trkpt>
      <trkpt lat="47.28419" lon="-2.50369">
        <ele>0.40000000596046</ele>
        <time>2020-09-27T09:30:18.000Z</time>
      </trkpt>
      <trkpt lat="47.28413" lon="-2.50366">
        <ele>4</ele>
        <time>2020-09-27T09:30:19.000Z</time>
      </trkpt>
      <trkpt lat="47.28407" lon="-2.50362">
        <ele>-0.40000000596046</ele>
        <time>2020-09-27T09:30:20.000Z</time>
      </trkpt>
      <trkpt lat="47.28402" lon="-2.50358">
        <ele>-1.2000000476837</ele>
        <time>2020-09-27T09:30:21.000Z</time>
      </trkpt>
      <trkpt lat="47.28391" lon="-2.50351">
        <ele>-1.2000000476837</ele>
        <time>2020-09-27T09:30:23.000Z</time>
      </trkpt>
      <trkpt lat="47.28379" lon="-2.50344">
        <ele>-1.2000000476837</ele>
        <time>2020-09-27T09:30:25.000Z</time>
      </trkpt>
      <trkpt lat="47.28355" lon="-2.50327">
        <ele>-1.2000000476837</ele>
        <time>2020-09-27T09:30:30.000Z</time>
      </trkpt>
      <trkpt lat="47.28329" lon="-2.50311">
        <ele>-1.2000000476837</ele>
        <time>2020-09-27T09:30:35.000Z</time>
      </trkpt>
      <trkpt lat="47.28324" lon="-2.50313">
        <ele>-1.2000000476837</ele>
        <time>2020-09-27T09:30:36.000Z</time>
      </trkpt>
      <trkpt lat="47.2831" lon="-2.50324">
        <ele>-1.2000000476837</ele>
        <time>2020-09-27T09:30:39.000Z</time>
      </trkpt>
      <trkpt lat="47.28306" lon="-2.50327">
        <ele>-1.2000000476837</ele>
        <time>2020-09-27T09:30:40.000Z</time>
      </trkpt>
      <trkpt lat="47.28292" lon="-2.50317">
        <ele>-1.2000000476837</ele>
        <time>2020-09-27T09:30:43.000Z</time>
      </trkpt>
      <trkpt lat="47.28289" lon="-2.50294">
        <ele>-1.2000000476837</ele>
        <time>2020-09-27T09:30:46.000Z</time>
      </trkpt>
      <trkpt lat="47.28286" lon="-2.50286">
        <ele>-1.2000000476837</ele>
        <time>2020-09-27T09:30:47.000Z</time>
      </trkpt>
      <trkpt lat="47.28278" lon="-2.50274">
        <ele>-1.2000000476837</ele>
        <time>2020-09-27T09:30:49.000Z</time>
      </trkpt>
      <trkpt lat="47.28269" lon="-2.50262">
        <ele>-1.2000000476837</ele>
        <time>2020-09-27T09:30:51.000Z</time>
      </trkpt>
      <trkpt lat="47.28259" lon="-2.50252">
        <ele>-1.2000000476837</ele>
        <time>2020-09-27T09:30:53.000Z</time>
      </trkpt>
      <trkpt lat="47.28254" lon="-2.50247">
        <ele>-1.2000000476837</ele>
        <time>2020-09-27T09:30:54.000Z</time>
      </trkpt>
      <trkpt lat="47.28244" lon="-2.50236">
        <ele>-1.2000000476837</ele>
        <time>2020-09-27T09:30:56.000Z</time>
      </trkpt>
      <trkpt lat="47.28232" lon="-2.50217">
        <ele>-1.2000000476837</ele>
        <time>2020-09-27T09:30:59.000Z</time>
      </trkpt>
      <trkpt lat="47.28211" lon="-2.50169">
        <ele>-1.2000000476837</ele>
        <time>2020-09-27T09:31:05.000Z</time>
      </trkpt>
      <trkpt lat="47.28197" lon="-2.50108">
        <ele>-1.2000000476837</ele>
        <time>2020-09-27T09:31:12.000Z</time>
      </trkpt>
      <trkpt lat="47.28186" lon="-2.50047">
        <ele>-1.2000000476837</ele>
        <time>2020-09-27T09:31:18.000Z</time>
      </trkpt>
      <trkpt lat="47.28173" lon="-2.49959">
        <ele>-1.2000000476837</ele>
        <time>2020-09-27T09:31:26.000Z</time>
      </trkpt>
      <trkpt lat="47.2816" lon="-2.49871">
        <ele>-1.2000000476837</ele>
        <time>2020-09-27T09:31:34.000Z</time>
      </trkpt>
      <trkpt lat="47.28159" lon="-2.4986">
        <ele>-1.2000000476837</ele>
        <time>2020-09-27T09:31:35.000Z</time>
      </trkpt>
      <trkpt lat="47.28154" lon="-2.49828">
        <ele>-0.80000001192093</ele>
        <time>2020-09-27T09:31:38.000Z</time>
      </trkpt>
      <trkpt lat="47.28152" lon="-2.49818">
        <ele>-0.40000000596046</ele>
        <time>2020-09-27T09:31:39.000Z</time>
      </trkpt>
      <trkpt lat="47.28151" lon="-2.49808">
        <ele>5.4</ele>
        <time>2020-09-27T09:31:40.000Z</time>
      </trkpt>
      <trkpt lat="47.28149" lon="-2.49798">
        <ele>0.40000000596046</ele>
        <time>2020-09-27T09:31:41.000Z</time>
      </trkpt>
      <trkpt lat="47.28148" lon="-2.49788">
        <ele>0.80000001192093</ele>
        <time>2020-09-27T09:31:42.000Z</time>
      </trkpt>
      <trkpt lat="47.28146" lon="-2.49778">
        <ele>0.80000001192093</ele>
        <time>2020-09-27T09:31:43.000Z</time>
      </trkpt>
      <trkpt lat="47.28143" lon="-2.49754">
        <ele>1.2000000476837</ele>
        <time>2020-09-27T09:31:46.000Z</time>
      </trkpt>
      <trkpt lat="47.28141" lon="-2.49746">
        <ele>1.6000000238419</ele>
        <time>2020-09-27T09:31:47.000Z</time>
      </trkpt>
      <trkpt lat="47.2814" lon="-2.49738">
        <ele>2</ele>
        <time>2020-09-27T09:31:48.000Z</time>
      </trkpt>
      <trkpt lat="47.28139" lon="-2.4973">
        <ele>2.4000000953674</ele>
        <time>2020-09-27T09:31:49.000Z</time>
      </trkpt>
      <trkpt lat="47.28138" lon="-2.49722">
        <ele>2.7999999523163</ele>
        <time>2020-09-27T09:31:50.000Z</time>
      </trkpt>
      <trkpt lat="47.28129" lon="-2.49668">
        <ele>2.7999999523163</ele>
        <time>2020-09-27T09:31:57.000Z</time>
      </trkpt>
      <trkpt lat="47.28126" lon="-2.49653">
        <ele>2.7999999523163</ele>
        <time>2020-09-27T09:31:59.000Z</time>
      </trkpt>
      <trkpt lat="47.28119" lon="-2.49632">
        <ele>2.7999999523163</ele>
        <time>2020-09-27T09:32:02.000Z</time>
      </trkpt>
      <trkpt lat="47.28115" lon="-2.49627">
        <ele>2.7999999523163</ele>
        <time>2020-09-27T09:32:03.000Z</time>
      </trkpt>
      <trkpt lat="47.28091" lon="-2.49602">
        <ele>2.7999999523163</ele>
        <time>2020-09-27T09:32:08.000Z</time>
      </trkpt>
      <trkpt lat="47.28067" lon="-2.4957">
        <ele>2.7999999523163</ele>
        <time>2020-09-27T09:32:13.000Z</time>
      </trkpt>
      <trkpt lat="47.28031" lon="-2.49522">
        <ele>2.7999999523163</ele>
        <time>2020-09-27T09:32:20.000Z</time>
      </trkpt>
      <trkpt lat="47.28" lon="-2.49479">
        <ele>2.7999999523163</ele>
        <time>2020-09-27T09:32:27.000Z</time>
      </trkpt>
      <trkpt lat="47.27959" lon="-2.49424">
        <ele>2.7999999523163</ele>
        <time>2020-09-27T09:32:36.000Z</time>
      </trkpt>
      <trkpt lat="47.27918" lon="-2.49368">
        <ele>2.7999999523163</ele>
        <time>2020-09-27T09:32:45.000Z</time>
      </trkpt>
      <trkpt lat="47.27887" lon="-2.49324">
        <ele>2.7999999523163</ele>
        <time>2020-09-27T09:32:52.000Z</time>
      </trkpt>
      <trkpt lat="47.27853" lon="-2.49286">
        <ele>2.7999999523163</ele>
        <time>2020-09-27T09:32:59.000Z</time>
      </trkpt>
      <trkpt lat="47.27837" lon="-2.49275">
        <ele>2.7999999523163</ele>
        <time>2020-09-27T09:33:02.000Z</time>
      </trkpt>
      <trkpt lat="47.27814" lon="-2.49264">
        <ele>2.7999999523163</ele>
        <time>2020-09-27T09:33:06.000Z</time>
      </trkpt>
      <trkpt lat="47.27774" lon="-2.49257">
        <ele>2.7999999523163</ele>
        <time>2020-09-27T09:33:12.000Z</time>
      </trkpt>
      <trkpt lat="47.27725" lon="-2.49255">
        <ele>2.7999999523163</ele>
        <time>2020-09-27T09:33:19.000Z</time>
      </trkpt>
      <trkpt lat="47.27678" lon="-2.49248">
        <ele>2.7999999523163</ele>
        <time>2020-09-27T09:33:26.000Z</time>
      </trkpt>
      <trkpt lat="47.27657" lon="-2.49241">
        <ele>2.7999999523163</ele>
        <time>2020-09-27T09:33:29.000Z</time>
      </trkpt>
      <trkpt lat="47.27645" lon="-2.49241">
        <ele>2.7999999523163</ele>
        <time>2020-09-27T09:33:31.000Z</time>
      </trkpt>
      <trkpt lat="47.2763" lon="-2.49229">
        <ele>2.7999999523163</ele>
        <time>2020-09-27T09:33:34.000Z</time>
      </trkpt>
      <trkpt lat="47.27623" lon="-2.49213">
        <ele>2.7999999523163</ele>
        <time>2020-09-27T09:33:36.000Z</time>
      </trkpt>
      <trkpt lat="47.27613" lon="-2.49198">
        <ele>2.7999999523163</ele>
        <time>2020-09-27T09:33:38.000Z</time>
      </trkpt>
      <trkpt lat="47.27594" lon="-2.49153">
        <ele>2.7999999523163</ele>
        <time>2020-09-27T09:33:43.000Z</time>
      </trkpt>
      <trkpt lat="47.27588" lon="-2.49101">
        <ele>2.7999999523163</ele>
        <time>2020-09-27T09:33:48.000Z</time>
      </trkpt>
      <trkpt lat="47.27588" lon="-2.4904">
        <ele>2.7999999523163</ele>
        <time>2020-09-27T09:33:54.000Z</time>
      </trkpt>
      <trkpt lat="47.27592" lon="-2.48983">
        <ele>3.2000000476837</ele>
        <time>2020-09-27T09:34:00.000Z</time>
      </trkpt>
      <trkpt lat="47.27593" lon="-2.48975">
        <ele>3.5999999046326</ele>
        <time>2020-09-27T09:34:01.000Z</time>
      </trkpt>
      <trkpt lat="47.27594" lon="-2.48966">
        <ele>4</ele>
        <time>2020-09-27T09:34:02.000Z</time>
      </trkpt>
      <trkpt lat="47.27594" lon="-2.48958">
        <ele>5</ele>
        <time>2020-09-27T09:34:03.000Z</time>
      </trkpt>
      <trkpt lat="47.27596" lon="-2.48929">
        <ele>5</ele>
        <time>2020-09-27T09:34:07.000Z</time>
      </trkpt>
      <trkpt lat="47.27602" lon="-2.48872">
        <ele>5</ele>
        <time>2020-09-27T09:34:15.000Z</time>
      </trkpt>
      <trkpt lat="47.27605" lon="-2.48813">
        <ele>5</ele>
        <time>2020-09-27T09:34:22.000Z</time>
      </trkpt>
      <trkpt lat="47.27606" lon="-2.48778">
        <ele>5.4000000953674</ele>
        <time>2020-09-27T09:34:26.000Z</time>
      </trkpt>
      <trkpt lat="47.27606" lon="-2.48769">
        <ele>5.8000001907349</ele>
        <time>2020-09-27T09:34:27.000Z</time>
      </trkpt>
      <trkpt lat="47.27605" lon="-2.4876">
        <ele>5.8000001907349</ele>
        <time>2020-09-27T09:34:28.000Z</time>
      </trkpt>
      <trkpt lat="47.27604" lon="-2.48751">
        <ele>5.5999999046326</ele>
        <time>2020-09-27T09:34:29.000Z</time>
      </trkpt>
      <trkpt lat="47.27603" lon="-2.48742">
        <ele>5.1999998092651</ele>
        <time>2020-09-27T09:34:30.000Z</time>
      </trkpt>
      <trkpt lat="47.27602" lon="-2.48733">
        <ele>5</ele>
        <time>2020-09-27T09:34:31.000Z</time>
      </trkpt>
      <trkpt lat="47.27601" lon="-2.48723">
        <ele>4.5999999046326</ele>
        <time>2020-09-27T09:34:32.000Z</time>
      </trkpt>
      <trkpt lat="47.27596" lon="-2.48685">
        <ele>4.5999999046326</ele>
        <time>2020-09-27T09:34:36.000Z</time>
      </trkpt>
      <trkpt lat="47.27588" lon="-2.48608">
        <ele>4.5999999046326</ele>
        <time>2020-09-27T09:34:44.000Z</time>
      </trkpt>
      <trkpt lat="47.2758" lon="-2.48524">
        <ele>4.5999999046326</ele>
        <time>2020-09-27T09:34:53.000Z</time>
      </trkpt>
      <trkpt lat="47.27573" lon="-2.4846">
        <ele>4.5999999046326</ele>
        <time>2020-09-27T09:35:00.000Z</time>
      </trkpt>
      <trkpt lat="47.27562" lon="-2.48382">
        <ele>4.5999999046326</ele>
        <time>2020-09-27T09:35:09.000Z</time>
      </trkpt>
      <trkpt lat="47.27552" lon="-2.48333">
        <ele>5</ele>
        <time>2020-09-27T09:35:15.000Z</time>
      </trkpt>
      <trkpt lat="47.2755" lon="-2.48325">
        <ele>5.5999999046326</ele>
        <time>2020-09-27T09:35:16.000Z</time>
      </trkpt>
      <trkpt lat="47.27547" lon="-2.48318">
        <ele>6.4000000953674</ele>
        <time>2020-09-27T09:35:17.000Z</time>
      </trkpt>
      <trkpt lat="47.27545" lon="-2.4831">
        <ele>7</ele>
        <time>2020-09-27T09:35:18.000Z</time>
      </trkpt>
      <trkpt lat="47.27537" lon="-2.48272">
        <ele>7</ele>
        <time>2020-09-27T09:35:23.000Z</time>
      </trkpt>
      <trkpt lat="47.27535" lon="-2.48257">
        <ele>7</ele>
        <time>2020-09-27T09:35:25.000Z</time>
      </trkpt>
      <trkpt lat="47.2753" lon="-2.48236">
        <ele>7</ele>
        <time>2020-09-27T09:35:28.000Z</time>
      </trkpt>
      <trkpt lat="47.27527" lon="-2.48222">
        <ele>7.4000000953674</ele>
        <time>2020-09-27T09:35:30.000Z</time>
      </trkpt>
      <trkpt lat="47.27526" lon="-2.48215">
        <ele>7.8000001907349</ele>
        <time>2020-09-27T09:35:31.000Z</time>
      </trkpt>
      <trkpt lat="47.27524" lon="-2.48209">
        <ele>8.1999998092651</ele>
        <time>2020-09-27T09:35:32.000Z</time>
      </trkpt>
      <trkpt lat="47.27522" lon="-2.48202">
        <ele>8.6000003814697</ele>
        <time>2020-09-27T09:35:33.000Z</time>
      </trkpt>
      <trkpt lat="47.27521" lon="-2.48195">
        <ele>9</ele>
        <time>2020-09-27T09:35:34.000Z</time>
      </trkpt>
      <trkpt lat="47.27516" lon="-2.48174">
        <ele>9</ele>
        <time>2020-09-27T09:35:37.000Z</time>
      </trkpt>
      <trkpt lat="47.27503" lon="-2.48127">
        <ele>9</ele>
        <time>2020-09-27T09:35:43.000Z</time>
      </trkpt>
      <trkpt lat="47.27484" lon="-2.48076">
        <ele>9</ele>
        <time>2020-09-27T09:35:49.000Z</time>
      </trkpt>
      <trkpt lat="47.27458" lon="-2.48022">
        <ele>9</ele>
        <time>2020-09-27T09:35:55.000Z</time>
      </trkpt>
      <trkpt lat="47.27436" lon="-2.4798">
        <ele>8.6000003814697</ele>
        <time>2020-09-27T09:35:59.000Z</time>
      </trkpt>
      <trkpt lat="47.2743" lon="-2.4797">
        <ele>8</ele>
        <time>2020-09-27T09:36:00.000Z</time>
      </trkpt>
      <trkpt lat="47.27423" lon="-2.4796">
        <ele>7.5999999046326</ele>
        <time>2020-09-27T09:36:01.000Z</time>
      </trkpt>
      <trkpt lat="47.27416" lon="-2.47951">
        <ele>7.1999998092651</ele>
        <time>2020-09-27T09:36:02.000Z</time>
      </trkpt>
      <trkpt lat="47.27408" lon="-2.47942">
        <ele>6.8000001907349</ele>
        <time>2020-09-27T09:36:03.000Z</time>
      </trkpt>
      <trkpt lat="47.274" lon="-2.47934">
        <ele>6.1999998092651</ele>
        <time>2020-09-27T09:36:04.000Z</time>
      </trkpt>
      <trkpt lat="47.27391" lon="-2.47927">
        <ele>5.8000001907349</ele>
        <time>2020-09-27T09:36:05.000Z</time>
      </trkpt>
      <trkpt lat="47.27383" lon="-2.4792">
        <ele>4.8000001907349</ele>
        <time>2020-09-27T09:36:06.000Z</time>
      </trkpt>
      <trkpt lat="47.27374" lon="-2.47913">
        <ele>4.4000000953674</ele>
        <time>2020-09-27T09:36:07.000Z</time>
      </trkpt>
      <trkpt lat="47.2734" lon="-2.47886">
        <ele>4.4000000953674</ele>
        <time>2020-09-27T09:36:11.000Z</time>
      </trkpt>
      <trkpt lat="47.27293" lon="-2.47851">
        <ele>4.4000000953674</ele>
        <time>2020-09-27T09:36:17.000Z</time>
      </trkpt>
      <trkpt lat="47.27267" lon="-2.47824">
        <ele>4.4000000953674</ele>
        <time>2020-09-27T09:36:21.000Z</time>
      </trkpt>
      <trkpt lat="47.27255" lon="-2.47808">
        <ele>4.4000000953674</ele>
        <time>2020-09-27T09:36:23.000Z</time>
      </trkpt>
      <trkpt lat="47.2723" lon="-2.4776">
        <ele>4.4000000953674</ele>
        <time>2020-09-27T09:36:28.000Z</time>
      </trkpt>
      <trkpt lat="47.27215" lon="-2.47716">
        <ele>4.4000000953674</ele>
        <time>2020-09-27T09:36:32.000Z</time>
      </trkpt>
      <trkpt lat="47.27213" lon="-2.47705">
        <ele>4.4000000953674</ele>
        <time>2020-09-27T09:36:33.000Z</time>
      </trkpt>
      <trkpt lat="47.27204" lon="-2.47664">
        <ele>4.4000000953674</ele>
        <time>2020-09-27T09:36:37.000Z</time>
      </trkpt>
      <trkpt lat="47.27203" lon="-2.47654">
        <ele>4.4000000953674</ele>
        <time>2020-09-27T09:36:38.000Z</time>
      </trkpt>
      <trkpt lat="47.272" lon="-2.47609">
        <ele>4.4000000953674</ele>
        <time>2020-09-27T09:36:43.000Z</time>
      </trkpt>
      <trkpt lat="47.27194" lon="-2.47544">
        <ele>4.4000000953674</ele>
        <time>2020-09-27T09:36:50.000Z</time>
      </trkpt>
      <trkpt lat="47.27183" lon="-2.47482">
        <ele>4.4000000953674</ele>
        <time>2020-09-27T09:36:57.000Z</time>
      </trkpt>
      <trkpt lat="47.27174" lon="-2.47458">
        <ele>4.4000000953674</ele>
        <time>2020-09-27T09:37:00.000Z</time>
      </trkpt>
      <trkpt lat="47.27171" lon="-2.4745">
        <ele>4.8000001907349</ele>
        <time>2020-09-27T09:37:01.000Z</time>
      </trkpt>
      <trkpt lat="47.27168" lon="-2.47442">
        <ele>5.1999998092651</ele>
        <time>2020-09-27T09:37:02.000Z</time>
      </trkpt>
      <trkpt lat="47.27165" lon="-2.47434">
        <ele>5.8000001907349</ele>
        <time>2020-09-27T09:37:03.000Z</time>
      </trkpt>
      <trkpt lat="47.27162" lon="-2.47426">
        <ele>6.1999998092651</ele>
        <time>2020-09-27T09:37:04.000Z</time>
      </trkpt>
      <trkpt lat="47.27159" lon="-2.47419">
        <ele>6.5999999046326</ele>
        <time>2020-09-27T09:37:05.000Z</time>
      </trkpt>
      <trkpt lat="47.27156" lon="-2.47412">
        <ele>6.5999999046326</ele>
        <time>2020-09-27T09:37:06.000Z</time>
      </trkpt>
      <trkpt lat="47.27147" lon="-2.4739">
        <ele>6.5999999046326</ele>
        <time>2020-09-27T09:37:09.000Z</time>
      </trkpt>
      <trkpt lat="47.27133" lon="-2.47343">
        <ele>6.5999999046326</ele>
        <time>2020-09-27T09:37:15.000Z</time>
      </trkpt>
      <trkpt lat="47.2713" lon="-2.47326">
        <ele>7</ele>
        <time>2020-09-27T09:37:17.000Z</time>
      </trkpt>
      <trkpt lat="47.27129" lon="-2.47317">
        <ele>7.4000000953674</ele>
        <time>2020-09-27T09:37:18.000Z</time>
      </trkpt>
      <trkpt lat="47.27128" lon="-2.47308">
        <ele>7.8000001907349</ele>
        <time>2020-09-27T09:37:19.000Z</time>
      </trkpt>
      <trkpt lat="47.27128" lon="-2.47299">
        <ele>8.1999998092651</ele>
        <time>2020-09-27T09:37:20.000Z</time>
      </trkpt>
      <trkpt lat="47.27127" lon="-2.47291">
        <ele>8.6000003814697</ele>
        <time>2020-09-27T09:37:21.000Z</time>
      </trkpt>
      <trkpt lat="47.27121" lon="-2.47208">
        <ele>8.6000003814697</ele>
        <time>2020-09-27T09:37:30.000Z</time>
      </trkpt>
      <trkpt lat="47.27115" lon="-2.47152">
        <ele>8.6000003814697</ele>
        <time>2020-09-27T09:37:36.000Z</time>
      </trkpt>
      <trkpt lat="47.2711" lon="-2.47065">
        <ele>8.6000003814697</ele>
        <time>2020-09-27T09:37:45.000Z</time>
      </trkpt>
      <trkpt lat="47.27107" lon="-2.4698">
        <ele>8.6000003814697</ele>
        <time>2020-09-27T09:37:53.000Z</time>
      </trkpt>
      <trkpt lat="47.27112" lon="-2.46919">
        <ele>8.6000003814697</ele>
        <time>2020-09-27T09:37:59.000Z</time>
      </trkpt>
      <trkpt lat="47.2712" lon="-2.46848">
        <ele>8.6000003814697</ele>
        <time>2020-09-27T09:38:06.000Z</time>
      </trkpt>
      <trkpt lat="47.27122" lon="-2.46789">
        <ele>8.6000003814697</ele>
        <time>2020-09-27T09:38:12.000Z</time>
      </trkpt>
      <trkpt lat="47.2712" lon="-2.46722">
        <ele>8.6000003814697</ele>
        <time>2020-09-27T09:38:18.000Z</time>
      </trkpt>
      <trkpt lat="47.27117" lon="-2.46637">
        <ele>8.6000003814697</ele>
        <time>2020-09-27T09:38:25.000Z</time>
      </trkpt>
      <trkpt lat="47.27116" lon="-2.4661">
        <ele>8.1999998092651</ele>
        <time>2020-09-27T09:38:27.000Z</time>
      </trkpt>
      <trkpt lat="47.27115" lon="-2.46596">
        <ele>7.8000001907349</ele>
        <time>2020-09-27T09:38:28.000Z</time>
      </trkpt>
      <trkpt lat="47.27114" lon="-2.46581">
        <ele>7.4000000953674</ele>
        <time>2020-09-27T09:38:29.000Z</time>
      </trkpt>
      <trkpt lat="47.27114" lon="-2.46567">
        <ele>7</ele>
        <time>2020-09-27T09:38:30.000Z</time>
      </trkpt>
      <trkpt lat="47.27113" lon="-2.46552">
        <ele>6.5999999046326</ele>
        <time>2020-09-27T09:38:31.000Z</time>
      </trkpt>
      <trkpt lat="47.27107" lon="-2.46466">
        <ele>6.5999999046326</ele>
        <time>2020-09-27T09:38:37.000Z</time>
      </trkpt>
      <trkpt lat="47.27101" lon="-2.46426">
        <ele>6.1999998092651</ele>
        <time>2020-09-27T09:38:40.000Z</time>
      </trkpt>
      <trkpt lat="47.271" lon="-2.46413">
        <ele>5.5999999046326</ele>
        <time>2020-09-27T09:38:41.000Z</time>
      </trkpt>
      <trkpt lat="47.27098" lon="-2.464">
        <ele>5.1999998092651</ele>
        <time>2020-09-27T09:38:42.000Z</time>
      </trkpt>
      <trkpt lat="47.27095" lon="-2.46388">
        <ele>4.5999999046326</ele>
        <time>2020-09-27T09:38:43.000Z</time>
      </trkpt>
      <trkpt lat="47.27092" lon="-2.46375">
        <ele>4.1999998092651</ele>
        <time>2020-09-27T09:38:44.000Z</time>
      </trkpt>
      <trkpt lat="47.27088" lon="-2.46362">
        <ele>3.5999999046326</ele>
        <time>2020-09-27T09:38:45.000Z</time>
      </trkpt>
      <trkpt lat="47.27085" lon="-2.46349">
        <ele>3.2000000476837</ele>
        <time>2020-09-27T09:38:46.000Z</time>
      </trkpt>
      <trkpt lat="47.27082" lon="-2.46338">
        <ele>2.5999999046326</ele>
        <time>2020-09-27T09:38:47.000Z</time>
      </trkpt>
      <trkpt lat="47.27078" lon="-2.46326">
        <ele>2.2000000476837</ele>
        <time>2020-09-27T09:38:48.000Z</time>
      </trkpt>
      <trkpt lat="47.2706" lon="-2.46262">
        <ele>2.2000000476837</ele>
        <time>2020-09-27T09:38:54.000Z</time>
      </trkpt>
      <trkpt lat="47.27044" lon="-2.46206">
        <ele>2.2000000476837</ele>
        <time>2020-09-27T09:39:00.000Z</time>
      </trkpt>
      <trkpt lat="47.27025" lon="-2.46133">
        <ele>2.5999999046326</ele>
        <time>2020-09-27T09:39:08.000Z</time>
      </trkpt>
      <trkpt lat="47.27023" lon="-2.46125">
        <ele>3</ele>
        <time>2020-09-27T09:39:09.000Z</time>
      </trkpt>
      <trkpt lat="47.27021" lon="-2.46118">
        <ele>3.4000000953674</ele>
        <time>2020-09-27T09:39:10.000Z</time>
      </trkpt>
      <trkpt lat="47.27019" lon="-2.46111">
        <ele>4</ele>
        <time>2020-09-27T09:39:11.000Z</time>
      </trkpt>
      <trkpt lat="47.27018" lon="-2.46105">
        <ele>4.4000000953674</ele>
        <time>2020-09-27T09:39:12.000Z</time>
      </trkpt>
      <trkpt lat="47.27015" lon="-2.46093">
        <ele>4.4000000953674</ele>
        <time>2020-09-27T09:39:14.000Z</time>
      </trkpt>
      <trkpt lat="47.27" lon="-2.46033">
        <ele>4.4000000953674</ele>
        <time>2020-09-27T09:39:23.000Z</time>
      </trkpt>
      <trkpt lat="47.26993" lon="-2.45997">
        <ele>4.8000001907349</ele>
        <time>2020-09-27T09:39:28.000Z</time>
      </trkpt>
      <trkpt lat="47.26992" lon="-2.4599">
        <ele>5.1999998092651</ele>
        <time>2020-09-27T09:39:29.000Z</time>
      </trkpt>
      <trkpt lat="47.26991" lon="-2.45982">
        <ele>5.5999999046326</ele>
        <time>2020-09-27T09:39:30.000Z</time>
      </trkpt>
      <trkpt lat="47.26989" lon="-2.45974">
        <ele>6</ele>
        <time>2020-09-27T09:39:31.000Z</time>
      </trkpt>
      <trkpt lat="47.26987" lon="-2.45966">
        <ele>6.4000000953674</ele>
        <time>2020-09-27T09:39:32.000Z</time>
      </trkpt>
      <trkpt lat="47.26979" lon="-2.45928">
        <ele>6.4000000953674</ele>
        <time>2020-09-27T09:39:37.000Z</time>
      </trkpt>
      <trkpt lat="47.2697" lon="-2.45867">
        <ele>6.4000000953674</ele>
        <time>2020-09-27T09:39:45.000Z</time>
      </trkpt>
      <trkpt lat="47.26967" lon="-2.45808">
        <ele>6.4000000953674</ele>
        <time>2020-09-27T09:39:52.000Z</time>
      </trkpt>
      <trkpt lat="47.26964" lon="-2.45738">
        <ele>6.4000000953674</ele>
        <time>2020-09-27T09:39:59.000Z</time>
      </trkpt>
      <trkpt lat="47.26962" lon="-2.45728">
        <ele>6.4000000953674</ele>
        <time>2020-09-27T09:40:00.000Z</time>
      </trkpt>
      <trkpt lat="47.2696" lon="-2.45685">
        <ele>6.4000000953674</ele>
        <time>2020-09-27T09:40:04.000Z</time>
      </trkpt>
      <trkpt lat="47.26956" lon="-2.45664">
        <ele>6.4000000953674</ele>
        <time>2020-09-27T09:40:06.000Z</time>
      </trkpt>
      <trkpt lat="47.26949" lon="-2.45645">
        <ele>6.4000000953674</ele>
        <time>2020-09-27T09:40:08.000Z</time>
      </trkpt>
      <trkpt lat="47.26939" lon="-2.4563">
        <ele>6</ele>
        <time>2020-09-27T09:40:10.000Z</time>
      </trkpt>
      <trkpt lat="47.26933" lon="-2.45623">
        <ele>5.5999999046326</ele>
        <time>2020-09-27T09:40:11.000Z</time>
      </trkpt>
      <trkpt lat="47.26927" lon="-2.45618">
        <ele>5.1999998092651</ele>
        <time>2020-09-27T09:40:12.000Z</time>
      </trkpt>
      <trkpt lat="47.26921" lon="-2.45612">
        <ele>4.8000001907349</ele>
        <time>2020-09-27T09:40:13.000Z</time>
      </trkpt>
      <trkpt lat="47.26915" lon="-2.45605">
        <ele>4.4000000953674</ele>
        <time>2020-09-27T09:40:14.000Z</time>
      </trkpt>
      <trkpt lat="47.26882" lon="-2.45573">
        <ele>4.4000000953674</ele>
        <time>2020-09-27T09:40:19.000Z</time>
      </trkpt>
      <trkpt lat="47.26831" lon="-2.45532">
        <ele>4.4000000953674</ele>
        <time>2020-09-27T09:40:26.000Z</time>
      </trkpt>
      <trkpt lat="47.26824" lon="-2.45526">
        <ele>4.4000000953674</ele>
        <time>2020-09-27T09:40:27.000Z</time>
      </trkpt>
      <trkpt lat="47.26776" lon="-2.4547">
        <ele>4.4000000953674</ele>
        <time>2020-09-27T09:40:34.000Z</time>
      </trkpt>
      <trkpt lat="47.26764" lon="-2.45452">
        <ele>4</ele>
        <time>2020-09-27T09:40:36.000Z</time>
      </trkpt>
      <trkpt lat="47.26758" lon="-2.45444">
        <ele>3.4000000953674</ele>
        <time>2020-09-27T09:40:37.000Z</time>
      </trkpt>
      <trkpt lat="47.26752" lon="-2.45436">
        <ele>2.5999999046326</ele>
        <time>2020-09-27T09:40:38.000Z</time>
      </trkpt>
      <trkpt lat="47.26745" lon="-2.45429">
        <ele>2.2000000476837</ele>
        <time>2020-09-27T09:40:39.000Z</time>
      </trkpt>
      <trkpt lat="47.26713" lon="-2.45393">
        <ele>2.2000000476837</ele>
        <time>2020-09-27T09:40:44.000Z</time>
      </trkpt>
      <trkpt lat="47.267" lon="-2.45381">
        <ele>2.2000000476837</ele>
        <time>2020-09-27T09:40:46.000Z</time>
      </trkpt>
      <trkpt lat="47.26653" lon="-2.45335">
        <ele>2.2000000476837</ele>
        <time>2020-09-27T09:40:53.000Z</time>
      </trkpt>
      <trkpt lat="47.26646" lon="-2.45329">
        <ele>2.2000000476837</ele>
        <time>2020-09-27T09:40:54.000Z</time>
      </trkpt>
      <trkpt lat="47.266" lon="-2.45284">
        <ele>2.2000000476837</ele>
        <time>2020-09-27T09:41:01.000Z</time>
      </trkpt>
      <trkpt lat="47.26567" lon="-2.45254">
        <ele>2.5999999046326</ele>
        <time>2020-09-27T09:41:06.000Z</time>
      </trkpt>
      <trkpt lat="47.26561" lon="-2.45247">
        <ele>3</ele>
        <time>2020-09-27T09:41:07.000Z</time>
      </trkpt>
      <trkpt lat="47.26554" lon="-2.45241">
        <ele>3.4000000953674</ele>
        <time>2020-09-27T09:41:08.000Z</time>
      </trkpt>
      <trkpt lat="47.26547" lon="-2.45236">
        <ele>3.7999999523163</ele>
        <time>2020-09-27T09:41:09.000Z</time>
      </trkpt>
      <trkpt lat="47.2654" lon="-2.4523">
        <ele>4.1999998092651</ele>
        <time>2020-09-27T09:41:10.000Z</time>
      </trkpt>
      <trkpt lat="47.26495" lon="-2.45188">
        <ele>4.1999998092651</ele>
        <time>2020-09-27T09:41:17.000Z</time>
      </trkpt>
      <trkpt lat="47.26466" lon="-2.45152">
        <ele>4.1999998092651</ele>
        <time>2020-09-27T09:41:22.000Z</time>
      </trkpt>
      <trkpt lat="47.26437" lon="-2.45101">
        <ele>4.1999998092651</ele>
        <time>2020-09-27T09:41:28.000Z</time>
      </trkpt>
      <trkpt lat="47.26417" lon="-2.45039">
        <ele>4.1999998092651</ele>
        <time>2020-09-27T09:41:34.000Z</time>
      </trkpt>
      <trkpt lat="47.26397" lon="-2.44976">
        <ele>4.8000001907349</ele>
        <time>2020-09-27T09:41:40.000Z</time>
      </trkpt>
      <trkpt lat="47.26394" lon="-2.44966">
        <ele>5.1999998092651</ele>
        <time>2020-09-27T09:41:41.000Z</time>
      </trkpt>
      <trkpt lat="47.2639" lon="-2.44956">
        <ele>5.8000001907349</ele>
        <time>2020-09-27T09:41:42.000Z</time>
      </trkpt>
      <trkpt lat="47.26387" lon="-2.44946">
        <ele>6.4000000953674</ele>
        <time>2020-09-27T09:41:43.000Z</time>
      </trkpt>
      <trkpt lat="47.26384" lon="-2.44936">
        <ele>7</ele>
        <time>2020-09-27T09:41:44.000Z</time>
      </trkpt>
      <trkpt lat="47.26376" lon="-2.44917">
        <ele>7</ele>
        <time>2020-09-27T09:41:46.000Z</time>
      </trkpt>
      <trkpt lat="47.26371" lon="-2.44911">
        <ele>6.4000000953674</ele>
        <time>2020-09-27T09:41:47.000Z</time>
      </trkpt>
      <trkpt lat="47.26366" lon="-2.44908">
        <ele>6</ele>
        <time>2020-09-27T09:41:48.000Z</time>
      </trkpt>
      <trkpt lat="47.26362" lon="-2.44906">
        <ele>5.5999999046326</ele>
        <time>2020-09-27T09:41:49.000Z</time>
      </trkpt>
      <trkpt lat="47.26358" lon="-2.44904">
        <ele>5.1999998092651</ele>
        <time>2020-09-27T09:41:50.000Z</time>
      </trkpt>
      <trkpt lat="47.26354" lon="-2.44903">
        <ele>4.8000001907349</ele>
        <time>2020-09-27T09:41:51.000Z</time>
      </trkpt>
      <trkpt lat="47.26346" lon="-2.44901">
        <ele>4.8000001907349</ele>
        <time>2020-09-27T09:41:53.000Z</time>
      </trkpt>
      <trkpt lat="47.26337" lon="-2.449">
        <ele>4.8000001907349</ele>
        <time>2020-09-27T09:41:55.000Z</time>
      </trkpt>
      <trkpt lat="47.26306" lon="-2.44891">
        <ele>4.8000001907349</ele>
        <time>2020-09-27T09:42:01.000Z</time>
      </trkpt>
      <trkpt lat="47.263" lon="-2.44888">
        <ele>4.8000001907349</ele>
        <time>2020-09-27T09:42:02.000Z</time>
      </trkpt>
      <trkpt lat="47.26287" lon="-2.44875">
        <ele>4.8000001907349</ele>
        <time>2020-09-27T09:42:05.000Z</time>
      </trkpt>
      <trkpt lat="47.26278" lon="-2.44865">
        <ele>4.8000001907349</ele>
        <time>2020-09-27T09:42:07.000Z</time>
      </trkpt>
      <trkpt lat="47.26268" lon="-2.44847">
        <ele>4.8000001907349</ele>
        <time>2020-09-27T09:42:10.000Z</time>
      </trkpt>
      <trkpt lat="47.26265" lon="-2.44841">
        <ele>4.8000001907349</ele>
        <time>2020-09-27T09:42:11.000Z</time>
      </trkpt>
      <trkpt lat="47.2626" lon="-2.44827">
        <ele>4.4000000953674</ele>
        <time>2020-09-27T09:42:13.000Z</time>
      </trkpt>
      <trkpt lat="47.26257" lon="-2.44821">
        <ele>4</ele>
        <time>2020-09-27T09:42:14.000Z</time>
      </trkpt>
      <trkpt lat="47.26254" lon="-2.44814">
        <ele>3.5999999046326</ele>
        <time>2020-09-27T09:42:15.000Z</time>
      </trkpt>
      <trkpt lat="47.26252" lon="-2.44807">
        <ele>3.2000000476837</ele>
        <time>2020-09-27T09:42:16.000Z</time>
      </trkpt>
      <trkpt lat="47.26249" lon="-2.44801">
        <ele>2.5999999046326</ele>
        <time>2020-09-27T09:42:17.000Z</time>
      </trkpt>
      <trkpt lat="47.26246" lon="-2.44793">
        <ele>2.5999999046326</ele>
        <time>2020-09-27T09:42:18.000Z</time>
      </trkpt>
      <trkpt lat="47.26244" lon="-2.44786">
        <ele>2.5999999046326</ele>
        <time>2020-09-27T09:42:19.000Z</time>
      </trkpt>
      <trkpt lat="47.26223" lon="-2.44727">
        <ele>2.5999999046326</ele>
        <time>2020-09-27T09:42:27.000Z</time>
      </trkpt>
      <trkpt lat="47.26216" lon="-2.44694">
        <ele>2.5999999046326</ele>
        <time>2020-09-27T09:42:31.000Z</time>
      </trkpt>
      <trkpt lat="47.26214" lon="-2.44676">
        <ele>2.5999999046326</ele>
        <time>2020-09-27T09:42:33.000Z</time>
      </trkpt>
      <trkpt lat="47.26212" lon="-2.44659">
        <ele>3</ele>
        <time>2020-09-27T09:42:35.000Z</time>
      </trkpt>
      <trkpt lat="47.26212" lon="-2.44651">
        <ele>3.4000000953674</ele>
        <time>2020-09-27T09:42:36.000Z</time>
      </trkpt>
      <trkpt lat="47.26212" lon="-2.44642">
        <ele>4</ele>
        <time>2020-09-27T09:42:37.000Z</time>
      </trkpt>
      <trkpt lat="47.26212" lon="-2.44634">
        <ele>4.4000000953674</ele>
        <time>2020-09-27T09:42:38.000Z</time>
      </trkpt>
      <trkpt lat="47.26212" lon="-2.44625">
        <ele>4.8000001907349</ele>
        <time>2020-09-27T09:42:39.000Z</time>
      </trkpt>
      <trkpt lat="47.26211" lon="-2.44565">
        <ele>4.8000001907349</ele>
        <time>2020-09-27T09:42:46.000Z</time>
      </trkpt>
      <trkpt lat="47.26208" lon="-2.44492">
        <ele>4.8000001907349</ele>
        <time>2020-09-27T09:42:55.000Z</time>
      </trkpt>
      <trkpt lat="47.26201" lon="-2.44459">
        <ele>5.1999998092651</ele>
        <time>2020-09-27T09:42:59.000Z</time>
      </trkpt>
      <trkpt lat="47.26199" lon="-2.44451">
        <ele>5.5999999046326</ele>
        <time>2020-09-27T09:43:00.000Z</time>
      </trkpt>
      <trkpt lat="47.26197" lon="-2.44442">
        <ele>6</ele>
        <time>2020-09-27T09:43:01.000Z</time>
      </trkpt>
      <trkpt lat="47.26194" lon="-2.44434">
        <ele>6.4000000953674</ele>
        <time>2020-09-27T09:43:02.000Z</time>
      </trkpt>
      <trkpt lat="47.26191" lon="-2.44425">
        <ele>6.8000001907349</ele>
        <time>2020-09-27T09:43:03.000Z</time>
      </trkpt>
      <trkpt lat="47.26173" lon="-2.4437">
        <ele>6.8000001907349</ele>
        <time>2020-09-27T09:43:09.000Z</time>
      </trkpt>
      <trkpt lat="47.26152" lon="-2.44311">
        <ele>6.8000001907349</ele>
        <time>2020-09-27T09:43:16.000Z</time>
      </trkpt>
      <trkpt lat="47.26125" lon="-2.44239">
        <ele>6.8000001907349</ele>
        <time>2020-09-27T09:43:25.000Z</time>
      </trkpt>
      <trkpt lat="47.26118" lon="-2.44213">
        <ele>6.8000001907349</ele>
        <time>2020-09-27T09:43:28.000Z</time>
      </trkpt>
      <trkpt lat="47.26116" lon="-2.44205">
        <ele>7.1999998092651</ele>
        <time>2020-09-27T09:43:29.000Z</time>
      </trkpt>
      <trkpt lat="47.26114" lon="-2.44196">
        <ele>7.5999999046326</ele>
        <time>2020-09-27T09:43:30.000Z</time>
      </trkpt>
      <trkpt lat="47.26112" lon="-2.44187">
        <ele>8</ele>
        <time>2020-09-27T09:43:31.000Z</time>
      </trkpt>
      <trkpt lat="47.2611" lon="-2.44178">
        <ele>8.3999996185303</ele>
        <time>2020-09-27T09:43:32.000Z</time>
      </trkpt>
      <trkpt lat="47.26108" lon="-2.4417">
        <ele>8.8000001907349</ele>
        <time>2020-09-27T09:43:33.000Z</time>
      </trkpt>
      <trkpt lat="47.26099" lon="-2.44116">
        <ele>8.8000001907349</ele>
        <time>2020-09-27T09:43:39.000Z</time>
      </trkpt>
      <trkpt lat="47.26086" lon="-2.44042">
        <ele>8.8000001907349</ele>
        <time>2020-09-27T09:43:46.000Z</time>
      </trkpt>
      <trkpt lat="47.26084" lon="-2.4403">
        <ele>8.3999996185303</ele>
        <time>2020-09-27T09:43:47.000Z</time>
      </trkpt>
      <trkpt lat="47.26082" lon="-2.44018">
        <ele>8</ele>
        <time>2020-09-27T09:43:48.000Z</time>
      </trkpt>
      <trkpt lat="47.2608" lon="-2.44007">
        <ele>7.1999998092651</ele>
        <time>2020-09-27T09:43:49.000Z</time>
      </trkpt>
      <trkpt lat="47.26079" lon="-2.43995">
        <ele>6.8000001907349</ele>
        <time>2020-09-27T09:43:50.000Z</time>
      </trkpt>
      <trkpt lat="47.26074" lon="-2.43959">
        <ele>6.8000001907349</ele>
        <time>2020-09-27T09:43:53.000Z</time>
      </trkpt>
      <trkpt lat="47.26066" lon="-2.43876">
        <ele>6.8000001907349</ele>
        <time>2020-09-27T09:44:00.000Z</time>
      </trkpt>
      <trkpt lat="47.2607" lon="-2.43806">
        <ele>6.8000001907349</ele>
        <time>2020-09-27T09:44:06.000Z</time>
      </trkpt>
      <trkpt lat="47.26083" lon="-2.43733">
        <ele>6.8000001907349</ele>
        <time>2020-09-27T09:44:13.000Z</time>
      </trkpt>
      <trkpt lat="47.26088" lon="-2.4368">
        <ele>6.8000001907349</ele>
        <time>2020-09-27T09:44:18.000Z</time>
      </trkpt>
      <trkpt lat="47.26087" lon="-2.43669">
        <ele>6.8000001907349</ele>
        <time>2020-09-27T09:44:19.000Z</time>
      </trkpt>
      <trkpt lat="47.26075" lon="-2.43629">
        <ele>6.8000001907349</ele>
        <time>2020-09-27T09:44:23.000Z</time>
      </trkpt>
      <trkpt lat="47.26051" lon="-2.43585">
        <ele>6.8000001907349</ele>
        <time>2020-09-27T09:44:28.000Z</time>
      </trkpt>
      <trkpt lat="47.26018" lon="-2.43519">
        <ele>6.8000001907349</ele>
        <time>2020-09-27T09:44:35.000Z</time>
      </trkpt>
      <trkpt lat="47.26" lon="-2.43466">
        <ele>6.4000000953674</ele>
        <time>2020-09-27T09:44:40.000Z</time>
      </trkpt>
      <trkpt lat="47.25996" lon="-2.43454">
        <ele>6</ele>
        <time>2020-09-27T09:44:41.000Z</time>
      </trkpt>
      <trkpt lat="47.25992" lon="-2.43443">
        <ele>5.5999999046326</ele>
        <time>2020-09-27T09:44:42.000Z</time>
      </trkpt>
      <trkpt lat="47.25988" lon="-2.43432">
        <ele>5.1999998092651</ele>
        <time>2020-09-27T09:44:43.000Z</time>
      </trkpt>
      <trkpt lat="47.25984" lon="-2.43421">
        <ele>4.8000001907349</ele>
        <time>2020-09-27T09:44:44.000Z</time>
      </trkpt>
      <trkpt lat="47.25969" lon="-2.43377">
        <ele>4.8000001907349</ele>
        <time>2020-09-27T09:44:48.000Z</time>
      </trkpt>
      <trkpt lat="47.2595" lon="-2.43309">
        <ele>4.8000001907349</ele>
        <time>2020-09-27T09:44:54.000Z</time>
      </trkpt>
      <trkpt lat="47.25942" lon="-2.43235">
        <ele>4.8000001907349</ele>
        <time>2020-09-27T09:45:00.000Z</time>
      </trkpt>
      <trkpt lat="47.2594" lon="-2.43165">
        <ele>4.8000001907349</ele>
        <time>2020-09-27T09:45:06.000Z</time>
      </trkpt>
      <trkpt lat="47.25943" lon="-2.43114">
        <ele>4.8000001907349</ele>
        <time>2020-09-27T09:45:11.000Z</time>
      </trkpt>
      <trkpt lat="47.25953" lon="-2.43056">
        <ele>4.8000001907349</ele>
        <time>2020-09-27T09:45:17.000Z</time>
      </trkpt>
      <trkpt lat="47.25958" lon="-2.42998">
        <ele>4.8000001907349</ele>
        <time>2020-09-27T09:45:23.000Z</time>
      </trkpt>
      <trkpt lat="47.2596" lon="-2.42949">
        <ele>4.8000001907349</ele>
        <time>2020-09-27T09:45:28.000Z</time>
      </trkpt>
      <trkpt lat="47.25965" lon="-2.42931">
        <ele>5.1999998092651</ele>
        <time>2020-09-27T09:45:30.000Z</time>
      </trkpt>
      <trkpt lat="47.25968" lon="-2.42923">
        <ele>5.8000001907349</ele>
        <time>2020-09-27T09:45:31.000Z</time>
      </trkpt>
      <trkpt lat="47.25971" lon="-2.42915">
        <ele>6.1999998092651</ele>
        <time>2020-09-27T09:45:32.000Z</time>
      </trkpt>
      <trkpt lat="47.25975" lon="-2.42907">
        <ele>6.5999999046326</ele>
        <time>2020-09-27T09:45:33.000Z</time>
      </trkpt>
      <trkpt lat="47.25977" lon="-2.42898">
        <ele>7.1999998092651</ele>
        <time>2020-09-27T09:45:34.000Z</time>
      </trkpt>
      <trkpt lat="47.25984" lon="-2.4286">
        <ele>7.1999998092651</ele>
        <time>2020-09-27T09:45:38.000Z</time>
      </trkpt>
      <trkpt lat="47.25984" lon="-2.4285">
        <ele>7.1999998092651</ele>
        <time>2020-09-27T09:45:39.000Z</time>
      </trkpt>
      <trkpt lat="47.25984" lon="-2.42809">
        <ele>7.1999998092651</ele>
        <time>2020-09-27T09:45:43.000Z</time>
      </trkpt>
      <trkpt lat="47.25982" lon="-2.42731">
        <ele>7.1999998092651</ele>
        <time>2020-09-27T09:45:50.000Z</time>
      </trkpt>
      <trkpt lat="47.25975" lon="-2.42653">
        <ele>7.1999998092651</ele>
        <time>2020-09-27T09:45:57.000Z</time>
      </trkpt>
      <trkpt lat="47.25969" lon="-2.42575">
        <ele>7.1999998092651</ele>
        <time>2020-09-27T09:46:04.000Z</time>
      </trkpt>
      <trkpt lat="47.25977" lon="-2.42533">
        <ele>7.1999998092651</ele>
        <time>2020-09-27T09:46:08.000Z</time>
      </trkpt>
      <trkpt lat="47.25979" lon="-2.42523">
        <ele>7.1999998092651</ele>
        <time>2020-09-27T09:46:09.000Z</time>
      </trkpt>
      <trkpt lat="47.25991" lon="-2.4246">
        <ele>7.1999998092651</ele>
        <time>2020-09-27T09:46:15.000Z</time>
      </trkpt>
      <trkpt lat="47.25995" lon="-2.42399">
        <ele>7.1999998092651</ele>
        <time>2020-09-27T09:46:21.000Z</time>
      </trkpt>
      <trkpt lat="47.25994" lon="-2.4239">
        <ele>7.1999998092651</ele>
        <time>2020-09-27T09:46:22.000Z</time>
      </trkpt>
      <trkpt lat="47.25989" lon="-2.42373">
        <ele>7.1999998092651</ele>
        <time>2020-09-27T09:46:24.000Z</time>
      </trkpt>
      <trkpt lat="47.25981" lon="-2.42358">
        <ele>7.1999998092651</ele>
        <time>2020-09-27T09:46:26.000Z</time>
      </trkpt>
      <trkpt lat="47.25972" lon="-2.42344">
        <ele>7.1999998092651</ele>
        <time>2020-09-27T09:46:28.000Z</time>
      </trkpt>
      <trkpt lat="47.2594" lon="-2.42294">
        <ele>7.1999998092651</ele>
        <time>2020-09-27T09:46:35.000Z</time>
      </trkpt>
      <trkpt lat="47.25927" lon="-2.42256">
        <ele>7.1999998092651</ele>
        <time>2020-09-27T09:46:39.000Z</time>
      </trkpt>
      <trkpt lat="47.25925" lon="-2.42246">
        <ele>7.1999998092651</ele>
        <time>2020-09-27T09:46:40.000Z</time>
      </trkpt>
      <trkpt lat="47.25913" lon="-2.42159">
        <ele>7.1999998092651</ele>
        <time>2020-09-27T09:46:48.000Z</time>
      </trkpt>
      <trkpt lat="47.25906" lon="-2.42075">
        <ele>7.1999998092651</ele>
        <time>2020-09-27T09:46:56.000Z</time>
      </trkpt>
      <trkpt lat="47.25899" lon="-2.42044">
        <ele>7.1999998092651</ele>
        <time>2020-09-27T09:46:59.000Z</time>
      </trkpt>
      <trkpt lat="47.25895" lon="-2.42035">
        <ele>7.1999998092651</ele>
        <time>2020-09-27T09:47:00.000Z</time>
      </trkpt>
      <trkpt lat="47.25877" lon="-2.4201">
        <ele>7.1999998092651</ele>
        <time>2020-09-27T09:47:03.000Z</time>
      </trkpt>
      <trkpt lat="47.25871" lon="-2.42002">
        <ele>7.1999998092651</ele>
        <time>2020-09-27T09:47:04.000Z</time>
      </trkpt>
      <trkpt lat="47.25861" lon="-2.41982">
        <ele>7.1999998092651</ele>
        <time>2020-09-27T09:47:06.000Z</time>
      </trkpt>
      <trkpt lat="47.25858" lon="-2.4197">
        <ele>7.1999998092651</ele>
        <time>2020-09-27T09:47:07.000Z</time>
      </trkpt>
      <trkpt lat="47.25857" lon="-2.41933">
        <ele>7.1999998092651</ele>
        <time>2020-09-27T09:47:10.000Z</time>
      </trkpt>
      <trkpt lat="47.2586" lon="-2.41909">
        <ele>7.1999998092651</ele>
        <time>2020-09-27T09:47:12.000Z</time>
      </trkpt>
      <trkpt lat="47.25866" lon="-2.41875">
        <ele>7.1999998092651</ele>
        <time>2020-09-27T09:47:15.000Z</time>
      </trkpt>
      <trkpt lat="47.25871" lon="-2.41854">
        <ele>7.1999998092651</ele>
        <time>2020-09-27T09:47:17.000Z</time>
      </trkpt>
      <trkpt lat="47.25881" lon="-2.41826">
        <ele>7.1999998092651</ele>
        <time>2020-09-27T09:47:20.000Z</time>
      </trkpt>
      <trkpt lat="47.25893" lon="-2.41799">
        <ele>7.1999998092651</ele>
        <time>2020-09-27T09:47:23.000Z</time>
      </trkpt>
      <trkpt lat="47.25907" lon="-2.41776">
        <ele>7.1999998092651</ele>
        <time>2020-09-27T09:47:26.000Z</time>
      </trkpt>
      <trkpt lat="47.25917" lon="-2.41763">
        <ele>7.1999998092651</ele>
        <time>2020-09-27T09:47:28.000Z</time>
      </trkpt>
      <trkpt lat="47.25928" lon="-2.41755">
        <ele>7.1999998092651</ele>
        <time>2020-09-27T09:47:30.000Z</time>
      </trkpt>
      <trkpt lat="47.25951" lon="-2.41748">
        <ele>7.1999998092651</ele>
        <time>2020-09-27T09:47:34.000Z</time>
      </trkpt>
      <trkpt lat="47.25957" lon="-2.41749">
        <ele>7.1999998092651</ele>
        <time>2020-09-27T09:47:35.000Z</time>
      </trkpt>
      <trkpt lat="47.25963" lon="-2.4175">
        <ele>7.1999998092651</ele>
        <time>2020-09-27T09:47:36.000Z</time>
      </trkpt>
      <trkpt lat="47.2598" lon="-2.41756">
        <ele>7.1999998092651</ele>
        <time>2020-09-27T09:47:39.000Z</time>
      </trkpt>
      <trkpt lat="47.26015" lon="-2.41766">
        <ele>7.1999998092651</ele>
        <time>2020-09-27T09:47:46.000Z</time>
      </trkpt>
      <trkpt lat="47.26053" lon="-2.41778">
        <ele>7.1999998092651</ele>
        <time>2020-09-27T09:47:53.000Z</time>
      </trkpt>
      <trkpt lat="47.26075" lon="-2.41785">
        <ele>7.1999998092651</ele>
        <time>2020-09-27T09:47:57.000Z</time>
      </trkpt>
      <trkpt lat="47.26093" lon="-2.41789">
        <ele>7.1999998092651</ele>
        <time>2020-09-27T09:48:00.000Z</time>
      </trkpt>
      <trkpt lat="47.26139" lon="-2.41804">
        <ele>7.1999998092651</ele>
        <time>2020-09-27T09:48:08.000Z</time>
      </trkpt>
      <trkpt lat="47.2617" lon="-2.41824">
        <ele>7.1999998092651</ele>
        <time>2020-09-27T09:48:14.000Z</time>
      </trkpt>
      <trkpt lat="47.26184" lon="-2.41839">
        <ele>7.1999998092651</ele>
        <time>2020-09-27T09:48:17.000Z</time>
      </trkpt>
      <trkpt lat="47.26199" lon="-2.41858">
        <ele>7.1999998092651</ele>
        <time>2020-09-27T09:48:20.000Z</time>
      </trkpt>
      <trkpt lat="47.26204" lon="-2.41864">
        <ele>6.8000001907349</ele>
        <time>2020-09-27T09:48:21.000Z</time>
      </trkpt>
      <trkpt lat="47.26209" lon="-2.41869">
        <ele>6.4000000953674</ele>
        <time>2020-09-27T09:48:22.000Z</time>
      </trkpt>
      <trkpt lat="47.26214" lon="-2.41875">
        <ele>5.8000001907349</ele>
        <time>2020-09-27T09:48:23.000Z</time>
      </trkpt>
      <trkpt lat="47.2622" lon="-2.4188">
        <ele>5.4000000953674</ele>
        <time>2020-09-27T09:48:24.000Z</time>
      </trkpt>
      <trkpt lat="47.26225" lon="-2.41885">
        <ele>5</ele>
        <time>2020-09-27T09:48:25.000Z</time>
      </trkpt>
      <trkpt lat="47.26231" lon="-2.41889">
        <ele>5</ele>
        <time>2020-09-27T09:48:26.000Z</time>
      </trkpt>
      <trkpt lat="47.26265" lon="-2.41916">
        <ele>4.5999999046326</ele>
        <time>2020-09-27T09:48:32.000Z</time>
      </trkpt>
      <trkpt lat="47.26271" lon="-2.4192">
        <ele>4.1999998092651</ele>
        <time>2020-09-27T09:48:33.000Z</time>
      </trkpt>
      <trkpt lat="47.26277" lon="-2.41924">
        <ele>3.7999999523163</ele>
        <time>2020-09-27T09:48:34.000Z</time>
      </trkpt>
      <trkpt lat="47.26283" lon="-2.41928">
        <ele>3.2000000476837</ele>
        <time>2020-09-27T09:48:35.000Z</time>
      </trkpt>
      <trkpt lat="47.26288" lon="-2.41932">
        <ele>2.7999999523163</ele>
        <time>2020-09-27T09:48:36.000Z</time>
      </trkpt>
      <trkpt lat="47.26324" lon="-2.41953">
        <ele>2.7999999523163</ele>
        <time>2020-09-27T09:48:42.000Z</time>
      </trkpt>
      <trkpt lat="47.26366" lon="-2.41979">
        <ele>2.7999999523163</ele>
        <time>2020-09-27T09:48:49.000Z</time>
      </trkpt>
      <trkpt lat="47.26378" lon="-2.41986">
        <ele>2.7999999523163</ele>
        <time>2020-09-27T09:48:51.000Z</time>
      </trkpt>
      <trkpt lat="47.2641" lon="-2.42009">
        <ele>2.7999999523163</ele>
        <time>2020-09-27T09:48:57.000Z</time>
      </trkpt>
      <trkpt lat="47.26447" lon="-2.42044">
        <ele>2.7999999523163</ele>
        <time>2020-09-27T09:49:04.000Z</time>
      </trkpt>
      <trkpt lat="47.26487" lon="-2.42089">
        <ele>2.7999999523163</ele>
        <time>2020-09-27T09:49:12.000Z</time>
      </trkpt>
      <trkpt lat="47.26517" lon="-2.4212">
        <ele>2.7999999523163</ele>
        <time>2020-09-27T09:49:18.000Z</time>
      </trkpt>
      <trkpt lat="47.26547" lon="-2.42153">
        <ele>2.7999999523163</ele>
        <time>2020-09-27T09:49:24.000Z</time>
      </trkpt>
      <trkpt lat="47.2657" lon="-2.42169">
        <ele>2.4000000953674</ele>
        <time>2020-09-27T09:49:28.000Z</time>
      </trkpt>
      <trkpt lat="47.26576" lon="-2.42174">
        <ele>2</ele>
        <time>2020-09-27T09:49:29.000Z</time>
      </trkpt>
      <trkpt lat="47.26581" lon="-2.42178">
        <ele>1.3999999761581</ele>
        <time>2020-09-27T09:49:30.000Z</time>
      </trkpt>
      <trkpt lat="47.26587" lon="-2.42183">
        <ele>1</ele>
        <time>2020-09-27T09:49:31.000Z</time>
      </trkpt>
      <trkpt lat="47.26592" lon="-2.42188">
        <ele>0.60000002384186</ele>
        <time>2020-09-27T09:49:32.000Z</time>
      </trkpt>
      <trkpt lat="47.26615" lon="-2.42203">
        <ele>0.60000002384186</ele>
        <time>2020-09-27T09:49:36.000Z</time>
      </trkpt>
      <trkpt lat="47.26642" lon="-2.4223">
        <ele>0.60000002384186</ele>
        <time>2020-09-27T09:49:42.000Z</time>
      </trkpt>
      <trkpt lat="47.26646" lon="-2.42235">
        <ele>0.60000002384186</ele>
        <time>2020-09-27T09:49:43.000Z</time>
      </trkpt>
      <trkpt lat="47.26666" lon="-2.42263">
        <ele>0.60000002384186</ele>
        <time>2020-09-27T09:49:48.000Z</time>
      </trkpt>
      <trkpt lat="47.26693" lon="-2.42297">
        <ele>0.60000002384186</ele>
        <time>2020-09-27T09:49:55.000Z</time>
      </trkpt>
      <trkpt lat="47.26698" lon="-2.42301">
        <ele>0.60000002384186</ele>
        <time>2020-09-27T09:49:56.000Z</time>
      </trkpt>
      <trkpt lat="47.26723" lon="-2.42317">
        <ele>0.60000002384186</ele>
        <time>2020-09-27T09:50:01.000Z</time>
      </trkpt>
      <trkpt lat="47.26763" lon="-2.42345">
        <ele>0.60000002384186</ele>
        <time>2020-09-27T09:50:09.000Z</time>
      </trkpt>
      <trkpt lat="47.26768" lon="-2.42349">
        <ele>0.60000002384186</ele>
        <time>2020-09-27T09:50:10.000Z</time>
      </trkpt>
      <trkpt lat="47.26779" lon="-2.42367">
        <ele>0.60000002384186</ele>
        <time>2020-09-27T09:50:13.000Z</time>
      </trkpt>
      <trkpt lat="47.26805" lon="-2.42411">
        <ele>0.60000002384186</ele>
        <time>2020-09-27T09:50:20.000Z</time>
      </trkpt>
      <trkpt lat="47.26809" lon="-2.42417">
        <ele>1</ele>
        <time>2020-09-27T09:50:21.000Z</time>
      </trkpt>
      <trkpt lat="47.26812" lon="-2.42424">
        <ele>1.3999999761581</ele>
        <time>2020-09-27T09:50:22.000Z</time>
      </trkpt>
      <trkpt lat="47.26816" lon="-2.4243">
        <ele>2</ele>
        <time>2020-09-27T09:50:23.000Z</time>
      </trkpt>
      <trkpt lat="47.26819" lon="-2.42436">
        <ele>2.4000000953674</ele>
        <time>2020-09-27T09:50:24.000Z</time>
      </trkpt>
      <trkpt lat="47.26823" lon="-2.42443">
        <ele>2.7999999523163</ele>
        <time>2020-09-27T09:50:25.000Z</time>
      </trkpt>
      <trkpt lat="47.26836" lon="-2.42459">
        <ele>2.7999999523163</ele>
        <time>2020-09-27T09:50:28.000Z</time>
      </trkpt>
      <trkpt lat="47.26857" lon="-2.42465">
        <ele>2.7999999523163</ele>
        <time>2020-09-27T09:50:32.000Z</time>
      </trkpt>
      <trkpt lat="47.26899" lon="-2.42467">
        <ele>2.7999999523163</ele>
        <time>2020-09-27T09:50:39.000Z</time>
      </trkpt>
      <trkpt lat="47.26911" lon="-2.42469">
        <ele>2.7999999523163</ele>
        <time>2020-09-27T09:50:41.000Z</time>
      </trkpt>
      <trkpt lat="47.26922" lon="-2.42472">
        <ele>2.7999999523163</ele>
        <time>2020-09-27T09:50:43.000Z</time>
      </trkpt>
      <trkpt lat="47.26934" lon="-2.42477">
        <ele>2.7999999523163</ele>
        <time>2020-09-27T09:50:45.000Z</time>
      </trkpt>
      <trkpt lat="47.26944" lon="-2.42485">
        <ele>2.7999999523163</ele>
        <time>2020-09-27T09:50:47.000Z</time>
      </trkpt>
      <trkpt lat="47.26948" lon="-2.4249">
        <ele>2.7999999523163</ele>
        <time>2020-09-27T09:50:48.000Z</time>
      </trkpt>
      <trkpt lat="47.26965" lon="-2.42512">
        <ele>2.7999999523163</ele>
        <time>2020-09-27T09:50:52.000Z</time>
      </trkpt>
      <trkpt lat="47.26972" lon="-2.42523">
        <ele>2.7999999523163</ele>
        <time>2020-09-27T09:50:54.000Z</time>
      </trkpt>
      <trkpt lat="47.26979" lon="-2.42534">
        <ele>2.7999999523163</ele>
        <time>2020-09-27T09:50:56.000Z</time>
      </trkpt>
      <trkpt lat="47.26999" lon="-2.42575">
        <ele>2.7999999523163</ele>
        <time>2020-09-27T09:51:02.000Z</time>
      </trkpt>
      <trkpt lat="47.27017" lon="-2.42625">
        <ele>2.7999999523163</ele>
        <time>2020-09-27T09:51:09.000Z</time>
      </trkpt>
      <trkpt lat="47.2702" lon="-2.4263">
        <ele>2.4000000953674</ele>
        <time>2020-09-27T09:51:10.000Z</time>
      </trkpt>
      <trkpt lat="47.27023" lon="-2.42635">
        <ele>2</ele>
        <time>2020-09-27T09:51:11.000Z</time>
      </trkpt>
      <trkpt lat="47.27026" lon="-2.42639">
        <ele>1.3999999761581</ele>
        <time>2020-09-27T09:51:12.000Z</time>
      </trkpt>
      <trkpt lat="47.2703" lon="-2.42642">
        <ele>1</ele>
        <time>2020-09-27T09:51:13.000Z</time>
      </trkpt>
      <trkpt lat="47.27034" lon="-2.42646">
        <ele>0.60000002384186</ele>
        <time>2020-09-27T09:51:14.000Z</time>
      </trkpt>
      <trkpt lat="47.27051" lon="-2.42658">
        <ele>0.60000002384186</ele>
        <time>2020-09-27T09:51:18.000Z</time>
      </trkpt>
      <trkpt lat="47.27056" lon="-2.42659">
        <ele>0.60000002384186</ele>
        <time>2020-09-27T09:51:19.000Z</time>
      </trkpt>
      <trkpt lat="47.27077" lon="-2.42656">
        <ele>0.60000002384186</ele>
        <time>2020-09-27T09:51:23.000Z</time>
      </trkpt>
      <trkpt lat="47.27082" lon="-2.42655">
        <ele>0.60000002384186</ele>
        <time>2020-09-27T09:51:24.000Z</time>
      </trkpt>
      <trkpt lat="47.27113" lon="-2.42642">
        <ele>0.60000002384186</ele>
        <time>2020-09-27T09:51:30.000Z</time>
      </trkpt>
      <trkpt lat="47.27157" lon="-2.42623">
        <ele>0.60000002384186</ele>
        <time>2020-09-27T09:51:38.000Z</time>
      </trkpt>
      <trkpt lat="47.27195" lon="-2.4261">
        <ele>0.60000002384186</ele>
        <time>2020-09-27T09:51:45.000Z</time>
      </trkpt>
      <trkpt lat="47.27232" lon="-2.42598">
        <ele>0.60000002384186</ele>
        <time>2020-09-27T09:51:52.000Z</time>
      </trkpt>
      <trkpt lat="47.27237" lon="-2.42595">
        <ele>0.60000002384186</ele>
        <time>2020-09-27T09:51:53.000Z</time>
      </trkpt>
      <trkpt lat="47.27272" lon="-2.42582">
        <ele>0.60000002384186</ele>
        <time>2020-09-27T09:51:59.000Z</time>
      </trkpt>
      <trkpt lat="47.27296" lon="-2.42571">
        <ele>0.60000002384186</ele>
        <time>2020-09-27T09:52:03.000Z</time>
      </trkpt>
      <trkpt lat="47.27302" lon="-2.42567">
        <ele>0.60000002384186</ele>
        <time>2020-09-27T09:52:04.000Z</time>
      </trkpt>
      <trkpt lat="47.27313" lon="-2.42562">
        <ele>0.60000002384186</ele>
        <time>2020-09-27T09:52:06.000Z</time>
      </trkpt>
      <trkpt lat="47.2733" lon="-2.42559">
        <ele>0.60000002384186</ele>
        <time>2020-09-27T09:52:09.000Z</time>
      </trkpt>
      <trkpt lat="47.27341" lon="-2.42559">
        <ele>0.60000002384186</ele>
        <time>2020-09-27T09:52:11.000Z</time>
      </trkpt>
      <trkpt lat="47.27386" lon="-2.42554">
        <ele>0.60000002384186</ele>
        <time>2020-09-27T09:52:19.000Z</time>
      </trkpt>
      <trkpt lat="47.27414" lon="-2.42554">
        <ele>0.60000002384186</ele>
        <time>2020-09-27T09:52:24.000Z</time>
      </trkpt>
      <trkpt lat="47.27418" lon="-2.42557">
        <ele>0.60000002384186</ele>
        <time>2020-09-27T09:52:25.000Z</time>
      </trkpt>
      <trkpt lat="47.27429" lon="-2.42569">
        <ele>0.60000002384186</ele>
        <time>2020-09-27T09:52:29.000Z</time>
      </trkpt>
      <trkpt lat="47.27449" lon="-2.42593">
        <ele>0.60000002384186</ele>
        <time>2020-09-27T09:52:34.000Z</time>
      </trkpt>
      <trkpt lat="47.27477" lon="-2.42636">
        <ele>0.60000002384186</ele>
        <time>2020-09-27T09:52:42.000Z</time>
      </trkpt>
      <trkpt lat="47.27493" lon="-2.42676">
        <ele>0.60000002384186</ele>
        <time>2020-09-27T09:52:49.000Z</time>
      </trkpt>
      <trkpt lat="47.27495" lon="-2.4268">
        <ele>4</ele>
        <time>2020-09-27T09:52:50.000Z</time>
      </trkpt>
      <trkpt lat="47.27499" lon="-2.42683">
        <ele>-0.40000000596046</ele>
        <time>2020-09-27T09:52:51.000Z</time>
      </trkpt>
      <trkpt lat="47.27502" lon="-2.42684">
        <ele>-0.80000001192093</ele>
        <time>2020-09-27T09:52:52.000Z</time>
      </trkpt>
      <trkpt lat="47.27505" lon="-2.42682">
        <ele>-1.2000000476837</ele>
        <time>2020-09-27T09:52:53.000Z</time>
      </trkpt>
      <trkpt lat="47.27509" lon="-2.42679">
        <ele>-1.6000000238419</ele>
        <time>2020-09-27T09:52:54.000Z</time>
      </trkpt>
      <trkpt lat="47.27519" lon="-2.42668">
        <ele>-1.6000000238419</ele>
        <time>2020-09-27T09:52:58.000Z</time>
      </trkpt>
      <trkpt lat="47.27526" lon="-2.42656">
        <ele>-1.6000000238419</ele>
        <time>2020-09-27T09:53:03.000Z</time>
      </trkpt>
      <trkpt lat="47.27538" lon="-2.42635">
        <ele>-1.6000000238419</ele>
        <time>2020-09-27T09:53:10.000Z</time>
      </trkpt>
      <trkpt lat="47.27541" lon="-2.42633">
        <ele>-1.6000000238419</ele>
        <time>2020-09-27T09:53:11.000Z</time>
      </trkpt>
      <trkpt lat="47.27548" lon="-2.42636">
        <ele>-1.6000000238419</ele>
        <time>2020-09-27T09:53:13.000Z</time>
      </trkpt>
      <trkpt lat="47.27559" lon="-2.42648">
        <ele>-1.6000000238419</ele>
        <time>2020-09-27T09:53:16.000Z</time>
      </trkpt>
      <trkpt lat="47.27567" lon="-2.42659">
        <ele>-1.6000000238419</ele>
        <time>2020-09-27T09:53:18.000Z</time>
      </trkpt>
      <trkpt lat="47.2759" lon="-2.42689">
        <ele>-1.6000000238419</ele>
        <time>2020-09-27T09:53:23.000Z</time>
      </trkpt>
      <trkpt lat="47.27629" lon="-2.4274">
        <ele>-1.6000000238419</ele>
        <time>2020-09-27T09:53:32.000Z</time>
      </trkpt>
      <trkpt lat="47.27657" lon="-2.42769">
        <ele>-1.6000000238419</ele>
        <time>2020-09-27T09:53:38.000Z</time>
      </trkpt>
      <trkpt lat="47.27681" lon="-2.4279">
        <ele>-1.6000000238419</ele>
        <time>2020-09-27T09:53:44.000Z</time>
      </trkpt>
      <trkpt lat="47.27685" lon="-2.42791">
        <ele>-1.6000000238419</ele>
        <time>2020-09-27T09:53:45.000Z</time>
      </trkpt>
      <trkpt lat="47.2772" lon="-2.42801">
        <ele>-1.6000000238419</ele>
        <time>2020-09-27T09:53:53.000Z</time>
      </trkpt>
      <trkpt lat="47.27754" lon="-2.42809">
        <ele>-1.6000000238419</ele>
        <time>2020-09-27T09:54:01.000Z</time>
      </trkpt>
      <trkpt lat="47.27787" lon="-2.42813">
        <ele>-1.6000000238419</ele>
        <time>2020-09-27T09:54:09.000Z</time>
      </trkpt>
      <trkpt lat="47.27815" lon="-2.42815">
        <ele>-1.6000000238419</ele>
        <time>2020-09-27T09:54:16.000Z</time>
      </trkpt>
      <trkpt lat="47.27825" lon="-2.42809">
        <ele>-1.6000000238419</ele>
        <time>2020-09-27T09:54:19.000Z</time>
      </trkpt>
      <trkpt lat="47.27826" lon="-2.42803">
        <ele>-1.6000000238419</ele>
        <time>2020-09-27T09:54:20.000Z</time>
      </trkpt>
      <trkpt lat="47.27827" lon="-2.42782">
        <ele>-1.6000000238419</ele>
        <time>2020-09-27T09:54:23.000Z</time>
      </trkpt>
      <trkpt lat="47.27828" lon="-2.42759">
        <ele>-1.2000000476837</ele>
        <time>2020-09-27T09:54:26.000Z</time>
      </trkpt>
      <trkpt lat="47.27828" lon="-2.42752">
        <ele>-0.80000001192093</ele>
        <time>2020-09-27T09:54:27.000Z</time>
      </trkpt>
      <trkpt lat="47.27827" lon="-2.42746">
        <ele>-0.40000000596046</ele>
        <time>2020-09-27T09:54:28.000Z</time>
      </trkpt>
      <trkpt lat="47.27827" lon="-2.42741">
        <ele>2</ele>
        <time>2020-09-27T09:54:29.000Z</time>
      </trkpt>
      <trkpt lat="47.27827" lon="-2.42738">
        <ele>0.40000000596046</ele>
        <time>2020-09-27T09:54:30.000Z</time>
      </trkpt>
      <trkpt lat="47.27827" lon="-2.42719">
        <ele>0.40000000596046</ele>
        <time>2020-09-27T09:54:35.000Z</time>
      </trkpt>
      <trkpt lat="47.27825" lon="-2.42695">
        <ele>5</ele>
        <time>2020-09-27T09:54:38.000Z</time>
      </trkpt>
      <trkpt lat="47.27826" lon="-2.42687">
        <ele>-0.40000000596046</ele>
        <time>2020-09-27T09:54:39.000Z</time>
      </trkpt>
      <trkpt lat="47.27825" lon="-2.42678">
        <ele>-0.80000001192093</ele>
        <time>2020-09-27T09:54:40.000Z</time>
      </trkpt>
      <trkpt lat="47.27824" lon="-2.42668">
        <ele>-1.3999999761581</ele>
        <time>2020-09-27T09:54:41.000Z</time>
      </trkpt>
      <trkpt lat="47.27822" lon="-2.42659">
        <ele>-1.7999999523163</ele>
        <time>2020-09-27T09:54:42.000Z</time>
      </trkpt>
      <trkpt lat="47.27821" lon="-2.42649">
        <ele>-1.7999999523163</ele>
        <time>2020-09-27T09:54:43.000Z</time>
      </trkpt>
      <trkpt lat="47.27805" lon="-2.42579">
        <ele>-1.7999999523163</ele>
        <time>2020-09-27T09:54:50.000Z</time>
      </trkpt>
      <trkpt lat="47.27788" lon="-2.42532">
        <ele>-1.7999999523163</ele>
        <time>2020-09-27T09:54:55.000Z</time>
      </trkpt>
      <trkpt lat="47.27766" lon="-2.42466">
        <ele>-1.7999999523163</ele>
        <time>2020-09-27T09:55:02.000Z</time>
      </trkpt>
      <trkpt lat="47.27752" lon="-2.42398">
        <ele>-1.7999999523163</ele>
        <time>2020-09-27T09:55:09.000Z</time>
      </trkpt>
      <trkpt lat="47.27742" lon="-2.42319">
        <ele>-1.7999999523163</ele>
        <time>2020-09-27T09:55:17.000Z</time>
      </trkpt>
      <trkpt lat="47.27737" lon="-2.4225">
        <ele>-1.7999999523163</ele>
        <time>2020-09-27T09:55:24.000Z</time>
      </trkpt>
      <trkpt lat="47.27736" lon="-2.4223">
        <ele>-1.7999999523163</ele>
        <time>2020-09-27T09:55:26.000Z</time>
      </trkpt>
      <trkpt lat="47.27734" lon="-2.42201">
        <ele>-1.7999999523163</ele>
        <time>2020-09-27T09:55:29.000Z</time>
      </trkpt>
      <trkpt lat="47.27736" lon="-2.42135">
        <ele>-1.7999999523163</ele>
        <time>2020-09-27T09:55:36.000Z</time>
      </trkpt>
      <trkpt lat="47.2774" lon="-2.42078">
        <ele>-1.7999999523163</ele>
        <time>2020-09-27T09:55:42.000Z</time>
      </trkpt>
      <trkpt lat="47.27752" lon="-2.42021">
        <ele>-1.7999999523163</ele>
        <time>2020-09-27T09:55:48.000Z</time>
      </trkpt>
      <trkpt lat="47.27766" lon="-2.4197">
        <ele>-1.7999999523163</ele>
        <time>2020-09-27T09:55:54.000Z</time>
      </trkpt>
      <trkpt lat="47.27784" lon="-2.41911">
        <ele>-1.7999999523163</ele>
        <time>2020-09-27T09:56:01.000Z</time>
      </trkpt>
      <trkpt lat="47.27808" lon="-2.41845">
        <ele>-1.7999999523163</ele>
        <time>2020-09-27T09:56:09.000Z</time>
      </trkpt>
      <trkpt lat="47.27812" lon="-2.41837">
        <ele>-1.3999999761581</ele>
        <time>2020-09-27T09:56:10.000Z</time>
      </trkpt>
      <trkpt lat="47.27815" lon="-2.4183">
        <ele>-0.80000001192093</ele>
        <time>2020-09-27T09:56:11.000Z</time>
      </trkpt>
      <trkpt lat="47.27818" lon="-2.41823">
        <ele>4.2</ele>
        <time>2020-09-27T09:56:12.000Z</time>
      </trkpt>
      <trkpt lat="47.27821" lon="-2.41815">
        <ele>0.40000000596046</ele>
        <time>2020-09-27T09:56:13.000Z</time>
      </trkpt>
      <trkpt lat="47.27827" lon="-2.41801">
        <ele>0.40000000596046</ele>
        <time>2020-09-27T09:56:15.000Z</time>
      </trkpt>
      <trkpt lat="47.27841" lon="-2.41768">
        <ele>0.40000000596046</ele>
        <time>2020-09-27T09:56:20.000Z</time>
      </trkpt>
      <trkpt lat="47.27846" lon="-2.41757">
        <ele>4</ele>
        <time>2020-09-27T09:56:24.000Z</time>
      </trkpt>
      <trkpt lat="47.27846" lon="-2.41757">
        <ele>-0.40000000596046</ele>
        <time>2020-09-27T09:56:25.000Z</time>
      </trkpt>
      <trkpt lat="47.27846" lon="-2.41754">
        <ele>-1.6000000238419</ele>
        <time>2020-09-27T09:56:32.000Z</time>
      </trkpt>
      <trkpt lat="47.27846" lon="-2.41752">
        <ele>-1.6000000238419</ele>
        <time>2020-09-27T09:56:33.000Z</time>
      </trkpt>
      <trkpt lat="47.27852" lon="-2.4174">
        <ele>-1.6000000238419</ele>
        <time>2020-09-27T09:56:36.000Z</time>
      </trkpt>
      <trkpt lat="47.27854" lon="-2.41736">
        <ele>-1.6000000238419</ele>
        <time>2020-09-27T09:56:37.000Z</time>
      </trkpt>
      <trkpt lat="47.27857" lon="-2.41731">
        <ele>-1.6000000238419</ele>
        <time>2020-09-27T09:56:38.000Z</time>
      </trkpt>
      <trkpt lat="47.27864" lon="-2.41714">
        <ele>-1.6000000238419</ele>
        <time>2020-09-27T09:56:41.000Z</time>
      </trkpt>
      <trkpt lat="47.27873" lon="-2.41695">
        <ele>-1.6000000238419</ele>
        <time>2020-09-27T09:56:44.000Z</time>
      </trkpt>
      <trkpt lat="47.27884" lon="-2.41676">
        <ele>-1.6000000238419</ele>
        <time>2020-09-27T09:56:47.000Z</time>
      </trkpt>
      <trkpt lat="47.27913" lon="-2.41622">
        <ele>-1.6000000238419</ele>
        <time>2020-09-27T09:56:55.000Z</time>
      </trkpt>
      <trkpt lat="47.2793" lon="-2.41584">
        <ele>-1.6000000238419</ele>
        <time>2020-09-27T09:57:00.000Z</time>
      </trkpt>
      <trkpt lat="47.27933" lon="-2.41576">
        <ele>-1.6000000238419</ele>
        <time>2020-09-27T09:57:01.000Z</time>
      </trkpt>
      <trkpt lat="47.27956" lon="-2.41524">
        <ele>-1.6000000238419</ele>
        <time>2020-09-27T09:57:08.000Z</time>
      </trkpt>
      <trkpt lat="47.27962" lon="-2.41507">
        <ele>-1.2000000476837</ele>
        <time>2020-09-27T09:57:10.000Z</time>
      </trkpt>
      <trkpt lat="47.27965" lon="-2.415">
        <ele>-0.80000001192093</ele>
        <time>2020-09-27T09:57:11.000Z</time>
      </trkpt>
      <trkpt lat="47.27968" lon="-2.41492">
        <ele>-0.40000000596046</ele>
        <time>2020-09-27T09:57:12.000Z</time>
      </trkpt>
      <trkpt lat="47.2797" lon="-2.41484">
        <ele>5</ele>
        <time>2020-09-27T09:57:13.000Z</time>
      </trkpt>
      <trkpt lat="47.27972" lon="-2.41476">
        <ele>0.60000002384186</ele>
        <time>2020-09-27T09:57:14.000Z</time>
      </trkpt>
      <trkpt lat="47.27987" lon="-2.41421">
        <ele>0.60000002384186</ele>
        <time>2020-09-27T09:57:21.000Z</time>
      </trkpt>
      <trkpt lat="47.27995" lon="-2.41368">
        <ele>0.60000002384186</ele>
        <time>2020-09-27T09:57:27.000Z</time>
      </trkpt>
      <trkpt lat="47.28005" lon="-2.41302">
        <ele>0.60000002384186</ele>
        <time>2020-09-27T09:57:34.000Z</time>
      </trkpt>
      <trkpt lat="47.28019" lon="-2.41238">
        <ele>0.60000002384186</ele>
        <time>2020-09-27T09:57:41.000Z</time>
      </trkpt>
      <trkpt lat="47.28035" lon="-2.41174">
        <ele>0.60000002384186</ele>
        <time>2020-09-27T09:57:48.000Z</time>
      </trkpt>
      <trkpt lat="47.28044" lon="-2.41122">
        <ele>0.60000002384186</ele>
        <time>2020-09-27T09:57:54.000Z</time>
      </trkpt>
      <trkpt lat="47.28052" lon="-2.4107">
        <ele>0.60000002384186</ele>
        <time>2020-09-27T09:58:00.000Z</time>
      </trkpt>
      <trkpt lat="47.28066" lon="-2.41009">
        <ele>0.60000002384186</ele>
        <time>2020-09-27T09:58:07.000Z</time>
      </trkpt>
      <trkpt lat="47.28085" lon="-2.40944">
        <ele>0.60000002384186</ele>
        <time>2020-09-27T09:58:15.000Z</time>
      </trkpt>
      <trkpt lat="47.28086" lon="-2.40936">
        <ele>0.60000002384186</ele>
        <time>2020-09-27T09:58:16.000Z</time>
      </trkpt>
      <trkpt lat="47.28084" lon="-2.40921">
        <ele>0.60000002384186</ele>
        <time>2020-09-27T09:58:18.000Z</time>
      </trkpt>
      <trkpt lat="47.28077" lon="-2.40907">
        <ele>0.60000002384186</ele>
        <time>2020-09-27T09:58:20.000Z</time>
      </trkpt>
      <trkpt lat="47.2807" lon="-2.40893">
        <ele>0.60000002384186</ele>
        <time>2020-09-27T09:58:22.000Z</time>
      </trkpt>
      <trkpt lat="47.28052" lon="-2.40853">
        <ele>0.60000002384186</ele>
        <time>2020-09-27T09:58:28.000Z</time>
      </trkpt>
      <trkpt lat="47.28041" lon="-2.40829">
        <ele>0.60000002384186</ele>
        <time>2020-09-27T09:58:32.000Z</time>
      </trkpt>
      <trkpt lat="47.28034" lon="-2.40818">
        <ele>0.60000002384186</ele>
        <time>2020-09-27T09:58:34.000Z</time>
      </trkpt>
      <trkpt lat="47.28035" lon="-2.40797">
        <ele>0.60000002384186</ele>
        <time>2020-09-27T09:58:37.000Z</time>
      </trkpt>
      <trkpt lat="47.28039" lon="-2.40781">
        <ele>0.60000002384186</ele>
        <time>2020-09-27T09:58:39.000Z</time>
      </trkpt>
      <trkpt lat="47.28046" lon="-2.40754">
        <ele>0.60000002384186</ele>
        <time>2020-09-27T09:58:42.000Z</time>
      </trkpt>
      <trkpt lat="47.28058" lon="-2.40692">
        <ele>0.60000002384186</ele>
        <time>2020-09-27T09:58:49.000Z</time>
      </trkpt>
      <trkpt lat="47.28056" lon="-2.40646">
        <ele>0.60000002384186</ele>
        <time>2020-09-27T09:58:54.000Z</time>
      </trkpt>
      <trkpt lat="47.28054" lon="-2.40637">
        <ele>0.60000002384186</ele>
        <time>2020-09-27T09:58:55.000Z</time>
      </trkpt>
      <trkpt lat="47.2805" lon="-2.4061">
        <ele>0.60000002384186</ele>
        <time>2020-09-27T09:58:58.000Z</time>
      </trkpt>
      <trkpt lat="47.2805" lon="-2.40601">
        <ele>0.60000002384186</ele>
        <time>2020-09-27T09:58:59.000Z</time>
      </trkpt>
      <trkpt lat="47.28057" lon="-2.40575">
        <ele>0.60000002384186</ele>
        <time>2020-09-27T09:59:02.000Z</time>
      </trkpt>
      <trkpt lat="47.28059" lon="-2.40565">
        <ele>0.60000002384186</ele>
        <time>2020-09-27T09:59:03.000Z</time>
      </trkpt>
      <trkpt lat="47.28075" lon="-2.40495">
        <ele>0.60000002384186</ele>
        <time>2020-09-27T09:59:11.000Z</time>
      </trkpt>
      <trkpt lat="47.2808" lon="-2.40478">
        <ele>0.60000002384186</ele>
        <time>2020-09-27T09:59:13.000Z</time>
      </trkpt>
      <trkpt lat="47.28092" lon="-2.40456">
        <ele>0.60000002384186</ele>
        <time>2020-09-27T09:59:16.000Z</time>
      </trkpt>
      <trkpt lat="47.28101" lon="-2.40441">
        <ele>0.60000002384186</ele>
        <time>2020-09-27T09:59:18.000Z</time>
      </trkpt>
      <trkpt lat="47.28112" lon="-2.40419">
        <ele>0.60000002384186</ele>
        <time>2020-09-27T09:59:21.000Z</time>
      </trkpt>
      <trkpt lat="47.28115" lon="-2.40392">
        <ele>0.60000002384186</ele>
        <time>2020-09-27T09:59:24.000Z</time>
      </trkpt>
      <trkpt lat="47.28125" lon="-2.40305">
        <ele>0.60000002384186</ele>
        <time>2020-09-27T09:59:33.000Z</time>
      </trkpt>
      <trkpt lat="47.2813" lon="-2.40264">
        <ele>1</ele>
        <time>2020-09-27T09:59:37.000Z</time>
      </trkpt>
      <trkpt lat="47.28131" lon="-2.40255">
        <ele>1.3999999761581</ele>
        <time>2020-09-27T09:59:38.000Z</time>
      </trkpt>
      <trkpt lat="47.28132" lon="-2.40245">
        <ele>1.7999999523163</ele>
        <time>2020-09-27T09:59:39.000Z</time>
      </trkpt>
      <trkpt lat="47.28133" lon="-2.40235">
        <ele>2.2000000476837</ele>
        <time>2020-09-27T09:59:40.000Z</time>
      </trkpt>
      <trkpt lat="47.28134" lon="-2.40225">
        <ele>2.5999999046326</ele>
        <time>2020-09-27T09:59:41.000Z</time>
      </trkpt>
      <trkpt lat="47.28135" lon="-2.40215">
        <ele>2.5999999046326</ele>
        <time>2020-09-27T09:59:42.000Z</time>
      </trkpt>
      <trkpt lat="47.28143" lon="-2.40136">
        <ele>2.5999999046326</ele>
        <time>2020-09-27T09:59:50.000Z</time>
      </trkpt>
      <trkpt lat="47.2815" lon="-2.40048">
        <ele>2.5999999046326</ele>
        <time>2020-09-27T09:59:59.000Z</time>
      </trkpt>
      <trkpt lat="47.2815" lon="-2.40039">
        <ele>2.5999999046326</ele>
        <time>2020-09-27T10:00:00.000Z</time>
      </trkpt>
      <trkpt lat="47.28152" lon="-2.4003">
        <ele>2.5999999046326</ele>
        <time>2020-09-27T10:00:01.000Z</time>
      </trkpt>
      <trkpt lat="47.28154" lon="-2.40013">
        <ele>2.5999999046326</ele>
        <time>2020-09-27T10:00:03.000Z</time>
      </trkpt>
      <trkpt lat="47.28153" lon="-2.40004">
        <ele>2.5999999046326</ele>
        <time>2020-09-27T10:00:04.000Z</time>
      </trkpt>
      <trkpt lat="47.28158" lon="-2.39979">
        <ele>2.5999999046326</ele>
        <time>2020-09-27T10:00:07.000Z</time>
      </trkpt>
      <trkpt lat="47.28159" lon="-2.3997">
        <ele>2.5999999046326</ele>
        <time>2020-09-27T10:00:08.000Z</time>
      </trkpt>
      <trkpt lat="47.28158" lon="-2.39931">
        <ele>2.5999999046326</ele>
        <time>2020-09-27T10:00:12.000Z</time>
      </trkpt>
      <trkpt lat="47.28162" lon="-2.39859">
        <ele>2.5999999046326</ele>
        <time>2020-09-27T10:00:19.000Z</time>
      </trkpt>
      <trkpt lat="47.28169" lon="-2.3978">
        <ele>2.5999999046326</ele>
        <time>2020-09-27T10:00:27.000Z</time>
      </trkpt>
      <trkpt lat="47.28169" lon="-2.39771">
        <ele>2.5999999046326</ele>
        <time>2020-09-27T10:00:28.000Z</time>
      </trkpt>
      <trkpt lat="47.28171" lon="-2.39722">
        <ele>2.5999999046326</ele>
        <time>2020-09-27T10:00:34.000Z</time>
      </trkpt>
      <trkpt lat="47.28173" lon="-2.39653">
        <ele>2.5999999046326</ele>
        <time>2020-09-27T10:00:42.000Z</time>
      </trkpt>
      <trkpt lat="47.28175" lon="-2.39592">
        <ele>2.5999999046326</ele>
        <time>2020-09-27T10:00:49.000Z</time>
      </trkpt>
      <trkpt lat="47.28179" lon="-2.3951">
        <ele>2.5999999046326</ele>
        <time>2020-09-27T10:00:58.000Z</time>
      </trkpt>
      <trkpt lat="47.28178" lon="-2.39465">
        <ele>2.5999999046326</ele>
        <time>2020-09-27T10:01:03.000Z</time>
      </trkpt>
      <trkpt lat="47.28178" lon="-2.39383">
        <ele>2.5999999046326</ele>
        <time>2020-09-27T10:01:12.000Z</time>
      </trkpt>
      <trkpt lat="47.28177" lon="-2.39374">
        <ele>2.5999999046326</ele>
        <time>2020-09-27T10:01:13.000Z</time>
      </trkpt>
      <trkpt lat="47.28177" lon="-2.393">
        <ele>2.5999999046326</ele>
        <time>2020-09-27T10:01:21.000Z</time>
      </trkpt>
      <trkpt lat="47.28177" lon="-2.39228">
        <ele>2.5999999046326</ele>
        <time>2020-09-27T10:01:29.000Z</time>
      </trkpt>
      <trkpt lat="47.28174" lon="-2.39201">
        <ele>2.5999999046326</ele>
        <time>2020-09-27T10:01:32.000Z</time>
      </trkpt>
      <trkpt lat="47.28172" lon="-2.39176">
        <ele>2.5999999046326</ele>
        <time>2020-09-27T10:01:35.000Z</time>
      </trkpt>
      <trkpt lat="47.28168" lon="-2.39123">
        <ele>2.5999999046326</ele>
        <time>2020-09-27T10:01:42.000Z</time>
      </trkpt>
      <trkpt lat="47.28167" lon="-2.39102">
        <ele>2.5999999046326</ele>
        <time>2020-09-27T10:01:47.000Z</time>
      </trkpt>
      <trkpt lat="47.28166" lon="-2.39086">
        <ele>2.5999999046326</ele>
        <time>2020-09-27T10:01:54.000Z</time>
      </trkpt>
      <trkpt lat="47.28164" lon="-2.39051">
        <ele>2.5999999046326</ele>
        <time>2020-09-27T10:02:02.000Z</time>
      </trkpt>
      <trkpt lat="47.28161" lon="-2.39029">
        <ele>2.5999999046326</ele>
        <time>2020-09-27T10:02:06.000Z</time>
      </trkpt>
      <trkpt lat="47.28159" lon="-2.39016">
        <ele>2.5999999046326</ele>
        <time>2020-09-27T10:02:08.000Z</time>
      </trkpt>
      <trkpt lat="47.28155" lon="-2.38967">
        <ele>2.5999999046326</ele>
        <time>2020-09-27T10:02:15.000Z</time>
      </trkpt>
      <trkpt lat="47.28144" lon="-2.38922">
        <ele>2.5999999046326</ele>
        <time>2020-09-27T10:02:22.000Z</time>
      </trkpt>
      <trkpt lat="47.28139" lon="-2.38901">
        <ele>2.5999999046326</ele>
        <time>2020-09-27T10:02:25.000Z</time>
      </trkpt>
      <trkpt lat="47.28137" lon="-2.38886">
        <ele>2.5999999046326</ele>
        <time>2020-09-27T10:02:27.000Z</time>
      </trkpt>
      <trkpt lat="47.28131" lon="-2.38828">
        <ele>2.2000000476837</ele>
        <time>2020-09-27T10:02:34.000Z</time>
      </trkpt>
      <trkpt lat="47.28131" lon="-2.38819">
        <ele>1.7999999523163</ele>
        <time>2020-09-27T10:02:35.000Z</time>
      </trkpt>
      <trkpt lat="47.2813" lon="-2.3881">
        <ele>1.3999999761581</ele>
        <time>2020-09-27T10:02:36.000Z</time>
      </trkpt>
      <trkpt lat="47.28129" lon="-2.38801">
        <ele>1</ele>
        <time>2020-09-27T10:02:37.000Z</time>
      </trkpt>
      <trkpt lat="47.28128" lon="-2.38792">
        <ele>0.60000002384186</ele>
        <time>2020-09-27T10:02:38.000Z</time>
      </trkpt>
      <trkpt lat="47.28126" lon="-2.38764">
        <ele>0.60000002384186</ele>
        <time>2020-09-27T10:02:41.000Z</time>
      </trkpt>
      <trkpt lat="47.28121" lon="-2.3871">
        <ele>0.60000002384186</ele>
        <time>2020-09-27T10:02:47.000Z</time>
      </trkpt>
      <trkpt lat="47.28115" lon="-2.38639">
        <ele>0.60000002384186</ele>
        <time>2020-09-27T10:02:55.000Z</time>
      </trkpt>
      <trkpt lat="47.28108" lon="-2.38565">
        <ele>0.60000002384186</ele>
        <time>2020-09-27T10:03:04.000Z</time>
      </trkpt>
      <trkpt lat="47.28098" lon="-2.38499">
        <ele>1.3999999761581</ele>
        <time>2020-09-27T10:03:12.000Z</time>
      </trkpt>
      <trkpt lat="47.28097" lon="-2.3849">
        <ele>1.7999999523163</ele>
        <time>2020-09-27T10:03:13.000Z</time>
      </trkpt>
      <trkpt lat="47.28095" lon="-2.38482">
        <ele>2.2000000476837</ele>
        <time>2020-09-27T10:03:14.000Z</time>
      </trkpt>
      <trkpt lat="47.28094" lon="-2.38473">
        <ele>2.5999999046326</ele>
        <time>2020-09-27T10:03:15.000Z</time>
      </trkpt>
      <trkpt lat="47.28086" lon="-2.38424">
        <ele>2.5999999046326</ele>
        <time>2020-09-27T10:03:21.000Z</time>
      </trkpt>
      <trkpt lat="47.28074" lon="-2.38359">
        <ele>2.5999999046326</ele>
        <time>2020-09-27T10:03:29.000Z</time>
      </trkpt>
      <trkpt lat="47.28062" lon="-2.38295">
        <ele>2.5999999046326</ele>
        <time>2020-09-27T10:03:37.000Z</time>
      </trkpt>
      <trkpt lat="47.28048" lon="-2.38219">
        <ele>2.5999999046326</ele>
        <time>2020-09-27T10:03:46.000Z</time>
      </trkpt>
      <trkpt lat="47.28037" lon="-2.38161">
        <ele>2.5999999046326</ele>
        <time>2020-09-27T10:03:53.000Z</time>
      </trkpt>
      <trkpt lat="47.28025" lon="-2.38096">
        <ele>2.5999999046326</ele>
        <time>2020-09-27T10:04:00.000Z</time>
      </trkpt>
      <trkpt lat="47.28009" lon="-2.38013">
        <ele>2.5999999046326</ele>
        <time>2020-09-27T10:04:08.000Z</time>
      </trkpt>
      <trkpt lat="47.28007" lon="-2.38002">
        <ele>2.5999999046326</ele>
        <time>2020-09-27T10:04:09.000Z</time>
      </trkpt>
      <trkpt lat="47.27992" lon="-2.37924">
        <ele>2.5999999046326</ele>
        <time>2020-09-27T10:04:16.000Z</time>
      </trkpt>
      <trkpt lat="47.27983" lon="-2.37882">
        <ele>2.5999999046326</ele>
        <time>2020-09-27T10:04:20.000Z</time>
      </trkpt>
      <trkpt lat="47.27979" lon="-2.37863">
        <ele>2.5999999046326</ele>
        <time>2020-09-27T10:04:22.000Z</time>
      </trkpt>
      <trkpt lat="47.27975" lon="-2.37837">
        <ele>2.5999999046326</ele>
        <time>2020-09-27T10:04:26.000Z</time>
      </trkpt>
      <trkpt lat="47.27967" lon="-2.37804">
        <ele>2.5999999046326</ele>
        <time>2020-09-27T10:04:32.000Z</time>
      </trkpt>
      <trkpt lat="47.27967" lon="-2.37781">
        <ele>2.5999999046326</ele>
        <time>2020-09-27T10:04:36.000Z</time>
      </trkpt>
      <trkpt lat="47.27965" lon="-2.37775">
        <ele>2.5999999046326</ele>
        <time>2020-09-27T10:04:37.000Z</time>
      </trkpt>
      <trkpt lat="47.27958" lon="-2.37757">
        <ele>2.5999999046326</ele>
        <time>2020-09-27T10:04:40.000Z</time>
      </trkpt>
      <trkpt lat="47.27948" lon="-2.37712">
        <ele>2.5999999046326</ele>
        <time>2020-09-27T10:04:47.000Z</time>
      </trkpt>
      <trkpt lat="47.27936" lon="-2.37667">
        <ele>2.5999999046326</ele>
        <time>2020-09-27T10:04:53.000Z</time>
      </trkpt>
      <trkpt lat="47.27917" lon="-2.37585">
        <ele>2.5999999046326</ele>
        <time>2020-09-27T10:05:03.000Z</time>
      </trkpt>
      <trkpt lat="47.27903" lon="-2.37526">
        <ele>2.5999999046326</ele>
        <time>2020-09-27T10:05:11.000Z</time>
      </trkpt>
      <trkpt lat="47.27898" lon="-2.37508">
        <ele>2.5999999046326</ele>
        <time>2020-09-27T10:05:16.000Z</time>
      </trkpt>
      <trkpt lat="47.27893" lon="-2.37484">
        <ele>2.5999999046326</ele>
        <time>2020-09-27T10:05:21.000Z</time>
      </trkpt>
      <trkpt lat="47.27881" lon="-2.37432">
        <ele>2.5999999046326</ele>
        <time>2020-09-27T10:05:28.000Z</time>
      </trkpt>
      <trkpt lat="47.27865" lon="-2.37363">
        <ele>2.5999999046326</ele>
        <time>2020-09-27T10:05:37.000Z</time>
      </trkpt>
      <trkpt lat="47.27847" lon="-2.37301">
        <ele>2.5999999046326</ele>
        <time>2020-09-27T10:05:45.000Z</time>
      </trkpt>
      <trkpt lat="47.27837" lon="-2.37263">
        <ele>2.5999999046326</ele>
        <time>2020-09-27T10:05:50.000Z</time>
      </trkpt>
      <trkpt lat="47.27829" lon="-2.37231">
        <ele>2.5999999046326</ele>
        <time>2020-09-27T10:05:54.000Z</time>
      </trkpt>
      <trkpt lat="47.27821" lon="-2.37201">
        <ele>2.5999999046326</ele>
        <time>2020-09-27T10:05:58.000Z</time>
      </trkpt>
      <trkpt lat="47.27816" lon="-2.37186">
        <ele>2.5999999046326</ele>
        <time>2020-09-27T10:06:00.000Z</time>
      </trkpt>
      <trkpt lat="47.27809" lon="-2.37154">
        <ele>2.5999999046326</ele>
        <time>2020-09-27T10:06:04.000Z</time>
      </trkpt>
      <trkpt lat="47.27806" lon="-2.37147">
        <ele>2.5999999046326</ele>
        <time>2020-09-27T10:06:05.000Z</time>
      </trkpt>
      <trkpt lat="47.27798" lon="-2.37114">
        <ele>2.5999999046326</ele>
        <time>2020-09-27T10:06:09.000Z</time>
      </trkpt>
      <trkpt lat="47.27779" lon="-2.37044">
        <ele>2.5999999046326</ele>
        <time>2020-09-27T10:06:17.000Z</time>
      </trkpt>
      <trkpt lat="47.27756" lon="-2.36962">
        <ele>2.5999999046326</ele>
        <time>2020-09-27T10:06:26.000Z</time>
      </trkpt>
      <trkpt lat="47.27753" lon="-2.36954">
        <ele>2.5999999046326</ele>
        <time>2020-09-27T10:06:27.000Z</time>
      </trkpt>
      <trkpt lat="47.27731" lon="-2.3688">
        <ele>2.5999999046326</ele>
        <time>2020-09-27T10:06:35.000Z</time>
      </trkpt>
      <trkpt lat="47.27726" lon="-2.36861">
        <ele>2.5999999046326</ele>
        <time>2020-09-27T10:06:37.000Z</time>
      </trkpt>
      <trkpt lat="47.27707" lon="-2.36795">
        <ele>2.5999999046326</ele>
        <time>2020-09-27T10:06:44.000Z</time>
      </trkpt>
      <trkpt lat="47.27686" lon="-2.36729">
        <ele>2.5999999046326</ele>
        <time>2020-09-27T10:06:51.000Z</time>
      </trkpt>
      <trkpt lat="47.27662" lon="-2.36661">
        <ele>2.5999999046326</ele>
        <time>2020-09-27T10:06:58.000Z</time>
      </trkpt>
      <trkpt lat="47.27644" lon="-2.36613">
        <ele>2.5999999046326</ele>
        <time>2020-09-27T10:07:03.000Z</time>
      </trkpt>
      <trkpt lat="47.27622" lon="-2.36541">
        <ele>2.5999999046326</ele>
        <time>2020-09-27T10:07:10.000Z</time>
      </trkpt>
      <trkpt lat="47.27618" lon="-2.36531">
        <ele>2.5999999046326</ele>
        <time>2020-09-27T10:07:11.000Z</time>
      </trkpt>
      <trkpt lat="47.27591" lon="-2.36458">
        <ele>2.5999999046326</ele>
        <time>2020-09-27T10:07:18.000Z</time>
      </trkpt>
      <trkpt lat="47.27583" lon="-2.36438">
        <ele>2.5999999046326</ele>
        <time>2020-09-27T10:07:20.000Z</time>
      </trkpt>
      <trkpt lat="47.27555" lon="-2.36368">
        <ele>2.5999999046326</ele>
        <time>2020-09-27T10:07:27.000Z</time>
      </trkpt>
      <trkpt lat="47.27529" lon="-2.36297">
        <ele>2.5999999046326</ele>
        <time>2020-09-27T10:07:34.000Z</time>
      </trkpt>
      <trkpt lat="47.27525" lon="-2.36287">
        <ele>2.5999999046326</ele>
        <time>2020-09-27T10:07:35.000Z</time>
      </trkpt>
      <trkpt lat="47.27498" lon="-2.36217">
        <ele>2.5999999046326</ele>
        <time>2020-09-27T10:07:42.000Z</time>
      </trkpt>
      <trkpt lat="47.27482" lon="-2.36177">
        <ele>2.5999999046326</ele>
        <time>2020-09-27T10:07:46.000Z</time>
      </trkpt>
      <trkpt lat="47.27465" lon="-2.36127">
        <ele>2.5999999046326</ele>
        <time>2020-09-27T10:07:51.000Z</time>
      </trkpt>
      <trkpt lat="47.27462" lon="-2.36118">
        <ele>2.5999999046326</ele>
        <time>2020-09-27T10:07:52.000Z</time>
      </trkpt>
      <trkpt lat="47.27455" lon="-2.361">
        <ele>2.5999999046326</ele>
        <time>2020-09-27T10:07:54.000Z</time>
      </trkpt>
      <trkpt lat="47.27446" lon="-2.36086">
        <ele>2.5999999046326</ele>
        <time>2020-09-27T10:07:56.000Z</time>
      </trkpt>
      <trkpt lat="47.27444" lon="-2.36078">
        <ele>2.5999999046326</ele>
        <time>2020-09-27T10:07:57.000Z</time>
      </trkpt>
      <trkpt lat="47.27437" lon="-2.36052">
        <ele>2.5999999046326</ele>
        <time>2020-09-27T10:08:00.000Z</time>
      </trkpt>
      <trkpt lat="47.27433" lon="-2.36044">
        <ele>2.5999999046326</ele>
        <time>2020-09-27T10:08:01.000Z</time>
      </trkpt>
      <trkpt lat="47.27415" lon="-2.36003">
        <ele>2.5999999046326</ele>
        <time>2020-09-27T10:08:06.000Z</time>
      </trkpt>
      <trkpt lat="47.27386" lon="-2.35931">
        <ele>2.5999999046326</ele>
        <time>2020-09-27T10:08:14.000Z</time>
      </trkpt>
      <trkpt lat="47.27382" lon="-2.35922">
        <ele>2.5999999046326</ele>
        <time>2020-09-27T10:08:15.000Z</time>
      </trkpt>
      <trkpt lat="47.27353" lon="-2.35845">
        <ele>2.5999999046326</ele>
        <time>2020-09-27T10:08:23.000Z</time>
      </trkpt>
      <trkpt lat="47.27328" lon="-2.35781">
        <ele>2.5999999046326</ele>
        <time>2020-09-27T10:08:30.000Z</time>
      </trkpt>
      <trkpt lat="47.27319" lon="-2.35754">
        <ele>2.5999999046326</ele>
        <time>2020-09-27T10:08:33.000Z</time>
      </trkpt>
      <trkpt lat="47.2731" lon="-2.35739">
        <ele>2.5999999046326</ele>
        <time>2020-09-27T10:08:35.000Z</time>
      </trkpt>
      <trkpt lat="47.27306" lon="-2.3573">
        <ele>2.5999999046326</ele>
        <time>2020-09-27T10:08:36.000Z</time>
      </trkpt>
      <trkpt lat="47.27301" lon="-2.35711">
        <ele>2.2000000476837</ele>
        <time>2020-09-27T10:08:38.000Z</time>
      </trkpt>
      <trkpt lat="47.27297" lon="-2.35702">
        <ele>1.7999999523163</ele>
        <time>2020-09-27T10:08:39.000Z</time>
      </trkpt>
      <trkpt lat="47.27293" lon="-2.35694">
        <ele>1.3999999761581</ele>
        <time>2020-09-27T10:08:40.000Z</time>
      </trkpt>
      <trkpt lat="47.27288" lon="-2.35686">
        <ele>1</ele>
        <time>2020-09-27T10:08:41.000Z</time>
      </trkpt>
      <trkpt lat="47.27283" lon="-2.35677">
        <ele>0.60000002384186</ele>
        <time>2020-09-27T10:08:42.000Z</time>
      </trkpt>
      <trkpt lat="47.27279" lon="-2.35668">
        <ele>0.60000002384186</ele>
        <time>2020-09-27T10:08:43.000Z</time>
      </trkpt>
      <trkpt lat="47.27275" lon="-2.35659">
        <ele>0.60000002384186</ele>
        <time>2020-09-27T10:08:44.000Z</time>
      </trkpt>
      <trkpt lat="47.27244" lon="-2.35589">
        <ele>0.60000002384186</ele>
        <time>2020-09-27T10:08:52.000Z</time>
      </trkpt>
      <trkpt lat="47.27213" lon="-2.35518">
        <ele>0.60000002384186</ele>
        <time>2020-09-27T10:09:00.000Z</time>
      </trkpt>
      <trkpt lat="47.27209" lon="-2.3551">
        <ele>0.60000002384186</ele>
        <time>2020-09-27T10:09:01.000Z</time>
      </trkpt>
      <trkpt lat="47.27172" lon="-2.3544">
        <ele>0.60000002384186</ele>
        <time>2020-09-27T10:09:09.000Z</time>
      </trkpt>
      <trkpt lat="47.27139" lon="-2.35377">
        <ele>0.60000002384186</ele>
        <time>2020-09-27T10:09:16.000Z</time>
      </trkpt>
      <trkpt lat="47.27123" lon="-2.3535">
        <ele>0.60000002384186</ele>
        <time>2020-09-27T10:09:19.000Z</time>
      </trkpt>
      <trkpt lat="47.27086" lon="-2.35291">
        <ele>0.60000002384186</ele>
        <time>2020-09-27T10:09:26.000Z</time>
      </trkpt>
      <trkpt lat="47.27048" lon="-2.35232">
        <ele>0.60000002384186</ele>
        <time>2020-09-27T10:09:33.000Z</time>
      </trkpt>
      <trkpt lat="47.27031" lon="-2.35207">
        <ele>0.60000002384186</ele>
        <time>2020-09-27T10:09:36.000Z</time>
      </trkpt>
      <trkpt lat="47.26993" lon="-2.35148">
        <ele>0.60000002384186</ele>
        <time>2020-09-27T10:09:43.000Z</time>
      </trkpt>
      <trkpt lat="47.26977" lon="-2.35123">
        <ele>0.60000002384186</ele>
        <time>2020-09-27T10:09:46.000Z</time>
      </trkpt>
      <trkpt lat="47.26939" lon="-2.35065">
        <ele>0.60000002384186</ele>
        <time>2020-09-27T10:09:53.000Z</time>
      </trkpt>
      <trkpt lat="47.26928" lon="-2.3505">
        <ele>0.60000002384186</ele>
        <time>2020-09-27T10:09:55.000Z</time>
      </trkpt>
      <trkpt lat="47.26888" lon="-2.34988">
        <ele>0.60000002384186</ele>
        <time>2020-09-27T10:10:03.000Z</time>
      </trkpt>
      <trkpt lat="47.26849" lon="-2.34928">
        <ele>0.60000002384186</ele>
        <time>2020-09-27T10:10:11.000Z</time>
      </trkpt>
      <trkpt lat="47.26815" lon="-2.34879">
        <ele>0.60000002384186</ele>
        <time>2020-09-27T10:10:18.000Z</time>
      </trkpt>
      <trkpt lat="47.26774" lon="-2.3482">
        <ele>0.60000002384186</ele>
        <time>2020-09-27T10:10:27.000Z</time>
      </trkpt>
      <trkpt lat="47.26737" lon="-2.34772">
        <ele>0.60000002384186</ele>
        <time>2020-09-27T10:10:34.000Z</time>
      </trkpt>
      <trkpt lat="47.26691" lon="-2.34717">
        <ele>0.60000002384186</ele>
        <time>2020-09-27T10:10:42.000Z</time>
      </trkpt>
      <trkpt lat="47.26685" lon="-2.34709">
        <ele>0.60000002384186</ele>
        <time>2020-09-27T10:10:43.000Z</time>
      </trkpt>
      <trkpt lat="47.2664" lon="-2.34655">
        <ele>0.60000002384186</ele>
        <time>2020-09-27T10:10:51.000Z</time>
      </trkpt>
      <trkpt lat="47.26608" lon="-2.34614">
        <ele>0.60000002384186</ele>
        <time>2020-09-27T10:10:57.000Z</time>
      </trkpt>
      <trkpt lat="47.26563" lon="-2.34565">
        <ele>0.60000002384186</ele>
        <time>2020-09-27T10:11:05.000Z</time>
      </trkpt>
      <trkpt lat="47.26558" lon="-2.34559">
        <ele>0.60000002384186</ele>
        <time>2020-09-27T10:11:06.000Z</time>
      </trkpt>
      <trkpt lat="47.26511" lon="-2.34516">
        <ele>0.60000002384186</ele>
        <time>2020-09-27T10:11:14.000Z</time>
      </trkpt>
      <trkpt lat="47.26471" lon="-2.34489">
        <ele>0.60000002384186</ele>
        <time>2020-09-27T10:11:20.000Z</time>
      </trkpt>
      <trkpt lat="47.26442" lon="-2.34468">
        <ele>0.60000002384186</ele>
        <time>2020-09-27T10:11:25.000Z</time>
      </trkpt>
      <trkpt lat="47.26437" lon="-2.34464">
        <ele>0.60000002384186</ele>
        <time>2020-09-27T10:11:26.000Z</time>
      </trkpt>
      <trkpt lat="47.2641" lon="-2.3444">
        <ele>0.60000002384186</ele>
        <time>2020-09-27T10:11:31.000Z</time>
      </trkpt>
      <trkpt lat="47.26366" lon="-2.34403">
        <ele>0.60000002384186</ele>
        <time>2020-09-27T10:11:38.000Z</time>
      </trkpt>
      <trkpt lat="47.26334" lon="-2.34379">
        <ele>0.60000002384186</ele>
        <time>2020-09-27T10:11:43.000Z</time>
      </trkpt>
      <trkpt lat="47.26327" lon="-2.34377">
        <ele>0.60000002384186</ele>
        <time>2020-09-27T10:11:44.000Z</time>
      </trkpt>
      <trkpt lat="47.26321" lon="-2.34371">
        <ele>0.60000002384186</ele>
        <time>2020-09-27T10:11:45.000Z</time>
      </trkpt>
      <trkpt lat="47.26312" lon="-2.34355">
        <ele>0.60000002384186</ele>
        <time>2020-09-27T10:11:47.000Z</time>
      </trkpt>
      <trkpt lat="47.263" lon="-2.34343">
        <ele>0.60000002384186</ele>
        <time>2020-09-27T10:11:49.000Z</time>
      </trkpt>
      <trkpt lat="47.26289" lon="-2.34332">
        <ele>0.60000002384186</ele>
        <time>2020-09-27T10:11:51.000Z</time>
      </trkpt>
      <trkpt lat="47.26247" lon="-2.34286">
        <ele>0.60000002384186</ele>
        <time>2020-09-27T10:11:58.000Z</time>
      </trkpt>
      <trkpt lat="47.26198" lon="-2.34237">
        <ele>0.60000002384186</ele>
        <time>2020-09-27T10:12:06.000Z</time>
      </trkpt>
      <trkpt lat="47.26192" lon="-2.3423">
        <ele>0.60000002384186</ele>
        <time>2020-09-27T10:12:07.000Z</time>
      </trkpt>
      <trkpt lat="47.26153" lon="-2.34192">
        <ele>0.60000002384186</ele>
        <time>2020-09-27T10:12:14.000Z</time>
      </trkpt>
      <trkpt lat="47.26146" lon="-2.34187">
        <ele>0.60000002384186</ele>
        <time>2020-09-27T10:12:15.000Z</time>
      </trkpt>
      <trkpt lat="47.26126" lon="-2.34176">
        <ele>0.60000002384186</ele>
        <time>2020-09-27T10:12:18.000Z</time>
      </trkpt>
      <trkpt lat="47.26121" lon="-2.34169">
        <ele>0.60000002384186</ele>
        <time>2020-09-27T10:12:19.000Z</time>
      </trkpt>
      <trkpt lat="47.26108" lon="-2.34159">
        <ele>0.60000002384186</ele>
        <time>2020-09-27T10:12:21.000Z</time>
      </trkpt>
      <trkpt lat="47.26101" lon="-2.34155">
        <ele>0.60000002384186</ele>
        <time>2020-09-27T10:12:22.000Z</time>
      </trkpt>
      <trkpt lat="47.26043" lon="-2.34127">
        <ele>0.60000002384186</ele>
        <time>2020-09-27T10:12:30.000Z</time>
      </trkpt>
      <trkpt lat="47.26022" lon="-2.34116">
        <ele>0.60000002384186</ele>
        <time>2020-09-27T10:12:33.000Z</time>
      </trkpt>
      <trkpt lat="47.25967" lon="-2.34089">
        <ele>0.60000002384186</ele>
        <time>2020-09-27T10:12:41.000Z</time>
      </trkpt>
      <trkpt lat="47.25961" lon="-2.34086">
        <ele>0.60000002384186</ele>
        <time>2020-09-27T10:12:42.000Z</time>
      </trkpt>
      <trkpt lat="47.25932" lon="-2.34073">
        <ele>0.60000002384186</ele>
        <time>2020-09-27T10:12:47.000Z</time>
      </trkpt>
      <trkpt lat="47.25925" lon="-2.3407">
        <ele>0.20000000298023</ele>
        <time>2020-09-27T10:12:49.000Z</time>
      </trkpt>
      <trkpt lat="47.25921" lon="-2.34069">
        <ele>-0.20000000298023</ele>
        <time>2020-09-27T10:12:50.000Z</time>
      </trkpt>
      <trkpt lat="47.25916" lon="-2.34068">
        <ele>-0.60000002384186</ele>
        <time>2020-09-27T10:12:51.000Z</time>
      </trkpt>
      <trkpt lat="47.25911" lon="-2.34067">
        <ele>-1.2000000476837</ele>
        <time>2020-09-27T10:12:52.000Z</time>
      </trkpt>
      <trkpt lat="47.25906" lon="-2.34065">
        <ele>-1.6000000238419</ele>
        <time>2020-09-27T10:12:53.000Z</time>
      </trkpt>
      <trkpt lat="47.25902" lon="-2.34058">
        <ele>-1.6000000238419</ele>
        <time>2020-09-27T10:12:54.000Z</time>
      </trkpt>
      <trkpt lat="47.259" lon="-2.3405">
        <ele>-1.6000000238419</ele>
        <time>2020-09-27T10:12:55.000Z</time>
      </trkpt>
      <trkpt lat="47.25904" lon="-2.34026">
        <ele>-1.6000000238419</ele>
        <time>2020-09-27T10:12:58.000Z</time>
      </trkpt>
      <trkpt lat="47.25908" lon="-2.34019">
        <ele>-1.6000000238419</ele>
        <time>2020-09-27T10:12:59.000Z</time>
      </trkpt>
      <trkpt lat="47.25915" lon="-2.33993">
        <ele>-1.6000000238419</ele>
        <time>2020-09-27T10:13:02.000Z</time>
      </trkpt>
      <trkpt lat="47.25918" lon="-2.33985">
        <ele>-1.6000000238419</ele>
        <time>2020-09-27T10:13:03.000Z</time>
      </trkpt>
      <trkpt lat="47.2594" lon="-2.33936">
        <ele>-1.6000000238419</ele>
        <time>2020-09-27T10:13:09.000Z</time>
      </trkpt>
      <trkpt lat="47.25947" lon="-2.33923">
        <ele>-1.6000000238419</ele>
        <time>2020-09-27T10:13:11.000Z</time>
      </trkpt>
      <trkpt lat="47.25949" lon="-2.33917">
        <ele>-1.6000000238419</ele>
        <time>2020-09-27T10:13:12.000Z</time>
      </trkpt>
      <trkpt lat="47.25954" lon="-2.33898">
        <ele>-1.6000000238419</ele>
        <time>2020-09-27T10:13:16.000Z</time>
      </trkpt>
      <trkpt lat="47.25957" lon="-2.33887">
        <ele>-1.6000000238419</ele>
        <time>2020-09-27T10:13:18.000Z</time>
      </trkpt>
      <trkpt lat="47.25961" lon="-2.33873">
        <ele>-1.6000000238419</ele>
        <time>2020-09-27T10:13:20.000Z</time>
      </trkpt>
      <trkpt lat="47.25979" lon="-2.33816">
        <ele>-1.6000000238419</ele>
        <time>2020-09-27T10:13:27.000Z</time>
      </trkpt>
      <trkpt lat="47.25999" lon="-2.33755">
        <ele>-1.6000000238419</ele>
        <time>2020-09-27T10:13:34.000Z</time>
      </trkpt>
      <trkpt lat="47.26021" lon="-2.33686">
        <ele>-1.6000000238419</ele>
        <time>2020-09-27T10:13:42.000Z</time>
      </trkpt>
      <trkpt lat="47.26024" lon="-2.33671">
        <ele>-1.6000000238419</ele>
        <time>2020-09-27T10:13:44.000Z</time>
      </trkpt>
      <trkpt lat="47.2603" lon="-2.33664">
        <ele>-1.6000000238419</ele>
        <time>2020-09-27T10:13:46.000Z</time>
      </trkpt>
      <trkpt lat="47.26043" lon="-2.33663">
        <ele>-1.6000000238419</ele>
        <time>2020-09-27T10:13:50.000Z</time>
      </trkpt>
      <trkpt lat="47.26054" lon="-2.33661">
        <ele>-1.6000000238419</ele>
        <time>2020-09-27T10:13:53.000Z</time>
      </trkpt>
      <trkpt lat="47.2606" lon="-2.33646">
        <ele>-1.6000000238419</ele>
        <time>2020-09-27T10:13:56.000Z</time>
      </trkpt>
      <trkpt lat="47.26075" lon="-2.33601">
        <ele>-1.6000000238419</ele>
        <time>2020-09-27T10:14:03.000Z</time>
      </trkpt>
      <trkpt lat="47.2608" lon="-2.33587">
        <ele>-1.6000000238419</ele>
        <time>2020-09-27T10:14:05.000Z</time>
      </trkpt>
      <trkpt lat="47.26091" lon="-2.33556">
        <ele>-1.6000000238419</ele>
        <time>2020-09-27T10:14:10.000Z</time>
      </trkpt>
      <trkpt lat="47.26111" lon="-2.335">
        <ele>-1.6000000238419</ele>
        <time>2020-09-27T10:14:19.000Z</time>
      </trkpt>
      <trkpt lat="47.26115" lon="-2.33487">
        <ele>-1.6000000238419</ele>
        <time>2020-09-27T10:14:21.000Z</time>
      </trkpt>
      <trkpt lat="47.26123" lon="-2.33466">
        <ele>-1.6000000238419</ele>
        <time>2020-09-27T10:14:25.000Z</time>
      </trkpt>
      <trkpt lat="47.26136" lon="-2.33434">
        <ele>-1.6000000238419</ele>
        <time>2020-09-27T10:14:32.000Z</time>
      </trkpt>
      <trkpt lat="47.26131" lon="-2.33418">
        <ele>-1.6000000238419</ele>
        <time>2020-09-27T10:14:35.000Z</time>
      </trkpt>
      <trkpt lat="47.26129" lon="-2.33414">
        <ele>-1.6000000238419</ele>
        <time>2020-09-27T10:14:36.000Z</time>
      </trkpt>
      <trkpt lat="47.26126" lon="-2.3341">
        <ele>-1.6000000238419</ele>
        <time>2020-09-27T10:14:37.000Z</time>
      </trkpt>
      <trkpt lat="47.2611" lon="-2.33395">
        <ele>-1.6000000238419</ele>
        <time>2020-09-27T10:14:41.000Z</time>
      </trkpt>
      <trkpt lat="47.26095" lon="-2.33376">
        <ele>-1.6000000238419</ele>
        <time>2020-09-27T10:14:45.000Z</time>
      </trkpt>
      <trkpt lat="47.2609" lon="-2.33373">
        <ele>-1.6000000238419</ele>
        <time>2020-09-27T10:14:46.000Z</time>
      </trkpt>
      <trkpt lat="47.26078" lon="-2.3336">
        <ele>-1.6000000238419</ele>
        <time>2020-09-27T10:14:49.000Z</time>
      </trkpt>
      <trkpt lat="47.26072" lon="-2.33346">
        <ele>-1.6000000238419</ele>
        <time>2020-09-27T10:14:51.000Z</time>
      </trkpt>
      <trkpt lat="47.26066" lon="-2.33323">
        <ele>-1.6000000238419</ele>
        <time>2020-09-27T10:14:54.000Z</time>
      </trkpt>
      <trkpt lat="47.26061" lon="-2.33309">
        <ele>-1.6000000238419</ele>
        <time>2020-09-27T10:14:56.000Z</time>
      </trkpt>
      <trkpt lat="47.26054" lon="-2.33288">
        <ele>-1.6000000238419</ele>
        <time>2020-09-27T10:14:59.000Z</time>
      </trkpt>
      <trkpt lat="47.26034" lon="-2.33228">
        <ele>-1.6000000238419</ele>
        <time>2020-09-27T10:15:07.000Z</time>
      </trkpt>
      <trkpt lat="47.26016" lon="-2.33178">
        <ele>-1.6000000238419</ele>
        <time>2020-09-27T10:15:14.000Z</time>
      </trkpt>
      <trkpt lat="47.26" lon="-2.33134">
        <ele>-1.6000000238419</ele>
        <time>2020-09-27T10:15:21.000Z</time>
      </trkpt>
      <trkpt lat="47.2599" lon="-2.33107">
        <ele>-1.6000000238419</ele>
        <time>2020-09-27T10:15:25.000Z</time>
      </trkpt>
      <trkpt lat="47.25985" lon="-2.33094">
        <ele>-1.6000000238419</ele>
        <time>2020-09-27T10:15:27.000Z</time>
      </trkpt>
      <trkpt lat="47.2597" lon="-2.33041">
        <ele>-1.6000000238419</ele>
        <time>2020-09-27T10:15:34.000Z</time>
      </trkpt>
      <trkpt lat="47.25949" lon="-2.32977">
        <ele>-1.6000000238419</ele>
        <time>2020-09-27T10:15:43.000Z</time>
      </trkpt>
      <trkpt lat="47.25934" lon="-2.32933">
        <ele>-2</ele>
        <time>2020-09-27T10:15:49.000Z</time>
      </trkpt>
      <trkpt lat="47.25931" lon="-2.32926">
        <ele>-2.4000000953674</ele>
        <time>2020-09-27T10:15:50.000Z</time>
      </trkpt>
      <trkpt lat="47.25928" lon="-2.32919">
        <ele>-2.7999999523163</ele>
        <time>2020-09-27T10:15:51.000Z</time>
      </trkpt>
      <trkpt lat="47.25925" lon="-2.32911">
        <ele>-3.2000000476837</ele>
        <time>2020-09-27T10:15:52.000Z</time>
      </trkpt>
      <trkpt lat="47.25922" lon="-2.32904">
        <ele>-3.5999999046326</ele>
        <time>2020-09-27T10:15:53.000Z</time>
      </trkpt>
      <trkpt lat="47.25906" lon="-2.32859">
        <ele>-3.5999999046326</ele>
        <time>2020-09-27T10:15:59.000Z</time>
      </trkpt>
      <trkpt lat="47.25881" lon="-2.32788">
        <ele>-3.5999999046326</ele>
        <time>2020-09-27T10:16:09.000Z</time>
      </trkpt>
      <trkpt lat="47.25879" lon="-2.32781">
        <ele>-3.5999999046326</ele>
        <time>2020-09-27T10:16:10.000Z</time>
      </trkpt>
      <trkpt lat="47.25863" lon="-2.32725">
        <ele>-3.5999999046326</ele>
        <time>2020-09-27T10:16:18.000Z</time>
      </trkpt>
      <trkpt lat="47.2585" lon="-2.32677">
        <ele>-3.5999999046326</ele>
        <time>2020-09-27T10:16:25.000Z</time>
      </trkpt>
      <trkpt lat="47.25841" lon="-2.32642">
        <ele>-3.5999999046326</ele>
        <time>2020-09-27T10:16:30.000Z</time>
      </trkpt>
      <trkpt lat="47.25838" lon="-2.32628">
        <ele>-3.5999999046326</ele>
        <time>2020-09-27T10:16:32.000Z</time>
      </trkpt>
      <trkpt lat="47.25833" lon="-2.32605">
        <ele>-3.5999999046326</ele>
        <time>2020-09-27T10:16:35.000Z</time>
      </trkpt>
      <trkpt lat="47.25825" lon="-2.32585">
        <ele>-3.5999999046326</ele>
        <time>2020-09-27T10:16:38.000Z</time>
      </trkpt>
      <trkpt lat="47.25823" lon="-2.32578">
        <ele>-3.5999999046326</ele>
        <time>2020-09-27T10:16:39.000Z</time>
      </trkpt>
      <trkpt lat="47.25814" lon="-2.32543">
        <ele>-3.5999999046326</ele>
        <time>2020-09-27T10:16:44.000Z</time>
      </trkpt>
      <trkpt lat="47.25805" lon="-2.32506">
        <ele>-3.5999999046326</ele>
        <time>2020-09-27T10:16:50.000Z</time>
      </trkpt>
      <trkpt lat="47.25802" lon="-2.32478">
        <ele>-3.5999999046326</ele>
        <time>2020-09-27T10:16:55.000Z</time>
      </trkpt>
      <trkpt lat="47.25805" lon="-2.32474">
        <ele>-3.5999999046326</ele>
        <time>2020-09-27T10:16:56.000Z</time>
      </trkpt>
      <trkpt lat="47.25815" lon="-2.32471">
        <ele>-3.2000000476837</ele>
        <time>2020-09-27T10:16:59.000Z</time>
      </trkpt>
      <trkpt lat="47.25818" lon="-2.32471">
        <ele>-2.7999999523163</ele>
        <time>2020-09-27T10:17:00.000Z</time>
      </trkpt>
      <trkpt lat="47.25822" lon="-2.32472">
        <ele>-2.4000000953674</ele>
        <time>2020-09-27T10:17:01.000Z</time>
      </trkpt>
      <trkpt lat="47.25826" lon="-2.32473">
        <ele>-2</ele>
        <time>2020-09-27T10:17:02.000Z</time>
      </trkpt>
      <trkpt lat="47.25829" lon="-2.32475">
        <ele>-1.3999999761581</ele>
        <time>2020-09-27T10:17:03.000Z</time>
      </trkpt>
      <trkpt lat="47.25836" lon="-2.3248">
        <ele>-1.3999999761581</ele>
        <time>2020-09-27T10:17:05.000Z</time>
      </trkpt>
      <trkpt lat="47.2584" lon="-2.32481">
        <ele>-1.3999999761581</ele>
        <time>2020-09-27T10:17:06.000Z</time>
      </trkpt>
      <trkpt lat="47.25857" lon="-2.32482">
        <ele>-1.3999999761581</ele>
        <time>2020-09-27T10:17:10.000Z</time>
      </trkpt>
      <trkpt lat="47.25886" lon="-2.32482">
        <ele>-1.3999999761581</ele>
        <time>2020-09-27T10:17:17.000Z</time>
      </trkpt>
      <trkpt lat="47.25894" lon="-2.32469">
        <ele>-1.3999999761581</ele>
        <time>2020-09-27T10:17:21.000Z</time>
      </trkpt>
      <trkpt lat="47.25906" lon="-2.32449">
        <ele>-1.3999999761581</ele>
        <time>2020-09-27T10:17:26.000Z</time>
      </trkpt>
      <trkpt lat="47.25921" lon="-2.32428">
        <ele>-1.3999999761581</ele>
        <time>2020-09-27T10:17:31.000Z</time>
      </trkpt>
      <trkpt lat="47.25924" lon="-2.32423">
        <ele>-1.3999999761581</ele>
        <time>2020-09-27T10:17:32.000Z</time>
      </trkpt>
      <trkpt lat="47.25949" lon="-2.32393">
        <ele>-1.3999999761581</ele>
        <time>2020-09-27T10:17:39.000Z</time>
      </trkpt>
      <trkpt lat="47.25975" lon="-2.32361">
        <ele>-1.3999999761581</ele>
        <time>2020-09-27T10:17:46.000Z</time>
      </trkpt>
      <trkpt lat="47.26003" lon="-2.32326">
        <ele>-1.3999999761581</ele>
        <time>2020-09-27T10:17:54.000Z</time>
      </trkpt>
      <trkpt lat="47.26033" lon="-2.32288">
        <ele>-1.3999999761581</ele>
        <time>2020-09-27T10:18:03.000Z</time>
      </trkpt>
      <trkpt lat="47.26059" lon="-2.3226">
        <ele>-1.3999999761581</ele>
        <time>2020-09-27T10:18:10.000Z</time>
      </trkpt>
      <trkpt lat="47.26065" lon="-2.32252">
        <ele>-1.3999999761581</ele>
        <time>2020-09-27T10:18:12.000Z</time>
      </trkpt>
      <trkpt lat="47.26076" lon="-2.3224">
        <ele>-1.3999999761581</ele>
        <time>2020-09-27T10:18:15.000Z</time>
      </trkpt>
      <trkpt lat="47.26098" lon="-2.32207">
        <ele>-1.3999999761581</ele>
        <time>2020-09-27T10:18:22.000Z</time>
      </trkpt>
      <trkpt lat="47.26116" lon="-2.32165">
        <ele>-1.3999999761581</ele>
        <time>2020-09-27T10:18:29.000Z</time>
      </trkpt>
      <trkpt lat="47.26134" lon="-2.32116">
        <ele>-1.3999999761581</ele>
        <time>2020-09-27T10:18:37.000Z</time>
      </trkpt>
      <trkpt lat="47.26143" lon="-2.32084">
        <ele>-1.3999999761581</ele>
        <time>2020-09-27T10:18:42.000Z</time>
      </trkpt>
      <trkpt lat="47.26148" lon="-2.32068">
        <ele>-1.3999999761581</ele>
        <time>2020-09-27T10:18:45.000Z</time>
      </trkpt>
      <trkpt lat="47.26161" lon="-2.32034">
        <ele>-1.3999999761581</ele>
        <time>2020-09-27T10:18:52.000Z</time>
      </trkpt>
      <trkpt lat="47.26171" lon="-2.32015">
        <ele>-1.3999999761581</ele>
        <time>2020-09-27T10:18:57.000Z</time>
      </trkpt>
      <trkpt lat="47.26174" lon="-2.32015">
        <ele>-1.3999999761581</ele>
        <time>2020-09-27T10:18:58.000Z</time>
      </trkpt>
      <trkpt lat="47.26194" lon="-2.32019">
        <ele>-1.3999999761581</ele>
        <time>2020-09-27T10:19:06.000Z</time>
      </trkpt>
      <trkpt lat="47.26199" lon="-2.32017">
        <ele>-1.3999999761581</ele>
        <time>2020-09-27T10:19:09.000Z</time>
      </trkpt>
      <trkpt lat="47.262" lon="-2.32015">
        <ele>-1.3999999761581</ele>
        <time>2020-09-27T10:19:10.000Z</time>
      </trkpt>
      <trkpt lat="47.26204" lon="-2.32001">
        <ele>-1.3999999761581</ele>
        <time>2020-09-27T10:19:15.000Z</time>
      </trkpt>
      <trkpt lat="47.26213" lon="-2.31994">
        <ele>-1.3999999761581</ele>
        <time>2020-09-27T10:19:19.000Z</time>
      </trkpt>
      <trkpt lat="47.26215" lon="-2.3199">
        <ele>-1.3999999761581</ele>
        <time>2020-09-27T10:19:20.000Z</time>
      </trkpt>
      <trkpt lat="47.26234" lon="-2.31971">
        <ele>-1.3999999761581</ele>
        <time>2020-09-27T10:19:26.000Z</time>
      </trkpt>
      <trkpt lat="47.26243" lon="-2.31964">
        <ele>-1.3999999761581</ele>
        <time>2020-09-27T10:19:29.000Z</time>
      </trkpt>
      <trkpt lat="47.26245" lon="-2.31959">
        <ele>-1.3999999761581</ele>
        <time>2020-09-27T10:19:30.000Z</time>
      </trkpt>
      <trkpt lat="47.26254" lon="-2.31943">
        <ele>-1.3999999761581</ele>
        <time>2020-09-27T10:19:34.000Z</time>
      </trkpt>
      <trkpt lat="47.26259" lon="-2.31935">
        <ele>-1.3999999761581</ele>
        <time>2020-09-27T10:19:36.000Z</time>
      </trkpt>
      <trkpt lat="47.26267" lon="-2.31918">
        <ele>-1.3999999761581</ele>
        <time>2020-09-27T10:19:41.000Z</time>
      </trkpt>
      <trkpt lat="47.26281" lon="-2.31904">
        <ele>-1.3999999761581</ele>
        <time>2020-09-27T10:19:45.000Z</time>
      </trkpt>
      <trkpt lat="47.26297" lon="-2.31887">
        <ele>-1.3999999761581</ele>
        <time>2020-09-27T10:19:50.000Z</time>
      </trkpt>
      <trkpt lat="47.26302" lon="-2.31859">
        <ele>-1.3999999761581</ele>
        <time>2020-09-27T10:19:55.000Z</time>
      </trkpt>
      <trkpt lat="47.26303" lon="-2.31844">
        <ele>-1.3999999761581</ele>
        <time>2020-09-27T10:19:57.000Z</time>
      </trkpt>
      <trkpt lat="47.26303" lon="-2.31823">
        <ele>-1.3999999761581</ele>
        <time>2020-09-27T10:20:00.000Z</time>
      </trkpt>
      <trkpt lat="47.26305" lon="-2.31778">
        <ele>-1.3999999761581</ele>
        <time>2020-09-27T10:20:07.000Z</time>
      </trkpt>
      <trkpt lat="47.26303" lon="-2.31746">
        <ele>-1.3999999761581</ele>
        <time>2020-09-27T10:20:12.000Z</time>
      </trkpt>
      <trkpt lat="47.26303" lon="-2.31722">
        <ele>-1.3999999761581</ele>
        <time>2020-09-27T10:20:16.000Z</time>
      </trkpt>
      <trkpt lat="47.26306" lon="-2.31717">
        <ele>-1.3999999761581</ele>
        <time>2020-09-27T10:20:17.000Z</time>
      </trkpt>
      <trkpt lat="47.26315" lon="-2.3171">
        <ele>-1.3999999761581</ele>
        <time>2020-09-27T10:20:20.000Z</time>
      </trkpt>
      <trkpt lat="47.26319" lon="-2.31708">
        <ele>-1.3999999761581</ele>
        <time>2020-09-27T10:20:21.000Z</time>
      </trkpt>
      <trkpt lat="47.26332" lon="-2.31698">
        <ele>-1.3999999761581</ele>
        <time>2020-09-27T10:20:25.000Z</time>
      </trkpt>
      <trkpt lat="47.26333" lon="-2.31693">
        <ele>-1.3999999761581</ele>
        <time>2020-09-27T10:20:26.000Z</time>
      </trkpt>
      <trkpt lat="47.26337" lon="-2.31687">
        <ele>-1</ele>
        <time>2020-09-27T10:20:28.000Z</time>
      </trkpt>
      <trkpt lat="47.2634" lon="-2.31686">
        <ele>-0.20000000298023</ele>
        <time>2020-09-27T10:20:29.000Z</time>
      </trkpt>
      <trkpt lat="47.26343" lon="-2.31684">
        <ele>0.20000000298023</ele>
        <time>2020-09-27T10:20:30.000Z</time>
      </trkpt>
      <trkpt lat="47.26347" lon="-2.31682">
        <ele>0.60000002384186</ele>
        <time>2020-09-27T10:20:31.000Z</time>
      </trkpt>
      <trkpt lat="47.26357" lon="-2.31678">
        <ele>0.60000002384186</ele>
        <time>2020-09-27T10:20:34.000Z</time>
      </trkpt>
      <trkpt lat="47.26361" lon="-2.31676">
        <ele>1</ele>
        <time>2020-09-27T10:20:35.000Z</time>
      </trkpt>
      <trkpt lat="47.26365" lon="-2.31675">
        <ele>1.3999999761581</ele>
        <time>2020-09-27T10:20:36.000Z</time>
      </trkpt>
      <trkpt lat="47.26368" lon="-2.31673">
        <ele>2</ele>
        <time>2020-09-27T10:20:37.000Z</time>
      </trkpt>
      <trkpt lat="47.26372" lon="-2.31672">
        <ele>2.4000000953674</ele>
        <time>2020-09-27T10:20:38.000Z</time>
      </trkpt>
      <trkpt lat="47.26375" lon="-2.3167">
        <ele>2.7999999523163</ele>
        <time>2020-09-27T10:20:39.000Z</time>
      </trkpt>
      <trkpt lat="47.26382" lon="-2.31666">
        <ele>2.7999999523163</ele>
        <time>2020-09-27T10:20:41.000Z</time>
      </trkpt>
      <trkpt lat="47.26404" lon="-2.31652">
        <ele>2.7999999523163</ele>
        <time>2020-09-27T10:20:49.000Z</time>
      </trkpt>
      <trkpt lat="47.26412" lon="-2.31645">
        <ele>2.7999999523163</ele>
        <time>2020-09-27T10:20:52.000Z</time>
      </trkpt>
      <trkpt lat="47.26412" lon="-2.31639">
        <ele>2.7999999523163</ele>
        <time>2020-09-27T10:20:54.000Z</time>
      </trkpt>
      <trkpt lat="47.26412" lon="-2.31631">
        <ele>2.7999999523163</ele>
        <time>2020-09-27T10:20:56.000Z</time>
      </trkpt>
      <trkpt lat="47.26412" lon="-2.31606">
        <ele>2.7999999523163</ele>
        <time>2020-09-27T10:21:01.000Z</time>
      </trkpt>
      <trkpt lat="47.26411" lon="-2.31585">
        <ele>2.7999999523163</ele>
        <time>2020-09-27T10:21:06.000Z</time>
      </trkpt>
      <trkpt lat="47.26412" lon="-2.3156">
        <ele>2.7999999523163</ele>
        <time>2020-09-27T10:21:12.000Z</time>
      </trkpt>
      <trkpt lat="47.26412" lon="-2.31553">
        <ele>2.7999999523163</ele>
        <time>2020-09-27T10:21:14.000Z</time>
      </trkpt>
      <trkpt lat="47.26415" lon="-2.31551">
        <ele>2.7999999523163</ele>
        <time>2020-09-27T10:21:16.000Z</time>
      </trkpt>
      <trkpt lat="47.26418" lon="-2.31553">
        <ele>2.7999999523163</ele>
        <time>2020-09-27T10:21:20.000Z</time>
      </trkpt>
    </trkseg>
  </trk>
</gpx>